Site Date LOGGERID PROGID AIRTEMP_MEAN_150_0_04 AIRTEMP_MEAN_250_0_03 AIRTEMP_MEAN_350_0_02 AIRTEMP_MEAN_450_0_01 AIRTEMP_MEAN_350_0_08 RELHUM_MEAN_150_0_04 RELHUM_MEAN_450_0_01 DEWPT_MEAN_150_0_04 DEWPT_MEAN_450_0_01 SW_IN_MEAN_600_0_01 SW_OUT_MEAN_600_0_01 SOILTEMP_MEAN_0_10_01 SOILTEMP_MEAN_0_20_02 SOILTEMP_MEAN_0_50_03 SOILTEMP_MEAN_0_100_04 BATTERY_INST_0_0_01 AIRTEMP_MAX_150_0_04 AIRTEMP_MAX_250_0_03 AIRTEMP_MAX_350_0_02 AIRTEMP_MAX_450_0_01 AIRTEMP_MAX_350_0_08 DEWPT_MAX_150_0_04 DEWPT_MAX_450_0_01 SW_IN_MAX_600_0_01 SW_OUT_MAX_600_0_01 WSPD_PRO_MAX_1000_0_01 WSPD_SNC_MAX_1000_0_02 AIRTEMP_MIN_150_0_04 AIRTEMP_MIN_250_0_03 AIRTEMP_MIN_350_0_02 AIRTEMP_MIN_450_0_01 AIRTEMP_MIN_350_0_08 DEWPT_MIN_150_0_04 DEWPT_MIN_450_0_01 SNOWDEP_INST_0_0_01 SNOWDEP_MED_0_0_01 SNOWDEP_QUAL SWE_INST_0_0_01 SWE_MED_0_0_01 WSPD_PRO_MEAN_1000_0_01 WDIR_PRO_MEAN_1000_0_01 WDIR_PRO_STDDEV_1000_0_01 WSPD_SNC_MEAN_1000_0_02 WDIR_SNC_MEAN_1000_0_02 WDIR_SNC_STDDEV_1000_0_02 SATVP_MEAN_150_0_04 VAP_MEAN_150_0_04 VPD_MEAN_150_0_04 SATVP_MEAN_450_0_01 VAP_MEAN_450_0_01 VPD_MEAN_450_0_01
WS7MET_125 2018-04-21 00:15:00 125 30483.0 5.303 5.331 5.511 5.385 5.354 82.500 81.900 2.565 2.540 0.00 0.00 2.925 1.828 1.904 2.636 13.000 5.419 5.396 5.580 5.487 5.396 2.751 2.723 0.00 0.00 0.7510   5.214 5.279 5.464 5.316 5.299 2.433 2.374     318     0.1870 340.60 34.46   0.000 0.000 8.909 7.347 1.559 8.960 7.333 1.622
WS7MET_125 2018-04-21 00:10:00 125 30483.0 5.482 5.529 5.692 5.559 5.482 82.600 82.100 2.765 2.754 0.00 0.00 2.925 1.825 1.905 2.636 13.010 5.555 5.638 5.794 5.624 5.648 3.080 3.050 0.00 0.00 0.5950   5.385 5.405 5.580 5.419 5.338 2.572 2.556     318     0.3210 303.10 63.79   0.000 0.000 9.020 7.452 1.570 9.069 7.446 1.623
WS7MET_125 2018-04-21 00:05:00 125 30483.0 5.562 5.681 5.856 5.704 5.690 82.300 81.400 2.785 2.780 0.00 0.00 2.916 1.809 1.905 2.636 13.010 5.658 5.735 5.920 5.794 5.706 3.204 3.210 0.00 0.00 0.8820   5.487 5.638 5.813 5.624 5.648 2.300 2.412     318     0.2800 215.60 48.63   0.000 0.000 9.071 7.462 1.606 9.161 7.460 1.704
WS7MET_125 2018-04-21 00:00:00 125 30483.0 5.702 5.809 5.996 5.842 5.808 85.600 84.700 3.478 3.467 0.00 0.00 2.915 1.809 1.905 2.636 13.010 5.794 5.871 6.066 5.931 5.881 3.856 3.834 0.00 0.00 0.7770   5.624 5.745 5.930 5.726 5.726 3.112 3.014     318     0.2600 356.20 82.80   0.000 0.000 9.159 7.838 1.319 9.249 7.832 1.415
WS7MET_125 2018-04-20 23:55:00 125 30483.0 5.782 5.936 6.094 5.893 5.996 84.700 83.900 3.407 3.379 0.00 0.00 2.910 1.805 1.905 2.636 13.010 5.862 5.978 6.124 5.965 6.075 3.571 3.693 0.00 0.00 0.5880   5.692 5.871 6.066 5.828 5.900 3.044 2.963     318     0.2090 138.90 56.51   0.000 0.000 9.210 7.799 1.409 9.282 7.784 1.494
WS7MET_125 2018-04-20 23:50:00 125 30483.0 5.740 5.899 6.068 5.876 6.039 87.700 87.300 3.857 3.922 0.00 0.00 2.899 1.790 1.905 2.636 13.020 5.828 5.968 6.124 5.965 6.153 4.354 4.417 0.00 0.00 0.6730   5.658 5.852 6.027 5.794 5.939 3.287 3.370     318     0.2750 114.40 75.93   0.000 0.000 9.184 8.051 1.130 9.271 8.088 1.177
WS7MET_125 2018-04-20 23:45:00 125 30483.0 5.741 5.847 6.042 5.902 5.927 91.100 90.800 4.410 4.523 0.00 0.00 2.896 1.790 1.905 2.636 13.020 5.828 5.861 6.065 5.965 5.997 4.490 4.614 0.00 0.00 0.3790   5.658 5.832 6.027 5.794 5.900 4.308 4.312     318     0.0690 258.60 31.65   0.000 0.000 9.184 8.370 0.817 9.287 8.436 0.854
WS7MET_125 2018-04-20 23:40:00 125 30483.0 5.789 5.913 6.107 5.972 5.942 90.800 90.400 4.407 4.521 0.00 0.00 2.896 1.786 1.905 2.636 13.030 5.931 5.949 6.153 6.033 6.017 4.543 4.616 0.00 0.00 0.6660   5.692 5.871 6.065 5.862 5.900 4.317 4.438     318     0.3340 243.20 12.10   0.000 0.000 9.215 8.368 0.848 9.332 8.435 0.896
WS7MET_125 2018-04-20 23:35:00 125 30483.0 5.851 5.975 6.176 6.025 6.065 89.800 89.500 4.315 4.432 0.00 0.00 2.890 1.773 1.905 2.636 13.030 5.965 6.017 6.202 6.135 6.114 4.399 4.529 0.00 0.00 0.6600   5.726 5.949 6.153 5.931 6.036 4.213 4.283     318     0.3640 83.30 11.59   0.000 0.000 9.255 8.314 0.944 9.367 8.383 0.984
WS7MET_125 2018-04-20 23:30:00 125 30483.0 5.888 6.023 6.221 6.095 6.097 89.200 88.900 4.256 4.402 0.00 0.00 2.885 1.770 1.905 2.637 13.030 5.965 6.036 6.240 6.170 6.114 4.349 4.453 0.00 0.00 0.6470   5.828 6.007 6.201 6.033 6.075 4.176 4.318     318     0.1810 62.54 52.92   0.000 0.000 9.278 8.280 1.002 9.412 8.365 1.045
WS7MET_125 2018-04-20 23:25:00 125 30483.0 5.943 6.083 6.285 6.159 6.122 88.400 88.500 4.172 4.408 0.00 0.00 2.880 1.763 1.905 2.636 13.030 5.999 6.133 6.338 6.204 6.230 4.235 4.465 0.00 0.00 0.7320   5.862 6.046 6.240 6.135 6.065 4.084 4.342     318     0.2230 45.97 12.27   0.000 0.000 9.314 8.231 1.080 9.454 8.369 1.087
WS7MET_125 2018-04-20 23:20:00 125 30483.0 6.018 6.135 6.325 6.185 6.242 88.400 88.700 4.249 4.462 0.00 0.00 2.876 1.752 1.906 2.637 13.040 6.101 6.143 6.338 6.306 6.279 4.335 4.582 0.00 0.00 0.5880   5.965 6.123 6.318 6.101 6.221 4.163 4.374     318     0.1490 279.20 57.17   0.000 0.000 9.362 8.276 1.086 9.471 8.400 1.070
WS7MET_125 2018-04-20 23:15:00 125 30483.0 6.038 6.143 6.352 6.236 6.128 87.600 87.600 4.140 4.335 0.00 0.00 2.868 1.751 1.905 2.637 13.040 6.135 6.191 6.415 6.340 6.211 4.241 4.504 0.00 0.00 0.6080   5.965 6.114 6.318 6.135 6.065 4.035 4.232     318     0.0940 274.80 42.92   0.000 0.000 9.375 8.213 1.163 9.504 8.326 1.179
WS7MET_125 2018-04-20 23:10:00 125 30483.0 6.112 6.261 6.473 6.352 6.272 86.700 86.500 4.067 4.275 0.00 0.00 2.858 1.749 1.906 2.637 13.050 6.204 6.308 6.532 6.443 6.328 4.170 4.400 0.00 0.00 0.5100   5.999 6.201 6.415 6.272 6.191 3.935 4.136     318     0.1520 23.40 8.51   0.000 0.000 9.423 8.171 1.253 9.581 8.291 1.293
WS7MET_125 2018-04-20 23:05:00 125 30483.0 6.204 6.372 6.591 6.473 6.428 86.100 85.100 4.061 4.150 0.00 0.00 2.857 1.733 1.906 2.637 13.050 6.272 6.415 6.639 6.613 6.522 4.130 4.244 0.00 0.00 0.2940   6.101 6.318 6.532 6.374 6.328 3.968 4.066     318     0.0410 35.42 21.25   0.000 0.000 9.483 8.167 1.318 9.661 8.218 1.440
WS7MET_125 2018-04-20 23:00:00 125 30483.0 6.269 6.445 6.669 6.562 6.534 86.200 84.600 4.136 4.167 0.00 0.00 2.850 1.731 1.905 2.640 13.050 6.374 6.493 6.698 6.647 6.561 4.282 4.238 0.00 0.00 0.4700   6.170 6.415 6.649 6.477 6.522 4.001 4.086     318     0.1990 333.90 21.12   0.000 0.000 9.526 8.210 1.315 9.721 8.228 1.497
WS7MET_125 2018-04-20 22:55:00 125 30483.0 6.400 6.543 6.754 6.649 6.586 86.100 84.900 4.243 4.299 0.00 0.00 2.840 1.726 1.907 2.639 13.060 6.477 6.610 6.805 6.716 6.737 4.383 4.420 0.00 0.00 0.4570   6.340 6.493 6.708 6.579 6.522 4.151 4.191     318     0.0820 31.96 8.10   0.000 0.000 9.613 8.272 1.336 9.779 8.305 1.477
WS7MET_125 2018-04-20 22:50:00 125 30483.0 6.487 6.621 6.826 6.736 6.657 85.900 85.000 4.309 4.404 0.00 0.00 2.838 1.712 1.908 2.640 13.060 6.613 6.688 6.883 6.818 6.795 4.449 4.576 0.00 0.00 0.5160   6.374 6.571 6.786 6.613 6.600 3.997 4.053     318     0.1930 347.00 67.08   0.000 0.000 9.671 8.311 1.364 9.838 8.366 1.476
WS7MET_125 2018-04-20 22:45:00 125 30483.0 6.676 6.786 6.968 6.861 6.794 85.300 84.900 4.390 4.499 0.00 0.00 2.829 1.712 1.905 2.640 13.070 6.750 6.844 7.020 6.920 6.971 4.526 4.569 0.00 0.00 0.2420   6.579 6.708 6.903 6.784 6.678 4.289 4.431     318     0.0460 30.25 17.70   0.000 0.000 9.797 8.358 1.440 9.923 8.422 1.498
WS7MET_125 2018-04-20 22:40:00 125 30483.0 6.774 6.871 7.052 6.942 6.943 84.500 84.300 4.343 4.490 0.00 0.00 2.819 1.711 1.906 2.641 13.070 6.886 6.903 7.079 7.057 7.010 4.431 4.674 0.00 0.00 0.0000   6.681 6.844 7.020 6.886 6.873 4.258 4.385     318     0.0000 0.00 0.00   0.000 0.000 9.864 8.331 1.529 9.978 8.417 1.567
WS7MET_125 2018-04-20 22:35:00 125 30483.0 6.941 6.994 7.163 7.047 6.958 83.700 84.000 4.375 4.541 0.00 0.00 2.817 1.693 1.906 2.642 13.070 7.057 7.078 7.244 7.125 7.137 4.532 4.694 0.00 0.00 0.1110   6.784 6.902 7.088 6.954 6.853 4.218 4.355     318     0.0090 262.20 0.38   0.000 0.000 9.977 8.349 1.626 10.050 8.447 1.608
WS7MET_125 2018-04-20 22:30:00 125 30483.0 7.033 7.129 7.288 7.144 7.154 82.700 83.100 4.295 4.474 0.00 0.00 2.808 1.691 1.907 2.640 13.080 7.159 7.156 7.332 7.227 7.185 4.460 4.562 0.00 0.00 1.0130   6.920 7.097 7.254 7.057 7.117 4.190 4.359     318     0.2920 216.00 47.15   0.000 0.000 10.041 8.303 1.737 10.117 8.408 1.710
WS7MET_125 2018-04-20 22:25:00 125 30483.0 7.142 7.237 7.400 7.273 7.205 82.100 82.400 4.309 4.484 0.00 0.00 2.798 1.680 1.912 2.642 13.080 7.296 7.312 7.479 7.398 7.302 4.517 4.580 0.00 0.00 1.1300   7.023 7.175 7.332 7.193 7.155 4.208 4.386     318     0.3370 260.40 82.10   0.000 0.000 10.116 8.311 1.811 10.207 8.413 1.796
WS7MET_125 2018-04-20 22:20:00 125 30483.0 7.234 7.370 7.537 7.391 7.399 80.800 81.000 4.169 4.359 0.00 0.00 2.792 1.672 1.911 2.642 13.080 7.296 7.410 7.586 7.466 7.478 4.248 4.511 0.00 0.00 0.6730   7.193 7.332 7.488 7.296 7.341 4.015 4.236     318     0.2500 112.40 76.42   0.000 0.000 10.180 8.229 1.955 10.290 8.340 1.955
WS7MET_125 2018-04-20 22:15:00 125 30483.0 7.248 7.420 7.597 7.468 7.487 80.400 80.100 4.097 4.266 0.00 0.00 2.780 1.672 1.909 2.640 13.080 7.330 7.429 7.616 7.535 7.537 4.263 4.385 0.00 0.00 0.9540   7.125 7.400 7.586 7.398 7.390 3.952 4.154     318     0.3240 213.00 84.20   0.000 0.000 10.190 8.188 1.997 10.344 8.286 2.059
WS7MET_125 2018-04-20 22:10:00 125 30483.0 7.224 7.447 7.643 7.526 7.582 80.200 79.540 4.045 4.224 0.00 0.00 2.778 1.667 1.909 2.641 13.090 7.296 7.459 7.645 7.569 7.645 4.170 4.321 0.00 0.00 1.4240   7.091 7.409 7.625 7.466 7.459 3.885 4.117     318     0.3000 337.60 84.30   0.000 0.000 10.173 8.158 2.014 10.386 8.261 2.125
WS7MET_125 2018-04-20 22:05:00 125 30483.0 7.118 7.387 7.612 7.478 7.526 81.400 80.000 4.157 4.262 0.00 0.00 2.771 1.652 1.912 2.643 13.100 7.262 7.429 7.645 7.569 7.615 4.289 4.357 0.00 0.00 0.8100   7.023 7.311 7.546 7.364 7.419 3.985 4.103     318     0.2370 17.30 55.93   0.000 0.000 10.099 8.223 1.878 10.352 8.283 2.070
WS7MET_125 2018-04-20 22:00:00 125 30483.0 6.954 7.248 7.496 7.369 7.495 82.400 80.200 4.172 4.188 0.00 0.00 2.758 1.651 1.911 2.642 13.100 7.159 7.330 7.566 7.535 7.654 4.401 4.320 0.00 0.00 0.7910   6.852 7.173 7.409 7.262 7.320 3.951 4.103     318     0.3510 230.40 59.27   0.000 0.000 9.986 8.231 1.758 10.275 8.240 2.034
WS7MET_125 2018-04-20 21:55:00 125 30483.0 6.845 7.118 7.333 7.232 7.273 84.100 82.200 4.352 4.409 0.00 0.00 2.742 1.644 1.911 2.642 13.110 6.920 7.183 7.409 7.330 7.428 4.466 4.534 0.00 0.00 0.8300   6.750 7.065 7.281 7.159 7.144 4.049 4.185     318     0.2760 294.20 34.91   0.000 0.000 9.912 8.336 1.576 10.179 8.369 1.812
WS7MET_125 2018-04-20 21:50:00 125 30483.0 6.953 7.149 7.383 7.299 7.193 84.100 82.800 4.455 4.567 0.00 0.00 2.738 1.631 1.910 2.641 13.110 7.091 7.231 7.466 7.432 7.260 4.524 4.658 0.00 0.00 0.8430   6.784 7.075 7.310 7.227 7.143 4.377 4.475     318     0.4130 355.80 21.12   0.000 0.000 9.986 8.396 1.588 10.226 8.463 1.759
WS7MET_125 2018-04-20 21:45:00 125 30483.0 7.123 7.344 7.566 7.447 7.475 82.500 81.500 4.354 4.497 0.00 0.00 2.729 1.631 1.910 2.641 13.110 7.295 7.417 7.623 7.568 7.691 4.463 4.606 0.00 0.00 0.3590   7.056 7.250 7.486 7.364 7.280 4.128 4.315     318     0.0730 324.50 50.82   0.000 0.000 10.103 8.337 1.768 10.330 8.421 1.911
WS7MET_125 2018-04-20 21:40:00 125 30483.0 7.183 7.399 7.581 7.469 7.478 82.300 81.500 4.368 4.520 0.00 0.00 2.718 1.618 1.909 2.641 13.120 7.295 7.505 7.682 7.568 7.809 4.551 4.688 0.00 0.00 0.6790   7.022 7.289 7.485 7.398 7.289 4.102 4.296     318     0.2950 294.30 44.42   0.000 0.000 10.145 8.345 1.796 10.345 8.435 1.914
WS7MET_125 2018-04-20 21:35:00 125 30483.0 7.102 7.321 7.515 7.346 7.592 82.600 82.000 4.355 4.489 0.00 0.00 2.704 1.611 1.909 2.640 13.120 7.193 7.416 7.593 7.432 7.799 4.478 4.615 0.00 0.00 0.7320   6.954 7.230 7.446 7.227 7.436 4.253 4.355     318     0.2620 226.90 89.50   0.000 0.000 10.088 8.338 1.755 10.258 8.416 1.847
WS7MET_125 2018-04-20 21:30:00 125 30483.0 6.997 7.193 7.402 7.340 7.215 83.700 82.500 4.439 4.572 0.00 0.00 2.698 1.609 1.909 2.640 13.130 7.124 7.299 7.504 7.466 7.465 4.519 4.685 0.00 0.00 1.6790   6.886 7.093 7.308 7.227 7.073 4.300 4.449     318     0.5740 6.09 71.41   0.000 0.000 10.016 8.387 1.633 10.254 8.465 1.794
WS7MET_125 2018-04-20 21:25:00 125 30483.0 7.056 7.379 7.583 7.472 7.525 82.800 81.400 4.346 4.508 0.00 0.00 2.684 1.597 1.909 2.641 13.130 7.158 7.465 7.642 7.602 7.770 4.478 4.619 0.00 0.00 0.4640   6.953 7.250 7.475 7.329 7.328 4.195 4.371     318     0.1470 332.40 37.46   0.000 0.000 10.057 8.332 1.730 10.347 8.428 1.925
WS7MET_125 2018-04-20 21:20:00 125 30483.0 7.005 7.277 7.517 7.458 7.393 83.000 81.500 4.328 4.499 0.00 0.00 2.674 1.592 1.909 2.640 13.130 7.089 7.308 7.563 7.566 7.416 4.445 4.599 0.00 0.00 0.4640   6.885 7.250 7.485 7.328 7.357 4.231 4.406     318     0.2170 347.50 13.79   0.000 0.000 10.021 8.322 1.704 10.337 8.422 1.912
WS7MET_125 2018-04-20 21:15:00 125 30483.0 7.145 7.407 7.654 7.607 7.486 82.000 80.000 4.281 4.391 0.00 0.00 2.660 1.592 1.909 2.640 13.140 7.259 7.564 7.760 7.702 7.652 4.363 4.458 0.00 0.00 0.6730   7.055 7.328 7.573 7.533 7.416 4.212 4.314     318     0.3430 356.00 20.14   0.000 0.000 10.118 8.294 1.821 10.443 8.359 2.089
WS7MET_125 2018-04-20 21:10:00 125 30483.0 7.294 7.595 7.816 7.753 7.684 80.700 78.900 4.208 4.329 0.00 0.00 2.653 1.584 1.909 2.641 13.150 7.394 7.662 7.898 7.872 7.908 4.307 4.409 0.00 0.00 0.3790   7.190 7.544 7.760 7.633 7.554 4.047 4.253     318     0.1570 356.90 26.76   0.000 0.000 10.222 8.252 1.973 10.548 8.322 2.226
WS7MET_125 2018-04-20 21:05:00 125 30483.0 7.449 7.736 7.994 7.949 7.809 80.200 77.600 4.268 4.283 0.00 0.00 2.641 1.573 1.909 2.641 13.150 7.566 7.829 8.100 8.080 7.888 4.390 4.356 0.00 0.00 0.5550   7.292 7.662 7.898 7.804 7.750 4.150 4.180     318     0.3140 349.20 23.57   0.000 0.000 10.331 8.287 2.046 10.690 8.296 2.395
WS7MET_125 2018-04-20 21:00:00 125 30483.0 7.492 7.869 8.100 7.907 8.060 79.880 77.610 4.251 4.243 0.00 0.00 2.625 1.571 1.910 2.642 13.160 7.634 7.937 8.180 8.080 8.270 4.472 4.516 0.00 0.00 0.9730   7.361 7.701 7.947 7.770 7.810 3.976 4.032     318     0.3390 308.00 79.39   0.000 0.000 10.361 8.277 2.085 10.659 8.272 2.387
WS7MET_125 2018-04-20 20:55:00 125 30483.0 7.416 7.761 7.984 7.846 7.912 81.500 79.770 4.462 4.577 0.00 0.00 2.617 1.561 1.910 2.641 13.160 7.496 7.829 8.060 7.907 8.180 4.641 4.661 0.00 0.00 0.8040   7.326 7.702 7.957 7.804 7.819 4.346 4.370     318     0.3670 306.20 42.47   0.000 0.000 10.308 8.400 1.907 10.615 8.468 2.147
WS7MET_125 2018-04-20 20:50:00 125 30483.0 7.389 7.733 7.995 7.901 7.871 82.000 80.100 4.524 4.685 0.00 0.00 2.602 1.554 1.910 2.641 13.160 7.463 7.770 8.040 7.973 7.918 4.680 4.746 0.00 0.00 0.6530   7.327 7.692 7.957 7.838 7.819 4.466 4.585     318     0.3600 330.30 31.04   0.000 0.000 10.289 8.437 1.852 10.655 8.533 2.120
WS7MET_125 2018-04-20 20:45:00 125 30483.0 7.448 7.815 8.110 7.999 7.959 81.000 78.890 4.407 4.566 0.00 0.00 2.585 1.553 1.910 2.641 13.170 7.530 7.908 8.170 8.110 8.070 4.508 4.696 0.00 0.00 0.5880   7.359 7.770 8.040 7.939 7.908 4.283 4.404     318     0.3310 342.20 19.24   0.000 0.000 10.330 8.368 1.963 10.726 8.462 2.264
WS7MET_125 2018-04-20 20:40:00 125 30483.0 7.544 7.946 8.210 8.090 8.090 79.120 77.110 4.165 4.326 0.00 0.00 2.576 1.546 1.910 2.641 13.170 7.630 7.977 8.250 8.140 8.120 4.381 4.492 0.00 0.00 0.6470   7.461 7.908 8.170 8.040 8.070 4.033 4.219     318     0.4030 4.01 17.92   0.000 0.000 10.398 8.227 2.171 10.793 8.321 2.470
WS7MET_125 2018-04-20 20:35:00 125 30483.0 7.609 8.020 8.290 8.190 8.160 78.050 75.220 4.035 4.069 0.00 0.00 2.563 1.535 1.910 2.643 13.180 7.732 8.060 8.330 8.280 8.180 4.154 4.291 0.00 0.00 0.4440   7.528 7.977 8.250 8.110 8.120 3.906 3.912     318     0.2580 336.60 7.36   0.000 0.000 10.445 8.152 2.293 10.867 8.172 2.693
WS7MET_125 2018-04-20 20:30:00 125 30483.0 7.736 8.130 8.390 8.280 8.250 77.000 73.970 3.966 3.917 0.00 0.00 2.545 1.532 1.910 2.643 13.180 7.801 8.190 8.450 8.380 8.320 4.098 3.986 0.00 0.00 0.6140   7.664 8.070 8.330 8.180 8.180 3.868 3.768     318     0.2890 336.80 16.59   0.000 0.000 10.536 8.113 2.423 10.933 8.085 2.846
WS7MET_125 2018-04-20 20:25:00 125 30483.0 7.837 8.230 8.520 8.420 8.350 76.220 73.000 3.919 3.867 0.00 0.00 2.530 1.525 1.913 2.645 13.180 7.971 8.330 8.630 8.520 8.460 4.068 3.932 0.00 0.00 0.6470   7.698 8.190 8.450 8.280 8.310 3.791 3.782     318     0.2730 317.70 23.47   0.000 0.000 10.608 8.086 2.523 11.038 8.056 2.980
WS7MET_125 2018-04-20 20:20:00 125 30483.0 7.981 8.400 8.680 8.620 8.560 75.560 72.270 3.934 3.916 0.00 0.00 2.516 1.518 1.913 2.648 13.190 8.070 8.470 8.790 8.720 8.760 4.133 4.216 0.00 0.00 0.8430   7.868 8.340 8.630 8.480 8.440 3.608 3.637     318     0.3450 298.90 38.67   0.000 0.000 10.713 8.095 2.618 11.188 8.084 3.103
WS7MET_125 2018-04-20 20:15:00 125 30483.0 8.050 8.460 8.790 8.710 8.690 75.630 71.880 4.018 3.926 0.00 0.00 2.502 1.516 1.914 2.646 13.200 8.180 8.490 8.820 8.790 8.840 4.274 4.156 0.00 0.00 1.1110   7.972 8.430 8.750 8.650 8.530 3.696 3.748     318     0.5520 286.50 41.10   0.000 0.000 10.764 8.143 2.623 11.257 8.090 3.165
WS7MET_125 2018-04-20 20:10:00 125 30483.0 8.200 8.630 8.920 8.800 8.910 75.370 71.790 4.112 3.998 0.00 0.00 2.487 1.513 1.911 2.648 13.210 8.280 8.720 8.980 8.890 9.150 4.378 4.183 0.00 0.00 0.8620   8.110 8.510 8.830 8.720 8.580 3.677 3.791     318     0.4540 304.60 27.87   0.000 0.000 10.874 8.197 2.678 11.326 8.131 3.195
WS7MET_125 2018-04-20 20:05:00 125 30483.0 8.180 8.640 8.890 8.740 8.900 76.240 73.070 4.250 4.189 0.00 0.00 2.468 1.498 1.909 2.648 13.220 8.280 8.730 8.970 8.820 9.130 4.539 4.406 0.00 0.00 0.8300   8.040 8.550 8.830 8.620 8.690 3.911 3.879     318     0.4520 268.70 59.46   0.000 0.000 10.859 8.276 2.580 11.280 8.241 3.038
WS7MET_125 2018-04-20 20:00:00 125 30483.0 8.050 8.540 8.820 8.600 8.870 78.430 75.230 4.527 4.472 0.00 0.00 2.453 1.495 1.910 2.648 13.230 8.140 8.610 8.880 8.720 9.200 4.703 4.786 0.00 0.00 0.6930   7.868 8.390 8.670 8.410 8.680 4.015 3.964     318     0.4080 305.10 37.75   0.000 0.000 10.764 8.439 2.322 11.173 8.406 2.768
WS7MET_125 2018-04-20 19:55:00 125 30483.0 7.769 8.230 8.470 8.230 8.520 80.900 78.150 4.694 4.651 0.00 0.00 2.435 1.489 1.911 2.647 13.230 7.936 8.350 8.630 8.450 8.840 4.899 5.013 0.00 0.00 0.7380   7.561 8.010 8.250 8.070 8.160 4.336 4.226     318     0.3970 263.80 48.13   0.000 0.000 10.559 8.538 2.017 10.896 8.512 2.381
WS7MET_125 2018-04-20 19:50:00 125 30483.0 7.549 7.976 8.250 8.110 8.150 82.800 80.600 4.813 4.982 0.00 0.00 2.420 1.479 1.915 2.648 13.240 7.629 8.000 8.270 8.170 8.180 4.935 5.104 0.00 0.00 0.6930   7.492 7.954 8.250 8.040 8.130 4.754 4.901     318     0.5470 335.50 12.95   0.000 0.000 10.402 8.609 1.789 10.808 8.712 2.097
WS7MET_125 2018-04-20 19:45:00 125 30483.0 7.583 7.995 8.290 8.170 8.170 82.400 79.900 4.787 4.915 0.00 0.00 2.400 1.473 1.917 2.649 13.240 7.663 8.020 8.340 8.240 8.200 4.903 5.007 0.00 0.00 0.7450   7.526 7.973 8.270 8.110 8.140 4.639 4.833     318     0.5390 343.50 9.37   0.000 0.000 10.426 8.594 1.835 10.852 8.671 2.181
WS7MET_125 2018-04-20 19:40:00 125 30483.0 7.673 8.070 8.380 8.250 8.260 81.900 79.210 4.780 4.872 0.00 0.00 2.384 1.472 1.918 2.648 13.250 7.731 8.110 8.420 8.350 8.310 4.893 4.965 0.00 0.00 0.7770   7.595 8.030 8.350 8.170 8.200 4.691 4.780     318     0.4840 339.30 7.00   0.000 0.000 10.490 8.590 1.899 10.911 8.645 2.268
WS7MET_125 2018-04-20 19:35:00 125 30483.0 7.692 8.120 8.450 8.340 8.340 81.700 79.190 4.762 4.950 0.00 0.00 2.364 1.463 1.916 2.649 13.260 7.765 8.130 8.460 8.410 8.380 4.849 5.068 0.00 0.00 0.5810   7.629 8.100 8.420 8.240 8.300 4.691 4.834     318     0.4240 348.40 3.25   0.000 0.000 10.504 8.579 1.922 10.978 8.692 2.285
WS7MET_125 2018-04-20 19:30:00 125 30483.0 7.767 8.190 8.510 8.450 8.350 81.600 78.710 4.824 4.973 0.00 0.00 2.347 1.457 1.918 2.653 13.260 7.833 8.230 8.560 8.550 8.400 4.900 5.058 0.00 0.00 0.6860   7.663 8.130 8.460 8.380 8.280 4.722 4.898     318     0.5210 345.10 11.93   0.000 0.000 10.558 8.616 1.943 11.060 8.706 2.355
WS7MET_125 2018-04-20 19:25:00 125 30483.0 7.873 8.280 8.640 8.580 8.470 81.400 77.860 4.885 4.947 0.00 0.00 2.327 1.451 1.919 2.653 13.270 7.970 8.320 8.700 8.720 8.580 4.982 5.068 0.00 0.00 0.6530   7.765 8.200 8.560 8.450 8.350 4.771 4.823     318     0.4870 345.50 18.86   0.000 0.000 10.635 8.653 1.978 11.158 8.690 2.470
WS7MET_125 2018-04-20 19:20:00 125 30483.0 7.956 8.360 8.730 8.680 8.560 81.600 77.590 5.015 4.992 0.00 0.00 2.308 1.444 1.921 2.653 13.280 8.070 8.440 8.780 8.790 8.580 5.244 5.178 0.00 0.00 0.6400   7.833 8.320 8.700 8.580 8.540 4.825 4.866     318     0.5150 342.50 5.75   0.000 0.000 10.695 8.732 1.968 11.234 8.718 2.518
WS7MET_125 2018-04-20 19:15:00 125 30483.0 8.090 8.510 8.840 8.780 8.680 81.700 78.630 5.163 5.278 0.00 0.00 2.291 1.441 1.920 2.654 13.290 8.140 8.580 8.910 8.860 8.760 5.221 5.444 0.00 0.00 0.5750   8.000 8.460 8.800 8.690 8.640 5.088 5.106     318     0.4950 351.00 10.05   0.000 0.000 10.793 8.822 1.975 11.310 8.893 2.417
WS7MET_125 2018-04-20 19:10:00 125 30483.0 8.240 8.610 8.960 8.910 8.780 81.600 78.850 5.283 5.450 0.00 0.00 2.271 1.434 1.923 2.654 13.300 8.380 8.680 9.040 9.060 8.860 5.400 5.575 0.00 0.00 0.6600   8.140 8.560 8.920 8.820 8.680 5.198 5.337     318     0.4510 347.20 17.68   0.000 0.000 10.904 8.896 2.006 11.410 9.000 2.413
WS7MET_125 2018-04-20 19:05:00 125 30483.0 8.380 8.720 9.120 9.100 8.920 81.000 78.430 5.317 5.558 0.00 0.00 2.252 1.432 1.923 2.654 13.310 8.520 8.800 9.200 9.230 9.010 5.462 5.637 0.00 0.00 0.4700   8.240 8.680 9.060 8.990 8.870 5.153 5.421     318     0.3760 340.50 6.40   0.000 0.000 11.008 8.918 2.091 11.558 9.068 2.493
WS7MET_125 2018-04-20 19:00:00 125 30483.0 8.550 8.920 9.280 9.270 9.030 80.200 76.940 5.337 5.439 0.20 0.00 2.231 1.428 1.923 2.654 13.320 8.750 9.060 9.390 9.370 9.070 5.400 5.511 1.34 0.00 0.4970   8.380 8.820 9.220 9.130 8.990 5.225 5.323     318     0.4070 351.30 14.70   0.000 0.000 11.135 8.930 2.205 11.691 8.994 2.696
WS7MET_125 2018-04-20 18:55:00 125 30483.0 8.730 9.160 9.450 9.300 9.430 78.400 75.980 5.188 5.292 1.34 0.00 2.210 1.422 1.923 2.654 13.330 8.890 9.240 9.510 9.400 9.710 5.422 5.609 1.34 0.00 0.6080   8.520 8.970 9.300 9.160 9.110 4.824 4.979     318     0.1300 269.70 40.97   0.000 0.000 11.272 8.838 2.435 11.715 8.902 2.814
WS7MET_125 2018-04-20 18:50:00 125 30483.0 8.580 8.950 9.290 9.250 9.110 80.700 78.060 5.451 5.634 1.34 0.00 2.192 1.416 1.923 2.654 13.340 8.620 8.980 9.340 9.330 9.190 5.537 5.764 1.34 0.00 0.3200   8.480 8.920 9.250 9.200 9.010 5.291 5.328     318     0.0920 333.00 19.49   0.000 0.000 11.158 9.001 2.154 11.675 9.116 2.562
WS7MET_125 2018-04-20 18:45:00 125 30483.0 8.690 9.030 9.420 9.430 9.130 80.000 76.970 5.452 5.608 3.56 0.00 2.170 1.413 1.923 2.654 13.350 8.820 9.200 9.570 9.540 9.350 5.573 5.744 5.37 0.00 0.3200   8.620 8.950 9.340 9.370 9.020 5.353 5.523     318     0.1900 348.30 19.04   0.000 0.000 11.242 9.002 2.248 11.818 9.100 2.722
WS7MET_125 2018-04-20 18:40:00 125 30483.0 8.880 9.270 9.640 9.670 9.410 78.810 75.730 5.407 5.599 9.93 1.41 2.152 1.407 1.923 2.654 13.360 8.990 9.340 9.710 9.810 9.520 5.557 5.665 13.42 2.68 0.3790   8.720 9.210 9.580 9.540 9.360 5.303 5.531     318     0.1850 4.31 10.68   0.000 0.000 11.387 8.974 2.413 12.010 9.094 2.915
WS7MET_125 2018-04-20 18:35:00 125 30483.0 9.050 9.440 9.790 9.830 9.590 78.050 74.190 5.436 5.459 15.37 2.68 2.129 1.403 1.923 2.654 13.380 9.160 9.530 9.900 9.950 9.830 5.579 5.593 16.10 2.68 1.0780   8.960 9.340 9.710 9.710 9.440 5.016 5.108     318     0.2150 271.40 52.73   0.000 0.000 11.519 8.992 2.528 12.140 9.006 3.133
WS7MET_125 2018-04-20 18:30:00 125 30483.0 9.220 9.540 9.950 10.020 9.620 77.750 73.650 5.544 5.535 15.43 2.68 2.109 1.400 1.923 2.654 13.400 9.440 9.770 10.140 10.190 9.890 5.694 5.757 16.10 2.68 0.7380   9.060 9.420 9.860 9.880 9.450 5.215 5.098     318     0.2580 340.80 46.84   0.000 0.000 11.652 9.059 2.592 12.295 9.054 3.240
WS7MET_125 2018-04-20 18:25:00 125 30483.0 9.370 9.810 10.130 10.040 10.050 76.880 72.580 5.526 5.345 16.31 2.68 2.087 1.394 1.924 2.654 13.430 9.400 9.830 10.180 10.150 10.190 5.617 5.712 17.45 2.68 0.3790   9.300 9.780 10.080 9.950 9.870 5.415 5.196     318     0.0950 351.20 41.03   0.000 0.000 11.770 9.048 2.721 12.312 8.935 3.376
WS7MET_125 2018-04-20 18:20:00 125 30483.0 9.430 9.860 10.150 10.100 9.960 77.200 74.420 5.650 5.764 20.13 2.75 2.066 1.393 1.926 2.654 13.480 9.510 9.910 10.210 10.220 10.080 5.767 5.983 22.81 4.03 0.4770   9.330 9.800 10.100 9.980 9.890 5.506 5.538     318     0.2270 309.80 26.11   0.000 0.000 11.818 9.126 2.694 12.361 9.199 3.162
WS7MET_125 2018-04-20 18:15:00 125 30483.0 9.480 9.920 10.260 10.230 10.020 77.300 75.170 5.714 6.037 27.51 4.03 2.042 1.389 1.928 2.655 13.560 9.610 9.970 10.340 10.320 10.080 5.819 6.252 32.21 4.03 0.2480   9.370 9.880 10.200 10.090 9.970 5.583 5.837     318     0.0590 315.90 7.37   0.000 0.000 11.857 9.167 2.692 12.469 9.375 3.096
WS7MET_125 2018-04-20 18:10:00 125 30483.0 9.560 10.010 10.410 10.410 10.070 76.270 73.770 5.598 5.938 36.64 4.50 2.021 1.384 1.931 2.654 13.710 9.740 10.120 10.510 10.490 10.150 5.687 6.074 41.60 5.37 0.2610   9.440 9.960 10.340 10.260 10.000 5.459 5.836     318     0.0630 355.90 8.69   0.000 0.000 11.921 9.094 2.829 12.620 9.310 3.310
WS7MET_125 2018-04-20 18:05:00 125 30483.0 9.730 10.210 10.580 10.530 10.310 75.050 72.080 5.535 5.718 45.56 6.24 1.999 1.377 1.931 2.658 13.830 9.780 10.240 10.620 10.630 10.540 5.638 5.930 46.97 6.71 0.4970   9.640 10.140 10.520 10.430 10.190 5.375 5.260     318     0.0550 68.52 15.55   0.000 0.000 12.058 9.054 3.009 12.722 9.170 3.552
WS7MET_125 2018-04-20 18:00:00 125 30483.0 9.840 10.240 10.620 10.550 10.300 73.360 71.770 5.312 5.679 43.08 5.77 1.975 1.374 1.935 2.658 13.760 10.020 10.350 10.700 10.670 10.400 5.428 5.900 46.97 6.71 0.2160   9.680 10.180 10.570 10.460 10.260 5.189 5.157     318     0.0370 36.16 32.41   0.000 0.000 12.148 8.914 3.236 12.739 9.145 3.596
WS7MET_125 2018-04-20 17:55:00 125 30483.0 10.060 10.440 10.750 10.670 10.590 71.690 69.120 5.190 5.246 46.10 6.38 1.953 1.368 1.936 2.657 13.570 10.150 10.530 10.800 10.730 10.880 5.426 5.597 49.66 6.71 0.3990   9.950 10.360 10.680 10.600 10.360 4.816 4.993     318     0.1220 292.60 20.02   0.000 0.000 12.328 8.839 3.490 12.841 8.874 3.965
WS7MET_125 2018-04-20 17:50:00 125 30483.0 10.110 10.490 10.830 10.800 10.570 70.980 68.400 5.091 5.221 22.95 3.56 1.931 1.366 1.938 2.662 13.500 10.220 10.620 10.920 10.900 10.840 5.331 5.585 36.24 5.37 0.7510   9.980 10.400 10.710 10.670 10.420 4.734 4.829     318     0.2770 343.10 51.11   0.000 0.000 12.370 8.778 3.590 12.953 8.858 4.093
WS7MET_125 2018-04-20 17:45:00 125 30483.0 10.230 10.620 10.960 10.880 10.820 70.070 66.650 5.021 4.929 16.10 2.68 1.909 1.365 1.939 2.663 13.570 10.290 10.660 10.980 10.940 10.900 5.274 5.135 18.79 2.68 0.8100   10.150 10.580 10.920 10.770 10.700 4.860 4.769     318     0.2910 300.70 69.14   0.000 0.000 12.469 8.735 3.732 13.022 8.680 4.343
WS7MET_125 2018-04-20 17:40:00 125 30483.0 10.230 10.610 10.950 10.860 10.820 70.000 66.640 5.014 4.910 24.29 3.49 1.886 1.365 1.942 2.667 13.700 10.320 10.680 10.990 10.970 10.980 5.303 5.197 32.21 4.03 0.4700   10.150 10.520 10.880 10.770 10.580 4.672 4.701     318     0.1480 251.70 36.20   0.000 0.000 12.469 8.731 3.741 13.004 8.668 4.338
WS7MET_125 2018-04-20 17:35:00 125 30483.0 10.300 10.640 10.990 10.990 10.720 70.370 66.840 5.157 5.075 41.40 5.57 1.859 1.364 1.941 2.670 13.900 10.430 10.720 11.070 11.140 10.870 5.373 5.664 46.97 6.71 0.2810   10.190 10.560 10.920 10.900 10.590 4.381 4.682     318     0.0360 297.20 21.00   0.000 0.000 12.528 8.819 3.712 13.117 8.768 4.350
WS7MET_125 2018-04-20 17:30:00 125 30483.0 10.540 10.880 11.260 11.320 10.820 70.670 66.730 5.446 5.360 45.96 6.24 1.839 1.357 1.942 2.672 13.940 10.770 11.080 11.430 11.480 11.130 5.967 5.772 46.97 6.71 0.3660   10.320 10.660 11.050 11.140 10.620 4.623 4.564     318     0.0470 9.37 18.69   0.000 0.000 12.730 8.998 3.734 13.408 8.944 4.461
WS7MET_125 2018-04-20 17:25:00 125 30483.0 10.890 11.180 11.530 11.500 11.240 68.530 63.470 5.334 4.821 42.48 5.37 1.814 1.355 1.942 2.672 13.900 11.040 11.270 11.600 11.590 11.340 5.659 5.254 44.29 5.37 0.5490   10.700 11.110 11.470 11.380 11.120 4.617 4.652     318     0.1270 287.40 72.14   0.000 0.000 13.030 8.928 4.101 13.569 8.614 4.957
WS7MET_125 2018-04-20 17:20:00 125 30483.0 10.970 11.290 11.640 11.700 11.240 67.570 64.820 5.211 5.306 54.69 7.65 1.792 1.353 1.942 2.672 13.950 11.040 11.350 11.700 11.830 11.370 5.667 5.637 64.42 9.39 0.6080   10.900 11.190 11.560 11.590 10.920 4.525 4.573     318     0.1770 215.80 63.51   0.000 0.000 13.100 8.852 4.248 13.749 8.911 4.837
WS7MET_125 2018-04-20 17:15:00 125 30483.0 11.140 11.270 11.670 11.900 11.150 67.940 64.370 5.450 5.404 76.43 11.41 1.766 1.352 1.942 2.672 13.960 11.450 11.420 11.780 12.170 11.470 5.913 5.649 84.50 12.08 0.5100   10.970 11.170 11.630 11.720 10.560 5.028 5.137     318     0.1610 216.30 19.11   0.000 0.000 13.249 9.000 4.248 13.932 8.972 4.964
WS7MET_125 2018-04-20 17:10:00 125 30483.0 11.860 12.030 12.310 12.290 11.480 65.710 62.960 5.649 5.452 88.00 13.96 1.743 1.348 1.942 2.673 13.970 12.030 12.270 12.540 12.410 12.130 6.204 5.723 100.70 20.13 0.6790   11.550 11.490 11.840 12.100 10.590 4.791 5.122     318     0.2490 94.70 33.35   0.000 0.000 13.896 9.126 4.765 14.295 9.002 5.295
WS7MET_125 2018-04-20 17:05:00 125 30483.0 11.910 12.290 12.580 12.410 12.240 62.450 60.070 4.963 4.891 91.90 16.71 1.721 1.346 1.942 2.673 13.960 12.060 12.350 12.620 12.470 12.350 5.978 5.337 107.40 22.81 2.1760   11.720 12.200 12.530 12.340 12.050 4.429 4.549     318     0.7160 234.10 68.12   0.000 0.000 13.941 8.700 5.235 14.408 8.657 5.753
WS7MET_125 2018-04-20 17:00:00 125 30483.0 11.670 12.030 12.360 12.230 12.080 63.420 61.390 4.963 5.029 126.50 24.22 1.697 1.346 1.942 2.673 13.960 11.830 12.210 12.520 12.410 12.310 5.979 5.603 149.00 28.18 1.9530   11.480 11.760 12.140 12.100 11.440 4.470 4.719     318     0.6260 168.40 55.37   0.000 0.000 13.722 8.700 5.020 14.239 8.740 5.498
WS7MET_125 2018-04-20 16:55:00 125 30483.0 11.690 11.960 12.330 12.360 11.580 68.260 64.940 6.047 5.964 150.40 27.91 1.671 1.340 1.942 2.673 13.940 11.790 12.110 12.460 12.470 11.860 6.396 6.386 154.30 29.52 0.9080   11.480 11.740 12.130 12.130 11.190 5.439 5.529     318     0.3840 141.90 49.02   0.000 0.000 13.740 9.381 4.361 14.361 9.327 5.035
WS7MET_125 2018-04-20 16:50:00 125 30483.0 11.770 12.190 12.560 12.560 12.020 66.630 62.610 5.765 5.625 143.40 22.34 1.649 1.338 1.942 2.673 13.940 11.930 12.270 12.640 12.680 12.350 6.368 6.126 163.70 24.16 1.0190   11.620 12.090 12.440 12.440 11.600 5.088 5.065     318     0.4910 200.30 59.41   0.000 0.000 13.813 9.200 4.609 14.551 9.111 5.441
WS7MET_125 2018-04-20 16:45:00 125 30483.0 11.510 11.860 12.360 12.490 11.750 67.370 63.070 5.688 5.666 166.70 26.44 1.624 1.336 1.943 2.673 13.940 11.650 12.090 12.520 12.580 12.330 6.081 5.891 187.90 29.52 0.9670   11.350 11.700 12.250 12.410 11.310 5.329 5.388     318     0.3110 171.20 49.00   0.000 0.000 13.578 9.151 4.430 14.484 9.137 5.349
WS7MET_125 2018-04-20 16:40:00 125 30483.0 11.720 12.180 12.590 12.660 11.890 67.740 62.340 5.962 5.663 165.20 26.57 1.601 1.332 1.950 2.673 13.950 11.830 12.330 12.750 12.780 12.190 6.453 5.922 191.90 32.21 1.0980   11.550 12.040 12.470 12.470 11.530 5.112 5.292     318     0.5520 159.50 63.16   0.000 0.000 13.768 9.326 4.441 14.647 9.135 5.516
WS7MET_125 2018-04-20 16:35:00 125 30483.0 11.700 12.270 12.660 12.780 12.070 65.310 60.260 5.415 5.282 211.90 41.47 1.577 1.328 1.951 2.673 13.950 11.860 12.400 12.770 12.850 12.350 6.638 5.789 234.90 46.97 1.2670   11.480 12.220 12.600 12.610 11.820 4.627 4.854     318     0.4790 198.90 48.36   0.000 0.000 13.749 8.979 4.770 14.762 8.896 5.867
WS7MET_125 2018-04-20 16:30:00 125 30483.0 11.250 11.920 12.440 12.460 12.030 64.970 60.770 4.911 5.098 158.10 30.13 1.553 1.326 1.951 2.673 13.940 11.520 12.190 12.620 12.640 12.320 5.180 5.464 187.90 44.29 0.8360   11.070 11.780 12.350 12.340 11.700 4.329 4.571     318     0.3880 191.10 66.64   0.000 0.000 13.346 8.669 4.675 14.456 8.782 5.671
WS7MET_125 2018-04-20 16:25:00 125 30483.0 11.050 11.780 12.340 12.380 12.030 65.870 60.080 4.919 4.862 142.10 22.48 1.533 1.327 1.951 2.673 13.930 11.210 11.880 12.410 12.440 12.210 5.486 5.179 153.00 24.16 0.7510   10.900 11.640 12.230 12.270 11.800 4.323 4.485     318     0.2710 253.30 61.65   0.000 0.000 13.170 8.673 4.495 14.380 8.639 5.740
WS7MET_125 2018-04-20 16:20:00 125 30483.0 10.830 11.540 12.160 12.280 11.850 66.300 59.910 4.808 4.727 156.80 23.96 1.509 1.328 1.951 2.672 13.900 10.900 11.640 12.220 12.370 11.970 5.538 4.832 358.30 42.95 0.3530   10.770 11.450 12.100 12.200 11.710 4.469 4.546     318     0.0750 215.10 17.29   0.000 0.000 12.979 8.606 4.374 14.286 8.558 5.727
WS7MET_125 2018-04-20 16:15:00 125 30483.0 10.920 11.500 12.110 12.300 11.700 65.870 59.000 4.799 4.532 127.80 20.26 1.487 1.328 1.952 2.672 13.910 11.010 11.650 12.210 12.440 12.110 4.998 4.772 135.50 21.47 0.5550   10.800 11.420 12.060 12.230 11.490 4.305 4.067     318     0.1250 100.60 12.14   0.000 0.000 13.056 8.601 4.456 14.304 8.442 5.865
WS7MET_125 2018-04-20 16:10:00 125 30483.0 11.070 11.620 12.240 12.460 11.760 64.640 56.870 4.669 4.147 123.70 19.66 1.463 1.325 1.956 2.672 13.910 11.240 11.760 12.370 12.540 12.240 5.103 4.622 126.20 20.13 0.2090   10.830 11.460 12.090 12.340 11.450 4.308 3.414     318     0.0200 126.80 6.76   0.000 0.000 13.187 8.523 4.663 14.456 8.217 6.235
WS7MET_125 2018-04-20 16:05:00 125 30483.0 11.210 11.710 12.390 12.640 11.970 62.670 55.380 4.362 3.944 111.50 17.51 1.439 1.325 1.958 2.672 13.910 11.520 11.850 12.510 12.780 12.310 4.853 4.315 122.10 18.79 0.6860   10.970 11.560 12.260 12.510 11.700 3.248 3.301     318     0.1470 160.00 53.68   0.000 0.000 13.310 8.342 4.969 14.627 8.100 6.527
WS7MET_125 2018-04-20 16:00:00 125 30483.0 11.870 12.140 12.780 12.970 11.870 60.280 54.930 4.431 4.140 97.60 14.96 1.417 1.325 1.959 2.675 13.890 12.370 12.570 13.090 13.190 12.200 4.919 4.545 100.60 16.10 0.3400   11.450 11.840 12.500 12.810 11.720 4.139 3.922     318     0.1230 75.62 29.26   0.000 0.000 13.905 8.382 5.523 14.947 8.213 6.737
WS7MET_125 2018-04-20 15:55:00 125 30483.0 12.500 12.830 13.340 13.400 12.470 56.510 51.440 4.094 3.596 111.10 17.71 1.395 1.324 1.959 2.677 13.880 12.740 13.270 13.800 13.660 13.040 5.160 4.282 126.10 20.13 1.0650   12.200 12.600 13.120 13.120 12.060 3.113 2.705     318     0.2490 91.40 71.95   0.000 0.000 14.494 8.186 6.303 15.373 7.904 7.465
WS7MET_125 2018-04-20 15:50:00 125 30483.0 12.590 13.190 13.840 13.800 12.870 58.200 51.120 4.598 3.874 172.60 28.45 1.375 1.324 1.959 2.678 13.880 12.740 13.290 13.880 13.940 13.140 5.480 4.653 230.80 38.92 1.0650   12.400 13.040 13.780 13.630 12.720 3.454 3.014     318     0.3450 160.90 26.15   0.000 0.000 14.579 8.481 6.094 15.778 8.060 7.712
WS7MET_125 2018-04-20 15:45:00 125 30483.0 12.640 13.140 13.870 14.000 12.940 54.910 48.530 3.817 3.323 244.00 40.73 1.353 1.324 1.959 2.680 13.880 12.770 13.230 13.930 14.110 13.330 4.775 3.904 410.60 69.78 0.6790   12.540 13.010 13.760 13.900 12.680 2.415 2.574     318     0.2640 114.30 39.49   0.000 0.000 14.627 8.028 6.595 15.985 7.753 8.227
WS7MET_125 2018-04-20 15:40:00 125 30483.0 13.030 13.580 14.200 14.250 13.040 52.990 47.360 3.675 3.205 210.90 35.16 1.335 1.323 1.961 2.679 13.870 13.220 13.890 14.430 14.440 13.680 4.596 4.001 259.00 42.94 0.5750   12.770 13.200 13.950 14.040 12.660 3.054 2.596     318     0.1570 88.60 30.12   0.000 0.000 15.006 7.948 7.054 16.246 7.688 8.552
WS7MET_125 2018-04-20 15:35:00 125 30483.0 12.990 13.770 14.370 14.370 13.560 51.430 45.120 3.183 2.624 316.60 53.74 1.314 1.322 1.966 2.678 13.860 13.150 13.890 14.450 14.440 13.810 5.046 3.708 371.70 64.41 1.0580   12.870 13.610 14.210 14.310 13.180 1.384 1.295     318     0.4210 140.70 69.17   0.000 0.000 14.967 7.676 7.269 16.372 7.377 8.985
WS7MET_125 2018-04-20 15:30:00 125 30483.0 12.970 13.790 14.280 14.230 13.530 52.760 45.430 3.549 2.601 382.90 65.42 1.296 1.321 1.966 2.677 13.850 13.080 13.890 14.390 14.410 13.810 4.991 3.689 595.80 104.70 0.6660   12.740 13.690 14.070 13.970 13.280 2.019 1.648     318     0.2570 148.00 36.19   0.000 0.000 14.947 7.878 7.061 16.225 7.365 8.854
WS7MET_125 2018-04-20 15:25:00 125 30483.0 12.340 13.200 13.620 13.500 13.460 53.030 46.910 3.042 2.395 341.00 58.17 1.276 1.320 1.965 2.677 13.850 12.770 13.650 14.040 13.900 13.720 3.777 2.704 532.70 93.90 0.4570   12.090 12.820 13.270 13.220 13.230 2.299 2.049     318     0.1340 199.40 24.03   0.000 0.000 14.342 7.600 6.736 15.473 7.258 8.215
WS7MET_125 2018-04-20 15:20:00 125 30483.0 11.850 12.510 13.040 13.130 12.800 54.780 48.380 3.049 2.470 164.70 26.70 1.262 1.320 1.965 2.677 13.840 12.060 12.790 13.240 13.220 13.210 3.595 3.617 288.50 49.65 0.0590   11.680 12.360 12.940 13.010 12.390 1.941 1.811     318     0.0040 236.90 0.85   0.000 0.000 13.886 7.604 6.279 15.104 7.297 7.797
WS7MET_125 2018-04-20 15:15:00 125 30483.0 12.090 12.670 13.230 13.310 12.750 55.070 47.470 3.339 2.376 115.20 18.05 1.245 1.320 1.964 2.677 13.810 12.230 12.920 13.370 13.390 13.330 4.106 3.072 122.10 18.79 0.7450   11.850 12.360 12.980 13.180 12.180 1.628 1.451     318     0.1590 351.60 51.33   0.000 0.000 14.108 7.762 6.339 15.283 7.248 8.028
WS7MET_125 2018-04-20 15:10:00 125 30483.0 12.020 12.590 13.220 13.340 12.720 54.490 46.480 3.119 2.115 127.50 20.53 1.231 1.320 1.965 2.678 13.820 12.230 12.810 13.320 13.390 13.200 4.002 2.708 128.80 21.47 0.4310   11.880 12.450 13.180 13.280 12.270 1.512 1.290     318     0.0730 69.88 16.43   0.000 0.000 14.043 7.642 6.391 15.313 7.114 8.195
WS7MET_125 2018-04-20 15:05:00 125 30483.0 12.510 12.950 13.470 13.520 12.900 52.390 46.990 3.025 2.427 122.80 19.32 1.216 1.320 1.968 2.679 13.820 12.740 13.150 13.700 13.660 13.240 4.037 3.412 124.80 20.13 1.3460   12.190 12.830 13.350 13.390 12.610 2.181 1.608     318     0.4490 66.27 36.97   0.000 0.000 14.503 7.591 6.905 15.494 7.275 8.213
WS7MET_125 2018-04-20 15:00:00 125 30483.0 13.130 13.310 13.830 13.840 13.140 48.820 44.810 2.600 2.058 127.90 20.13 1.198 1.320 1.971 2.677 13.790 13.620 13.650 14.070 14.100 13.410 3.555 2.537 130.20 20.13 0.8100   12.740 13.090 13.700 13.660 12.840 1.902 1.693     318     0.2860 97.00 66.05   0.000 0.000 15.104 7.365 7.730 15.819 7.085 8.731
WS7MET_125 2018-04-20 14:55:00 125 30483.0 14.010 14.070 14.330 14.240 13.730 43.520 40.810 1.769 1.103 137.70 21.74 1.190 1.320 1.973 2.681 13.790 14.100 14.220 14.440 14.370 14.140 3.486 1.815 146.30 22.81 0.7380   13.690 13.690 14.080 14.030 12.990 -0.153 0.097     318     0.2300 103.60 58.59   0.000 0.000 15.995 6.940 9.034 16.235 6.616 9.610
WS7MET_125 2018-04-20 14:50:00 125 30483.0 14.160 14.290 14.550 14.430 14.110 36.800 35.690 -0.392 -0.572 159.80 25.49 1.175 1.320 1.978 2.684 13.780 14.270 14.330 14.610 14.510 14.160 1.063 -0.100 173.10 28.18 1.6660   14.070 14.200 14.410 14.340 14.060 -1.111 -1.250     318     0.6190 186.50 53.30   0.000 0.000 16.151 5.936 10.208 16.436 5.858 10.570
WS7MET_125 2018-04-20 14:45:00 125 30483.0 14.470 14.570 14.830 14.720 14.260 36.530 35.480 -0.256 -0.421 188.30 30.79 1.162 1.320 1.980 2.685 13.780 14.650 14.790 15.070 14.950 14.520 2.509 1.474 209.30 34.89 1.7900   14.240 14.320 14.600 14.440 13.870 -1.606 -1.584     318     0.6950 109.00 68.57   0.000 0.000 16.479 5.995 10.459 16.747 5.923 10.805
WS7MET_125 2018-04-20 14:40:00 125 30483.0 14.730 14.900 15.240 15.070 14.610 36.880 35.570 0.143 -0.043 251.60 41.93 1.154 1.320 1.982 2.686 13.780 14.820 15.000 15.340 15.190 14.810 1.620 0.853 331.40 55.01 1.8950   14.680 14.800 15.070 14.920 14.500 -0.864 -0.658     318     0.7830 221.00 45.03   0.000 0.000 16.758 6.172 10.577 17.129 6.089 11.036
WS7MET_125 2018-04-20 14:35:00 125 30483.0 14.960 15.180 15.650 15.380 14.520 43.470 36.780 2.568 0.673 263.70 43.81 1.140 1.320 1.984 2.686 13.790 15.160 15.430 15.930 15.570 15.090 5.894 2.637 281.80 46.96 1.9600   14.720 14.880 15.290 15.090 14.010 -0.628 -0.773     318     0.5860 194.10 58.00   0.000 0.000 17.008 7.348 9.615 17.474 6.413 11.047
WS7MET_125 2018-04-20 14:30:00 125 30483.0 15.200 15.400 15.900 15.690 14.940 36.740 34.360 0.486 0.021 306.90 51.39 1.132 1.320 1.984 2.686 13.780 15.400 15.730 16.340 15.910 15.080 2.528 0.879 343.50 57.70 2.5680   15.060 15.280 15.760 15.470 14.850 -0.651 -0.829     318     0.8270 193.80 76.46   0.000 0.000 17.273 6.327 10.927 17.824 6.117 11.700
WS7MET_125 2018-04-20 14:25:00 125 30483.0 15.880 16.080 16.640 16.170 14.940 40.340 31.560 2.345 -0.731 396.40 67.43 1.119 1.320 1.984 2.686 13.780 16.420 16.580 17.020 16.590 15.600 5.355 0.682 438.80 75.14 0.7710   15.470 15.730 16.320 15.940 14.480 -1.378 -1.658     318     0.5500 132.80 49.68   0.000 0.000 18.042 7.232 10.764 18.379 5.790 12.579
WS7MET_125 2018-04-20 14:20:00 125 30483.0 16.180 16.820 17.330 16.710 15.750 39.920 32.880 2.518 0.289 709.00 126.50 1.113 1.321 1.984 2.686 13.780 16.660 17.270 17.630 16.970 16.360 5.099 3.179 1040.00 189.20 1.4440   15.640 16.170 16.950 16.490 15.020 0.510 -0.863     318     0.9320 185.20 53.10   0.000 0.000 18.391 7.322 11.049 19.022 6.237 12.768
WS7MET_125 2018-04-20 14:15:00 125 30483.0 15.920 16.300 17.100 16.590 15.370 41.000 31.400 2.586 -0.448 866.00 158.90 1.103 1.322 1.984 2.686 13.780 16.080 16.540 17.230 16.730 15.700 5.248 2.059 954.00 174.40 1.3130   15.770 16.060 16.830 16.460 14.980 -1.913 -2.164     318     0.6130 123.70 53.85   0.000 0.000 18.088 7.358 10.672 18.878 5.912 12.950
WS7MET_125 2018-04-20 14:10:00 125 30483.0 15.530 16.140 16.790 16.280 15.310 38.020 28.930 1.236 -1.897 818.00 151.30 1.096 1.321 1.986 2.687 13.800 15.910 16.450 17.130 16.490 15.560 4.541 1.809 828.00 153.00 1.3260   15.300 15.880 16.510 16.110 14.920 -1.048 -4.157     318     0.7220 153.30 67.36   0.000 0.000 17.642 6.680 10.935 18.509 5.314 13.154
WS7MET_125 2018-04-20 14:05:00 125 30483.0 14.960 15.390 16.070 15.910 14.610 35.640 28.380 -0.333 -2.568 825.00 153.20 1.089 1.321 1.985 2.687 13.820 15.230 15.990 16.610 16.080 15.480 3.546 1.539 841.00 155.70 1.1630   14.720 15.020 15.680 15.710 13.700 -4.787 -5.157     318     0.5890 123.90 49.47   0.000 0.000 17.008 5.961 10.946 18.077 5.056 12.947
WS7MET_125 2018-04-20 14:00:00 125 30483.0 15.520 16.000 16.650 16.270 14.560 41.980 34.980 2.615 0.740 764.00 141.10 1.081 1.322 1.988 2.687 13.820 15.710 16.300 16.980 16.420 15.440 4.336 2.513 904.00 167.70 1.5550   15.260 15.340 16.060 16.080 13.700 -0.915 -1.696     318     0.3210 85.50 42.17   0.000 0.000 17.631 7.373 10.230 18.497 6.445 12.027
WS7MET_125 2018-04-20 13:55:00 125 30483.0 14.810 15.620 16.160 15.720 14.860 37.980 32.410 0.508 -0.811 801.00 148.00 1.080 1.322 1.993 2.688 13.820 15.260 15.990 16.530 16.050 15.440 3.618 2.318 962.00 178.50 0.9540   14.380 15.340 15.850 15.540 14.500 -1.900 -2.289     318     0.3910 183.00 35.50   0.000 0.000 16.844 6.337 10.447 17.859 5.757 12.071
WS7MET_125 2018-04-20 13:50:00 125 30483.0 14.600 15.120 15.730 15.450 14.740 38.520 29.740 0.564 -2.225 721.50 132.40 1.073 1.324 1.996 2.689 13.810 14.990 15.600 16.170 15.640 15.450 3.187 1.025 961.00 178.50 1.6330   14.310 14.770 15.400 15.300 14.020 -2.748 -4.104     318     0.7300 89.90 55.65   0.000 0.000 16.618 6.363 10.217 17.552 5.187 12.332
WS7MET_125 2018-04-20 13:45:00 125 30483.0 14.660 14.980 15.640 15.290 14.210 40.480 31.410 1.348 -1.586 712.30 131.80 1.072 1.327 1.996 2.689 13.820 14.790 15.230 15.900 15.430 14.740 3.045 0.085 946.00 175.80 1.8100   14.480 14.740 15.410 15.130 13.630 -1.154 -3.539     318     0.6240 136.40 50.97   0.000 0.000 16.682 6.734 9.929 17.373 5.438 11.916
WS7MET_125 2018-04-20 13:40:00 125 30483.0 14.820 14.980 15.480 15.170 14.360 35.020 27.940 -0.550 -3.245 555.00 100.80 1.064 1.333 1.997 2.690 13.820 15.020 15.090 15.580 15.260 14.480 2.963 -2.561 851.00 155.70 1.1370   14.680 14.870 15.390 15.020 14.130 -3.135 -4.158     318     0.5040 111.30 53.41   0.000 0.000 16.855 5.868 10.953 17.239 4.807 12.423
WS7MET_125 2018-04-20 13:35:00 125 30483.0 15.190 15.520 15.930 15.600 14.780 27.790 25.340 -3.389 -4.189 458.30 81.10 1.056 1.335 1.998 2.690 13.810 15.300 15.630 16.090 15.710 15.160 0.670 -2.628 586.40 104.70 1.1560   15.020 15.170 15.540 15.400 14.360 -5.361 -5.672     318     0.4810 96.50 34.45   0.000 0.000 17.262 4.756 12.465 17.722 4.478 13.231
WS7MET_125 2018-04-20 13:30:00 125 30483.0 14.920 15.420 15.920 15.410 14.780 31.980 28.600 -1.733 -2.768 630.50 114.20 1.055 1.337 1.998 2.691 13.830 15.190 15.620 16.120 15.710 14.960 2.500 -0.764 1066.00 195.90 1.3980   14.510 15.090 15.650 15.090 14.550 -3.979 -4.576     318     0.6770 191.80 58.33   0.000 0.000 16.964 5.379 11.539 17.507 4.982 12.500
WS7MET_125 2018-04-20 13:25:00 125 30483.0 14.260 14.710 15.440 14.870 14.150 36.100 26.610 -0.609 -4.229 544.80 97.50 1.052 1.341 1.999 2.691 13.820 14.550 15.060 15.660 15.090 14.480 2.385 -1.152 730.00 132.90 1.0190   14.100 14.470 15.200 14.750 13.500 -2.440 -6.146     318     0.5730 157.50 26.60   0.000 0.000 16.256 5.842 10.388 16.910 4.465 12.410
WS7MET_125 2018-04-20 13:20:00 125 30483.0 14.620 15.200 15.870 15.300 14.180 36.210 28.300 -0.447 -3.053 628.40 113.80 1.049 1.342 1.999 2.691 13.810 14.890 15.670 16.370 15.540 14.700 4.757 -0.691 1096.00 202.60 1.2220   14.440 14.510 15.220 14.890 13.350 -4.891 -5.588     318     0.5680 117.60 34.37   0.000 0.000 16.639 5.912 10.614 17.384 4.877 12.464
WS7MET_125 2018-04-20 13:15:00 125 30483.0 14.790 15.280 15.750 15.230 14.160 38.780 29.550 0.645 -2.575 919.00 170.80 1.046 1.342 2.000 2.691 13.810 15.090 15.500 15.930 15.360 14.950 4.495 1.118 965.00 178.50 1.6920   14.340 14.970 15.510 14.960 13.390 -4.634 -5.958     318     0.6160 154.30 65.23   0.000 0.000 16.823 6.401 10.299 17.306 5.054 12.192
WS7MET_125 2018-04-20 13:10:00 125 30483.0 14.160 14.660 15.210 14.640 13.960 35.160 29.070 -1.239 -3.250 697.20 129.60 1.043 1.344 1.998 2.691 13.820 14.310 14.940 15.460 14.890 14.510 3.150 0.926 1082.00 201.30 1.8290   14.040 14.470 15.050 14.440 13.610 -5.025 -5.352     318     0.8830 176.40 52.41   0.000 0.000 16.151 5.579 10.473 16.661 4.806 11.817
WS7MET_125 2018-04-20 13:05:00 125 30483.0 14.100 14.610 15.270 14.960 13.730 39.320 30.410 0.240 -2.468 504.10 90.70 1.038 1.344 2.000 2.691 13.820 14.270 14.720 15.480 15.090 14.150 4.681 1.900 799.80 146.30 0.9600   13.900 14.490 15.020 14.650 13.210 -2.864 -5.104     318     0.4890 137.80 73.26   0.000 0.000 16.089 6.215 9.763 17.008 5.094 11.836
WS7MET_125 2018-04-20 13:00:00 125 30483.0 14.640 15.030 15.730 15.210 14.210 36.950 28.390 -0.156 -3.089 923.00 171.40 1.037 1.345 2.000 2.691 13.820 14.860 15.460 16.200 15.470 14.750 5.054 0.231 1103.00 202.60 1.1560   14.340 14.560 15.250 15.030 13.710 -4.557 -5.155     318     0.7640 130.00 29.85   0.000 0.000 16.661 6.039 10.505 17.284 4.864 12.377
WS7MET_125 2018-04-20 12:55:00 125 30483.0 15.020 15.310 15.860 15.340 14.220 34.920 26.370 -0.642 -3.963 921.00 172.00 1.036 1.350 2.000 2.691 13.820 15.500 15.620 16.110 15.570 14.740 3.975 -0.283 961.00 178.50 1.4630   14.720 14.940 15.480 15.130 13.680 -6.218 -6.698     318     0.6540 130.00 50.19   0.000 0.000 17.074 5.828 11.112 17.429 4.555 12.833
WS7MET_125 2018-04-20 12:50:00 125 30483.0 15.130 15.570 15.800 15.150 14.220 30.970 27.070 -1.965 -3.715 901.00 166.70 1.037 1.348 2.000 2.691 13.820 15.470 15.800 16.260 15.300 14.590 2.128 -1.105 1106.00 206.70 1.8160   14.790 15.290 15.480 14.890 13.640 -4.818 -5.636     318     0.5650 185.40 58.94   0.000 0.000 17.195 5.288 11.870 17.217 4.641 12.557
WS7MET_125 2018-04-20 12:45:00 125 30483.0 14.300 14.830 15.070 14.620 14.280 34.580 29.830 -1.153 -2.853 806.00 147.30 1.037 1.353 2.003 2.691 13.820 14.720 15.260 15.430 14.990 14.540 1.765 -1.100 1244.00 229.50 1.7840   13.900 14.340 14.640 14.270 13.890 -2.376 -4.593     318     0.9420 219.50 19.94   0.000 0.000 16.298 5.614 10.662 16.639 4.950 11.676
WS7MET_125 2018-04-20 12:40:00 125 30483.0 13.870 14.210 14.540 14.190 13.510 36.790 33.160 -0.740 -1.825 494.90 87.90 1.037 1.352 2.005 2.692 13.820 13.930 14.300 14.600 14.340 13.760 1.757 0.670 634.80 115.40 1.5880   13.800 14.090 14.430 14.000 13.220 -3.298 -3.227     318     0.6020 228.30 57.15   0.000 0.000 15.850 5.787 10.019 16.183 5.343 10.817
WS7MET_125 2018-04-20 12:35:00 125 30483.0 13.620 13.910 14.170 13.990 13.090 39.750 32.050 0.154 -2.434 432.40 76.09 1.038 1.355 2.005 2.692 13.820 13.760 14.070 14.400 14.070 13.220 1.458 -0.375 483.10 85.90 0.8890   13.490 13.810 14.000 13.900 12.860 -2.714 -3.591     318     0.3350 170.70 35.46   0.000 0.000 15.595 6.177 9.396 15.974 5.107 10.855
WS7MET_125 2018-04-20 12:30:00 125 30483.0 13.530 13.930 14.220 13.990 13.450 30.150 25.440 -3.841 -5.586 384.00 66.63 1.038 1.360 2.006 2.692 13.820 13.630 13.980 14.300 14.110 13.550 0.578 -2.701 394.60 68.44 2.2280   13.420 13.880 14.140 13.870 12.970 -8.130 -9.790     318     0.8440 213.90 24.11   0.000 0.000 15.504 4.597 10.829 15.974 4.028 11.910
WS7MET_125 2018-04-20 12:25:00 125 30483.0 13.350 13.780 14.140 13.880 13.340 39.600 35.220 -0.199 -1.257 425.90 74.75 1.038 1.364 2.008 2.692 13.820 13.420 13.910 14.300 14.040 13.550 4.202 0.616 441.50 77.84 2.1100   13.250 13.690 14.030 13.730 12.990 -2.112 -2.255     318     0.5590 198.40 54.26   0.000 0.000 15.323 6.020 9.255 15.861 5.571 10.274
WS7MET_125 2018-04-20 12:20:00 125 30483.0 13.090 13.530 13.850 13.560 13.000 44.800 39.640 1.272 0.050 431.90 76.09 1.037 1.362 2.008 2.692 13.810 13.220 13.710 14.000 13.700 13.490 4.093 2.417 442.90 79.18 1.9140   12.980 13.370 13.690 13.420 12.430 -1.854 -1.764     318     0.7830 202.40 57.08   0.000 0.000 15.065 6.697 8.316 15.534 6.130 9.376
WS7MET_125 2018-04-20 12:15:00 125 30483.0 12.840 13.140 13.530 13.490 12.550 47.120 42.610 1.666 0.929 414.70 73.75 1.038 1.363 2.007 2.692 13.820 13.010 13.500 13.840 13.700 13.250 4.625 3.978 438.80 77.84 1.9990   12.640 12.810 13.250 13.360 11.460 -1.509 -1.736     318     0.6350 195.10 61.78   0.000 0.000 14.820 6.889 7.837 15.463 6.533 8.874
WS7MET_125 2018-04-20 12:10:00 125 30483.0 13.420 13.550 14.110 13.890 12.550 47.610 39.520 2.447 0.307 458.60 82.20 1.038 1.365 2.008 2.692 13.820 14.070 14.100 14.660 14.240 13.050 4.407 2.566 538.20 98.00 1.2740   13.020 13.130 13.600 13.770 11.830 -0.835 -1.273     318     0.7920 91.90 18.50   0.000 0.000 15.393 7.285 8.064 15.871 6.246 9.599
WS7MET_125 2018-04-20 12:05:00 125 30483.0 14.190 14.640 15.220 14.300 13.030 42.810 39.560 1.560 0.670 627.90 117.10 1.039 1.365 2.007 2.692 13.820 14.350 14.810 15.370 14.550 13.490 4.873 2.930 812.00 154.30 0.7840   14.080 14.240 14.810 14.040 12.260 -1.888 -2.105     318     0.2920 130.70 56.95   0.000 0.000 16.183 6.837 9.255 16.298 6.412 9.851
WS7MET_125 2018-04-20 12:00:00 125 30483.0 14.100 14.460 15.030 14.010 12.760 48.960 42.710 3.438 1.438 627.80 119.70 1.042 1.365 2.009 2.692 13.820 14.180 14.630 15.200 14.140 13.200 5.270 4.755 742.10 143.60 1.0130   13.970 14.300 14.880 13.870 12.060 -1.880 -2.390     318     0.5790 149.20 49.21   0.000 0.000 16.089 7.816 8.212 15.995 6.777 9.164
WS7MET_125 2018-04-20 11:55:00 125 30483.0 14.130 14.690 15.040 14.260 12.970 44.240 41.300 2.042 1.226 730.80 144.60 1.045 1.365 2.008 2.692 13.820 14.350 14.950 15.280 14.420 13.310 4.923 3.808 1079.00 218.80 1.2670   14.010 14.410 14.830 14.140 12.220 -1.279 -1.159     318     0.6060 188.80 57.34   0.000 0.000 16.120 7.077 8.988 16.256 6.675 9.542
WS7MET_125 2018-04-20 11:50:00 125 30483.0 14.110 14.460 15.000 14.140 13.070 41.470 38.500 1.121 0.181 894.00 183.30 1.048 1.366 2.009 2.692 13.820 14.320 14.680 15.200 14.380 13.530 4.380 2.495 957.00 193.30 1.3520   13.940 14.260 14.820 13.910 12.510 -1.318 -1.650     318     0.6930 102.40 64.94   0.000 0.000 16.099 6.624 9.423 16.130 6.189 9.920
WS7MET_125 2018-04-20 11:45:00 125 30483.0 14.050 14.870 15.270 14.250 13.410 38.500 34.160 0.096 -1.337 909.00 189.00 1.052 1.365 2.009 2.689 13.820 14.350 15.020 15.460 14.350 13.640 2.298 0.300 984.00 205.30 2.6980   13.700 14.740 15.180 14.180 13.150 -1.565 -2.081     318     1.0720 192.50 53.94   0.000 0.000 16.037 6.151 9.862 16.246 5.538 10.696
WS7MET_125 2018-04-20 11:40:00 125 30483.0 13.360 14.130 14.710 14.000 12.860 43.130 36.440 0.957 -0.721 953.00 198.80 1.053 1.365 2.008 2.690 13.820 13.630 14.810 15.340 14.380 13.160 3.135 2.227 1090.00 228.10 1.3650   13.050 13.720 14.280 13.670 12.550 -3.051 -3.020     318     0.5830 182.90 68.58   0.000 0.000 15.333 6.546 8.720 15.985 5.795 10.160
WS7MET_125 2018-04-20 11:35:00 125 30483.0 12.920 13.560 14.030 13.370 12.160 44.270 35.460 0.862 -1.685 932.00 196.30 1.057 1.365 2.009 2.689 13.820 13.090 13.840 14.400 13.670 13.010 3.972 2.122 1035.00 217.40 1.5420   12.750 13.320 13.650 13.090 11.400 -3.170 -3.378     318     0.8940 163.60 37.08   0.000 0.000 14.898 6.502 8.303 15.343 5.398 9.902
WS7MET_125 2018-04-20 11:30:00 125 30483.0 13.190 13.500 13.930 13.490 12.380 50.130 41.910 2.959 0.790 764.70 159.60 1.057 1.365 2.009 2.683 13.840 13.460 13.650 14.150 13.630 12.840 5.412 2.453 968.00 204.00 1.3330   12.990 13.270 13.650 13.260 11.650 0.020 -0.489     318     0.8780 187.30 75.00   0.000 0.000 15.164 7.555 7.562 15.463 6.468 8.983
WS7MET_125 2018-04-20 11:25:00 125 30483.0 13.090 13.630 14.200 13.540 12.530 48.310 43.520 2.373 1.340 692.80 144.30 1.057 1.365 2.009 2.683 13.850 13.220 13.740 14.320 13.670 12.880 4.987 3.975 894.00 185.20 2.0710   12.880 13.500 14.040 13.430 12.260 0.961 -0.060     318     0.7360 178.00 42.03   0.000 0.000 15.065 7.247 7.787 15.514 6.730 8.762
WS7MET_125 2018-04-20 11:20:00 125 30483.0 13.050 13.500 14.180 13.600 12.410 48.610 42.430 2.450 1.064 678.50 142.20 1.057 1.368 2.009 2.683 13.840 13.330 13.640 14.380 13.740 12.770 3.909 2.802 845.00 179.80 1.1830   12.920 13.380 13.990 13.460 12.020 0.546 0.299     318     0.6920 101.00 43.90   0.000 0.000 15.025 7.287 7.722 15.574 6.597 8.966
WS7MET_125 2018-04-20 11:15:00 125 30483.0 13.420 13.940 14.530 13.630 12.580 46.500 42.400 2.163 1.086 773.70 169.50 1.056 1.365 2.009 2.683 13.840 13.600 14.180 14.680 13.800 12.910 4.012 2.320 956.00 209.40 1.2810   13.160 13.510 14.210 13.500 11.970 0.788 0.426     318     0.6880 122.20 25.38   0.000 0.000 15.393 7.139 8.235 15.605 6.608 8.988
WS7MET_125 2018-04-20 11:10:00 125 30483.0 13.050 13.660 14.250 13.260 12.260 46.540 43.050 1.790 0.940 878.00 201.40 1.056 1.366 2.009 2.683 13.850 13.220 13.800 14.420 13.570 12.610 3.997 2.506 997.00 226.80 1.6920   12.750 13.370 13.950 12.950 11.750 -0.406 -0.265     318     0.7710 177.20 51.69   0.000 0.000 15.025 6.951 8.033 15.233 6.538 8.675
WS7MET_125 2018-04-20 11:05:00 125 30483.0 12.870 13.120 13.560 13.110 11.190 52.950 47.330 3.491 2.126 840.00 196.10 1.055 1.363 2.010 2.683 13.870 13.090 13.360 13.900 13.430 12.060 4.901 3.560 851.00 197.30 1.2150   12.680 12.860 13.280 12.780 10.420 1.113 0.297     318     0.6700 146.80 43.36   0.000 0.000 14.850 7.845 6.987 15.085 7.120 7.945
WS7MET_125 2018-04-20 11:00:00 125 30483.0 13.190 13.480 14.010 13.300 12.220 42.200 38.840 0.593 -0.422 818.00 193.50 1.052 1.360 2.010 2.683 13.870 13.360 13.760 14.280 13.430 12.480 2.616 1.078 859.00 202.70 1.3590   12.920 13.180 13.650 13.120 11.950 -0.830 -1.364     318     0.5770 170.60 67.87   0.000 0.000 15.164 6.376 8.765 15.273 5.923 9.341
WS7MET_125 2018-04-20 10:55:00 125 30483.0 13.420 13.930 14.330 13.330 12.210 39.000 37.280 -0.264 -0.951 832.00 198.80 1.051 1.361 2.010 2.683 13.870 13.530 14.080 14.560 13.430 12.450 1.242 0.196 880.00 210.70 1.6660   13.220 13.700 14.190 13.160 11.420 -1.643 -2.369     318     0.7580 214.50 34.68   0.000 0.000 15.393 5.991 9.390 15.303 5.698 9.598
WS7MET_125 2018-04-20 10:50:00 125 30483.0 13.150 13.890 14.240 13.470 11.780 45.260 40.320 1.511 0.203 826.00 200.20 1.051 1.358 2.010 2.684 13.890 13.330 14.000 14.370 13.700 12.620 3.942 2.644 839.00 201.30 1.4240   12.950 13.810 14.120 13.220 10.800 -0.879 -2.230     318     0.5810 173.40 53.03   0.000 0.000 15.124 6.813 8.279 15.443 6.199 9.216
WS7MET_125 2018-04-20 10:45:00 125 30483.0 12.700 13.490 13.880 13.140 11.810 44.450 41.020 0.807 0.118 814.00 198.90 1.051 1.358 2.012 2.685 13.910 12.920 13.740 14.110 13.330 12.350 2.900 2.008 820.00 200.00 1.3460   12.580 13.380 13.750 12.850 11.120 -2.666 -3.250     318     0.4930 197.90 67.30   0.000 0.000 14.685 6.476 8.158 15.114 6.160 8.914
WS7MET_125 2018-04-20 10:40:00 125 30483.0 12.180 13.140 13.420 12.800 11.880 43.530 40.330 0.119 -0.364 802.00 197.20 1.050 1.358 2.012 2.686 13.920 12.540 13.510 13.800 13.020 12.200 2.133 1.235 807.00 197.30 1.1430   11.960 12.850 13.090 12.440 11.490 -1.996 -3.167     318     0.3460 161.40 57.72   0.000 0.000 14.192 6.161 8.014 14.782 5.948 8.820
WS7MET_125 2018-04-20 10:35:00 125 30483.0 12.040 12.770 13.090 12.540 11.540 39.940 34.060 -1.396 -2.986 791.70 196.00 1.052 1.360 2.008 2.687 13.930 12.230 13.050 13.410 12.640 11.940 2.150 1.074 795.90 196.00 1.2740   11.790 12.490 12.750 12.410 10.960 -6.143 -5.458     318     0.5750 145.90 60.57   0.000 0.000 14.062 5.514 8.445 14.532 4.901 9.582
WS7MET_125 2018-04-20 10:30:00 125 30483.0 11.470 12.450 12.880 12.240 11.570 41.230 37.910 -1.256 -1.699 783.70 195.10 1.053 1.361 2.009 2.688 13.950 11.790 12.680 13.040 12.470 11.770 0.691 -0.416 789.20 196.00 1.5220   11.010 12.090 12.630 12.000 11.330 -2.038 -3.195     318     0.6560 227.80 23.49   0.000 0.000 13.542 5.572 7.959 14.248 5.393 8.847
WS7MET_125 2018-04-20 10:25:00 125 30483.0 10.670 11.550 12.270 11.990 10.400 55.110 47.100 1.958 0.992 775.00 192.90 1.053 1.362 2.013 2.689 13.970 10.970 12.020 12.630 12.170 11.360 3.806 2.954 778.50 194.60 1.1690   10.460 11.270 12.020 11.790 9.650 -0.546 -1.880     318     0.7970 164.30 50.77   0.000 0.000 12.841 7.035 5.764 14.015 6.563 7.414
WS7MET_125 2018-04-20 10:20:00 125 30483.0 10.990 11.720 12.280 12.000 10.780 55.920 46.630 2.524 0.909 766.60 191.30 1.054 1.363 2.010 2.690 13.990 11.180 11.940 12.420 12.130 11.100 3.545 2.316 770.50 191.90 1.4310   10.840 11.550 12.140 11.790 10.430 0.487 -0.539     318     0.8710 96.30 46.83   0.000 0.000 13.117 7.325 5.782 14.025 6.524 7.485
WS7MET_125 2018-04-20 10:15:00 125 30483.0 10.160 10.940 11.570 11.650 10.460 60.530 52.630 2.724 2.157 756.50 188.70 1.055 1.365 2.013 2.689 14.010 10.900 11.680 12.100 11.830 11.280 5.515 5.475 762.40 189.30 1.4370   9.680 10.200 11.230 11.550 9.120 0.490 -0.228     318     0.8190 238.30 24.24   0.000 0.000 12.411 7.430 4.899 13.704 7.136 6.492
WS7MET_125 2018-04-20 10:10:00 125 30483.0 10.050 10.420 11.500 11.800 9.330 66.670 56.760 4.134 3.501 748.30 185.10 1.054 1.363 2.008 2.688 14.410 10.600 10.990 12.090 11.960 9.900 4.656 3.995 753.00 186.60 0.9150   9.710 10.020 11.060 11.620 9.060 3.789 1.467     318     0.4290 128.70 73.86   0.000 0.000 12.320 8.209 4.106 13.841 7.851 5.985
WS7MET_125 2018-04-20 10:05:00 125 30483.0 10.650 11.470 12.330 11.790 10.430 58.260 53.350 2.786 2.611 739.10 181.30 1.055 1.363 2.008 2.689 14.750 10.840 11.780 12.600 12.000 11.040 3.745 3.890 745.00 183.90 1.1960   10.360 11.070 12.090 11.590 9.830 1.891 1.668     318     0.6650 127.60 39.22   0.000 0.000 12.824 7.463 5.353 13.831 7.371 6.452
WS7MET_125 2018-04-20 10:00:00 125 30483.0 9.890 10.960 11.780 11.540 10.380 56.130 49.650 1.546 1.379 728.10 177.90 1.056 1.365 2.009 2.689 14.770 10.290 11.370 12.170 11.790 10.490 2.789 2.898 734.30 179.90 0.6990   9.440 10.500 11.540 11.220 10.090 0.798 0.703     318     0.2480 242.40 37.08   0.000 0.000 12.189 6.830 5.347 13.605 6.749 6.850
WS7MET_125 2018-04-20 09:55:00 125 30483.0 9.100 9.910 11.070 11.040 9.230 71.410 61.540 4.197 3.916 717.80 174.60 1.057 1.365 2.009 2.685 14.800 9.410 10.420 11.500 11.220 10.330 4.609 4.975 723.50 175.90 1.0780   8.930 9.650 10.810 10.940 8.550 3.055 2.058     318     0.4690 154.10 34.65   0.000 0.000 11.558 8.246 3.304 13.161 8.084 5.062
WS7MET_125 2018-04-20 09:50:00 125 30483.0 9.270 10.110 11.190 10.940 9.160 70.450 63.240 4.176 4.235 706.50 171.20 1.058 1.366 2.010 2.685 14.830 9.440 10.340 11.420 11.050 9.970 4.641 4.730 711.50 173.20 0.5550   9.100 9.740 10.870 10.670 8.580 3.140 3.298     318     0.1740 113.00 49.06   0.000 0.000 11.691 8.233 3.455 13.074 8.268 4.806
WS7MET_125 2018-04-20 09:45:00 125 30483.0 8.710 9.530 10.510 10.430 9.450 71.160 63.690 3.768 3.839 694.80 167.00 1.058 1.367 2.011 2.684 14.840 9.100 10.020 11.110 10.640 9.750 4.803 4.619 700.80 169.10 1.0520   8.250 8.980 9.950 10.200 9.010 2.682 3.001     318     0.4370 145.50 39.56   0.000 0.000 11.257 8.000 3.246 12.637 8.041 4.589
WS7MET_125 2018-04-20 09:40:00 125 30483.0 8.160 8.880 9.870 10.330 8.160 76.470 67.950 4.273 4.681 682.80 161.00 1.058 1.367 2.011 2.685 14.870 8.290 9.030 10.040 10.540 8.770 4.662 5.086 688.70 163.80 0.7320   7.978 8.700 9.660 10.090 7.747 3.975 4.236     318     0.2530 126.20 76.06   0.000 0.000 10.844 8.290 2.552 12.553 8.530 4.023
WS7MET_125 2018-04-20 09:35:00 125 30483.0 8.220 9.320 10.220 10.530 8.250 74.340 67.040 3.937 4.681 671.70 153.40 1.058 1.366 2.011 2.685 14.890 8.420 9.960 10.810 10.670 9.330 4.078 4.985 676.60 157.10 0.7910   7.978 8.820 9.860 10.370 7.796 3.710 4.251     318     0.3050 89.40 37.49   0.000 0.000 10.889 8.096 2.794 12.722 8.530 4.193
WS7MET_125 2018-04-20 09:30:00 125 30483.0 8.130 9.550 10.250 10.260 9.040 74.510 67.610 3.880 4.542 634.70 144.40 1.058 1.367 2.011 2.685 14.890 8.350 9.830 10.650 10.500 9.330 4.063 4.837 665.90 149.00 0.9340   7.739 9.100 9.860 9.990 8.640 3.650 4.189     318     0.4590 100.40 40.46   0.000 0.000 10.822 8.064 2.759 12.494 8.448 4.047
WS7MET_125 2018-04-20 09:25:00 125 30483.0 7.458 8.670 9.510 9.710 8.250 75.870 70.430 3.486 4.600 605.90 133.80 1.058 1.366 2.011 2.685 14.920 7.705 9.120 9.860 10.030 9.110 3.735 4.943 645.70 139.60 1.0650   7.330 8.420 9.290 9.480 7.885 3.182 4.161     318     0.3440 114.20 32.81   0.000 0.000 10.337 7.843 2.494 12.042 8.482 3.561
WS7MET_125 2018-04-20 09:20:00 125 30483.0 6.981 8.130 8.990 9.260 7.978 79.320 73.610 3.652 4.793 630.90 122.60 1.058 1.367 2.011 2.685 14.930 7.364 8.530 9.340 9.510 8.400 4.407 5.102 641.70 127.50 1.0780   6.750 7.895 8.720 9.070 7.590 3.205 4.239     318     0.2460 175.00 59.71   0.000 0.000 10.005 7.935 2.069 11.683 8.597 3.083
WS7MET_125 2018-04-20 09:15:00 125 30483.0 6.684 7.727 8.570 8.970 7.568 80.700 74.010 3.608 4.598 602.20 112.00 1.059 1.367 2.010 2.685 14.940 6.819 7.905 8.740 9.070 8.010 4.066 4.883 621.60 116.80 0.7910   6.444 7.453 8.350 8.800 7.178 3.199 4.139     318     0.3300 99.90 39.29   0.000 0.000 9.803 7.911 1.892 11.457 8.481 2.978
WS7MET_125 2018-04-20 09:10:00 125 30483.0 6.408 7.231 8.150 8.700 7.124 83.500 75.950 3.823 4.709 607.10 101.80 1.059 1.366 2.012 2.685 14.950 6.478 7.453 8.380 8.830 7.551 3.992 5.010 614.90 107.40 0.8360   6.341 7.149 8.030 8.630 6.826 3.642 4.495     318     0.1400 200.60 38.12   0.000 0.000 9.618 8.031 1.587 11.249 8.547 2.705
WS7MET_125 2018-04-20 09:05:00 125 30483.0 6.469 7.215 8.210 8.830 7.136 82.700 75.230 3.739 4.689 593.50 92.00 1.059 1.365 2.011 2.685 14.970 6.582 7.296 8.370 8.940 7.541 3.988 5.090 598.80 96.70 0.5750   6.376 7.140 8.040 8.700 6.827 3.617 4.400     318     0.1220 253.90 26.64   0.000 0.000 9.659 7.984 1.671 11.349 8.535 2.811
WS7MET_125 2018-04-20 09:00:00 125 30483.0 6.554 7.321 8.240 8.690 7.363 83.900 76.710 4.038 4.833 579.40 84.30 1.060 1.363 2.012 2.686 14.790 6.754 7.474 8.350 8.900 7.847 4.248 5.018 586.70 87.30 0.4900   6.345 7.072 8.010 8.460 7.022 3.737 4.682     318     0.1320 232.60 73.05   0.000 0.000 9.715 8.154 1.564 11.242 8.621 2.618
WS7MET_125 2018-04-20 08:55:00 125 30483.0 6.407 7.214 8.020 8.280 7.225 84.900 78.680 4.063 4.799 565.10 78.74 1.060 1.368 2.013 2.682 13.930 6.515 7.317 8.110 8.530 7.622 4.439 5.019 571.90 81.90 0.6010   6.209 7.033 7.838 7.950 6.730 3.864 4.638     318     0.1160 90.30 47.87   0.000 0.000 9.617 8.168 1.452 10.933 8.601 2.331
WS7MET_125 2018-04-20 08:50:00 125 30483.0 5.751 6.615 7.428 7.651 6.851 88.300 80.800 3.968 4.576 550.10 71.76 1.061 1.369 2.013 2.681 13.520 6.175 7.063 7.799 7.950 7.563 4.416 4.837 558.50 75.18 0.4120   5.529 6.400 7.211 7.474 6.303 3.641 4.394     318     0.0760 71.87 38.20   0.000 0.000 9.191 8.114 1.075 10.475 8.468 2.011
WS7MET_125 2018-04-20 08:45:00 125 30483.0 5.566 6.464 7.158 7.453 6.411 87.800 81.200 3.713 4.446 534.20 64.11 1.062 1.371 2.013 2.681 13.420 5.733 6.616 7.251 7.644 6.860 3.996 4.600 542.40 68.47 0.9800   5.358 6.119 6.841 7.201 5.925 3.567 4.279     318     0.4830 82.80 33.83   0.000 0.000 9.073 7.969 1.107 10.334 8.391 1.943
WS7MET_125 2018-04-20 08:40:00 125 30483.0 5.416 6.176 6.936 7.336 5.776 87.500 81.100 3.516 4.320 467.90 55.85 1.064 1.372 2.014 2.681 13.350 5.461 6.247 7.058 7.577 6.024 3.558 4.503 512.90 59.08 1.1630   5.358 6.062 6.822 7.201 5.605 3.468 4.213     318     0.3940 47.15 16.07   0.000 0.000 8.979 7.859 1.122 10.251 8.317 1.938
WS7MET_125 2018-04-20 08:35:00 125 30483.0 5.502 6.577 7.447 7.655 6.626 87.100 79.160 3.526 4.281 486.60 49.28 1.065 1.373 2.012 2.682 13.310 5.597 6.853 7.716 7.782 7.186 3.703 4.488 504.90 52.36 0.5160   5.392 6.258 7.078 7.474 5.878 3.385 4.136     318     0.2460 292.60 74.70   0.000 0.000 9.033 7.865 1.165 10.478 8.294 2.184
WS7MET_125 2018-04-20 08:30:00 125 30483.0 5.532 6.474 7.199 7.278 6.633 87.600 81.000 3.645 4.232 487.90 44.71 1.066 1.374 2.011 2.683 13.260 5.666 6.572 7.432 7.474 6.932 3.830 4.337 494.10 47.00 1.1110   5.290 6.270 7.022 7.133 6.133 3.480 4.029     318     0.3890 251.10 23.63   0.000 0.000 9.052 7.931 1.122 10.211 8.266 1.940
WS7MET_125 2018-04-20 08:25:00 125 30483.0 5.176 5.976 6.777 6.956 6.197 89.600 82.100 3.614 4.122 475.10 41.02 1.067 1.375 2.014 2.685 13.230 5.392 6.183 6.963 7.201 6.671 3.745 4.389 482.10 42.97 1.0910   4.812 5.543 6.447 6.689 5.814 3.453 3.885     318     0.3070 236.50 38.02   0.000 0.000 8.830 7.914 0.918 9.988 8.202 1.788
WS7MET_125 2018-04-20 08:20:00 125 30483.0 4.776 5.458 6.328 6.688 5.491 90.600 83.100 3.381 4.024 458.80 37.80 1.068 1.376 2.015 2.686 13.200 4.915 5.543 6.408 6.758 5.776 3.625 4.151 467.30 38.94 0.3720   4.710 5.407 6.262 6.587 5.359 3.232 3.898     318     0.0830 109.30 61.56   0.000 0.000 8.587 7.785 0.807 9.805 8.146 1.657
WS7MET_125 2018-04-20 08:15:00 125 30483.0 4.647 5.445 6.126 6.425 5.677 91.100 83.300 3.327 3.812 440.90 34.85 1.069 1.375 2.016 2.686 13.170 4.812 5.640 6.428 6.724 6.097 3.425 3.965 451.20 36.26 0.2870   4.505 5.282 5.835 6.246 5.359 3.198 3.694     318     0.0440 179.00 37.13   0.000 0.000 8.510 7.755 0.757 9.629 8.025 1.608
WS7MET_125 2018-04-20 08:10:00 125 30483.0 4.244 5.018 5.409 5.973 5.398 93.700 85.400 3.322 3.719 420.70 32.10 1.069 1.377 2.017 2.686 13.150 4.573 5.408 5.835 6.314 5.942 3.517 3.866 431.10 33.57 0.5680   3.959 4.673 5.040 5.734 4.750 3.094 3.609     318     0.1630 86.30 71.90   0.000 0.000 8.273 7.752 0.521 9.333 7.973 1.363
WS7MET_125 2018-04-20 08:05:00 125 30483.0 3.993 4.605 5.000 5.509 4.856 94.300 87.100 3.166 3.543 403.30 29.48 1.069 1.378 2.015 2.686 13.120 4.096 4.653 5.079 5.734 5.089 3.265 3.688 410.90 30.89 0.8430   3.925 4.557 4.934 5.324 4.673 3.080 3.452     318     0.5030 41.35 16.07   0.000 0.000 8.128 7.667 0.463 9.037 7.874 1.166
WS7MET_125 2018-04-20 08:00:00 125 30483.0 3.775 4.386 4.747 4.911 4.810 95.200 90.000 3.081 3.412 387.90 25.78 1.069 1.377 2.015 2.686 13.090 3.959 4.595 4.973 5.290 5.341 3.247 3.561 394.80 28.20 0.3460   3.652 4.248 4.615 4.573 4.508 2.987 3.266     318     0.0820 62.66 40.12   0.000 0.000 8.004 7.621 0.384 8.669 7.802 0.867
WS7MET_125 2018-04-20 07:55:00 125 30483.0 3.544 4.083 4.407 4.433 4.340 95.700 91.800 2.928 3.217 372.50 20.95 1.069 1.377 2.015 2.686 13.070 3.686 4.228 4.595 4.573 4.653 3.056 3.277 380.10 22.83 0.2940   3.447 4.016 4.335 4.300 4.219 2.861 3.090     318     0.0810 52.77 41.31   0.000 0.000 7.875 7.539 0.339 8.383 7.695 0.687
WS7MET_125 2018-04-20 07:50:00 125 30483.0 3.389 3.899 4.183 4.133 4.187 96.500 93.500 2.881 3.177 259.50 16.25 1.069 1.377 2.015 2.686 13.040 3.515 4.016 4.325 4.300 4.364 2.997 3.241 361.30 18.80 0.5290   3.242 3.765 4.035 3.925 4.045 2.734 3.075     318     0.1780 52.85 19.78   0.000 0.000 7.789 7.514 0.273 8.209 7.673 0.534
WS7MET_125 2018-04-20 07:45:00 125 30483.0 3.169 3.671 3.909 3.869 3.827 96.500 94.500 2.662 3.077 62.78 13.03 1.069 1.378 2.015 2.686 13.020 3.276 3.746 4.006 3.993 4.074 2.719 3.194 99.40 14.77 0.4900   3.106 3.601 3.842 3.754 3.746 2.622 2.962     318     0.1040 35.65 20.07   0.000 0.000 7.669 7.397 0.268 8.058 7.619 0.443
WS7MET_125 2018-04-20 07:40:00 125 30483.0 3.101 3.540 3.803 3.768 3.663 96.400 94.300 2.579 2.936 33.31 11.01 1.069 1.378 2.016 2.686 13.000 3.174 3.592 3.842 3.857 3.746 2.661 3.023 34.92 12.09 0.3850   3.038 3.515 3.785 3.686 3.621 2.500 2.838     318     0.1280 0.70 0.26   0.000 0.000 7.632 7.354 0.275 8.000 7.543 0.456
WS7MET_125 2018-04-20 07:35:00 125 30483.0 3.092 3.560 3.797 3.696 3.748 97.200 94.700 2.696 2.928 31.90 9.47 1.069 1.378 2.016 2.687 12.990 3.208 3.630 3.862 3.788 4.055 2.796 2.987 32.23 10.74 0.4510   3.003 3.438 3.650 3.584 3.573 2.516 2.887     318     0.2150 17.12 15.98   0.000 0.000 7.627 7.415 0.214 7.960 7.539 0.422
WS7MET_125 2018-04-20 07:30:00 125 30483.0 3.012 3.380 3.591 3.520 3.546 97.700 95.600 2.683 2.880 30.15 8.53 1.069 1.378 2.018 2.686 12.970 3.106 3.418 3.640 3.618 3.650 2.772 2.948 32.23 9.40 0.6530   2.935 3.283 3.495 3.379 3.457 2.611 2.760     318     0.1890 41.71 14.23   0.000 0.000 7.584 7.409 0.174 7.862 7.513 0.346
WS7MET_125 2018-04-20 07:25:00 125 30483.0 2.903 3.223 3.447 3.370 3.385 97.700 95.700 2.571 2.747 28.27 8.06 1.069 1.377 2.017 2.686 12.950 2.969 3.264 3.495 3.447 3.438 2.655 2.823 29.54 8.06 0.7710   2.833 3.168 3.399 3.276 3.332 2.499 2.648     318     0.5020 35.84 18.39   0.000 0.000 7.525 7.350 0.173 7.779 7.442 0.334
WS7MET_125 2018-04-20 07:20:00 125 30483.0 2.824 3.171 3.385 3.288 3.309 97.300 95.700 2.446 2.666 26.46 6.85 1.069 1.377 2.018 2.686 12.940 2.901 3.178 3.399 3.345 3.332 2.513 2.731 26.86 8.06 0.6730   2.765 3.168 3.370 3.208 3.283 2.367 2.575     318     0.5220 13.84 3.83   0.000 0.000 7.483 7.285 0.202 7.734 7.400 0.333
WS7MET_125 2018-04-20 07:15:00 125 30483.0 2.783 3.155 3.351 3.253 3.270 96.800 95.700 2.330 2.631 24.98 6.72 1.069 1.374 2.020 2.687 12.920 2.867 3.168 3.370 3.379 3.283 2.405 2.760 25.52 6.72 0.4640   2.730 3.149 3.332 3.106 3.255 2.259 2.478     318     0.2410 15.51 6.71   0.000 0.000 7.461 7.225 0.239 7.714 7.381 0.332
WS7MET_125 2018-04-20 07:10:00 125 30483.0 2.739 3.093 3.280 3.171 3.223 97.200 95.400 2.346 2.514 23.50 5.37 1.069 1.378 2.019 2.686 12.920 2.833 3.149 3.322 3.242 3.283 2.407 2.629 24.17 5.37 0.5810   2.662 3.062 3.245 3.003 3.168 2.280 2.331     318     0.1600 26.41 12.14   0.000 0.000 7.438 7.233 0.208 7.670 7.320 0.353
WS7MET_125 2018-04-20 07:05:00 125 30483.0 2.666 3.061 3.245 3.099 3.177 97.200 95.400 2.269 2.430 21.82 5.04 1.069 1.378 2.020 2.686 12.910 2.799 3.072 3.255 3.208 3.216 2.411 2.540 22.83 5.37 0.4970   2.594 3.052 3.235 3.003 3.129 2.207 2.346     318     0.2170 24.52 13.32   0.000 0.000 7.400 7.193 0.207 7.631 7.276 0.351
WS7MET_125 2018-04-20 07:00:00 125 30483.0 2.587 2.999 3.170 2.991 3.162 97.500 95.600 2.226 2.362 19.74 4.03 1.069 1.378 2.022 2.686 12.900 2.662 3.052 3.226 3.106 3.206 2.304 2.488 20.14 4.03 0.4120   2.526 2.937 3.110 2.935 3.091 2.153 2.283     318     0.1450 17.46 10.68   0.000 0.000 7.358 7.171 0.184 7.572 7.241 0.333
WS7MET_125 2018-04-20 06:55:00 125 30483.0 2.520 2.880 3.039 2.848 3.019 98.000 95.900 2.241 2.258 17.79 4.03 1.069 1.378 2.025 2.686 12.890 2.594 2.937 3.100 2.935 3.081 2.320 2.339 18.80 4.03 0.5880   2.457 2.831 2.985 2.765 2.975 2.183 2.189     318     0.1910 18.43 11.77   0.000 0.000 7.323 7.179 0.146 7.496 7.187 0.307
WS7MET_125 2018-04-20 06:50:00 125 30483.0 2.468 2.788 2.931 2.751 2.906 98.900 96.600 2.316 2.260 15.44 4.03 1.069 1.378 2.025 2.686 12.880 2.594 2.831 2.975 2.799 2.966 2.402 2.322 16.12 4.03 0.5550   2.389 2.744 2.889 2.696 2.860 2.251 2.195     318     0.4560 349.80 0.92   0.000 0.000 7.296 7.217 0.080 7.444 7.188 0.253
WS7MET_125 2018-04-20 06:45:00 125 30483.0 2.369 2.693 2.833 2.647 2.816 99.400 97.000 2.289 2.213 13.63 3.09 1.069 1.378 2.026 2.686 12.880 2.457 2.744 2.879 2.765 2.850 2.392 2.333 14.77 4.03 0.5230   2.253 2.629 2.773 2.526 2.744 2.163 2.094     318     0.4750 346.70 0.06   0.000 0.000 7.245 7.203 0.043 7.390 7.164 0.222
WS7MET_125 2018-04-20 06:40:00 125 30483.0 2.251 2.573 2.727 2.517 2.706 99.600 97.100 2.192 2.105 12.15 2.69 1.069 1.378 2.027 2.686 12.880 2.321 2.629 2.773 2.594 2.744 2.246 2.182 13.43 2.69 0.5810   2.218 2.513 2.667 2.423 2.648 2.143 2.022     318     0.5270 343.50 1.29   0.000 0.000 7.184 7.154 0.029 7.321 7.109 0.212
WS7MET_125 2018-04-20 06:35:00 125 30483.0 2.128 2.421 2.591 2.421 2.561 99.600 97.100 2.068 2.014 11.08 2.69 1.069 1.378 2.028 2.686 12.870 2.218 2.504 2.658 2.526 2.648 2.172 2.134 12.09 2.69 0.5550   2.048 2.359 2.532 2.321 2.494 1.958 1.915     318     0.5280 341.90 1.82   0.000 0.000 7.121 7.091 0.028 7.272 7.063 0.211
WS7MET_125 2018-04-20 06:30:00 125 30483.0 2.082 2.318 2.499 2.346 2.429 99.400 97.000 2.004 1.927 10.74 2.69 1.069 1.378 2.030 2.686 12.870 2.150 2.359 2.532 2.457 2.475 2.075 2.046 10.74 2.69 0.5620   2.014 2.302 2.484 2.287 2.398 1.948 1.861     318     0.4710 336.50 0.14   0.000 0.000 7.098 7.058 0.043 7.233 7.019 0.217
WS7MET_125 2018-04-20 06:25:00 125 30483.0 2.034 2.287 2.478 2.331 2.418 99.400 97.000 1.955 1.912 9.67 2.69 1.069 1.377 2.027 2.686 12.870 2.150 2.302 2.494 2.389 2.436 2.085 1.973 10.74 2.69 0.4510   1.980 2.263 2.456 2.253 2.398 1.885 1.842     318     0.3190 347.00 6.65   0.000 0.000 7.073 7.033 0.042 7.225 7.012 0.217
WS7MET_125 2018-04-20 06:20:00 125 30483.0 2.034 2.264 2.441 2.288 2.388 99.500 97.200 1.970 1.888 9.40 2.69 1.071 1.378 2.029 2.686 12.870 2.116 2.273 2.465 2.389 2.417 2.070 1.978 9.40 2.69 0.5100   1.980 2.253 2.427 2.184 2.369 1.909 1.788     318     0.4380 351.70 3.20   0.000 0.000 7.073 7.041 0.035 7.203 7.000 0.202
WS7MET_125 2018-04-20 06:15:00 125 30483.0 1.995 2.229 2.402 2.230 2.335 99.600 97.200 1.940 1.837 9.33 2.48 1.071 1.378 2.030 2.686 12.870 2.048 2.253 2.417 2.321 2.379 1.987 1.915 9.40 2.69 0.4440   1.945 2.215 2.388 2.184 2.321 1.885 1.788     318     0.4050 343.40 0.54   0.000 0.000 7.054 7.026 0.028 7.173 6.974 0.201
WS7MET_125 2018-04-20 06:10:00 125 30483.0 1.990 2.211 2.399 2.235 2.350 99.600 97.400 1.934 1.863 8.12 1.41 1.073 1.378 2.030 2.686 12.880 2.048 2.225 2.417 2.321 2.359 2.001 1.949 9.40 2.69 0.3850   1.945 2.205 2.379 2.184 2.330 1.885 1.808     318     0.3470 341.20 0.84   0.000 0.000 7.051 7.023 0.028 7.176 6.987 0.187
WS7MET_125 2018-04-20 06:05:00 125 30483.0 1.995 2.192 2.343 2.181 2.280 99.800 97.400 1.962 1.817 8.06 1.34 1.073 1.378 2.031 2.686 12.880 2.082 2.205 2.369 2.253 2.321 2.040 1.886 8.06 1.34 0.4310   1.911 2.176 2.330 2.116 2.244 1.865 1.745     318     0.4010 342.90 0.05   0.000 0.000 7.054 7.037 0.014 7.148 6.964 0.186
WS7MET_125 2018-04-20 06:00:00 125 30483.0 1.969 2.180 2.336 2.188 2.269 100.000 97.600 1.969 1.844 7.18 1.34 1.075 1.378 2.030 2.686 12.880 2.048 2.186 2.340 2.218 2.282 2.049 1.876 8.06 1.34 0.4570   1.877 2.167 2.330 2.150 2.244 1.878 1.789     318     0.4000 342.80 0.22   0.000 0.000 7.040 7.040 0.000 7.152 6.978 0.172
WS7MET_125 2018-04-20 05:55:00 125 30483.0 1.903 2.147 2.309 2.121 2.269 100.000 97.700 1.899 1.797 6.72 1.34 1.073 1.378 2.031 2.686 12.880 1.980 2.176 2.340 2.184 2.302 1.981 1.862 6.72 1.34 0.4770   1.843 2.109 2.282 2.048 2.244 1.830 1.721     318     0.3960 343.00 0.31   0.000 0.000 7.007 7.005 0.000 7.117 6.954 0.164
WS7MET_125 2018-04-20 05:50:00 125 30483.0 1.870 2.089 2.254 2.077 2.200 99.800 97.700 1.849 1.752 5.64 1.34 1.076 1.378 2.032 2.686 12.880 1.945 2.109 2.273 2.184 2.244 1.942 1.867 6.72 1.34 0.5030   1.741 2.071 2.234 2.014 2.167 1.713 1.687     318     0.4410 341.20 3.87   0.000 0.000 6.991 6.980 0.014 7.095 6.932 0.163
WS7MET_125 2018-04-20 05:45:00 125 30483.0 1.850 2.056 2.209 2.048 2.147 99.800 97.700 1.826 1.725 5.24 1.34 1.078 1.378 2.032 2.686 12.890 1.911 2.061 2.225 2.116 2.167 1.889 1.789 5.37 1.34 0.6080   1.809 2.051 2.196 1.980 2.128 1.762 1.653     318     0.4910 331.40 1.53   0.000 0.000 6.981 6.969 0.014 7.080 6.918 0.163
WS7MET_125 2018-04-20 05:40:00 125 30483.0 1.831 2.034 2.164 2.007 2.116 100.000 97.700 1.832 1.686 4.03 1.34 1.078 1.378 2.032 2.687 12.890 1.911 2.061 2.196 2.116 2.167 1.908 1.808 4.03 1.34 0.4250   1.741 2.013 2.148 1.945 2.071 1.742 1.618     318     0.4020 337.60 2.11   0.000 0.000 6.971 6.972 -0.000 7.060 6.899 0.162
WS7MET_125 2018-04-20 05:35:00 125 30483.0 1.794 1.999 2.150 1.986 2.103 100.000 97.700 1.793 1.664 4.03 0.67 1.077 1.378 2.032 2.686 12.890 1.877 2.013 2.167 2.048 2.138 1.878 1.730 4.03 1.34 0.4640   1.741 1.974 2.128 1.945 2.051 1.728 1.618     318     0.4110 343.40 1.08   0.000 0.000 6.953 6.952 0.000 7.049 6.888 0.162
WS7MET_125 2018-04-20 05:30:00 125 30483.0 1.756 1.955 2.093 1.933 2.059 99.900 97.700 1.738 1.607 3.63 0.00 1.079 1.378 2.032 2.686 12.890 1.809 1.974 2.119 1.980 2.090 1.796 1.667 4.03 0.00 0.4830   1.672 1.926 2.061 1.877 2.013 1.645 1.560     318     0.3890 341.80 0.17   0.000 0.000 6.934 6.925 0.007 7.022 6.860 0.162
WS7MET_125 2018-04-20 05:25:00 125 30483.0 1.759 1.930 2.073 1.935 2.009 99.800 97.500 1.737 1.585 2.69 0.00 1.078 1.378 2.032 2.688 12.890 1.877 1.945 2.099 1.980 2.051 1.855 1.633 2.69 0.00 0.3990   1.706 1.917 2.051 1.877 1.965 1.669 1.526     318     0.3090 341.30 2.14   0.000 0.000 6.935 6.924 0.014 7.023 6.849 0.176
WS7MET_125 2018-04-20 05:20:00 125 30483.0 1.734 1.925 2.079 1.932 2.010 99.700 97.300 1.699 1.553 1.48 0.00 1.079 1.378 2.031 2.690 12.900 1.809 1.936 2.099 2.014 2.071 1.772 1.633 2.69 0.00 0.4510   1.638 1.917 2.061 1.877 1.974 1.616 1.497     318     0.3850 338.40 0.02   0.000 0.000 6.923 6.906 0.021 7.022 6.834 0.190
WS7MET_125 2018-04-20 05:15:00 125 30483.0 1.732 1.927 2.110 1.981 2.062 99.600 97.300 1.681 1.598 0.94 0.00 1.079 1.379 2.030 2.691 12.900 1.809 1.936 2.119 2.048 2.071 1.767 1.662 1.34 0.00 0.4310   1.672 1.907 2.099 1.877 2.042 1.626 1.502     318     0.4110 337.50 0.99   0.000 0.000 6.922 6.897 0.028 7.047 6.856 0.190
WS7MET_125 2018-04-20 05:10:00 125 30483.0 1.713 1.893 2.078 1.959 2.014 99.100 97.100 1.591 1.550 0.00 0.00 1.079 1.378 2.032 2.690 12.910 1.809 1.907 2.099 2.082 2.051 1.676 1.676 0.00 0.00 0.3850   1.638 1.878 2.071 1.877 1.974 1.525 1.487     318     0.3490 335.50 0.08   0.000 0.000 6.913 6.852 0.062 7.035 6.832 0.204
WS7MET_125 2018-04-20 05:05:00 125 30483.0 1.811 1.951 2.120 2.015 2.027 98.800 96.900 1.637 1.572 0.00 0.00 1.080 1.378 2.032 2.691 12.910 1.911 2.013 2.167 2.082 2.090 1.740 1.657 0.00 0.00 0.4570   1.672 1.897 2.080 1.911 1.984 1.506 1.452     318     0.3530 332.00 1.69   0.000 0.000 6.961 6.875 0.084 7.064 6.843 0.219
WS7MET_125 2018-04-20 05:00:00 125 30483.0 1.898 2.044 2.185 2.051 2.132 98.900 96.900 1.744 1.613 0.00 0.00 1.079 1.378 2.032 2.690 12.910 1.980 2.061 2.186 2.116 2.148 1.827 1.666 0.00 0.00 0.3920   1.809 2.013 2.167 2.014 2.090 1.657 1.559     318     0.2860 331.10 0.28   0.000 0.000 7.005 6.928 0.077 7.082 6.863 0.220
WS7MET_125 2018-04-20 04:55:00 125 30483.0 1.911 2.086 2.224 2.090 2.143 98.800 96.600 1.745 1.607 0.00 0.00 1.079 1.378 2.032 2.694 12.910 1.980 2.128 2.263 2.184 2.176 1.827 1.695 0.00 0.00 0.3920   1.843 2.061 2.196 1.980 2.109 1.671 1.515     318     0.3100 327.50 7.81   0.000 0.000 7.011 6.928 0.084 7.102 6.860 0.241
WS7MET_125 2018-04-20 04:50:00 125 30483.0 1.913 2.146 2.310 2.179 2.235 98.700 96.500 1.736 1.680 0.00 0.00 1.079 1.378 2.032 2.694 12.920 1.980 2.157 2.321 2.253 2.282 1.827 1.758 0.00 0.00 0.5030   1.843 2.128 2.263 2.116 2.148 1.662 1.607     318     0.3300 340.30 8.04   0.000 0.000 7.012 6.924 0.091 7.147 6.896 0.250
WS7MET_125 2018-04-20 04:45:00 125 30483.0 1.932 2.141 2.335 2.196 2.245 98.400 96.200 1.707 1.649 0.00 0.00 1.082 1.378 2.032 2.695 12.920 2.014 2.148 2.350 2.287 2.263 1.798 1.728 0.00 0.00 0.6210   1.843 2.128 2.321 2.116 2.225 1.628 1.538     318     0.4990 327.80 2.71   0.000 0.000 7.022 6.910 0.112 7.156 6.881 0.272
WS7MET_125 2018-04-20 04:40:00 125 30483.0 1.983 2.195 2.386 2.253 2.291 98.400 96.000 1.755 1.685 0.00 0.00 1.080 1.378 2.032 2.698 12.920 2.082 2.234 2.427 2.321 2.359 1.857 1.757 0.00 0.00 0.5230   1.877 2.138 2.350 2.184 2.244 1.633 1.621     318     0.4820 333.90 1.18   0.000 0.000 7.048 6.933 0.113 7.185 6.899 0.287
WS7MET_125 2018-04-20 04:35:00 125 30483.0 1.959 2.231 2.412 2.268 2.370 98.400 96.000 1.735 1.702 0.00 0.00 1.080 1.378 2.032 2.697 12.920 2.082 2.244 2.436 2.321 2.379 1.862 1.752 0.00 0.00 0.5750   1.877 2.205 2.388 2.184 2.350 1.662 1.630     318     0.4880 341.50 3.91   0.000 0.000 7.035 6.923 0.113 7.193 6.907 0.288
WS7MET_125 2018-04-20 04:30:00 125 30483.0 1.973 2.176 2.385 2.283 2.292 98.100 95.700 1.705 1.673 0.00 0.00 1.083 1.378 2.032 2.699 12.920 2.048 2.205 2.407 2.389 2.350 1.779 1.770 0.00 0.00 0.6530   1.877 2.167 2.379 2.184 2.244 1.623 1.591     318     0.5410 345.40 3.30   0.000 0.000 7.043 6.909 0.134 7.200 6.893 0.310
WS7MET_125 2018-04-20 04:25:00 125 30483.0 2.075 2.284 2.476 2.341 2.391 98.100 95.800 1.802 1.745 0.00 0.00 1.083 1.381 2.032 2.699 12.920 2.150 2.330 2.504 2.389 2.436 1.891 1.805 0.00 0.00 0.5030   1.945 2.205 2.417 2.287 2.302 1.657 1.693     318     0.4630 340.50 0.33   0.000 0.000 7.094 6.957 0.135 7.230 6.928 0.304
WS7MET_125 2018-04-20 04:20:00 125 30483.0 2.099 2.330 2.487 2.367 2.426 98.200 95.800 1.848 1.770 0.00 0.00 1.087 1.380 2.033 2.699 12.920 2.150 2.340 2.494 2.423 2.446 1.911 1.824 0.00 0.00 0.4900   2.014 2.321 2.484 2.321 2.407 1.750 1.722     318     0.4430 343.90 2.43   0.000 0.000 7.106 6.980 0.128 7.244 6.941 0.304
WS7MET_125 2018-04-20 04:15:00 125 30483.0 2.087 2.341 2.520 2.381 2.452 98.500 95.900 1.876 1.799 0.00 0.00 1.086 1.380 2.033 2.701 12.930 2.218 2.350 2.532 2.457 2.494 1.993 1.888 0.00 0.00 0.6790   2.014 2.340 2.494 2.287 2.398 1.808 1.728     318     0.5450 352.50 3.62   0.000 0.000 7.100 6.994 0.107 7.251 6.955 0.297
WS7MET_125 2018-04-20 04:10:00 125 30483.0 2.085 2.318 2.520 2.401 2.455 98.600 96.000 1.883 1.833 0.00 0.00 1.085 1.378 2.032 2.702 12.940 2.116 2.340 2.532 2.457 2.494 1.925 1.893 0.00 0.00 0.6270   1.980 2.302 2.504 2.355 2.436 1.774 1.771     318     0.4680 345.90 4.32   0.000 0.000 7.099 6.997 0.099 7.261 6.972 0.290
WS7MET_125 2018-04-20 04:05:00 125 30483.0 2.070 2.314 2.523 2.375 2.471 98.600 96.200 1.870 1.833 0.00 0.00 1.085 1.378 2.032 2.704 12.950 2.150 2.321 2.542 2.457 2.513 1.945 1.917 0.00 0.00 0.6140   2.014 2.302 2.494 2.287 2.436 1.803 1.752     318     0.4750 339.20 3.12   0.000 0.000 7.092 6.991 0.099 7.248 6.972 0.275
WS7MET_125 2018-04-20 04:00:00 125 30483.0 2.063 2.313 2.493 2.355 2.426 98.600 96.200 1.865 1.815 0.00 0.00 1.084 1.378 2.033 2.702 12.950 2.184 2.321 2.494 2.423 2.436 1.998 1.883 0.00 0.00 0.5680   1.980 2.292 2.484 2.287 2.417 1.784 1.742     318     0.5090 338.00 4.28   0.000 0.000 7.088 6.988 0.099 7.237 6.963 0.275
WS7MET_125 2018-04-20 03:55:00 125 30483.0 2.048 2.271 2.479 2.326 2.420 98.700 96.300 1.861 1.803 0.00 0.00 1.088 1.378 2.032 2.705 12.950 2.116 2.282 2.494 2.389 2.436 1.930 1.869 0.00 0.00 0.6270   1.980 2.253 2.456 2.253 2.398 1.774 1.728     318     0.5290 336.90 8.17   0.000 0.000 7.080 6.986 0.092 7.222 6.957 0.267
WS7MET_125 2018-04-20 03:50:00 125 30483.0 2.020 2.254 2.446 2.314 2.370 98.600 96.200 1.829 1.774 0.00 0.00 1.088 1.378 2.032 2.704 12.950 2.082 2.282 2.465 2.389 2.417 1.896 1.854 0.00 0.00 0.5880   1.911 2.244 2.427 2.253 2.340 1.730 1.718     318     0.5220 341.70 2.85   0.000 0.000 7.066 6.970 0.099 7.216 6.943 0.274
WS7MET_125 2018-04-20 03:45:00 125 30483.0 2.036 2.268 2.457 2.341 2.380 98.700 96.200 1.849 1.804 0.00 0.00 1.087 1.378 2.032 2.705 12.960 2.082 2.282 2.465 2.423 2.398 1.896 1.893 0.00 0.00 0.5490   2.014 2.253 2.446 2.253 2.359 1.818 1.713     318     0.4810 342.70 1.28   0.000 0.000 7.074 6.980 0.092 7.230 6.958 0.275
WS7MET_125 2018-04-20 03:40:00 125 30483.0 2.058 2.288 2.482 2.365 2.415 98.700 96.200 1.880 1.830 0.00 0.00 1.087 1.378 2.032 2.705 12.960 2.150 2.292 2.494 2.423 2.456 1.974 1.893 0.00 0.00 0.5030   1.980 2.282 2.465 2.287 2.398 1.803 1.752     318     0.4170 344.10 0.56   0.000 0.000 7.085 6.996 0.092 7.243 6.971 0.275
WS7MET_125 2018-04-20 03:35:00 125 30483.0 2.099 2.302 2.495 2.358 2.447 98.700 96.400 1.919 1.849 0.00 0.00 1.087 1.378 2.032 2.706 12.960 2.184 2.311 2.504 2.423 2.475 2.008 1.923 0.00 0.00 0.5620   2.014 2.292 2.484 2.253 2.417 1.832 1.743     318     0.4680 348.10 5.61   0.000 0.000 7.106 7.015 0.092 7.239 6.980 0.261
WS7MET_125 2018-04-20 03:30:00 125 30483.0 2.109 2.314 2.496 2.375 2.418 98.800 96.400 1.943 1.859 0.00 0.00 1.087 1.378 2.032 2.705 12.960 2.218 2.321 2.513 2.423 2.436 2.056 1.903 0.00 0.00 0.4440   2.048 2.302 2.484 2.321 2.398 1.876 1.796     318     0.3540 342.20 5.26   0.000 0.000 7.111 7.027 0.085 7.248 6.985 0.261
WS7MET_125 2018-04-20 03:25:00 125 30483.0 2.143 2.340 2.547 2.423 2.473 98.900 96.500 1.984 1.918 0.00 0.00 1.087 1.378 2.033 2.705 12.960 2.253 2.359 2.561 2.491 2.494 2.090 1.996 0.00 0.00 0.5230   2.048 2.321 2.532 2.355 2.436 1.895 1.840     318     0.4270 334.10 2.11   0.000 0.000 7.129 7.048 0.078 7.273 7.015 0.255
WS7MET_125 2018-04-20 03:20:00 125 30483.0 2.179 2.374 2.574 2.456 2.493 98.900 96.600 2.030 1.973 0.00 0.00 1.089 1.380 2.033 2.706 12.960 2.218 2.398 2.590 2.526 2.513 2.085 2.065 0.00 0.00 0.5160   2.116 2.359 2.552 2.389 2.465 1.949 1.884     318     0.4190 340.40 3.09   0.000 0.000 7.147 7.071 0.079 7.290 7.043 0.248
WS7MET_125 2018-04-20 03:15:00 125 30483.0 2.217 2.438 2.612 2.478 2.545 99.200 96.900 2.111 2.040 0.00 0.00 1.088 1.381 2.036 2.706 12.960 2.287 2.456 2.619 2.526 2.571 2.187 2.099 0.00 0.00 0.4900   2.116 2.398 2.600 2.389 2.513 2.007 1.948     318     0.4420 342.20 1.64   0.000 0.000 7.166 7.112 0.057 7.301 7.076 0.226
WS7MET_125 2018-04-20 03:10:00 125 30483.0 2.210 2.443 2.619 2.476 2.569 99.500 96.900 2.138 2.031 0.00 0.00 1.088 1.381 2.033 2.706 12.980 2.321 2.446 2.629 2.560 2.590 2.250 2.118 0.00 0.00 0.4830   2.150 2.436 2.609 2.389 2.532 2.075 1.938     318     0.3570 339.00 1.20   0.000 0.000 7.163 7.126 0.036 7.300 7.072 0.226
WS7MET_125 2018-04-20 03:05:00 125 30483.0 2.138 2.377 2.595 2.462 2.551 99.300 96.900 2.043 2.018 0.00 0.00 1.089 1.381 2.035 2.706 12.980 2.218 2.436 2.619 2.560 2.581 2.153 2.109 0.00 0.00 0.4970   2.082 2.330 2.542 2.389 2.475 1.959 1.943     318     0.4320 340.30 2.31   0.000 0.000 7.126 7.078 0.050 7.293 7.065 0.226
WS7MET_125 2018-04-20 03:00:00 125 30483.0 2.121 2.321 2.543 2.418 2.468 98.900 96.800 1.970 1.967 0.00 0.00 1.088 1.383 2.037 2.706 12.980 2.184 2.330 2.552 2.491 2.494 2.051 2.045 0.00 0.00 0.5030   2.048 2.321 2.532 2.355 2.436 1.905 1.904     318     0.4320 334.20 2.23   0.000 0.000 7.117 7.041 0.078 7.270 7.039 0.233
WS7MET_125 2018-04-20 02:55:00 125 30483.0 2.142 2.359 2.544 2.394 2.468 99.000 96.900 2.004 1.948 0.00 0.00 1.088 1.383 2.036 2.706 12.980 2.218 2.378 2.561 2.457 2.494 2.100 2.016 0.00 0.00 0.5030   2.048 2.321 2.532 2.321 2.436 1.905 1.875     318     0.4290 333.50 3.13   0.000 0.000 7.128 7.058 0.071 7.258 7.030 0.225
WS7MET_125 2018-04-20 02:50:00 125 30483.0 2.142 2.365 2.556 2.396 2.522 99.200 97.000 2.028 1.972 0.00 0.00 1.088 1.380 2.040 2.706 12.990 2.218 2.388 2.561 2.457 2.552 2.119 2.051 0.00 0.00 0.4830   2.048 2.321 2.532 2.321 2.475 1.934 1.900     318     0.4260 338.60 2.76   0.000 0.000 7.128 7.070 0.057 7.259 7.042 0.218
WS7MET_125 2018-04-20 02:45:00 125 30483.0 2.075 2.266 2.452 2.282 2.448 98.700 97.000 1.889 1.856 0.00 0.00 1.089 1.381 2.040 2.706 12.990 2.150 2.321 2.532 2.423 2.523 2.003 2.012 0.00 0.00 0.5160   1.980 2.224 2.378 2.184 2.350 1.784 1.734     318     0.4300 342.40 1.59   0.000 0.000 7.094 7.000 0.092 7.200 6.984 0.216
WS7MET_125 2018-04-20 02:40:00 125 30483.0 2.026 2.208 2.355 2.205 2.319 98.300 96.500 1.790 1.715 0.00 0.00 1.089 1.384 2.041 2.706 12.990 2.116 2.224 2.378 2.253 2.350 1.896 1.773 0.00 0.00 0.4900   1.945 2.186 2.330 2.150 2.282 1.706 1.631     318     0.3710 338.70 0.30   0.000 0.000 7.069 6.951 0.120 7.160 6.914 0.251
WS7MET_125 2018-04-20 02:35:00 125 30483.0 2.015 2.156 2.317 2.200 2.236 97.700 96.100 1.690 1.637 0.00 0.00 1.088 1.382 2.041 2.706 12.990 2.082 2.176 2.340 2.253 2.301 1.803 1.699 0.00 0.00 0.5030   1.911 2.138 2.311 2.116 2.195 1.589 1.548     318     0.4000 323.80 9.49   0.000 0.000 7.064 6.901 0.162 7.158 6.875 0.279
WS7MET_125 2018-04-20 02:30:00 125 30483.0 2.067 2.204 2.391 2.314 2.294 97.200 95.600 1.664 1.687 0.00 0.00 1.088 1.384 2.041 2.705 13.000 2.150 2.253 2.436 2.423 2.359 1.720 1.799 0.00 0.00 0.4700   1.980 2.167 2.349 2.218 2.244 1.594 1.600     318     0.3170 320.80 9.96   0.000 0.000 7.090 6.888 0.199 7.216 6.900 0.318
WS7MET_125 2018-04-20 02:25:00 125 30483.0 2.171 2.322 2.492 2.384 2.397 97.000 95.500 1.746 1.737 0.00 0.00 1.088 1.384 2.041 2.705 13.000 2.253 2.368 2.542 2.491 2.465 1.832 1.822 0.00 0.00 0.4830   2.082 2.263 2.446 2.287 2.340 1.637 1.653     318     0.2930 331.60 2.57   0.000 0.000 7.143 6.929 0.214 7.252 6.924 0.326
WS7MET_125 2018-04-20 02:20:00 125 30483.0 2.232 2.403 2.578 2.469 2.506 97.000 95.300 1.807 1.799 0.00 0.00 1.088 1.384 2.042 2.705 13.000 2.321 2.436 2.618 2.560 2.532 1.890 1.880 0.00 0.00 0.3790   2.184 2.368 2.542 2.355 2.474 1.754 1.696     318     0.2170 341.20 3.88   0.000 0.000 7.174 6.959 0.215 7.296 6.955 0.343
WS7MET_125 2018-04-20 02:15:00 125 30483.0 2.311 2.474 2.664 2.555 2.572 96.600 95.200 1.832 1.865 0.00 0.00 1.088 1.387 2.041 2.705 13.000 2.389 2.512 2.705 2.628 2.609 1.909 1.933 0.00 0.00 0.4970   2.184 2.436 2.628 2.491 2.541 1.734 1.802     318     0.3970 350.00 7.55   0.000 0.000 7.215 6.972 0.245 7.341 6.988 0.352
WS7MET_125 2018-04-20 02:10:00 125 30483.0 2.411 2.584 2.750 2.642 2.647 96.400 95.100 1.892 1.939 0.00 0.00 1.088 1.386 2.041 2.705 13.010 2.457 2.637 2.801 2.730 2.705 1.957 2.034 0.00 0.00 0.4570   2.287 2.522 2.705 2.560 2.609 1.757 1.855     318     0.3540 331.00 7.82   0.000 0.000 7.266 7.002 0.262 7.387 7.025 0.362
WS7MET_125 2018-04-20 02:05:00 125 30483.0 2.462 2.658 2.813 2.662 2.760 96.600 95.300 1.985 1.985 0.00 0.00 1.088 1.388 2.042 2.705 13.010 2.526 2.666 2.830 2.730 2.782 2.070 2.065 0.00 0.00 0.4310   2.423 2.647 2.801 2.594 2.705 1.933 1.894     318     0.3560 327.10 2.44   0.000 0.000 7.293 7.049 0.248 7.397 7.049 0.348
WS7MET_125 2018-04-20 02:00:00 125 30483.0 2.430 2.615 2.782 2.638 2.725 97.100 95.300 2.015 1.963 0.00 0.00 1.088 1.387 2.045 2.705 13.020 2.560 2.666 2.811 2.730 2.782 2.133 2.070 0.00 0.00 0.4970   2.355 2.570 2.763 2.560 2.667 1.939 1.885     318     0.4060 325.10 3.03   0.000 0.000 7.276 7.064 0.211 7.385 7.037 0.347
WS7MET_125 2018-04-20 01:55:00 125 30483.0 2.381 2.569 2.750 2.616 2.680 96.900 95.300 1.947 1.941 0.00 0.00 1.088 1.388 2.045 2.705 13.020 2.423 2.589 2.772 2.765 2.724 2.002 2.093 0.00 0.00 0.4900   2.321 2.551 2.734 2.526 2.647 1.870 1.856     318     0.4020 333.40 0.12   0.000 0.000 7.251 7.029 0.225 7.373 7.026 0.347
WS7MET_125 2018-04-20 01:50:00 125 30483.0 2.413 2.594 2.749 2.633 2.680 97.100 95.200 2.008 1.942 0.00 0.00 1.088 1.389 2.048 2.705 13.020 2.457 2.609 2.763 2.696 2.705 2.066 2.016 0.00 0.00 0.4700   2.355 2.579 2.743 2.526 2.637 1.929 1.866     318     0.3660 332.40 0.89   0.000 0.000 7.267 7.060 0.211 7.382 7.027 0.354
WS7MET_125 2018-04-20 01:45:00 125 30483.0 2.410 2.613 2.803 2.698 2.711 97.000 95.000 1.985 1.977 0.00 0.00 1.087 1.392 2.048 2.704 13.030 2.491 2.646 2.839 2.765 2.743 2.061 2.048 0.00 0.00 0.4180   2.355 2.589 2.762 2.628 2.647 1.924 1.917     318     0.3520 336.00 2.68   0.000 0.000 7.266 7.049 0.218 7.416 7.045 0.371
WS7MET_125 2018-04-20 01:40:00 125 30483.0 2.491 2.702 2.892 2.759 2.803 96.700 94.700 2.029 1.997 0.00 0.00 1.087 1.391 2.048 2.704 13.030 2.594 2.752 2.925 2.833 2.858 2.133 2.076 0.00 0.00 0.3590   2.423 2.656 2.839 2.696 2.743 1.963 1.925     318     0.3050 338.00 1.96   0.000 0.000 7.308 7.071 0.241 7.449 7.055 0.395
WS7MET_125 2018-04-20 01:35:00 125 30483.0 2.497 2.771 2.957 2.845 2.891 97.000 94.800 2.072 2.096 0.00 0.00 1.087 1.390 2.049 2.704 13.030 2.594 2.781 2.983 2.901 2.935 2.172 2.164 0.00 0.00 0.4510   2.457 2.752 2.935 2.765 2.858 2.016 2.008     318     0.3800 339.60 3.30   0.000 0.000 7.311 7.093 0.219 7.494 7.105 0.390
WS7MET_125 2018-04-20 01:30:00 125 30483.0 2.524 2.763 2.966 2.862 2.922 97.000 94.900 2.103 2.123 0.00 0.00 1.087 1.391 2.049 2.704 13.030 2.594 2.790 2.983 2.935 2.954 2.187 2.203 0.00 0.00 0.5160   2.491 2.742 2.954 2.799 2.877 2.050 2.052     318     0.3870 341.10 0.80   0.000 0.000 7.325 7.108 0.220 7.503 7.118 0.383
WS7MET_125 2018-04-20 01:25:00 125 30483.0 2.488 2.742 2.968 2.846 2.890 96.700 94.600 2.012 2.075 0.00 0.00 1.086 1.389 2.048 2.703 13.030 2.560 2.742 2.973 2.901 2.905 2.094 2.118 0.00 0.00 0.5160   2.423 2.742 2.954 2.799 2.877 1.913 1.991     318     0.4590 344.50 2.73   0.000 0.000 7.306 7.062 0.241 7.495 7.094 0.405
WS7MET_125 2018-04-20 01:20:00 125 30483.0 2.541 2.742 2.980 2.881 2.897 96.200 94.300 1.995 2.060 0.00 0.00 1.086 1.390 2.048 2.703 13.040 2.594 2.751 2.992 2.935 2.915 2.068 2.122 0.00 0.00 0.5360   2.457 2.732 2.963 2.799 2.876 1.927 1.971     318     0.4470 339.10 6.94   0.000 0.000 7.334 7.054 0.279 7.514 7.086 0.428
WS7MET_125 2018-04-20 01:15:00 125 30483.0 2.590 2.784 3.011 2.901 2.913 96.000 94.300 2.023 2.085 0.00 0.00 1.086 1.389 2.046 2.703 13.040 2.696 2.828 3.049 2.969 2.972 2.121 2.166 0.00 0.00 0.5750   2.457 2.751 2.972 2.833 2.857 1.907 1.990     318     0.5210 339.80 4.93   0.000 0.000 7.360 7.068 0.294 7.524 7.099 0.429
WS7MET_125 2018-04-20 01:10:00 125 30483.0 2.654 2.870 3.049 2.920 2.972 96.000 94.300 2.075 2.098 0.00 0.00 1.086 1.393 2.048 2.703 13.050 2.765 2.895 3.069 2.969 3.011 2.208 2.161 0.00 0.00 0.4900   2.594 2.837 3.030 2.867 2.934 1.979 2.024     318     0.4250 336.50 1.39   0.000 0.000 7.393 7.094 0.296 7.534 7.106 0.429
WS7MET_125 2018-04-20 01:05:00 125 30483.0 2.666 2.884 3.078 2.974 2.998 95.900 94.100 2.073 2.116 0.00 0.00 1.086 1.394 2.049 2.703 13.050 2.730 2.896 3.098 3.038 3.021 2.174 2.193 0.00 0.00 0.5950   2.594 2.876 3.069 2.935 2.973 1.969 2.056     318     0.4280 343.30 0.65   0.000 0.000 7.400 7.093 0.303 7.563 7.115 0.446
WS7MET_125 2018-04-20 01:00:00 125 30483.0 2.691 2.922 3.108 2.985 3.036 95.500 93.600 2.051 2.060 0.00 0.00 1.086 1.394 2.049 2.703 13.060 2.730 2.934 3.126 3.072 3.069 2.105 2.156 0.00 0.00 0.5550   2.662 2.905 3.098 2.901 3.011 1.997 1.971     318     0.4450 338.20 1.89   0.000 0.000 7.413 7.082 0.334 7.569 7.086 0.484
WS7MET_125 2018-04-20 00:55:00 125 30483.0 2.667 2.907 3.121 2.991 3.054 95.200 93.400 1.978 2.033 0.00 0.00 1.086 1.392 2.048 2.703 13.060 2.730 2.915 3.126 3.072 3.078 2.075 2.110 0.00 0.00 0.5360   2.594 2.895 3.117 2.935 3.030 1.863 1.964     318     0.4470 341.60 2.96   0.000 0.000 7.400 7.045 0.355 7.572 7.073 0.500
WS7MET_125 2018-04-20 00:50:00 125 30483.0 2.710 2.967 3.137 2.997 3.062 95.000 93.300 1.987 2.019 0.00 0.00 1.085 1.393 2.048 2.702 13.060 2.799 3.010 3.155 3.038 3.106 2.092 2.066 0.00 0.00 0.6340   2.594 2.914 3.116 2.935 3.010 1.858 1.959     318     0.4440 341.10 2.57   0.000 0.000 7.423 7.050 0.371 7.576 7.066 0.508
WS7MET_125 2018-04-20 00:45:00 125 30483.0 2.700 2.991 3.186 3.060 3.102 95.100 92.800 1.992 2.015 0.00 0.00 1.085 1.393 2.047 2.702 13.070 2.765 3.000 3.221 3.140 3.144 2.058 2.080 0.00 0.00 0.4700   2.628 2.980 3.154 2.935 3.067 1.917 1.938     318     0.4020 338.30 0.92   0.000 0.000 7.418 7.052 0.363 7.610 7.064 0.548
WS7MET_125 2018-04-20 00:40:00 125 30483.0 2.718 2.989 3.218 3.077 3.162 95.000 92.900 2.000 2.050 0.00 0.00 1.084 1.392 2.046 2.701 13.070 2.799 3.009 3.230 3.140 3.192 2.082 2.106 0.00 0.00 0.5160   2.628 2.971 3.192 2.969 3.143 1.917 1.941     318     0.4730 342.50 1.23   0.000 0.000 7.427 7.056 0.371 7.619 7.081 0.541
WS7MET_125 2018-04-20 00:35:00 125 30483.0 2.766 2.985 3.165 3.038 3.094 94.600 93.000 1.986 2.018 0.00 0.00 1.084 1.392 2.046 2.701 13.070 2.901 3.018 3.192 3.106 3.143 2.098 2.118 0.00 0.00 0.6210   2.696 2.970 3.153 2.969 3.057 1.915 1.916     318     0.5230 342.70 2.85   0.000 0.000 7.452 7.049 0.402 7.598 7.065 0.532
WS7MET_125 2018-04-20 00:30:00 125 30483.0 2.792 3.031 3.205 3.072 3.126 94.300 92.600 1.975 1.990 0.00 0.00 1.083 1.392 2.046 2.700 13.070 2.833 3.047 3.230 3.140 3.162 2.030 2.070 0.00 0.00 0.5160   2.730 3.018 3.172 2.969 3.085 1.903 1.900     318     0.4610 336.40 0.55   0.000 0.000 7.466 7.044 0.426 7.616 7.051 0.564
WS7MET_125 2018-04-20 00:25:00 125 30483.0 2.792 3.033 3.228 3.109 3.185 94.400 92.600 1.978 2.028 0.00 0.00 1.084 1.390 2.047 2.700 13.080 2.867 3.056 3.249 3.174 3.220 2.054 2.114 0.00 0.00 0.5360   2.696 3.018 3.201 3.072 3.133 1.890 1.971     318     0.4480 342.20 5.65   0.000 0.000 7.466 7.045 0.418 7.636 7.070 0.565
WS7MET_125 2018-04-20 00:20:00 125 30483.0 2.805 3.040 3.227 3.154 3.120 94.100 92.200 1.958 2.006 0.00 0.00 1.083 1.388 2.050 2.700 13.070 2.901 3.066 3.287 3.242 3.181 2.053 2.070 0.00 0.00 0.6080   2.730 3.018 3.191 3.072 3.066 1.873 1.948     318     0.5210 343.20 4.95   0.000 0.000 7.473 7.035 0.441 7.661 7.059 0.598
WS7MET_125 2018-04-20 00:15:00 125 30483.0 2.838 3.107 3.330 3.208 3.233 93.900 91.700 1.957 1.999 0.00 0.00 1.083 1.389 2.048 2.700 13.080 2.901 3.152 3.374 3.276 3.268 2.022 2.075 0.00 0.00 0.5030   2.765 3.066 3.287 3.140 3.181 1.891 1.904     318     0.3890 334.70 1.75   0.000 0.000 7.491 7.034 0.457 7.690 7.056 0.638
WS7MET_125 2018-04-20 00:10:00 125 30483.0 2.845 3.158 3.390 3.244 3.329 93.900 91.600 1.962 2.009 0.00 0.00 1.084 1.391 2.048 2.700 13.090 2.901 3.171 3.403 3.345 3.354 2.032 2.086 0.00 0.00 0.5950   2.799 3.143 3.374 3.174 3.277 1.905 1.927     318     0.5160 337.80 1.23   0.000 0.000 7.494 7.037 0.457 7.710 7.061 0.648
WS7MET_125 2018-04-20 00:05:00 125 30483.0 2.862 3.131 3.348 3.234 3.268 93.600 91.500 1.931 1.993 0.00 0.00 1.083 1.391 2.050 2.700 13.090 2.969 3.152 3.374 3.345 3.316 2.018 2.096 0.00 0.00 0.5810   2.799 3.113 3.335 3.174 3.239 1.854 1.927     318     0.5410 338.50 1.61   0.000 0.000 7.503 7.021 0.480 7.704 7.053 0.655
WS7MET_125 2018-04-20 00:00:00 125 30483.0 2.918 3.180 3.389 3.283 3.304 93.400 91.200 1.957 1.995 0.00 0.00 1.084 1.390 2.051 2.699 13.100 3.003 3.199 3.411 3.345 3.354 2.042 2.080 0.00 0.00 0.5950   2.833 3.161 3.354 3.174 3.258 1.857 1.896     318     0.5000 341.30 4.00   0.000 0.000 7.533 7.034 0.497 7.731 7.054 0.680
WS7MET_125 2018-04-19 23:55:00 125 30483.0 2.923 3.180 3.409 3.307 3.348 93.400 91.200 1.971 2.016 0.00 0.00 1.085 1.390 2.053 2.699 13.100 2.969 3.209 3.421 3.379 3.373 2.018 2.093 0.00 0.00 0.6080   2.867 3.160 3.391 3.208 3.314 1.901 1.924     318     0.5230 347.30 0.54   0.000 0.000 7.536 7.041 0.497 7.744 7.064 0.681
WS7MET_125 2018-04-19 23:50:00 125 30483.0 2.913 3.164 3.387 3.307 3.310 93.400 91.300 1.953 2.023 0.00 0.00 1.083 1.389 2.053 2.699 13.100 3.003 3.179 3.401 3.413 3.334 2.037 2.122 0.00 0.00 0.6140   2.833 3.160 3.372 3.208 3.276 1.862 1.924     318     0.5240 344.70 1.50   0.000 0.000 7.531 7.032 0.497 7.744 7.068 0.674
WS7MET_125 2018-04-19 23:45:00 125 30483.0 2.951 3.192 3.408 3.300 3.323 93.200 91.200 1.961 2.008 0.00 0.00 1.082 1.389 2.052 2.698 13.110 3.038 3.217 3.429 3.379 3.371 2.071 2.083 0.00 0.00 0.5750   2.901 3.179 3.391 3.174 3.294 1.905 1.885     318     0.5160 343.50 0.67   0.000 0.000 7.551 7.036 0.513 7.740 7.060 0.681
WS7MET_125 2018-04-19 23:40:00 125 30483.0 3.005 3.222 3.437 3.355 3.339 92.800 90.900 1.964 2.012 0.00 0.00 1.082 1.388 2.053 2.698 13.110 3.072 3.245 3.457 3.447 3.351 2.038 2.092 0.00 0.00 0.5680   2.935 3.207 3.419 3.276 3.313 1.916 1.939     318     0.4750 343.70 0.77   0.000 0.000 7.580 7.038 0.546 7.770 7.062 0.707
WS7MET_125 2018-04-19 23:35:00 125 30483.0 3.024 3.285 3.505 3.396 3.409 92.700 90.600 1.953 2.014 0.00 0.00 1.084 1.387 2.055 2.699 13.110 3.072 3.302 3.524 3.447 3.428 2.012 2.087 0.00 0.00 0.5620   2.969 3.254 3.466 3.345 3.351 1.885 1.959     318     0.5290 340.80 1.59   0.000 0.000 7.590 7.032 0.554 7.793 7.063 0.733
WS7MET_125 2018-04-19 23:30:00 125 30483.0 3.041 3.306 3.527 3.411 3.456 92.700 90.500 1.973 2.003 0.00 0.00 1.084 1.387 2.054 2.699 13.120 3.140 3.321 3.543 3.481 3.504 2.059 2.073 0.00 0.00 0.6210   2.969 3.292 3.514 3.345 3.408 1.885 1.933     318     0.5620 344.50 2.40   0.000 0.000 7.599 7.043 0.555 7.801 7.058 0.741
WS7MET_125 2018-04-19 23:25:00 125 30483.0 3.060 3.292 3.543 3.462 3.440 92.500 90.200 1.966 2.017 0.00 0.00 1.082 1.388 2.055 2.700 13.120 3.174 3.321 3.571 3.549 3.484 2.083 2.083 0.00 0.00 0.6990   2.969 3.273 3.513 3.379 3.407 1.880 1.946     318     0.5810 346.60 2.47   0.000 0.000 7.610 7.039 0.571 7.829 7.065 0.767
WS7MET_125 2018-04-19 23:20:00 125 30483.0 3.114 3.330 3.595 3.532 3.503 92.200 89.900 1.981 2.036 0.00 0.00 1.083 1.387 2.056 2.700 13.120 3.242 3.359 3.609 3.618 3.523 2.088 2.108 0.00 0.00 0.6930   3.072 3.311 3.581 3.447 3.484 1.945 1.966     318     0.6100 347.40 3.44   0.000 0.000 7.639 7.047 0.596 7.868 7.074 0.795
WS7MET_125 2018-04-19 23:15:00 125 30483.0 3.213 3.426 3.663 3.602 3.551 91.600 89.600 1.984 2.049 0.00 0.00 1.080 1.389 2.057 2.702 13.130 3.311 3.494 3.715 3.652 3.638 2.057 2.109 0.00 0.00 0.5550   3.140 3.359 3.609 3.515 3.484 1.911 1.981     318     0.3840 340.30 0.80   0.000 0.000 7.693 7.048 0.646 7.907 7.081 0.822
WS7MET_125 2018-04-19 23:10:00 125 30483.0 3.299 3.543 3.734 3.633 3.647 91.100 89.500 1.992 2.072 0.00 0.00 1.086 1.386 2.059 2.703 13.130 3.379 3.580 3.754 3.686 3.677 2.083 2.159 0.00 0.00 0.6210   3.208 3.494 3.715 3.583 3.619 1.924 2.020     318     0.5260 337.80 4.15   0.000 0.000 7.740 7.052 0.689 7.925 7.093 0.832
WS7MET_125 2018-04-19 23:05:00 125 30483.0 3.351 3.604 3.777 3.655 3.703 90.800 89.100 1.989 2.034 0.00 0.00 1.086 1.386 2.060 2.706 13.140 3.413 3.609 3.793 3.754 3.735 2.053 2.114 0.00 0.00 0.5680   3.310 3.580 3.754 3.583 3.657 1.931 1.979     318     0.4480 338.70 3.98   0.000 0.000 7.768 7.051 0.715 7.937 7.073 0.865
WS7MET_125 2018-04-19 23:00:00 125 30483.0 3.344 3.635 3.846 3.796 3.721 90.400 88.100 1.932 2.016 0.00 0.00 1.085 1.386 2.059 2.708 13.140 3.446 3.667 3.918 3.890 3.812 2.012 2.127 0.00 0.00 0.4380   3.276 3.609 3.793 3.720 3.658 1.870 1.952     318     0.3990 340.20 2.47   0.000 0.000 7.764 7.022 0.745 8.016 7.064 0.954
WS7MET_125 2018-04-19 22:55:00 125 30483.0 3.352 3.726 3.974 3.900 3.872 89.700 86.800 1.821 1.899 0.00 0.00 1.088 1.386 2.058 2.710 13.150 3.446 3.793 4.015 3.992 3.928 1.917 1.966 0.00 0.00 0.5160   3.276 3.667 3.928 3.788 3.831 1.767 1.805     318     0.3900 331.80 2.86   0.000 0.000 7.769 6.966 0.800 8.075 7.005 1.066
WS7MET_125 2018-04-19 22:50:00 125 30483.0 3.414 3.802 4.067 3.970 3.979 89.100 86.200 1.790 1.878 0.00 0.00 1.088 1.387 2.060 2.710 13.150 3.480 3.822 4.111 4.060 4.043 1.853 1.957 0.00 0.00 0.4250   3.309 3.793 4.015 3.855 3.928 1.733 1.783     318     0.3840 337.00 1.75   0.000 0.000 7.803 6.951 0.851 8.115 6.995 1.120
WS7MET_125 2018-04-19 22:45:00 125 30483.0 3.506 3.865 4.126 4.031 4.047 88.300 85.500 1.762 1.823 0.00 0.00 1.087 1.386 2.060 2.711 13.150 3.583 3.899 4.140 4.129 4.082 1.841 1.945 0.00 0.00 0.6010   3.446 3.831 4.101 3.958 4.014 1.686 1.722     318     0.4600 336.30 3.85   0.000 0.000 7.854 6.937 0.919 8.150 6.967 1.182
WS7MET_125 2018-04-19 22:40:00 125 30483.0 3.544 3.919 4.150 4.045 4.093 87.900 84.800 1.728 1.731 0.00 0.00 1.086 1.386 2.059 2.712 13.160 3.617 3.947 4.168 4.129 4.120 1.793 1.807 0.00 0.00 0.5550   3.481 3.889 4.139 3.992 4.062 1.656 1.656     318     0.4860 342.60 0.77   0.000 0.000 7.875 6.920 0.953 8.158 6.921 1.240
WS7MET_125 2018-04-19 22:35:00 125 30483.0 3.509 3.865 4.148 4.074 4.039 87.800 84.200 1.683 1.651 0.00 0.00 1.087 1.386 2.059 2.712 13.160 3.583 3.898 4.206 4.196 4.081 1.771 1.739 0.00 0.00 0.6140   3.446 3.840 4.129 3.992 3.994 1.620 1.581     318     0.5590 340.00 2.35   0.000 0.000 7.855 6.898 0.958 8.175 6.882 1.292
WS7MET_125 2018-04-19 22:30:00 125 30483.0 3.627 3.996 4.277 4.198 4.157 87.700 84.200 1.775 1.781 0.00 0.00 1.087 1.386 2.059 2.713 13.160 3.719 4.081 4.342 4.265 4.264 1.879 1.873 0.00 0.00 0.6010   3.514 3.898 4.206 4.094 4.081 1.665 1.688     318     0.5310 338.60 3.35   0.000 0.000 7.921 6.943 0.974 8.246 6.946 1.303
WS7MET_125 2018-04-19 22:25:00 125 30483.0 3.668 4.073 4.334 4.203 4.265 87.600 84.100 1.801 1.766 0.00 0.00 1.087 1.387 2.059 2.713 13.160 3.753 4.081 4.342 4.265 4.284 1.891 1.832 0.00 0.00 0.6660   3.582 4.062 4.322 4.162 4.235 1.706 1.708     318     0.5680 345.20 0.58   0.000 0.000 7.944 6.956 0.985 8.249 6.939 1.312
WS7MET_125 2018-04-19 22:20:00 125 30483.0 3.741 4.084 4.314 4.214 4.243 86.500 83.600 1.699 1.681 0.00 0.00 1.087 1.388 2.059 2.713 13.170 3.821 4.100 4.332 4.299 4.274 1.813 1.764 0.00 0.00 0.6660   3.684 4.071 4.303 4.162 4.216 1.576 1.554     318     0.5830 345.00 1.06   0.000 0.000 7.985 6.906 1.078 8.256 6.897 1.354
WS7MET_125 2018-04-19 22:15:00 125 30483.0 3.738 4.073 4.329 4.226 4.249 86.100 83.300 1.636 1.645 0.00 0.00 1.086 1.390 2.059 2.713 13.170 3.822 4.100 4.342 4.300 4.274 1.777 1.742 0.00 0.00 0.6990   3.685 4.052 4.322 4.163 4.226 1.554 1.550     318     0.6130 345.10 1.79   0.000 0.000 7.983 6.874 1.110 8.262 6.879 1.380
WS7MET_125 2018-04-19 22:10:00 125 30483.0 3.795 4.118 4.364 4.266 4.280 86.300 83.600 1.723 1.739 0.00 0.00 1.087 1.386 2.059 2.713 13.180 3.890 4.139 4.371 4.333 4.313 1.833 1.819 0.00 0.00 0.5880   3.752 4.081 4.342 4.163 4.235 1.670 1.641     318     0.5400 345.00 1.03   0.000 0.000 8.016 6.917 1.098 8.286 6.925 1.359
WS7MET_125 2018-04-19 22:05:00 125 30483.0 3.916 4.143 4.374 4.279 4.269 85.600 83.400 1.731 1.719 0.00 0.00 1.087 1.389 2.060 2.713 13.190 4.025 4.197 4.409 4.367 4.313 1.777 1.847 0.00 0.00 0.6530   3.786 4.110 4.351 4.195 4.235 1.654 1.598     318     0.5910 342.90 0.81   0.000 0.000 8.084 6.921 1.164 8.293 6.915 1.377
WS7MET_125 2018-04-19 22:00:00 125 30483.0 4.042 4.282 4.458 4.345 4.348 85.000 83.400 1.753 1.792 0.00 0.00 1.087 1.388 2.059 2.713 13.190 4.127 4.332 4.525 4.434 4.428 1.843 1.935 0.00 0.00 0.7770   3.957 4.206 4.409 4.263 4.293 1.676 1.677     318     0.5610 339.70 5.31   0.000 0.000 8.156 6.932 1.223 8.332 6.952 1.383
WS7MET_125 2018-04-19 21:55:00 125 30483.0 4.021 4.358 4.574 4.490 4.462 86.600 84.400 1.986 2.098 0.00 0.00 1.087 1.391 2.060 2.713 13.190 4.094 4.371 4.641 4.572 4.525 2.099 2.224 0.00 0.00 0.5680   3.889 4.332 4.525 4.333 4.419 1.862 1.848     318     0.5090 342.70 1.83   0.000 0.000 8.144 7.049 1.091 8.417 7.106 1.313
WS7MET_125 2018-04-19 21:50:00 125 30483.0 4.009 4.434 4.690 4.582 4.601 87.300 84.800 2.096 2.251 0.00 0.00 1.087 1.392 2.059 2.713 13.200 4.094 4.477 4.718 4.675 4.660 2.194 2.353 0.00 0.00 0.6530   3.924 4.371 4.651 4.503 4.525 2.021 2.146     318     0.5480 351.00 4.06   0.000 0.000 8.137 7.105 1.033 8.471 7.184 1.288
WS7MET_125 2018-04-19 21:45:00 125 30483.0 3.952 4.425 4.719 4.640 4.627 87.700 84.600 2.107 2.266 0.00 0.00 1.087 1.391 2.061 2.713 13.200 4.025 4.457 4.747 4.708 4.660 2.207 2.369 0.00 0.00 0.8170   3.889 4.409 4.699 4.571 4.612 2.019 2.195     318     0.7280 347.80 1.68   0.000 0.000 8.105 7.110 0.997 8.506 7.192 1.310
WS7MET_125 2018-04-19 21:40:00 125 30483.0 3.955 4.434 4.757 4.674 4.655 87.500 83.900 2.080 2.182 0.00 0.00 1.087 1.394 2.061 2.713 13.210 4.025 4.486 4.786 4.742 4.718 2.185 2.311 0.00 0.00 0.7840   3.889 4.400 4.738 4.606 4.622 1.992 2.074     318     0.5980 345.20 1.57   0.000 0.000 8.106 7.097 1.013 8.526 7.149 1.373
WS7MET_125 2018-04-19 21:35:00 125 30483.0 4.003 4.462 4.742 4.607 4.689 86.500 83.000 1.963 1.966 0.00 0.00 1.087 1.393 2.063 2.713 13.210 4.059 4.477 4.776 4.707 4.718 2.077 2.085 0.00 0.00 0.6600   3.923 4.428 4.699 4.537 4.641 1.877 1.847     318     0.6160 345.20 1.83   0.000 0.000 8.134 7.037 1.098 8.486 7.039 1.443
WS7MET_125 2018-04-19 21:30:00 125 30483.0 4.079 4.453 4.699 4.579 4.599 85.600 82.800 1.879 1.916 0.00 0.00 1.087 1.394 2.064 2.713 13.210 4.195 4.496 4.728 4.673 4.641 1.977 1.992 0.00 0.00 0.6790   3.990 4.409 4.680 4.502 4.564 1.809 1.841     318     0.6080 345.50 1.67   0.000 0.000 8.178 6.995 1.178 8.470 7.014 1.457
WS7MET_125 2018-04-19 21:25:00 125 30483.0 4.138 4.534 4.785 4.636 4.673 85.200 82.500 1.875 1.914 0.00 0.00 1.087 1.395 2.066 2.713 13.220 4.194 4.564 4.834 4.740 4.738 1.926 2.017 0.00 0.00 0.6730   4.092 4.506 4.728 4.536 4.622 1.820 1.843     318     0.5770 348.80 0.63   0.000 0.000 8.212 6.993 1.215 8.503 7.013 1.488
WS7MET_125 2018-04-19 21:20:00 125 30483.0 4.261 4.631 4.847 4.646 4.770 84.800 82.900 1.931 1.990 0.00 0.00 1.087 1.394 2.068 2.713 13.220 4.331 4.670 4.863 4.706 4.805 2.010 2.081 0.00 0.00 0.7190   4.195 4.573 4.834 4.569 4.738 1.880 1.935     318     0.6270 345.00 2.61   0.000 0.000 8.283 7.021 1.259 8.509 7.051 1.455
WS7MET_125 2018-04-19 21:15:00 125 30483.0 4.294 4.683 4.888 4.702 4.811 84.500 82.900 1.924 2.053 0.00 0.00 1.087 1.393 2.069 2.713 13.220 4.364 4.718 4.912 4.808 4.854 2.003 2.129 0.00 0.00 0.6860   4.228 4.660 4.863 4.603 4.757 1.857 1.976     318     0.6060 342.20 0.71   0.000 0.000 8.302 7.018 1.287 8.543 7.083 1.461
WS7MET_125 2018-04-19 21:10:00 125 30483.0 4.259 4.677 4.907 4.805 4.819 84.500 82.200 1.887 2.030 0.00 0.00 1.087 1.395 2.069 2.713 13.230 4.330 4.699 4.931 4.908 4.834 1.961 2.127 0.00 0.00 0.7380   4.191 4.612 4.892 4.671 4.815 1.828 1.943     318     0.7170 342.70 1.43   0.000 0.000 8.282 6.999 1.284 8.605 7.071 1.532
WS7MET_125 2018-04-19 21:05:00 125 30483.0 4.226 4.660 4.977 4.902 4.846 85.200 81.400 1.960 1.984 0.00 0.00 1.087 1.394 2.069 2.713 13.240 4.328 4.728 5.047 4.977 4.931 2.045 2.040 0.00 0.00 0.9150   4.123 4.612 4.921 4.840 4.796 1.856 1.937     318     0.8380 346.60 1.14   0.000 0.000 8.262 7.036 1.223 8.663 7.048 1.611
WS7MET_125 2018-04-19 21:00:00 125 30483.0 4.147 4.703 5.065 4.966 4.984 86.100 81.400 2.030 2.055 0.00 0.00 1.087 1.396 2.069 2.713 13.240 4.226 4.747 5.076 5.011 5.008 2.140 2.106 0.00 0.00 0.7910   4.055 4.651 5.037 4.908 4.950 1.950 1.988     318     0.7010 344.20 1.16   0.000 0.000 8.217 7.071 1.142 8.702 7.084 1.619
WS7MET_125 2018-04-19 20:55:00 125 30483.0 4.214 4.685 5.037 4.944 4.939 85.700 81.300 2.036 2.017 0.00 0.00 1.087 1.400 2.069 2.713 13.250 4.295 4.709 5.057 5.045 4.970 2.113 2.109 0.00 0.00 0.8820   4.157 4.651 5.018 4.875 4.912 1.900 1.932     318     0.7500 342.50 3.69   0.000 0.000 8.256 7.074 1.181 8.689 7.065 1.625
WS7MET_125 2018-04-19 20:50:00 125 30483.0 4.195 4.675 5.018 4.939 4.938 85.500 81.300 1.992 2.014 0.00 0.00 1.087 1.399 2.069 2.713 13.260 4.226 4.718 5.037 5.010 4.970 2.056 2.087 0.00 0.00 0.9670   4.123 4.631 4.989 4.840 4.912 1.944 1.921     318     0.7940 346.70 0.99   0.000 0.000 8.244 7.052 1.195 8.686 7.063 1.624
WS7MET_125 2018-04-19 20:45:00 125 30483.0 4.154 4.612 4.955 4.852 4.862 85.700 81.500 1.979 1.959 0.00 0.00 1.087 1.401 2.069 2.713 13.260 4.260 4.631 4.989 4.909 4.912 2.090 2.006 0.00 0.00 0.8560   4.089 4.593 4.941 4.772 4.815 1.928 1.866     318     0.7610 346.20 1.35   0.000 0.000 8.221 7.046 1.176 8.633 7.035 1.597
WS7MET_125 2018-04-19 20:40:00 125 30483.0 4.170 4.606 4.959 4.888 4.840 85.500 81.300 1.961 1.952 0.00 0.00 1.087 1.402 2.069 2.713 13.260 4.226 4.651 4.989 5.011 4.883 2.068 2.094 0.00 0.00 0.9870   4.090 4.583 4.941 4.840 4.815 1.895 1.886     318     0.8300 345.90 1.88   0.000 0.000 8.230 7.036 1.193 8.655 7.032 1.618
WS7MET_125 2018-04-19 20:35:00 125 30483.0 4.197 4.668 4.987 4.857 4.902 85.700 81.600 2.026 1.983 0.00 0.00 1.087 1.404 2.071 2.713 13.270 4.294 4.689 4.999 4.943 4.931 2.141 2.080 0.00 0.00 0.7910   4.123 4.651 4.960 4.772 4.873 1.933 1.837     318     0.7720 345.00 0.95   0.000 0.000 8.246 7.069 1.179 8.636 7.048 1.589
WS7MET_125 2018-04-19 20:30:00 125 30483.0 4.175 4.639 4.959 4.854 4.857 86.400 82.300 2.107 2.103 0.00 0.00 1.088 1.404 2.071 2.713 13.270 4.260 4.651 4.960 4.908 4.873 2.224 2.170 0.00 0.00 0.8360   4.089 4.622 4.950 4.806 4.844 2.000 2.042     318     0.7550 344.20 1.91   0.000 0.000 8.233 7.110 1.120 8.634 7.108 1.528
WS7MET_125 2018-04-19 20:25:00 125 30483.0 4.212 4.664 4.975 4.818 4.880 86.000 82.500 2.083 2.098 0.00 0.00 1.089 1.403 2.072 2.713 13.280 4.260 4.699 4.999 4.874 4.941 2.157 2.193 0.00 0.00 0.8560   4.123 4.631 4.960 4.772 4.834 2.033 2.035     318     0.7550 342.40 2.75   0.000 0.000 8.254 7.098 1.156 8.612 7.106 1.507
WS7MET_125 2018-04-19 20:20:00 125 30483.0 4.165 4.667 4.961 4.774 4.890 86.100 82.900 2.054 2.114 0.00 0.00 1.091 1.402 2.072 2.713 13.280 4.260 4.699 4.970 4.841 4.931 2.114 2.230 0.00 0.00 0.7710   4.055 4.641 4.941 4.704 4.854 1.951 2.010     318     0.7380 342.30 2.28   0.000 0.000 8.227 7.083 1.144 8.586 7.114 1.468
WS7MET_125 2018-04-19 20:15:00 125 30483.0 4.118 4.594 4.926 4.811 4.841 86.800 83.100 2.115 2.194 0.00 0.00 1.090 1.402 2.075 2.713 13.290 4.192 4.631 4.941 4.908 4.883 2.200 2.291 0.00 0.00 0.8620   4.055 4.564 4.912 4.670 4.796 2.049 2.068     318     0.6740 345.40 5.34   0.000 0.000 8.200 7.114 1.082 8.608 7.155 1.455
WS7MET_125 2018-04-19 20:10:00 125 30483.0 4.169 4.592 4.947 4.903 4.818 87.300 83.300 2.250 2.309 0.00 0.00 1.090 1.404 2.078 2.713 13.300 4.259 4.641 4.999 4.977 4.863 2.360 2.408 0.00 0.00 0.7770   4.055 4.554 4.912 4.806 4.757 2.166 2.207     318     0.6250 347.10 1.71   0.000 0.000 8.229 7.183 1.045 8.664 7.214 1.447
WS7MET_125 2018-04-19 20:05:00 125 30483.0 4.208 4.673 5.040 4.983 4.913 88.100 83.800 2.422 2.476 0.00 0.00 1.091 1.405 2.078 2.713 13.310 4.293 4.699 5.076 5.044 4.950 2.590 2.595 0.00 0.00 0.8100   4.123 4.631 4.999 4.907 4.854 2.264 2.352     318     0.6920 344.30 2.56   0.000 0.000 8.252 7.272 0.982 8.712 7.300 1.411
WS7MET_125 2018-04-19 20:00:00 125 30483.0 4.228 4.733 5.096 5.037 4.975 88.900 84.700 2.568 2.676 0.00 0.00 1.091 1.405 2.078 2.713 13.310 4.328 4.757 5.125 5.146 5.008 2.665 2.871 0.00 0.00 0.7060   4.123 4.709 5.076 4.941 4.950 2.449 2.512     318     0.6380 342.30 1.03   0.000 0.000 8.264 7.348 0.917 8.745 7.405 1.338
WS7MET_125 2018-04-19 19:55:00 125 30483.0 4.360 4.822 5.177 5.126 5.038 89.000 85.200 2.706 2.852 0.00 0.00 1.094 1.405 2.078 2.713 13.320 4.464 4.863 5.221 5.249 5.086 2.812 2.983 0.00 0.00 0.6470   4.259 4.747 5.125 5.044 4.970 2.622 2.759     318     0.5910 341.40 1.21   0.000 0.000 8.341 7.421 0.917 8.800 7.498 1.302
WS7MET_125 2018-04-19 19:50:00 125 30483.0 4.435 4.947 5.293 5.196 5.187 89.300 86.100 2.830 3.075 0.00 0.00 1.093 1.405 2.083 2.714 13.320 4.498 4.979 5.318 5.249 5.241 2.927 3.202 0.00 0.00 0.6530   4.395 4.863 5.231 5.146 5.047 2.729 2.939     318     0.5950 346.80 4.28   0.000 0.000 8.385 7.486 0.897 8.843 7.618 1.229
WS7MET_125 2018-04-19 19:45:00 125 30483.0 4.415 4.936 5.294 5.205 5.204 89.500 86.800 2.850 3.195 0.00 0.00 1.094 1.405 2.084 2.714 13.330 4.464 4.979 5.309 5.283 5.260 2.924 3.275 0.00 0.00 0.6790   4.294 4.902 5.279 5.146 5.154 2.763 3.085     318     0.5810 345.80 3.94   0.000 0.000 8.373 7.497 0.879 8.848 7.683 1.168
WS7MET_125 2018-04-19 19:40:00 125 30483.0 4.491 4.956 5.301 5.257 5.199 89.500 86.700 2.917 3.224 0.00 0.00 1.094 1.405 2.088 2.716 13.340 4.600 4.979 5.328 5.317 5.260 3.047 3.303 0.00 0.00 0.7640   4.430 4.931 5.279 5.180 5.144 2.849 3.112     318     0.6370 346.10 3.30   0.000 0.000 8.418 7.533 0.884 8.880 7.699 1.181
WS7MET_125 2018-04-19 19:35:00 125 30483.0 4.549 4.993 5.376 5.365 5.231 89.900 86.400 3.045 3.287 0.00 0.00 1.093 1.405 2.088 2.719 13.350 4.635 5.057 5.434 5.488 5.289 3.113 3.364 0.00 0.00 0.7450   4.464 4.941 5.328 5.283 5.163 2.992 3.219     318     0.6660 345.00 2.95   0.000 0.000 8.452 7.602 0.854 8.947 7.733 1.217
WS7MET_125 2018-04-19 19:30:00 125 30483.0 4.607 5.106 5.491 5.453 5.375 90.400 86.800 3.172 3.441 0.00 0.00 1.093 1.405 2.088 2.721 13.350 4.668 5.134 5.522 5.521 5.415 3.293 3.571 0.00 0.00 0.7640   4.532 5.057 5.444 5.385 5.299 3.038 3.330     318     0.6880 347.60 1.33   0.000 0.000 8.486 7.670 0.815 9.002 7.818 1.188
WS7MET_125 2018-04-19 19:25:00 125 30483.0 4.625 5.135 5.552 5.535 5.423 90.700 87.600 3.240 3.653 0.00 0.00 1.094 1.405 2.088 2.722 13.360 4.736 5.202 5.599 5.589 5.512 3.377 3.737 0.00 0.00 0.6530   4.532 5.086 5.521 5.419 5.357 3.148 3.542     318     0.5710 341.00 4.22   0.000 0.000 8.497 7.707 0.790 9.054 7.936 1.123
WS7MET_125 2018-04-19 19:20:00 125 30483.0 4.731 5.243 5.648 5.653 5.482 90.600 87.800 3.331 3.799 0.00 0.00 1.093 1.404 2.088 2.721 13.370 4.839 5.327 5.725 5.726 5.570 3.473 3.927 0.00 0.00 0.8490   4.600 5.134 5.580 5.555 5.366 3.140 3.610     318     0.6530 339.30 11.66   0.000 0.000 8.560 7.757 0.805 9.128 8.018 1.114
WS7MET_125 2018-04-19 19:15:00 125 30483.0 4.829 5.388 5.811 5.799 5.650 90.700 87.800 3.447 3.943 0.00 0.00 1.095 1.404 2.087 2.720 13.380 4.907 5.463 5.890 5.931 5.744 3.546 4.063 0.00 0.00 0.8490   4.736 5.327 5.735 5.726 5.570 3.340 3.855     318     0.6470 344.50 5.39   0.000 0.000 8.619 7.821 0.802 9.221 8.100 1.125
WS7MET_125 2018-04-19 19:10:00 125 30483.0 4.934 5.522 5.967 5.956 5.818 91.100 88.100 3.615 4.135 0.00 0.00 1.094 1.404 2.087 2.722 13.390 5.043 5.559 6.035 6.067 5.908 3.718 4.291 0.00 0.00 0.7320   4.805 5.472 5.909 5.828 5.754 3.466 3.989     318     0.6290 345.10 4.83   0.000 0.000 8.683 7.914 0.773 9.322 8.210 1.109
WS7MET_125 2018-04-19 19:05:00 125 30483.0 5.061 5.608 6.083 6.135 5.934 90.800 88.400 3.682 4.372 0.40 0.00 1.095 1.403 2.086 2.721 13.400 5.214 5.685 6.161 6.238 6.054 3.812 4.553 1.34 0.00 0.7190   4.907 5.559 6.035 6.033 5.899 3.562 4.230     318     0.5860 340.50 1.70   0.000 0.000 8.760 7.952 0.806 9.438 8.348 1.095
WS7MET_125 2018-04-19 19:00:00 125 30483.0 5.195 5.710 6.225 6.333 6.052 91.000 88.400 3.856 4.565 1.81 0.00 1.096 1.403 2.087 2.721 13.410 5.282 5.791 6.316 6.443 6.131 3.960 4.733 2.68 0.00 0.5950   5.146 5.674 6.161 6.238 5.985 3.784 4.444     318     0.5070 347.40 2.67   0.000 0.000 8.842 8.050 0.796 9.568 8.461 1.110
WS7MET_125 2018-04-19 18:55:00 125 30483.0 5.318 5.875 6.403 6.495 6.223 91.000 88.600 3.980 4.747 4.09 0.74 1.094 1.402 2.089 2.720 13.420 5.419 5.936 6.471 6.613 6.305 4.090 4.863 5.37 1.34 0.5550   5.214 5.791 6.316 6.374 6.131 3.866 4.622     318     0.4980 345.40 5.13   0.000 0.000 8.918 8.121 0.803 9.676 8.570 1.103
WS7MET_125 2018-04-19 18:50:00 125 30483.0 5.456 6.021 6.549 6.647 6.369 90.900 88.600 4.093 4.898 8.26 2.08 1.094 1.401 2.090 2.719 13.440 5.555 6.071 6.607 6.716 6.461 4.219 4.991 12.08 2.68 0.5490   5.385 5.945 6.471 6.545 6.285 3.992 4.796     318     0.4500 344.50 3.41   0.000 0.000 9.004 8.186 0.819 9.778 8.661 1.115
WS7MET_125 2018-04-19 18:45:00 125 30483.0 5.565 6.126 6.644 6.719 6.463 90.700 88.100 4.169 4.898 15.44 3.96 1.096 1.401 2.091 2.719 13.450 5.658 6.198 6.704 6.784 6.529 4.251 4.993 17.45 4.03 0.5550   5.487 6.061 6.597 6.647 6.422 4.084 4.797     318     0.4230 344.90 3.85   0.000 0.000 9.073 8.229 0.844 9.826 8.661 1.169
WS7MET_125 2018-04-19 18:40:00 125 30483.0 5.639 6.234 6.726 6.760 6.545 90.000 87.300 4.139 4.808 18.66 4.03 1.098 1.402 2.088 2.719 13.470 5.760 6.295 6.782 6.852 6.606 4.262 4.904 18.79 4.03 0.7250   5.487 6.197 6.704 6.681 6.519 4.042 4.713     318     0.5570 347.80 8.16   0.000 0.000 9.119 8.212 0.912 9.854 8.606 1.251
WS7MET_125 2018-04-19 18:35:00 125 30483.0 5.729 6.312 6.801 6.853 6.652 90.200 87.300 4.257 4.898 21.61 4.43 1.097 1.402 2.092 2.719 13.480 5.794 6.343 6.811 6.920 6.694 4.375 5.016 22.82 5.37 0.5550   5.657 6.284 6.782 6.783 6.596 4.143 4.825     318     0.4570 343.70 4.04   0.000 0.000 9.177 8.280 0.899 9.917 8.661 1.259
WS7MET_125 2018-04-19 18:30:00 125 30483.0 5.786 6.386 6.863 6.962 6.696 89.800 86.800 4.245 4.927 17.65 4.03 1.097 1.403 2.092 2.718 13.510 5.828 6.430 6.888 7.022 6.791 4.354 5.060 20.14 4.03 0.6790   5.725 6.352 6.821 6.851 6.596 4.151 4.802     318     0.4790 346.30 5.78   0.000 0.000 9.213 8.274 0.940 9.992 8.678 1.319
WS7MET_125 2018-04-19 18:25:00 125 30483.0 5.902 6.512 7.000 7.118 6.800 89.100 85.800 4.244 4.910 21.01 4.03 1.095 1.406 2.092 2.717 13.530 5.997 6.634 7.093 7.226 6.908 4.341 5.011 22.82 4.03 0.5420   5.827 6.410 6.908 7.055 6.654 4.158 4.854     318     0.3800 347.10 14.75   0.000 0.000 9.287 8.273 1.012 10.099 8.668 1.434
WS7MET_125 2018-04-19 18:20:00 125 30483.0 6.016 6.705 7.181 7.275 7.001 88.500 85.400 4.258 5.000 21.95 4.03 1.098 1.409 2.093 2.717 13.540 6.100 6.800 7.269 7.362 7.122 4.364 5.093 22.82 4.03 0.6080   5.929 6.663 7.113 7.191 6.946 4.144 4.848     318     0.4180 350.30 13.98   0.000 0.000 9.361 8.281 1.077 10.209 8.723 1.490
WS7MET_125 2018-04-19 18:15:00 125 30483.0 6.058 6.788 7.260 7.303 7.155 88.100 84.100 4.247 4.801 23.02 4.03 1.098 1.411 2.097 2.718 13.600 6.133 6.868 7.328 7.430 7.338 4.394 4.963 24.16 4.03 0.4050   5.962 6.673 7.171 7.190 7.005 4.105 4.427     318     0.1040 348.70 34.69   0.000 0.000 9.388 8.275 1.117 10.228 8.602 1.626
WS7MET_125 2018-04-19 18:10:00 125 30483.0 6.101 6.773 7.229 7.306 7.106 88.200 85.400 4.304 5.023 33.83 7.11 1.100 1.412 2.098 2.717 13.720 6.166 6.839 7.279 7.327 7.259 4.438 5.223 45.64 10.74 0.4970   5.996 6.673 7.161 7.258 6.946 4.155 4.813     318     0.1940 354.80 19.64   0.000 0.000 9.416 8.308 1.111 10.230 8.737 1.494
WS7MET_125 2018-04-19 18:05:00 125 30483.0 5.984 6.661 7.205 7.376 6.976 88.900 85.400 4.293 5.097 49.40 12.28 1.100 1.417 2.101 2.717 13.830 6.098 6.761 7.289 7.495 7.142 4.472 5.352 51.01 13.42 0.5360   5.893 6.565 7.152 7.223 6.839 4.150 5.001     318     0.2470 330.40 39.98   0.000 0.000 9.340 8.301 1.037 10.280 8.782 1.501
WS7MET_125 2018-04-19 18:00:00 125 30483.0 6.071 6.766 7.364 7.557 7.141 87.800 83.300 4.214 4.913 48.79 11.81 1.099 1.419 2.102 2.717 13.910 6.165 6.839 7.426 7.700 7.259 4.319 5.096 49.66 12.08 0.5030   5.994 6.692 7.289 7.393 7.044 4.096 4.580     318     0.2000 313.30 28.37   0.000 0.000 9.397 8.256 1.146 10.408 8.670 1.738
WS7MET_125 2018-04-19 17:55:00 125 30483.0 6.227 6.942 7.473 7.660 7.328 87.600 81.500 4.333 4.699 48.59 12.08 1.101 1.419 2.102 2.718 13.950 6.335 7.044 7.534 7.700 7.534 4.493 4.887 49.66 12.08 0.4050   6.130 6.829 7.406 7.563 7.161 4.168 4.535     318     0.1140 32.15 28.39   0.000 0.000 9.499 8.325 1.178 10.481 8.541 1.939
WS7MET_125 2018-04-19 17:50:00 125 30483.0 6.237 7.029 7.498 7.617 7.436 88.100 81.700 4.414 4.701 44.30 11.21 1.100 1.419 2.102 2.719 13.930 6.301 7.064 7.534 7.700 7.740 4.570 4.930 48.32 12.08 0.6790   6.197 6.956 7.446 7.493 7.220 4.213 4.285     318     0.2080 236.20 61.07   0.000 0.000 9.505 8.372 1.131 10.450 8.542 1.912
WS7MET_125 2018-04-19 17:45:00 125 30483.0 6.155 6.953 7.391 7.455 7.373 88.700 84.600 4.429 5.036 31.07 7.32 1.100 1.418 2.102 2.718 13.900 6.299 7.005 7.446 7.562 7.554 4.606 5.333 37.58 9.40 0.6730   6.027 6.869 7.319 7.324 7.220 4.217 4.621     318     0.2460 329.80 62.58   0.000 0.000 9.451 8.381 1.068 10.335 8.745 1.592
WS7MET_125 2018-04-19 17:40:00 125 30483.0 5.996 6.810 7.278 7.269 7.096 87.300 86.200 4.046 5.114 41.54 6.91 1.101 1.419 2.102 2.718 13.970 6.096 6.859 7.299 7.392 7.181 4.262 5.271 53.69 8.05 0.5490   5.890 6.761 7.230 7.187 6.986 3.893 4.948     318     0.1330 309.50 13.00   0.000 0.000 9.348 8.159 1.187 10.205 8.792 1.408
WS7MET_125 2018-04-19 17:35:00 125 30483.0 5.984 6.754 7.284 7.354 7.050 87.100 85.200 4.014 5.039 28.93 8.59 1.102 1.419 2.102 2.718 14.060 6.061 6.791 7.348 7.494 7.104 4.111 5.256 29.53 9.40 0.5160   5.890 6.713 7.240 7.255 6.986 3.909 4.871     318     0.1840 322.30 12.15   0.000 0.000 9.340 8.140 1.205 10.264 8.746 1.519
WS7MET_125 2018-04-19 17:30:00 125 30483.0 6.115 6.916 7.434 7.521 7.183 87.300 87.300 4.175 5.553 31.48 11.48 1.102 1.419 2.102 2.718 14.130 6.231 7.055 7.496 7.630 7.339 4.279 5.775 33.56 13.42 0.5550   6.027 6.781 7.348 7.425 7.084 4.066 5.291     318     0.2170 3.35 25.75   0.000 0.000 9.425 8.233 1.197 10.382 9.065 1.319
WS7MET_125 2018-04-19 17:25:00 125 30483.0 6.180 7.000 7.499 7.568 7.280 86.700 86.300 4.132 5.437 30.81 10.54 1.102 1.420 2.103 2.719 14.120 6.230 7.035 7.565 7.697 7.339 4.274 5.615 34.90 14.77 0.4830   6.128 6.957 7.457 7.459 7.221 4.049 5.118     318     0.2380 321.50 9.51   0.000 0.000 9.468 8.208 1.259 10.415 8.992 1.427
WS7MET_125 2018-04-19 17:20:00 125 30483.0 6.225 7.070 7.616 7.721 7.411 87.100 86.300 4.252 5.581 36.58 9.33 1.102 1.420 2.103 2.719 14.110 6.298 7.143 7.643 7.834 7.496 4.378 5.762 44.30 14.77 0.3790   6.128 7.016 7.584 7.629 7.329 4.087 5.353     318     0.1460 332.70 5.87   0.000 0.000 9.497 8.278 1.225 10.525 9.083 1.442
WS7MET_125 2018-04-19 17:15:00 125 30483.0 6.355 7.140 7.729 7.866 7.448 86.600 85.100 4.291 5.522 51.75 11.21 1.102 1.420 2.104 2.720 14.130 6.503 7.231 7.801 7.970 7.575 4.479 5.690 71.14 16.11 0.3330   6.196 7.026 7.624 7.697 7.339 4.138 5.311     318     0.1550 336.80 0.11   0.000 0.000 9.583 8.300 1.284 10.629 9.046 1.584
WS7MET_125 2018-04-19 17:10:00 125 30483.0 6.419 7.210 7.835 7.953 7.544 86.200 84.100 4.288 5.446 68.79 16.64 1.102 1.420 2.108 2.719 14.150 6.469 7.270 7.919 8.110 7.673 4.344 5.731 79.20 20.13 0.3140   6.366 7.143 7.781 7.868 7.447 4.204 5.228     318     0.1410 309.20 16.42   0.000 0.000 9.625 8.299 1.328 10.693 8.998 1.700
WS7MET_125 2018-04-19 17:05:00 125 30483.0 6.462 7.298 7.929 8.020 7.709 86.700 84.600 4.417 5.587 78.12 20.60 1.102 1.420 2.110 2.719 14.150 6.537 7.368 7.997 8.140 7.909 4.552 5.758 81.90 21.48 0.3920   6.401 7.251 7.909 7.970 7.633 4.344 5.408     318     0.1500 307.30 26.51   0.000 0.000 9.654 8.374 1.284 10.742 9.087 1.654
WS7MET_125 2018-04-19 17:00:00 125 30483.0 6.416 7.263 7.870 7.985 7.684 87.600 85.400 4.511 5.696 75.44 20.47 1.102 1.419 2.111 2.718 14.150 6.537 7.368 7.938 8.070 7.810 4.658 5.842 77.85 21.48 0.3330   6.332 7.182 7.830 7.902 7.604 4.378 5.524     318     0.1060 262.20 26.92   0.000 0.000 9.623 8.429 1.193 10.716 9.156 1.565
WS7MET_125 2018-04-19 16:55:00 125 30483.0 6.348 7.145 7.771 7.878 7.676 87.900 85.700 4.491 5.631 67.45 18.05 1.102 1.419 2.112 2.718 14.150 6.435 7.280 7.899 8.040 8.110 4.611 5.908 73.83 20.13 0.0650   6.264 6.957 7.604 7.765 7.319 4.356 5.527     318     0.0030 292.30 0.00   0.000 0.000 9.578 8.418 1.159 10.638 9.114 1.521
WS7MET_125 2018-04-19 16:50:00 125 30483.0 6.281 6.967 7.584 7.816 7.369 87.600 85.200 4.375 5.494 71.81 19.26 1.102 1.419 2.112 2.718 14.150 6.366 7.025 7.633 7.936 7.476 4.445 5.658 77.85 20.13 0.2610   6.196 6.878 7.525 7.731 7.182 4.238 5.298     318     0.0530 333.50 17.87   0.000 0.000 9.534 8.349 1.182 10.593 9.028 1.568
WS7MET_125 2018-04-19 16:45:00 125 30483.0 6.452 7.039 7.755 8.200 7.219 86.700 83.100 4.396 5.503 79.53 20.94 1.101 1.419 2.111 2.719 14.150 6.674 7.367 8.110 8.450 7.612 4.602 5.650 80.50 21.48 0.4510   6.162 6.839 7.525 7.868 6.995 4.255 5.298     318     0.1650 353.20 17.68   0.000 0.000 9.647 8.362 1.283 10.874 9.034 1.838
WS7MET_125 2018-04-19 16:40:00 125 30483.0 6.742 7.543 8.280 8.560 7.759 86.600 82.200 4.664 5.706 78.66 20.54 1.100 1.419 2.111 2.718 14.150 6.878 7.769 8.510 8.720 7.975 4.832 5.809 81.90 21.48 0.2480   6.639 7.406 8.150 8.410 7.651 4.386 5.558     318     0.0920 234.60 80.30   0.000 0.000 9.842 8.520 1.319 11.143 9.162 1.983
WS7MET_125 2018-04-19 16:35:00 125 30483.0 6.907 7.922 8.610 8.650 8.500 86.300 79.930 4.785 5.392 83.40 22.21 1.100 1.418 2.110 2.721 14.140 6.946 7.995 8.670 8.820 8.790 4.859 5.564 88.60 24.16 0.4510   6.810 7.808 8.480 8.520 8.040 4.702 5.228     318     0.0700 125.90 11.47   0.000 0.000 9.954 8.593 1.364 11.211 8.964 2.250
WS7MET_125 2018-04-19 16:30:00 125 30483.0 6.709 7.621 8.290 8.390 8.200 87.100 82.000 4.726 5.502 95.30 25.23 1.099 1.419 2.113 2.718 14.120 6.878 7.846 8.470 8.550 8.520 4.910 5.622 98.00 25.50 0.2550   6.571 7.453 8.160 8.240 7.945 4.484 5.271     318     0.0240 240.00 8.10   0.000 0.000 9.820 8.557 1.267 11.015 9.033 1.983
WS7MET_125 2018-04-19 16:25:00 125 30483.0 6.525 7.287 7.993 8.230 7.717 86.600 83.500 4.453 5.606 99.40 26.98 1.099 1.422 2.117 2.719 14.120 6.571 7.453 8.150 8.280 8.100 4.546 5.787 104.70 28.19 0.2550   6.435 7.218 7.934 8.140 7.531 4.271 5.489     318     0.0580 274.60 10.29   0.000 0.000 9.696 8.395 1.299 10.896 9.099 1.798
WS7MET_125 2018-04-19 16:20:00 125 30483.0 6.546 7.270 8.000 8.340 7.557 86.600 82.300 4.478 5.508 108.00 30.20 1.098 1.428 2.118 2.719 14.110 6.708 7.452 8.150 8.480 7.737 4.602 5.646 111.40 30.87 0.6080   6.435 7.188 7.934 8.210 7.374 4.366 5.334     318     0.1850 7.87 64.04   0.000 0.000 9.710 8.410 1.301 10.978 9.037 1.943
WS7MET_125 2018-04-19 16:15:00 125 30483.0 6.638 7.394 8.100 8.410 7.906 86.500 80.100 4.554 5.179 111.90 30.87 1.098 1.431 2.118 2.721 14.110 6.742 7.491 8.210 8.520 8.350 4.703 5.461 127.50 34.90 0.5290   6.537 7.246 7.972 8.280 7.334 4.308 4.762     318     0.1220 77.14 48.70   0.000 0.000 9.772 8.455 1.319 11.030 8.832 2.195
WS7MET_125 2018-04-19 16:10:00 125 30483.0 6.805 7.508 8.230 8.590 7.679 84.900 80.100 4.446 5.361 129.40 36.24 1.097 1.433 2.117 2.719 14.120 6.981 7.716 8.390 8.720 8.020 4.614 5.473 131.50 36.24 0.4830   6.639 7.265 8.010 8.520 7.314 4.261 5.207     318     0.2030 43.95 7.45   0.000 0.000 9.885 8.391 1.493 11.166 8.945 2.222
WS7MET_125 2018-04-19 16:05:00 125 30483.0 6.892 7.759 8.400 8.630 8.280 84.700 77.260 4.504 4.880 127.10 35.97 1.097 1.433 2.117 2.719 14.120 6.981 7.902 8.480 8.750 8.750 4.705 5.208 128.80 36.24 0.5290   6.742 7.637 8.270 8.520 7.991 4.264 4.567     318     0.0870 88.70 35.47   0.000 0.000 9.944 8.425 1.521 11.196 8.650 2.546
WS7MET_125 2018-04-19 16:00:00 125 30483.0 6.865 7.648 8.280 8.510 8.140 84.600 77.910 4.454 4.883 105.00 29.26 1.097 1.434 2.116 2.722 14.120 6.946 7.794 8.440 8.580 8.550 4.791 5.561 122.10 33.55 0.5290   6.708 7.519 8.170 8.410 7.765 4.252 4.578     318     0.1330 319.80 60.34   0.000 0.000 9.925 8.396 1.529 11.105 8.652 2.453
WS7MET_125 2018-04-19 15:55:00 125 30483.0 6.892 7.529 8.210 8.620 7.744 84.000 79.260 4.384 5.237 87.40 23.42 1.097 1.433 2.116 2.722 14.120 7.083 7.695 8.440 8.930 8.340 4.615 5.476 92.60 25.50 0.7320   6.742 7.411 8.150 8.450 7.195 4.221 4.698     318     0.1380 241.30 61.22   0.000 0.000 9.944 8.355 1.591 11.188 8.868 2.320
WS7MET_125 2018-04-19 15:50:00 125 30483.0 7.393 8.160 8.820 9.020 8.440 82.000 75.280 4.528 4.882 94.40 25.90 1.096 1.433 2.116 2.720 14.120 7.561 8.290 8.940 9.060 8.890 4.750 5.273 102.00 28.18 0.6660   7.151 7.813 8.520 8.960 7.489 4.272 4.544     318     0.2630 135.20 57.20   0.000 0.000 10.292 8.439 1.852 11.495 8.651 2.842
WS7MET_125 2018-04-19 15:45:00 125 30483.0 7.264 8.010 8.750 8.990 8.390 82.100 76.080 4.428 5.008 120.70 32.88 1.097 1.433 2.118 2.722 14.120 7.424 8.230 8.860 9.060 8.910 4.620 5.371 149.00 41.60 0.5810   7.117 7.783 8.620 8.930 7.980 4.287 4.525     318     0.0830 324.10 45.15   0.000 0.000 10.201 8.380 1.826 11.472 8.728 2.744
WS7MET_125 2018-04-19 15:40:00 125 30483.0 7.293 7.954 8.700 9.020 8.110 82.300 77.790 4.489 5.357 209.90 62.34 1.099 1.433 2.118 2.722 14.120 7.390 8.140 8.870 9.130 8.650 4.691 5.627 434.80 128.80 1.0390   7.151 7.754 8.500 8.860 7.646 4.217 4.962     318     0.2360 258.70 57.41   0.000 0.000 10.221 8.416 1.809 11.495 8.942 2.553
WS7MET_125 2018-04-19 15:35:00 125 30483.0 7.492 8.270 8.920 9.090 8.620 81.500 75.960 4.535 5.083 185.60 55.90 1.096 1.433 2.119 2.720 14.120 7.731 8.590 9.120 9.230 9.130 4.921 5.420 193.30 59.05 0.7190   7.151 8.000 8.740 8.890 7.960 4.229 4.571     318     0.1580 296.10 64.63   0.000 0.000 10.361 8.444 1.917 11.550 8.773 2.777
WS7MET_125 2018-04-19 15:30:00 125 30483.0 7.049 7.770 8.560 8.900 8.050 83.800 78.490 4.508 5.372 182.90 55.43 1.097 1.432 2.122 2.720 14.120 7.151 7.980 8.710 8.990 8.810 4.829 5.484 190.60 57.71 0.6340   6.912 7.665 8.480 8.790 7.802 4.404 5.169     318     0.1150 228.00 31.54   0.000 0.000 10.052 8.428 1.628 11.402 8.952 2.453
WS7MET_125 2018-04-19 15:25:00 125 30483.0 7.204 8.120 8.790 8.870 8.460 82.700 77.020 4.459 5.066 190.80 58.58 1.098 1.432 2.121 2.721 14.120 7.322 8.210 8.900 9.100 8.810 4.542 5.407 193.30 59.05 0.5290   7.015 7.871 8.500 8.580 7.940 4.374 4.784     318     0.1590 89.80 68.34   0.000 0.000 10.159 8.399 1.758 11.379 8.763 2.615
WS7MET_125 2018-04-19 15:20:00 125 30483.0 6.813 7.560 8.240 8.470 7.894 84.200 79.470 4.334 5.132 189.50 57.98 1.098 1.432 2.123 2.721 14.120 7.015 7.851 8.460 8.650 8.400 4.486 5.440 195.90 59.05 0.4310   6.742 7.321 8.070 8.350 7.458 4.181 4.837     318     0.1940 29.67 57.22   0.000 0.000 9.890 8.325 1.563 11.075 8.803 2.274
WS7MET_125 2018-04-19 15:15:00 125 30483.0 6.955 7.537 8.270 8.590 7.671 82.600 77.850 4.201 4.949 193.50 58.65 1.099 1.432 2.124 2.721 14.110 7.117 7.714 8.380 8.690 7.861 4.326 5.114 200.00 60.39 0.0000   6.742 7.321 8.090 8.450 7.390 4.045 4.798     318     0.0000 0.00 0.00   0.000 0.000 9.987 8.248 1.738 11.166 8.692 2.473
WS7MET_125 2018-04-19 15:10:00 125 30483.0 7.126 7.722 8.440 8.850 7.965 81.700 75.530 4.217 4.772 188.00 57.57 1.099 1.432 2.125 2.721 14.120 7.254 7.930 8.580 8.990 8.630 4.373 5.079 198.60 60.39 1.4500   6.981 7.537 8.320 8.750 7.468 3.966 4.373     318     0.2910 93.40 46.00   0.000 0.000 10.105 8.257 1.849 11.364 8.585 2.781
WS7MET_125 2018-04-19 15:05:00 125 30483.0 7.453 8.100 8.810 9.130 8.070 81.000 74.920 4.411 4.924 199.90 62.20 1.100 1.432 2.125 2.722 14.120 7.663 8.470 9.130 9.300 9.010 4.779 5.259 200.00 63.08 0.7970   7.185 7.674 8.460 8.960 7.586 4.132 4.716     318     0.3370 129.10 24.05   0.000 0.000 10.334 8.370 1.963 11.581 8.676 2.905
WS7MET_125 2018-04-19 15:00:00 125 30483.0 7.175 8.060 8.800 8.970 8.660 82.500 75.620 4.398 4.906 198.00 62.34 1.100 1.432 2.125 2.722 14.120 7.424 8.310 9.000 9.200 9.130 4.658 5.392 206.70 65.76 0.8430   6.912 7.724 8.520 8.790 8.180 4.265 4.623     318     0.3170 192.50 29.21   0.000 0.000 10.139 8.363 1.774 11.457 8.666 2.793
WS7MET_125 2018-04-19 14:55:00 125 30483.0 6.981 7.660 8.470 8.870 7.885 82.400 77.030 4.194 5.069 173.70 53.28 1.103 1.432 2.125 2.721 14.120 7.117 7.724 8.570 9.100 8.160 4.366 5.167 187.90 59.05 0.9670   6.878 7.606 8.420 8.720 7.724 4.073 4.969     318     0.3630 49.01 64.06   0.000 0.000 10.005 8.244 1.761 11.379 8.765 2.614
WS7MET_125 2018-04-19 14:50:00 125 30483.0 7.248 7.876 8.740 9.200 8.090 81.100 74.150 4.237 4.842 169.30 51.60 1.101 1.433 2.125 2.722 14.120 7.390 7.980 8.840 9.370 8.410 4.422 5.036 198.60 61.73 0.3200   7.083 7.724 8.590 8.960 7.862 4.044 4.333     318     0.1010 38.31 57.84   0.000 0.000 10.190 8.269 1.926 11.636 8.627 3.008
WS7MET_125 2018-04-19 14:45:00 125 30483.0 7.799 8.420 9.220 9.540 8.300 78.150 73.220 4.237 4.991 204.90 63.75 1.105 1.433 2.125 2.721 14.120 8.070 8.770 9.440 9.640 8.630 4.538 5.362 208.00 64.42 1.0980   7.390 7.960 8.860 9.370 7.881 3.955 4.674     318     0.3410 91.30 30.74   0.000 0.000 10.581 8.269 2.312 11.905 8.717 3.188
WS7MET_125 2018-04-19 14:40:00 125 30483.0 8.070 8.820 9.480 9.540 8.910 77.980 71.050 4.470 4.561 181.00 56.50 1.105 1.433 2.126 2.722 14.120 8.210 8.930 9.580 9.640 9.110 4.676 5.085 197.30 60.39 0.5160   7.902 8.720 9.400 9.440 8.550 4.184 4.175     318     0.2050 217.70 40.12   0.000 0.000 10.778 8.405 2.373 11.905 8.459 3.447
WS7MET_125 2018-04-19 14:35:00 125 30483.0 8.270 8.860 9.510 9.620 8.810 76.680 73.820 4.418 5.190 211.10 67.98 1.105 1.434 2.126 2.722 14.110 8.580 9.240 9.800 9.740 9.540 4.843 5.441 218.80 69.79 0.6340   8.000 8.580 9.290 9.470 8.320 4.132 4.876     318     0.2180 129.40 30.68   0.000 0.000 10.926 8.375 2.548 11.970 8.839 3.134
WS7MET_125 2018-04-19 14:30:00 125 30483.0 8.150 8.780 9.500 9.630 8.610 77.860 73.050 4.522 5.045 241.50 80.30 1.105 1.435 2.126 2.721 14.100 8.410 9.140 9.720 9.850 9.530 4.818 5.171 280.50 95.30 0.4180   7.936 8.530 9.340 9.540 7.940 4.280 4.904     318     0.1310 167.00 62.21   0.000 0.000 10.837 8.436 2.399 11.978 8.750 3.228
WS7MET_125 2018-04-19 14:25:00 125 30483.0 8.410 9.260 9.910 9.840 8.600 76.230 70.430 4.478 4.724 341.00 116.70 1.105 1.438 2.128 2.721 14.080 8.550 9.380 10.040 10.050 9.350 4.855 5.080 412.00 142.30 0.8950   8.210 9.170 9.760 9.740 7.901 4.017 4.249     318     0.3760 173.70 39.72   0.000 0.000 11.030 8.410 2.622 12.148 8.556 3.592
WS7MET_125 2018-04-19 14:20:00 125 30483.0 7.970 8.850 9.750 9.920 8.650 78.680 71.780 4.499 5.068 336.50 113.50 1.106 1.441 2.130 2.722 14.080 8.140 9.140 9.930 10.020 9.310 4.850 5.513 375.80 128.80 1.0320   7.834 8.650 9.640 9.740 8.270 4.053 4.645     318     0.2700 102.20 27.17   0.000 0.000 10.705 8.422 2.282 12.213 8.764 3.447
WS7MET_125 2018-04-19 14:15:00 125 30483.0 8.160 9.190 9.840 9.780 8.940 77.370 71.980 4.442 4.978 299.90 98.90 1.106 1.443 2.131 2.723 14.090 8.280 9.310 9.920 9.910 9.130 4.741 5.547 307.30 102.00 0.9670   8.000 9.040 9.750 9.640 8.630 4.160 4.549     318     0.3000 82.80 50.66   0.000 0.000 10.844 8.389 2.454 12.099 8.709 3.390
WS7MET_125 2018-04-19 14:10:00 125 30483.0 7.863 8.920 9.550 9.500 8.930 78.170 71.730 4.302 4.661 312.70 104.70 1.106 1.446 2.133 2.722 14.080 8.210 9.220 9.800 9.710 9.320 4.614 4.969 318.10 107.40 0.8040   7.663 8.720 9.390 9.270 8.490 4.156 4.357     318     0.1980 203.30 28.90   0.000 0.000 10.627 8.307 2.320 11.873 8.518 3.357
WS7MET_125 2018-04-19 14:05:00 125 30483.0 7.412 8.480 9.110 9.050 8.800 80.700 74.260 4.317 4.712 289.90 96.90 1.113 1.445 2.134 2.727 14.090 7.834 8.800 9.400 9.330 9.270 4.504 5.099 303.30 102.00 0.4250   6.878 7.930 8.680 8.720 8.350 4.156 4.300     318     0.1430 111.90 69.02   0.000 0.000 10.305 8.315 1.989 11.519 8.549 2.965
WS7MET_125 2018-04-19 14:00:00 125 30483.0 6.593 7.582 8.360 8.550 7.964 83.500 78.920 4.009 5.113 289.60 97.20 1.115 1.449 2.134 2.730 14.080 6.844 7.910 8.640 8.720 8.490 4.516 5.212 293.90 99.30 0.6400   6.435 7.341 8.100 8.350 7.527 3.662 4.979     318     0.3130 141.40 49.47   0.000 0.000 9.741 8.137 1.607 11.135 8.792 2.347
WS7MET_125 2018-04-19 13:55:00 125 30483.0 6.341 7.165 7.969 8.270 7.367 83.900 79.890 3.820 5.013 257.70 87.20 1.115 1.451 2.134 2.731 14.090 6.469 7.321 8.110 8.350 7.606 3.951 5.186 279.10 93.90 0.5100   6.264 7.086 7.900 8.170 7.194 3.708 4.801     318     0.1380 81.00 16.22   0.000 0.000 9.574 8.030 1.541 10.926 8.731 2.197
WS7MET_125 2018-04-19 13:50:00 125 30483.0 6.172 7.150 7.905 7.994 7.708 85.700 78.970 3.967 4.574 213.30 71.73 1.115 1.451 2.134 2.731 14.090 6.401 7.262 8.120 8.280 8.080 4.048 5.035 232.20 79.18 0.4120   5.957 6.891 7.576 7.731 7.331 3.852 4.254     318     0.0290 112.50 29.93   0.000 0.000 9.462 8.113 1.353 10.723 8.467 2.255
WS7MET_125 2018-04-19 13:45:00 125 30483.0 5.909 6.723 7.419 7.590 7.157 86.400 81.900 3.817 4.702 170.60 56.63 1.115 1.451 2.134 2.731 14.070 6.025 6.852 7.556 7.731 7.292 3.953 4.985 191.90 64.42 0.3530   5.786 6.598 7.302 7.424 6.998 3.656 3.769     318     0.1890 42.87 23.38   0.000 0.000 9.292 8.028 1.264 10.431 8.543 1.888
WS7MET_125 2018-04-19 13:40:00 125 30483.0 5.819 6.578 7.202 7.325 6.986 86.400 85.400 3.734 5.040 136.80 44.96 1.115 1.451 2.134 2.731 14.060 5.889 6.608 7.282 7.458 7.037 3.818 5.306 149.00 49.66 0.2740   5.684 6.481 7.086 7.185 6.940 3.673 4.783     318     0.0870 44.73 8.78   0.000 0.000 9.234 7.981 1.256 10.244 8.747 1.496
WS7MET_125 2018-04-19 13:35:00 125 30483.0 5.720 6.349 6.985 7.225 6.688 86.800 83.900 3.701 4.686 108.30 35.23 1.115 1.451 2.134 2.731 14.060 5.786 6.461 7.067 7.322 6.900 3.802 4.792 122.10 40.26 0.2940   5.616 6.286 6.930 7.151 6.549 3.550 4.590     318     0.1610 344.70 20.13   0.000 0.000 9.171 7.963 1.211 10.174 8.533 1.638
WS7MET_125 2018-04-19 13:30:00 125 30483.0 5.839 6.416 7.108 7.412 6.795 86.300 83.000 3.734 4.717 83.00 26.57 1.115 1.452 2.134 2.731 14.060 6.025 6.588 7.282 7.561 7.174 3.897 4.827 93.90 30.87 0.5620   5.650 6.306 7.008 7.254 6.559 3.565 4.624     318     0.2670 22.17 26.01   0.000 0.000 9.247 7.981 1.267 10.305 8.552 1.752
WS7MET_125 2018-04-19 13:25:00 125 30483.0 6.042 6.527 7.283 7.760 6.843 85.200 80.800 3.745 4.680 60.53 18.52 1.115 1.452 2.134 2.731 14.050 6.298 6.695 7.498 8.070 7.057 3.852 4.742 69.79 21.47 0.4640   5.889 6.442 7.204 7.526 6.725 3.630 4.601     318     0.2420 4.55 8.51   0.000 0.000 9.378 7.987 1.388 10.553 8.530 2.026
WS7MET_125 2018-04-19 13:20:00 125 30483.0 6.539 7.030 7.836 8.280 7.278 81.700 76.830 3.648 4.456 48.72 14.90 1.115 1.453 2.134 2.731 14.030 6.844 7.282 8.110 8.480 7.723 3.844 4.850 51.00 16.10 0.6530   6.264 6.734 7.537 8.040 6.940 3.498 3.805     318     0.2260 45.43 12.88   0.000 0.000 9.705 7.933 1.776 10.933 8.397 2.533
WS7MET_125 2018-04-19 13:15:00 125 30483.0 7.293 7.554 8.340 8.660 7.792 78.110 73.400 3.736 4.176 57.04 17.71 1.115 1.454 2.134 2.731 14.030 7.834 7.851 8.540 8.860 8.130 3.915 4.496 63.08 20.13 0.4120   6.844 7.282 8.120 8.450 7.586 3.648 3.544     318     0.0520 264.80 12.62   0.000 0.000 10.221 7.982 2.237 11.219 8.233 2.984
WS7MET_125 2018-04-19 13:10:00 125 30483.0 8.890 8.810 9.360 9.540 8.160 70.300 68.250 3.770 3.976 73.61 23.02 1.115 1.452 2.134 2.731 14.030 9.710 9.650 10.070 10.020 8.990 4.003 4.376 87.20 26.84 0.9340   7.868 7.871 8.520 8.930 7.253 3.381 3.494     318     0.2660 45.75 64.81   0.000 0.000 11.395 8.002 3.384 11.905 8.118 3.780
WS7MET_125 2018-04-19 13:05:00 125 30483.0 10.210 10.340 10.680 10.430 9.440 62.540 61.800 3.372 3.417 119.60 38.05 1.115 1.452 2.135 2.731 14.030 10.460 10.920 11.310 10.840 9.810 4.093 3.853 165.10 53.68 1.2870   9.810 9.760 10.160 10.120 8.930 2.780 3.011     318     0.6010 243.20 37.50   0.000 0.000 12.453 7.780 4.665 12.637 7.805 4.827
WS7MET_125 2018-04-19 13:00:00 125 30483.0 10.530 11.240 11.790 11.040 10.030 61.710 59.690 3.495 3.507 279.10 96.30 1.115 1.454 2.134 2.731 14.030 10.630 11.560 12.090 11.250 10.180 4.168 3.851 459.00 165.10 1.4500   10.430 11.010 11.440 10.730 9.790 3.079 3.012     318     0.6860 175.30 41.91   0.000 0.000 12.722 7.848 4.871 13.161 7.854 5.305
WS7MET_125 2018-04-19 12:55:00 125 30483.0 10.470 11.560 12.040 11.190 10.190 62.680 60.550 3.653 3.846 657.00 245.10 1.115 1.456 2.135 2.730 14.030 10.770 11.880 12.290 11.350 10.480 4.683 4.516 1282.00 485.80 1.9210   10.050 11.250 11.670 10.940 9.890 2.548 3.372     318     0.7710 178.50 49.91   0.000 0.000 12.671 7.936 4.729 13.293 8.044 5.244
WS7MET_125 2018-04-19 12:50:00 125 30483.0 9.260 10.380 10.780 10.230 9.730 65.660 61.920 3.167 3.251 1071.00 411.20 1.115 1.456 2.135 2.731 14.030 10.050 11.240 11.630 10.970 10.140 3.697 3.643 1243.00 475.10 2.9330   8.520 9.560 10.010 9.610 9.290 2.755 2.843     318     1.4380 196.60 37.63   0.000 0.000 11.683 7.668 4.012 12.469 7.713 4.748
WS7MET_125 2018-04-19 12:45:00 125 30483.0 8.090 9.020 9.500 9.270 8.860 71.950 66.570 3.339 3.372 406.60 153.70 1.115 1.459 2.134 2.731 14.030 8.410 9.490 9.960 9.570 9.210 4.115 3.776 586.50 224.10 1.1560   7.799 8.670 9.200 9.030 8.550 2.800 3.007     318     0.4970 157.10 42.65   0.000 0.000 10.793 7.762 3.027 11.691 7.780 3.908
WS7MET_125 2018-04-19 12:40:00 125 30483.0 7.953 8.620 9.100 8.900 8.200 74.150 69.730 3.636 3.672 257.20 94.00 1.115 1.457 2.135 2.731 14.030 8.040 8.690 9.190 9.030 8.630 4.005 4.065 277.80 103.30 1.2220   7.834 8.480 8.980 8.790 7.586 2.985 3.121     318     0.6000 233.60 36.35   0.000 0.000 10.693 7.926 2.764 11.402 7.946 3.452
WS7MET_125 2018-04-19 12:35:00 125 30483.0 7.712 8.420 8.960 8.800 8.440 75.620 69.690 3.682 3.573 225.10 79.18 1.115 1.457 2.135 2.731 14.030 7.936 8.610 9.100 8.930 8.770 4.192 3.991 240.20 85.90 1.2410   7.424 8.080 8.680 8.620 7.861 3.068 3.142     318     0.5970 150.80 44.95   0.000 0.000 10.518 7.952 2.564 11.326 7.891 3.433
WS7MET_125 2018-04-19 12:30:00 125 30483.0 7.629 7.947 8.600 8.910 7.310 77.610 72.870 3.973 4.316 268.70 96.20 1.115 1.458 2.134 2.730 14.040 7.970 8.290 9.020 9.370 8.250 4.343 4.689 319.40 116.80 0.7250   7.390 7.625 8.270 8.620 6.744 3.507 3.760     318     0.2680 355.30 59.47   0.000 0.000 10.459 8.117 2.342 11.410 8.315 3.096
WS7MET_125 2018-04-19 12:25:00 125 30483.0 8.530 8.920 9.670 10.020 7.704 73.520 68.260 4.076 4.440 530.00 201.70 1.115 1.460 2.135 2.730 14.030 8.990 9.610 10.280 10.430 8.810 4.445 4.606 986.00 374.40 0.8620   8.070 8.370 9.100 9.440 6.959 3.828 4.130     318     0.3030 74.07 24.83   0.000 0.000 11.120 8.176 2.945 12.295 8.388 3.902
WS7MET_125 2018-04-19 12:20:00 125 30483.0 9.280 9.970 10.560 10.490 8.930 68.660 64.690 3.823 4.134 519.40 193.70 1.115 1.460 2.135 2.728 14.040 9.510 10.480 11.080 10.700 9.430 4.287 4.414 750.20 297.90 1.6460   9.060 9.630 10.200 10.290 8.440 3.534 3.912     318     0.4380 187.30 69.23   0.000 0.000 11.699 8.031 3.666 12.688 8.209 4.480
WS7MET_125 2018-04-19 12:15:00 125 30483.0 9.670 10.610 11.170 10.470 9.240 65.240 61.830 3.460 3.461 327.50 117.70 1.115 1.459 2.136 2.728 14.060 9.980 10.850 11.350 10.670 9.550 4.231 4.187 459.00 169.10 0.8820   9.370 10.350 11.010 10.320 8.890 2.620 2.825     318     0.2390 135.80 41.45   0.000 0.000 12.010 7.828 4.175 12.671 7.829 4.836
WS7MET_125 2018-04-19 12:10:00 125 30483.0 9.560 10.710 11.230 10.530 9.250 64.170 60.130 3.119 3.122 657.80 256.70 1.116 1.462 2.136 2.730 14.060 9.910 10.830 11.350 10.630 9.540 4.166 3.965 1143.00 453.60 1.4180   9.200 10.510 11.060 10.390 9.050 2.516 2.695     318     0.3790 296.80 66.65   0.000 0.000 11.921 7.642 4.271 12.722 7.643 5.072
WS7MET_125 2018-04-19 12:05:00 125 30483.0 8.610 9.810 10.410 10.040 9.170 69.730 64.230 3.391 3.592 805.00 320.90 1.116 1.461 2.137 2.730 14.060 9.200 10.480 11.050 10.430 9.570 3.813 3.975 1086.00 437.50 0.7710   8.110 9.050 9.550 9.400 8.400 2.846 3.022     318     0.2210 255.00 81.00   0.000 0.000 11.181 7.790 3.384 12.312 7.902 4.404
WS7MET_125 2018-04-19 12:00:00 125 30483.0 7.784 8.620 9.150 9.070 8.130 72.410 66.900 3.136 3.246 700.30 281.50 1.117 1.460 2.138 2.733 14.060 8.110 8.930 9.420 9.330 8.630 3.793 3.805 1130.00 450.90 0.6470   7.288 8.130 8.780 8.720 7.707 2.513 2.744     318     0.1730 49.20 64.61   0.000 0.000 10.570 7.651 2.916 11.534 7.711 3.818
WS7MET_125 2018-04-19 11:55:00 125 30483.0 7.187 7.679 8.510 8.740 7.681 76.860 70.720 3.403 3.715 346.10 135.40 1.118 1.464 2.139 2.733 14.060 7.492 8.050 8.760 8.930 8.240 3.795 4.465 664.40 257.70 0.5100   7.049 7.453 8.340 8.620 7.199 2.555 2.727     318     0.1690 17.42 59.59   0.000 0.000 10.147 7.797 2.348 11.280 7.971 3.303
WS7MET_125 2018-04-19 11:50:00 125 30483.0 7.898 8.270 8.840 8.830 8.030 73.940 68.250 3.543 3.305 269.10 102.80 1.119 1.463 2.140 2.732 14.060 8.350 8.470 8.960 8.930 8.360 3.776 4.158 280.50 108.70 0.8950   7.561 7.945 8.770 8.750 7.592 3.022 2.905     318     0.1510 210.30 19.34   0.000 0.000 10.653 7.874 2.776 11.349 7.743 3.603
WS7MET_125 2018-04-19 11:45:00 125 30483.0 8.720 8.940 9.160 9.060 8.370 67.620 66.360 3.068 3.129 242.70 88.50 1.120 1.465 2.144 2.728 14.060 8.820 9.200 9.490 9.300 8.670 3.811 3.698 253.70 94.00 1.9860   8.410 8.390 8.750 8.890 7.651 2.669 2.852     318     0.8800 255.70 41.28   0.000 0.000 11.264 7.614 3.647 11.526 7.647 3.877
WS7MET_125 2018-04-19 11:40:00 125 30483.0 8.770 9.350 9.690 9.480 8.810 71.180 68.170 3.839 3.905 415.90 162.70 1.121 1.465 2.146 2.729 14.060 8.890 9.490 9.800 9.710 9.040 4.432 4.514 1119.00 456.40 2.1690   8.580 9.220 9.550 9.300 8.520 2.594 2.897     318     1.3480 234.30 24.46   0.000 0.000 11.303 8.041 3.257 11.857 8.078 3.774
WS7MET_125 2018-04-19 11:35:00 125 30483.0 8.590 9.000 9.650 9.430 7.871 74.130 70.360 4.246 4.314 714.00 286.30 1.122 1.465 2.148 2.729 14.060 8.990 9.460 10.090 9.640 8.520 4.665 4.832 1226.00 503.40 1.4500   8.410 8.760 9.420 9.270 7.379 3.538 3.686     318     0.3400 280.80 59.65   0.000 0.000 11.166 8.274 2.889 11.818 8.314 3.503
WS7MET_125 2018-04-19 11:30:00 125 30483.0 9.310 10.020 10.580 9.510 7.673 70.840 69.600 4.296 4.237 235.90 86.20 1.122 1.466 2.149 2.729 14.060 9.780 10.920 11.420 10.120 7.949 4.725 4.739 281.90 104.70 0.9340   8.890 9.520 10.170 9.230 7.213 3.881 3.895     318     0.3770 139.50 22.97   0.000 0.000 11.722 8.303 3.418 11.881 8.269 3.612
WS7MET_125 2018-04-19 11:25:00 125 30483.0 9.330 10.870 11.170 10.110 8.480 72.210 68.010 4.584 4.472 595.90 237.90 1.122 1.464 2.146 2.729 14.060 9.810 11.340 11.660 10.390 8.920 5.054 5.283 1141.00 459.10 1.6010   8.650 10.190 10.500 9.710 8.010 3.874 3.838     318     0.3810 185.70 36.75   0.000 0.000 11.738 8.473 3.262 12.370 8.406 3.957
WS7MET_125 2018-04-19 11:20:00 125 30483.0 8.030 9.160 9.420 8.950 8.110 76.250 71.140 4.103 4.008 921.00 384.00 1.121 1.464 2.145 2.728 14.060 8.620 10.020 10.380 9.610 8.690 5.032 5.237 1181.00 494.00 0.9280   7.322 8.110 8.390 8.170 7.280 2.935 3.223     318     0.2990 210.60 46.46   0.000 0.000 10.749 8.191 2.553 11.441 8.137 3.302
WS7MET_125 2018-04-19 11:15:00 125 30483.0 6.894 7.827 8.120 7.888 7.355 78.490 73.520 3.413 3.452 589.60 241.70 1.121 1.466 2.141 2.728 14.050 7.322 8.050 8.290 8.210 7.633 4.344 4.205 1087.00 461.80 1.0060   6.299 7.251 7.663 7.425 6.928 2.829 2.950     318     0.4500 235.60 31.38   0.000 0.000 9.945 7.802 2.139 10.645 7.824 2.819
WS7MET_125 2018-04-19 11:10:00 125 30483.0 6.220 6.895 7.334 7.363 6.629 84.100 79.340 3.741 4.029 365.90 147.60 1.121 1.464 2.142 2.728 14.070 6.299 7.153 7.594 7.493 7.133 3.957 4.332 783.90 350.30 0.7910   6.060 6.713 7.172 7.288 6.070 3.583 3.698     318     0.3910 85.70 42.46   0.000 0.000 9.494 7.985 1.510 10.270 8.149 2.122
WS7MET_125 2018-04-19 11:05:00 125 30483.0 6.182 6.552 6.997 7.303 6.132 85.100 81.500 3.873 4.350 250.00 98.00 1.121 1.464 2.143 2.728 14.080 6.539 6.664 7.133 7.426 6.703 4.048 4.520 401.30 167.80 0.6210   5.992 6.479 6.879 7.118 5.798 3.766 4.103     318     0.3680 81.60 17.64   0.000 0.000 9.469 8.060 1.411 10.228 8.335 1.892
WS7MET_125 2018-04-19 11:00:00 125 30483.0 6.748 7.075 7.521 7.534 6.302 81.200 79.500 3.756 4.224 223.80 87.50 1.122 1.467 2.151 2.728 14.080 6.881 7.379 7.791 7.666 6.792 3.898 4.458 253.70 102.00 0.9670   6.471 6.596 7.114 7.358 5.847 3.488 4.050     318     0.3740 83.80 8.55   0.000 0.000 9.846 7.994 1.851 10.391 8.261 2.130
WS7MET_125 2018-04-19 10:55:00 125 30483.0 7.039 7.447 7.846 7.668 6.086 78.800 78.590 3.614 4.189 263.60 106.00 1.122 1.467 2.152 2.729 14.090 7.462 7.832 8.190 7.872 6.413 3.841 4.368 545.00 229.50 0.6400   6.711 7.242 7.693 7.563 5.809 3.413 4.034     318     0.4460 135.30 28.34   0.000 0.000 10.045 7.914 2.130 10.487 8.241 2.245
WS7MET_125 2018-04-19 10:50:00 125 30483.0 7.331 8.010 8.370 8.230 6.914 78.600 75.380 3.864 4.144 353.60 142.20 1.122 1.468 2.153 2.730 14.080 7.465 8.280 8.700 8.590 7.224 4.014 4.491 895.00 362.40 1.2740   7.225 7.881 8.250 7.940 6.510 3.735 3.932     318     0.4750 203.40 52.91   0.000 0.000 10.248 8.055 2.193 10.896 8.215 2.683
WS7MET_125 2018-04-19 10:45:00 125 30483.0 7.383 8.240 8.750 8.440 6.653 78.550 74.960 3.905 4.263 528.60 221.40 1.122 1.469 2.154 2.731 14.090 7.466 8.330 8.820 8.590 7.107 4.220 4.549 1047.00 448.40 0.7450   7.226 8.130 8.620 8.280 6.317 3.585 4.025     318     0.2510 160.60 42.21   0.000 0.000 10.284 8.078 2.206 11.053 8.284 2.768
WS7MET_125 2018-04-19 10:40:00 125 30483.0 7.565 8.560 9.040 8.600 6.876 76.770 73.660 3.757 4.173 220.00 87.60 1.122 1.471 2.154 2.732 14.090 7.705 8.800 9.260 8.870 7.344 4.040 4.331 710.20 299.40 0.5420   7.364 8.270 8.830 8.320 6.483 3.383 3.955     318     0.2110 223.80 59.09   0.000 0.000 10.413 7.994 2.419 11.173 8.232 2.943
WS7MET_125 2018-04-19 10:35:00 125 30483.0 7.030 8.070 8.610 8.300 6.950 80.100 75.620 3.830 4.254 720.90 308.40 1.124 1.471 2.154 2.732 14.100 7.569 8.860 9.320 8.830 7.334 4.233 4.482 913.00 390.70 0.8430   6.613 7.286 7.914 7.773 6.621 2.966 3.700     318     0.2660 114.40 22.07   0.000 0.000 10.039 8.035 1.998 10.948 8.279 2.669
WS7MET_125 2018-04-19 10:30:00 125 30483.0 6.608 7.254 7.885 7.966 6.631 77.560 73.020 2.973 3.433 391.10 161.80 1.121 1.471 2.155 2.733 14.120 6.750 7.384 7.993 8.080 7.109 3.209 3.913 925.00 393.30 1.3520   6.443 7.148 7.717 7.842 6.095 2.588 3.000     318     0.3380 64.42 77.30   0.000 0.000 9.752 7.563 2.188 10.702 7.813 2.887
WS7MET_125 2018-04-19 10:25:00 125 30483.0 6.217 6.990 7.635 7.683 6.621 79.050 71.680 2.856 2.895 580.30 242.70 1.121 1.472 2.154 2.733 14.740 6.682 7.492 8.040 8.010 7.041 3.257 3.357 908.00 381.30 0.8690   5.794 6.309 7.041 7.466 5.930 2.392 2.233     318     0.4430 222.20 39.57   0.000 0.000 9.492 7.500 1.989 10.498 7.521 2.973
WS7MET_125 2018-04-19 10:20:00 125 30483.0 5.627 6.155 6.856 7.209 5.697 82.900 75.290 2.957 3.135 636.60 266.80 1.117 1.472 2.153 2.733 14.830 5.794 6.270 6.972 7.466 5.891 3.198 3.534 882.00 373.20 0.4310   5.521 6.036 6.757 7.057 5.619 2.698 2.878     318     0.1170 333.90 29.48   0.000 0.000 9.112 7.554 1.558 10.163 7.650 2.511
WS7MET_125 2018-04-19 10:15:00 125 30483.0 5.574 6.385 6.979 7.146 5.999 82.500 74.850 2.826 2.989 533.60 224.50 1.117 1.472 2.150 2.734 14.830 5.760 6.660 7.207 7.330 6.631 3.065 3.631 1004.00 422.90 1.0650   5.283 6.075 6.748 6.921 5.667 2.268 2.525     318     0.2600 224.70 55.61   0.000 0.000 9.078 7.484 1.589 10.119 7.571 2.545
WS7MET_125 2018-04-19 10:10:00 125 30483.0 5.339 6.073 6.666 6.831 6.021 84.700 76.460 2.981 2.986 430.60 175.30 1.117 1.472 2.151 2.733 14.860 5.488 6.299 6.885 7.057 6.290 3.185 3.230 1004.00 420.20 1.4900   5.147 5.813 6.494 6.716 5.580 2.802 2.803     318     0.6730 257.90 42.86   0.000 0.000 8.931 7.567 1.366 9.902 7.570 2.331
WS7MET_125 2018-04-19 10:05:00 125 30483.0 5.179 5.677 6.360 6.629 5.677 88.000 83.300 3.352 3.996 290.60 116.70 1.116 1.472 2.151 2.733 14.860 5.317 5.813 6.475 6.784 5.910 3.638 4.372 883.00 362.50 0.7770   5.079 5.609 6.290 6.478 5.348 3.119 3.141     318     0.3280 266.10 21.23   0.000 0.000 8.832 7.769 1.060 9.766 8.130 1.631
WS7MET_125 2018-04-19 10:00:00 125 30483.0 5.462 5.946 6.626 7.017 5.207 87.500 83.600 3.552 4.435 452.80 183.90 1.116 1.473 2.149 2.733 14.870 5.693 6.290 7.012 7.229 5.823 3.654 4.628 894.00 365.20 1.0580   5.283 5.619 6.270 6.785 4.999 3.436 4.169     318     0.3800 213.70 91.10   0.000 0.000 9.008 7.879 1.126 10.030 8.385 1.645
WS7MET_125 2018-04-19 09:55:00 125 30483.0 5.632 6.376 7.064 7.178 5.628 86.500 81.300 3.556 4.188 546.10 220.70 1.117 1.473 2.146 2.733 14.880 5.762 6.651 7.286 7.331 6.154 3.896 4.587 869.00 351.70 0.7770   5.489 6.115 6.875 7.024 5.135 3.114 3.845     318     0.2470 243.20 38.16   0.000 0.000 9.115 7.882 1.231 10.141 8.240 1.896
WS7MET_125 2018-04-19 09:50:00 125 30483.0 5.274 6.083 6.795 6.829 5.654 89.500 83.500 3.688 4.230 544.10 222.60 1.117 1.473 2.147 2.734 14.900 5.557 6.446 7.198 7.195 6.008 3.862 4.613 914.00 369.20 0.1630   5.045 5.843 6.603 6.615 5.155 3.489 3.981     318     0.0270 292.30 33.69   0.000 0.000 8.891 7.955 0.934 9.901 8.265 1.634
WS7MET_125 2018-04-19 09:45:00 125 30483.0 4.898 5.692 6.346 6.475 5.439 91.500 84.900 3.638 4.118 522.80 207.60 1.118 1.474 2.147 2.734 14.910 5.285 6.116 6.720 6.752 6.077 3.967 4.410 857.00 337.00 0.2350   4.501 5.165 5.864 6.139 4.962 3.304 3.653     318     0.0370 139.40 61.50   0.000 0.000 8.661 7.927 0.736 9.663 8.200 1.459
WS7MET_125 2018-04-19 09:40:00 125 30483.0 4.393 5.027 5.750 6.048 4.811 91.400 86.700 3.119 3.996 440.30 172.50 1.118 1.474 2.148 2.735 14.910 4.535 5.146 5.883 6.242 5.011 3.343 4.146 857.00 330.30 0.6990   4.263 4.914 5.632 5.902 4.605 2.872 3.837     318     0.2900 273.60 22.36   0.000 0.000 8.360 7.642 0.719 9.382 8.130 1.248
WS7MET_125 2018-04-19 09:35:00 125 30483.0 4.243 4.883 5.480 5.803 4.338 91.300 87.500 2.955 3.894 531.10 203.90 1.119 1.475 2.149 2.735 14.930 4.299 5.167 5.749 5.935 5.042 3.325 4.124 826.00 311.50 0.2480   4.195 4.761 5.341 5.663 4.114 2.833 3.635     318     0.0460 114.80 42.97   0.000 0.000 8.272 7.553 0.720 9.224 8.072 1.153
WS7MET_125 2018-04-19 09:30:00 125 30483.0 3.974 4.800 5.488 5.699 4.354 92.600 88.100 2.884 3.882 346.90 135.30 1.120 1.477 2.150 2.736 14.940 4.230 5.197 5.749 5.836 5.138 3.455 4.123 735.70 259.10 0.6990   3.788 4.588 5.343 5.495 3.845 2.424 3.575     318     0.3590 100.90 27.08   0.000 0.000 8.117 7.515 0.601 9.157 8.065 1.090
WS7MET_125 2018-04-19 09:25:00 125 30483.0 3.877 4.685 5.489 5.825 3.888 92.600 88.000 2.791 3.996 457.40 166.90 1.122 1.477 2.151 2.736 14.950 3.925 4.753 5.557 5.973 4.077 2.910 4.173 696.80 256.40 0.5100   3.822 4.628 5.431 5.767 3.692 2.687 3.843     318     0.1220 78.24 20.87   0.000 0.000 8.062 7.466 0.597 9.238 8.130 1.109
WS7MET_125 2018-04-19 09:20:00 125 30483.0 3.903 4.705 5.502 5.790 3.993 92.400 87.400 2.786 3.861 631.70 205.80 1.123 1.478 2.154 2.737 14.940 3.993 4.881 5.617 5.870 4.504 3.027 4.072 725.10 232.30 0.8040   3.823 4.609 5.414 5.700 3.761 2.637 3.687     318     0.3530 71.07 27.97   0.000 0.000 8.077 7.463 0.614 9.215 8.053 1.161
WS7MET_125 2018-04-19 09:15:00 125 30483.0 3.579 4.390 5.154 5.548 3.787 93.800 86.600 2.676 3.487 543.80 166.80 1.124 1.479 2.156 2.739 14.980 3.823 4.707 5.385 5.734 4.408 3.237 3.785 672.70 206.80 0.9020   3.379 4.129 4.940 5.393 3.367 2.307 3.187     318     0.2560 192.40 47.97   0.000 0.000 7.894 7.405 0.489 9.062 7.843 1.214
WS7MET_125 2018-04-19 09:10:00 125 30483.0 3.524 4.535 5.380 5.650 3.817 94.300 89.500 2.693 4.064 546.30 160.10 1.125 1.481 2.155 2.739 14.980 3.618 4.690 5.571 5.870 4.091 2.896 4.497 692.90 202.80 0.2940   3.413 4.361 5.222 5.256 3.541 2.320 3.496     318     0.0340 284.40 13.08   0.000 0.000 7.864 7.414 0.448 9.126 8.169 0.958
WS7MET_125 2018-04-19 09:05:00 125 30483.0 3.387 4.105 4.720 4.918 3.724 96.900 92.600 2.951 3.820 618.10 167.30 1.126 1.482 2.156 2.740 14.990 3.686 4.468 5.145 5.256 4.072 3.366 4.053 643.20 178.60 0.3790   3.208 3.649 4.305 4.642 3.167 2.626 3.436     318     0.0950 94.70 63.07   0.000 0.000 7.788 7.551 0.241 8.673 8.030 0.642
WS7MET_125 2018-04-19 09:00:00 125 30483.0 3.309 3.827 4.490 4.766 3.187 97.000 91.400 2.876 3.491 455.80 127.90 1.127 1.483 2.157 2.738 14.980 3.481 3.977 4.634 4.949 3.322 3.240 3.752 682.20 188.00 0.8950   3.106 3.639 4.314 4.539 3.032 2.488 3.269     318     0.2970 51.45 36.76   0.000 0.000 7.745 7.511 0.232 8.581 7.845 0.738
WS7MET_125 2018-04-19 08:55:00 125 30483.0 3.196 3.769 4.492 4.541 3.243 98.600 93.700 2.999 3.615 582.80 144.50 1.127 1.483 2.157 2.740 14.980 3.413 3.997 4.634 4.812 3.852 3.338 3.736 627.10 162.50 0.3590   3.072 3.611 4.363 4.369 2.898 2.811 3.484     318     0.0760 58.14 49.55   0.000 0.000 7.683 7.577 0.108 8.447 7.914 0.532
WS7MET_125 2018-04-19 08:50:00 125 30483.0 3.246 3.931 4.478 4.119 3.291 99.800 95.800 3.213 3.510 542.40 121.10 1.127 1.483 2.157 2.737 14.980 3.345 4.016 4.615 4.334 3.544 3.347 3.634 572.10 135.60 0.1960   3.174 3.794 4.209 3.891 2.908 3.021 3.361     318     0.0250 304.80 33.93   0.000 0.000 7.711 7.693 0.015 8.201 7.856 0.344
WS7MET_125 2018-04-19 08:45:00 125 30483.0 3.097 3.772 4.062 3.672 2.931 100.000 97.400 3.100 3.302 383.80 98.00 1.127 1.483 2.158 2.737 14.990 3.174 3.881 4.209 3.925 3.178 3.176 3.506 526.40 122.20 0.2870   3.038 3.640 3.881 3.413 2.696 3.040 3.034     318     0.0790 163.40 36.20   0.000 0.000 7.630 7.631 -0.000 7.946 7.741 0.207
WS7MET_125 2018-04-19 08:40:00 125 30483.0 2.899 3.507 3.745 3.295 2.721 100.000 97.400 2.901 2.924 292.40 91.00 1.127 1.483 2.157 2.735 14.990 3.003 3.611 3.833 3.447 2.908 3.006 3.063 452.60 120.90 0.8300   2.730 3.322 3.592 3.038 2.542 2.732 2.684     318     0.1840 223.70 25.96   0.000 0.000 7.523 7.524 0.000 7.737 7.537 0.201
WS7MET_125 2018-04-19 08:35:00 125 30483.0 2.683 3.161 3.505 2.983 2.349 100.000 97.300 2.685 2.606 255.40 87.20 1.127 1.483 2.157 2.735 14.990 2.799 3.312 3.592 3.106 2.542 2.801 2.747 385.40 115.50 0.3920   2.526 3.091 3.418 2.935 2.205 2.527 2.537     318     0.0770 211.70 13.03   0.000 0.000 7.409 7.410 0.000 7.568 7.368 0.204
WS7MET_125 2018-04-19 08:30:00 125 30483.0 2.468 2.906 3.272 2.916 2.193 100.000 97.200 2.469 2.516 224.20 88.40 1.127 1.483 2.157 2.735 14.970 2.560 3.072 3.409 3.038 2.330 2.562 2.684 271.30 103.40 0.3590   2.355 2.850 3.206 2.833 2.032 2.357 2.406     318     0.0570 94.20 27.46   0.000 0.000 7.296 7.296 0.000 7.532 7.321 0.211
WS7MET_125 2018-04-19 08:25:00 125 30483.0 2.416 2.905 3.298 3.073 2.199 100.000 96.700 2.418 2.600 186.80 76.15 1.127 1.483 2.158 2.735 14.850 2.526 3.014 3.428 3.311 2.340 2.527 2.912 202.80 81.90 0.6270   2.321 2.831 3.206 2.867 2.032 2.322 2.400     318     0.3380 107.80 17.13   0.000 0.000 7.269 7.270 0.000 7.617 7.365 0.251
WS7MET_125 2018-04-19 08:20:00 125 30483.0 2.433 3.050 3.492 3.365 2.245 100.000 98.100 2.435 3.091 230.50 82.10 1.127 1.482 2.159 2.735 14.770 2.560 3.100 3.573 3.447 2.417 2.562 3.186 303.50 92.70 0.4900   2.321 2.966 3.361 3.276 2.128 2.322 2.990     318     0.1720 110.00 24.54   0.000 0.000 7.278 7.279 -0.000 7.776 7.626 0.148
WS7MET_125 2018-04-19 08:15:00 125 30483.0 2.239 2.791 3.151 3.126 2.129 100.000 98.700 2.241 2.944 298.70 90.90 1.127 1.482 2.160 2.735 14.610 2.321 2.956 3.351 3.242 2.234 2.322 3.089 363.90 96.70 0.5750   2.184 2.706 3.033 3.072 2.051 2.186 2.865     318     0.2550 93.40 11.30   0.000 0.000 7.178 7.179 0.000 7.645 7.547 0.099
WS7MET_125 2018-04-19 08:10:00 125 30483.0 2.230 2.843 3.126 3.145 2.013 100.000 99.800 2.232 3.125 263.80 81.60 1.127 1.483 2.160 2.735 14.290 2.287 2.869 3.149 3.242 2.225 2.288 3.245 347.80 95.30 0.5550   2.184 2.763 3.091 3.038 1.888 2.186 2.987     318     0.1960 90.40 39.44   0.000 0.000 7.173 7.174 0.000 7.656 7.645 0.015
WS7MET_125 2018-04-19 08:05:00 125 30483.0 2.140 2.712 2.957 2.903 2.139 100.000 100.000 2.141 2.905 337.90 83.70 1.127 1.482 2.161 2.737 13.940 2.218 2.812 3.072 3.072 2.302 2.220 3.074 441.80 91.30 0.2480   2.048 2.571 2.802 2.730 2.003 2.049 2.732     318     0.0250 227.20 24.55   0.000 0.000 7.127 7.128 0.000 7.525 7.526 0.000
WS7MET_125 2018-04-19 08:00:00 125 30483.0 1.930 2.413 2.652 2.509 1.974 100.000 100.000 1.931 2.510 245.00 74.74 1.127 1.482 2.167 2.739 13.640 2.014 2.552 2.783 2.662 2.225 2.015 2.664 329.00 84.60 0.2480   1.843 2.330 2.571 2.389 1.868 1.844 2.391     318     0.0320 115.00 4.34   0.000 0.000 7.021 7.021 0.000 7.317 7.318 0.000
WS7MET_125 2018-04-19 07:55:00 125 30483.0 1.804 2.222 2.440 2.309 1.945 100.000 100.000 1.805 2.311 215.70 65.54 1.127 1.479 2.166 2.738 13.440 1.877 2.321 2.561 2.457 2.128 1.878 2.459 311.60 77.89 0.5750   1.707 2.128 2.340 2.184 1.791 1.708 2.186     318     0.2320 101.40 18.83   0.000 0.000 6.958 6.958 -0.000 7.214 7.215 0.000
WS7MET_125 2018-04-19 07:50:00 125 30483.0 1.838 2.136 2.343 2.254 1.950 100.000 100.000 1.839 2.256 193.00 46.26 1.127 1.481 2.163 2.739 13.300 1.911 2.225 2.407 2.355 2.282 1.913 2.357 286.00 56.40 0.3400   1.741 2.071 2.302 2.150 1.782 1.742 2.152     318     0.0710 80.10 22.59   0.000 0.000 6.975 6.975 0.000 7.185 7.186 0.000
WS7MET_125 2018-04-19 07:45:00 125 30483.0 1.638 2.009 2.192 2.060 2.045 100.000 100.000 1.639 2.061 122.90 36.26 1.127 1.479 2.164 2.737 13.220 1.809 2.167 2.340 2.218 2.263 1.810 2.220 130.30 42.97 0.3920   1.468 1.917 2.099 1.911 1.840 1.469 1.913     318     0.0660 111.10 16.22   0.000 0.000 6.875 6.876 0.000 7.086 7.087 0.000
WS7MET_125 2018-04-19 07:40:00 125 30483.0 1.350 1.727 1.919 1.805 1.828 100.000 100.000 1.351 1.807 86.30 29.48 1.127 1.480 2.165 2.739 13.150 1.536 1.897 2.080 1.945 2.032 1.537 1.947 123.60 42.97 0.5680   1.229 1.618 1.820 1.707 1.686 1.230 1.708     318     0.3110 70.39 22.57   0.000 0.000 6.735 6.735 0.000 6.958 6.959 0.000
WS7MET_125 2018-04-19 07:35:00 125 30483.0 1.266 1.578 1.779 1.696 1.652 100.000 100.000 1.267 1.697 38.34 17.06 1.127 1.481 2.166 2.737 13.100 1.331 1.618 1.820 1.843 1.695 1.332 1.844 52.38 21.49 0.2550   1.195 1.551 1.743 1.638 1.609 1.195 1.639     318     0.0640 37.79 4.65   0.000 0.000 6.694 6.694 0.000 6.904 6.905 -0.000
WS7MET_125 2018-04-19 07:30:00 125 30483.0 1.326 1.589 1.764 1.672 1.635 100.000 100.000 1.327 1.674 36.73 15.24 1.127 1.480 2.166 2.738 13.080 1.468 1.647 1.801 1.741 1.878 1.469 1.742 44.32 17.46 0.0000   1.229 1.551 1.743 1.604 1.570 1.230 1.605     318     0.0000 0.00 0.00   0.000 0.000 6.723 6.723 0.000 6.892 6.893 0.000
WS7MET_125 2018-04-19 07:25:00 125 30483.0 1.090 1.410 1.589 1.451 1.645 100.000 100.000 1.091 1.452 38.61 15.85 1.127 1.482 2.165 2.738 13.060 1.297 1.637 1.791 1.604 2.080 1.298 1.605 44.32 17.46 0.3140   0.922 1.281 1.464 1.263 1.339 0.922 1.264     318     0.1410 35.23 69.60   0.000 0.000 6.610 6.610 0.000 6.784 6.784 -0.000
WS7MET_125 2018-04-19 07:20:00 125 30483.0 0.956 1.258 1.439 1.324 1.345 100.000 100.000 0.956 1.325 29.81 12.42 1.127 1.480 2.163 2.738 13.040 1.058 1.281 1.464 1.399 1.368 1.059 1.400 32.23 13.43 0.3140   0.853 1.233 1.416 1.229 1.310 0.854 1.230     318     0.0710 359.10 6.36   0.000 0.000 6.546 6.546 0.000 6.722 6.722 0.000
WS7MET_125 2018-04-19 07:15:00 125 30483.0 0.913 1.173 1.333 1.188 1.262 100.000 100.000 0.914 1.189 27.66 11.21 1.127 1.482 2.164 2.738 13.020 0.990 1.223 1.397 1.263 1.339 0.990 1.264 28.20 12.09 0.3330   0.853 1.108 1.272 1.092 1.185 0.854 1.093     318     0.0830 353.40 6.53   0.000 0.000 6.526 6.526 0.000 6.656 6.657 0.000
WS7MET_125 2018-04-19 07:10:00 125 30483.0 0.860 1.087 1.245 1.121 1.170 100.000 100.000 0.861 1.122 26.12 10.34 1.127 1.480 2.166 2.739 13.010 0.956 1.108 1.262 1.195 1.262 0.956 1.195 26.86 10.74 0.4120   0.751 1.031 1.166 0.956 1.089 0.751 0.956     318     0.1000 19.53 7.01   0.000 0.000 6.501 6.501 0.000 6.624 6.625 0.000
WS7MET_125 2018-04-19 07:05:00 125 30483.0 0.766 0.986 1.127 0.980 1.047 100.000 100.000 0.767 0.980 23.43 8.80 1.128 1.482 2.166 2.741 13.000 0.819 1.012 1.156 1.024 1.079 0.820 1.025 25.52 9.40 0.3720   0.717 0.954 1.089 0.922 1.021 0.717 0.922     318     0.0880 10.94 14.57   0.000 0.000 6.457 6.457 0.000 6.557 6.557 0.000
WS7MET_125 2018-04-19 07:00:00 125 30483.0 0.720 0.927 1.071 0.916 0.967 100.000 100.000 0.721 0.917 21.89 7.72 1.128 1.483 2.167 2.740 12.990 0.785 0.935 1.089 0.956 1.012 0.786 0.956 22.83 8.06 0.4050   0.614 0.915 1.069 0.853 0.944 0.615 0.854     318     0.1960 341.50 15.47   0.000 0.000 6.435 6.436 0.000 6.527 6.528 0.000
WS7MET_125 2018-04-19 06:55:00 125 30483.0 0.713 0.905 1.069 0.927 0.971 100.000 100.000 0.714 0.927 18.26 5.84 1.127 1.483 2.167 2.741 12.980 0.785 0.915 1.069 0.990 0.992 0.786 0.990 22.83 8.06 0.2940   0.648 0.896 1.069 0.853 0.944 0.649 0.854     318     0.0840 323.60 0.71   0.000 0.000 6.432 6.433 0.000 6.532 6.532 -0.000
WS7MET_125 2018-04-19 06:50:00 125 30483.0 0.710 0.920 1.078 0.935 0.966 100.000 100.000 0.710 0.936 21.82 6.85 1.129 1.483 2.167 2.742 12.970 0.751 0.935 1.089 0.990 0.992 0.751 0.991 24.17 8.06 0.2740   0.649 0.896 1.069 0.853 0.944 0.649 0.854     318     0.0680 353.10 0.01   0.000 0.000 6.431 6.431 0.000 6.536 6.537 0.000
WS7MET_125 2018-04-19 06:45:00 125 30483.0 0.710 0.932 1.083 0.939 1.004 100.000 100.000 0.710 0.939 21.76 6.04 1.129 1.483 2.167 2.742 12.960 0.785 0.935 1.098 0.990 1.012 0.786 0.991 22.83 6.72 0.0000   0.649 0.915 1.069 0.853 0.983 0.649 0.854     318     0.0000 0.00 0.00   0.000 0.000 6.431 6.431 0.000 6.538 6.538 0.000
WS7MET_125 2018-04-19 06:40:00 125 30483.0 0.664 0.885 1.042 0.896 0.974 100.000 100.000 0.665 0.897 26.19 8.80 1.129 1.483 2.167 2.740 12.950 0.751 0.915 1.069 0.956 0.992 0.752 0.956 28.20 9.40 0.0000   0.580 0.848 1.012 0.853 0.954 0.581 0.854     318     0.0000 0.00 0.00   0.000 0.000 6.409 6.410 0.000 6.518 6.518 0.000
WS7MET_125 2018-04-19 06:35:00 125 30483.0 0.553 0.778 0.943 0.768 0.891 100.000 100.000 0.554 0.769 29.28 10.27 1.132 1.483 2.167 2.740 12.940 0.649 0.848 1.002 0.888 0.954 0.649 0.888 29.54 10.74 0.0000   0.410 0.723 0.877 0.683 0.800 0.410 0.684     318     0.0000 0.00 0.00   0.000 0.000 6.358 6.358 0.000 6.458 6.458 0.000
WS7MET_125 2018-04-19 06:30:00 125 30483.0 0.471 0.673 0.832 0.688 0.769 100.000 100.000 0.471 0.688 28.94 10.74 1.130 1.483 2.167 2.739 12.940 0.547 0.713 0.877 0.752 0.800 0.547 0.752 29.54 10.74 0.0000   0.410 0.616 0.771 0.580 0.703 0.410 0.581     318     0.0000 0.00 0.00   0.000 0.000 6.320 6.320 -0.000 6.420 6.420 0.000
WS7MET_125 2018-04-19 06:25:00 125 30483.0 0.444 0.598 0.750 0.631 0.591 100.000 100.000 0.444 0.632 29.28 10.48 1.132 1.483 2.166 2.742 12.930 0.512 0.607 0.761 0.683 0.684 0.512 0.683 29.54 10.74 0.0000   0.375 0.588 0.732 0.546 0.539 0.376 0.546     318     0.0000 0.00 0.00   0.000 0.000 6.308 6.308 0.000 6.394 6.394 0.000
WS7MET_125 2018-04-19 06:20:00 125 30483.0 0.442 0.606 0.754 0.621 0.651 100.000 100.000 0.442 0.622 28.00 10.01 1.131 1.483 2.167 2.741 12.910 0.580 0.626 0.761 0.717 0.684 0.581 0.717 29.54 10.74 0.3200   0.341 0.588 0.742 0.546 0.568 0.342 0.547     318     0.0740 337.20 0.17   0.000 0.000 6.307 6.307 0.000 6.389 6.390 0.000
WS7MET_125 2018-04-19 06:15:00 125 30483.0 0.382 0.561 0.723 0.602 0.643 100.000 100.000 0.383 0.603 20.88 6.85 1.133 1.483 2.164 2.742 12.900 0.410 0.588 0.732 0.683 0.665 0.410 0.683 25.52 8.06 0.3200   0.341 0.539 0.713 0.546 0.616 0.342 0.547     318     0.2230 334.20 0.52   0.000 0.000 6.280 6.280 0.000 6.381 6.381 0.000
WS7MET_125 2018-04-19 06:10:00 125 30483.0 0.418 0.566 0.722 0.584 0.635 100.000 100.000 0.419 0.584 13.03 4.30 1.135 1.483 2.167 2.743 12.900 0.512 0.588 0.732 0.649 0.655 0.513 0.649 16.12 5.37 0.3140   0.307 0.549 0.713 0.546 0.616 0.308 0.547     318     0.0330 334.40 0.46   0.000 0.000 6.296 6.297 0.000 6.372 6.372 0.000
WS7MET_125 2018-04-19 06:05:00 125 30483.0 0.446 0.612 0.769 0.647 0.682 100.000 100.000 0.446 0.648 8.33 3.29 1.136 1.484 2.167 2.740 12.900 0.478 0.645 0.800 0.717 0.723 0.479 0.718 9.40 4.03 0.0000   0.376 0.588 0.742 0.581 0.645 0.376 0.581     318     0.0000 0.00 0.00   0.000 0.000 6.309 6.309 0.000 6.401 6.402 0.000
WS7MET_125 2018-04-19 06:00:00 125 30483.0 0.485 0.667 0.832 0.685 0.772 100.000 100.000 0.485 0.685 8.06 2.69 1.135 1.483 2.167 2.744 12.910 0.547 0.674 0.848 0.752 0.800 0.547 0.752 8.06 2.69 0.2740   0.444 0.645 0.809 0.614 0.723 0.444 0.615     318     0.1060 332.80 3.03   0.000 0.000 6.327 6.327 0.000 6.419 6.419 0.000
WS7MET_125 2018-04-19 05:55:00 125 30483.0 0.474 0.659 0.811 0.640 0.779 100.000 100.000 0.475 0.640 8.06 3.02 1.135 1.483 2.167 2.744 12.910 0.546 0.674 0.838 0.717 0.809 0.547 0.717 8.06 4.03 0.3140   0.410 0.645 0.790 0.580 0.751 0.410 0.581     318     0.0410 321.00 0.06   0.000 0.000 6.322 6.322 -0.000 6.398 6.398 0.000
WS7MET_125 2018-04-19 05:50:00 125 30483.0 0.408 0.602 0.741 0.574 0.700 100.000 100.000 0.408 0.574 10.68 4.03 1.137 1.484 2.167 2.743 12.910 0.512 0.645 0.780 0.649 0.761 0.512 0.649 12.09 4.03 0.3010   0.341 0.568 0.703 0.478 0.665 0.342 0.478     318     0.2000 321.30 7.72   0.000 0.000 6.292 6.292 0.000 6.368 6.368 0.000
WS7MET_125 2018-04-19 05:45:00 125 30483.0 0.309 0.503 0.646 0.429 0.615 100.000 100.000 0.309 0.429 9.00 3.63 1.136 1.486 2.167 2.744 12.910 0.410 0.568 0.703 0.512 0.655 0.410 0.513 10.74 4.03 0.5100   0.205 0.433 0.568 0.342 0.549 0.205 0.342     318     0.3590 329.50 4.93   0.000 0.000 6.247 6.247 0.000 6.301 6.301 0.000
WS7MET_125 2018-04-19 05:40:00 125 30483.0 0.181 0.347 0.488 0.316 0.451 100.000 100.000 0.181 0.316 6.04 2.69 1.137 1.485 2.167 2.744 12.910 0.273 0.414 0.568 0.410 0.539 0.274 0.410 6.72 2.69 0.4830   0.137 0.318 0.453 0.239 0.395 0.137 0.239     318     0.3550 335.90 13.42   0.000 0.000 6.189 6.189 -0.000 6.250 6.250 0.000
WS7MET_125 2018-04-19 05:35:00 125 30483.0 0.128 0.281 0.419 0.254 0.367 100.000 100.000 0.128 0.254 4.43 2.22 1.136 1.485 2.167 2.744 12.920 0.205 0.318 0.453 0.307 0.424 0.205 0.307 5.37 2.69 0.3530   0.068 0.250 0.395 0.205 0.318 0.068 0.205     318     0.1390 328.40 14.40   0.000 0.000 6.165 6.165 0.000 6.222 6.222 -0.000
WS7MET_125 2018-04-19 05:30:00 125 30483.0 0.075 0.246 0.412 0.259 0.376 100.000 100.000 0.075 0.260 3.89 1.34 1.137 1.487 2.167 2.744 12.920 0.171 0.260 0.424 0.341 0.395 0.171 0.342 4.03 1.34 0.2420   -0.034 0.221 0.395 0.137 0.346 -0.034 0.137     318     0.0170 335.20 0.00   0.000 0.000 6.141 6.141 0.000 6.224 6.224 0.000
WS7MET_125 2018-04-19 05:25:00 125 30483.0 -0.024 0.154 0.308 0.137 0.296 100.000 100.000 -0.024 0.137 2.28 0.54 1.138 1.491 2.168 2.744 12.920 0.068 0.221 0.385 0.239 0.375 0.068 0.239 2.69 1.34 0.4640   -0.102 0.067 0.211 0.034 0.144 -0.102 0.034     318     0.3410 336.60 4.95   0.000 0.000 6.097 6.097 0.000 6.169 6.169 0.000
WS7MET_125 2018-04-19 05:20:00 125 30483.0 -0.029 0.085 0.228 0.108 0.166 100.000 100.000 -0.029 0.108 1.34 0.00 1.137 1.490 2.168 2.744 12.920 0.034 0.105 0.240 0.171 0.202 0.034 0.171 1.34 0.00 0.3590   -0.102 0.067 0.211 0.000 0.125 -0.102 0.000     318     0.1610 336.90 14.69   0.000 0.000 6.095 6.095 0.000 6.156 6.156 0.000
WS7MET_125 2018-04-19 05:15:00 125 30483.0 0.014 0.132 0.278 0.160 0.211 100.000 100.000 0.014 0.161 0.07 0.00 1.137 1.490 2.170 2.744 12.920 0.068 0.163 0.308 0.273 0.279 0.068 0.273 1.34 0.00 0.2810   -0.034 0.096 0.240 0.102 0.144 -0.034 0.102     318     0.0940 338.90 3.83   0.000 0.000 6.114 6.114 0.000 6.179 6.180 0.000
WS7MET_125 2018-04-19 05:10:00 125 30483.0 0.012 0.159 0.302 0.148 0.255 100.000 100.000 0.012 0.149 0.00 0.00 1.137 1.493 2.170 2.744 12.930 0.102 0.182 0.318 0.205 0.298 0.102 0.205 0.00 0.00 0.4250   -0.034 0.144 0.279 0.102 0.202 -0.034 0.102     318     0.2400 330.30 13.44   0.000 0.000 6.113 6.113 0.000 6.174 6.174 0.000
WS7MET_125 2018-04-19 05:05:00 125 30483.0 -0.020 0.136 0.294 0.142 0.262 100.000 100.000 -0.020 0.142 0.00 0.00 1.137 1.493 2.169 2.744 12.930 0.068 0.163 0.308 0.239 0.298 0.068 0.239 0.00 0.00 0.4120   -0.102 0.105 0.269 0.000 0.221 -0.102 0.000     318     0.2070 325.50 8.79   0.000 0.000 6.099 6.099 0.000 6.171 6.171 -0.000
WS7MET_125 2018-04-19 05:00:00 125 30483.0 -0.119 0.018 0.161 0.005 0.164 100.000 100.000 -0.120 0.005 0.00 0.00 1.137 1.493 2.172 2.744 12.940 -0.034 0.086 0.250 0.068 0.269 -0.034 0.068 0.00 0.00 0.4510   -0.205 -0.040 0.096 -0.102 0.047 -0.205 -0.102     318     0.2040 352.50 8.24   0.000 0.000 6.055 6.055 0.000 6.110 6.110 0.000
WS7MET_125 2018-04-19 04:55:00 125 30483.0 -0.160 -0.130 0.001 -0.104 -0.080 100.000 100.000 -0.161 -0.104 0.00 0.00 1.137 1.493 2.174 2.744 12.940 -0.034 -0.040 0.086 -0.034 0.086 -0.034 -0.034 0.00 0.00 0.0000   -0.273 -0.184 -0.049 -0.171 -0.204 -0.273 -0.171     318     0.0000 0.00 0.00   0.000 0.000 6.037 6.037 0.000 6.062 6.062 0.000
WS7MET_125 2018-04-19 04:50:00 125 30483.0 -0.043 -0.023 0.113 0.049 -0.030 100.000 100.000 -0.043 0.050 0.00 0.00 1.137 1.493 2.179 2.744 12.940 0.068 0.076 0.221 0.171 0.086 0.068 0.171 0.00 0.00 0.3720   -0.171 -0.107 0.018 -0.068 -0.165 -0.171 -0.068     318     0.0450 267.90 0.01   0.000 0.000 6.089 6.089 0.000 6.130 6.130 0.000
WS7MET_125 2018-04-19 04:45:00 125 30483.0 0.118 0.179 0.321 0.235 0.195 100.000 100.000 0.118 0.236 0.00 0.00 1.138 1.493 2.182 2.744 12.940 0.239 0.260 0.404 0.341 0.356 0.239 0.342 0.00 0.00 0.0000   0.000 0.086 0.231 0.171 0.067 0.000 0.171     318     0.0000 0.00 0.00   0.000 0.000 6.160 6.160 0.000 6.213 6.213 0.000
WS7MET_125 2018-04-19 04:40:00 125 30483.0 0.198 0.316 0.455 0.338 0.409 100.000 100.000 0.198 0.338 0.00 0.00 1.137 1.493 2.184 2.744 12.950 0.273 0.337 0.482 0.444 0.472 0.273 0.444 0.00 0.00 0.0000   0.102 0.269 0.404 0.273 0.318 0.102 0.273     318     0.0000 0.00 0.00   0.000 0.000 6.196 6.196 0.000 6.260 6.260 0.000
WS7MET_125 2018-04-19 04:35:00 125 30483.0 0.169 0.309 0.457 0.300 0.429 100.000 100.000 0.169 0.301 0.00 0.00 1.137 1.493 2.182 2.744 12.950 0.239 0.327 0.482 0.375 0.462 0.239 0.376 0.00 0.00 0.0000   0.102 0.260 0.414 0.205 0.395 0.102 0.205     318     0.0000 0.00 0.00   0.000 0.000 6.183 6.183 -0.000 6.242 6.243 0.000
WS7MET_125 2018-04-19 04:30:00 125 30483.0 0.118 0.222 0.381 0.268 0.302 100.000 100.000 0.118 0.268 0.00 0.00 1.138 1.493 2.184 2.744 12.950 0.171 0.260 0.414 0.375 0.375 0.171 0.376 0.00 0.00 0.0000   -0.034 0.202 0.356 0.171 0.240 -0.034 0.171     318     0.0000 0.00 0.00   0.000 0.000 6.160 6.160 0.000 6.228 6.228 -0.000
WS7MET_125 2018-04-19 04:25:00 125 30483.0 0.205 0.296 0.442 0.352 0.360 100.000 100.000 0.205 0.352 0.00 0.00 1.138 1.493 2.184 2.744 12.950 0.307 0.356 0.491 0.410 0.395 0.307 0.410 0.00 0.00 0.0000   0.068 0.279 0.424 0.273 0.318 0.068 0.273     318     0.0000 0.00 0.00   0.000 0.000 6.200 6.200 0.000 6.266 6.266 -0.000
WS7MET_125 2018-04-19 04:20:00 125 30483.0 0.266 0.393 0.551 0.452 0.488 100.000 100.000 0.266 0.453 0.00 0.00 1.139 1.494 2.182 2.744 12.950 0.341 0.414 0.578 0.512 0.549 0.342 0.512 0.00 0.00 0.0000   0.205 0.356 0.501 0.375 0.395 0.205 0.376     318     0.0000 0.00 0.00   0.000 0.000 6.227 6.227 0.000 6.312 6.312 0.000
WS7MET_125 2018-04-19 04:15:00 125 30483.0 0.273 0.417 0.571 0.440 0.529 100.000 100.000 0.273 0.441 0.00 0.00 1.143 1.495 2.184 2.744 12.960 0.341 0.433 0.578 0.512 0.568 0.342 0.512 0.00 0.00 0.0000   0.205 0.404 0.559 0.375 0.472 0.205 0.376     318     0.0000 0.00 0.00   0.000 0.000 6.230 6.230 -0.000 6.306 6.307 0.000
WS7MET_125 2018-04-19 04:10:00 125 30483.0 0.370 0.458 0.597 0.486 0.508 100.000 100.000 0.371 0.487 0.00 0.00 1.141 1.493 2.186 2.744 12.970 0.478 0.482 0.626 0.580 0.549 0.478 0.581 0.00 0.00 0.0000   0.273 0.414 0.568 0.410 0.472 0.273 0.410     318     0.0000 0.00 0.00   0.000 0.000 6.274 6.275 0.000 6.327 6.328 -0.000
WS7MET_125 2018-04-19 04:05:00 125 30483.0 0.456 0.543 0.676 0.580 0.571 100.000 100.000 0.456 0.581 0.00 0.00 1.143 1.494 2.186 2.744 12.970 0.546 0.588 0.723 0.717 0.626 0.546 0.717 0.00 0.00 0.0000   0.375 0.491 0.616 0.478 0.510 0.376 0.478     318     0.0000 0.00 0.00   0.000 0.000 6.313 6.313 0.000 6.370 6.371 0.000
WS7MET_125 2018-04-19 04:00:00 125 30483.0 0.608 0.662 0.803 0.722 0.688 100.000 100.000 0.608 0.722 0.00 0.00 1.145 1.493 2.186 2.744 12.970 0.683 0.742 0.877 0.819 0.761 0.683 0.820 0.00 0.00 0.0000   0.512 0.597 0.732 0.614 0.626 0.512 0.615     318     0.0000 0.00 0.00   0.000 0.000 6.383 6.383 -0.000 6.436 6.436 0.000
WS7MET_125 2018-04-19 03:55:00 125 30483.0 0.703 0.805 0.945 0.841 0.847 100.000 100.000 0.704 0.842 0.00 0.00 1.146 1.494 2.186 2.744 12.970 0.785 0.857 0.992 0.921 0.925 0.786 0.922 0.00 0.00 0.0000   0.614 0.742 0.886 0.751 0.800 0.615 0.751     318     0.0000 0.00 0.00   0.000 0.000 6.427 6.428 0.000 6.492 6.492 0.000
WS7MET_125 2018-04-19 03:50:00 125 30483.0 0.787 0.913 1.060 0.949 0.992 100.000 100.000 0.787 0.949 0.00 0.00 1.146 1.493 2.186 2.744 12.970 0.853 0.944 1.098 1.024 1.069 0.854 1.025 0.00 0.00 0.0000   0.751 0.857 0.992 0.853 0.867 0.751 0.854     318     0.0000 0.00 0.00   0.000 0.000 6.467 6.467 0.000 6.543 6.543 0.000
WS7MET_125 2018-04-19 03:45:00 125 30483.0 0.782 0.932 1.086 0.954 1.011 100.000 100.000 0.782 0.955 0.00 0.00 1.146 1.493 2.186 2.744 12.980 0.921 0.954 1.108 1.024 1.050 0.922 1.025 0.00 0.00 0.0000   0.717 0.915 1.069 0.887 0.973 0.717 0.888     318     0.0000 0.00 0.00   0.000 0.000 6.464 6.464 0.000 6.545 6.546 -0.000
WS7MET_125 2018-04-19 03:40:00 125 30483.0 0.776 0.960 1.120 0.959 1.080 100.000 100.000 0.777 0.960 0.00 0.00 1.146 1.493 2.186 2.744 12.980 0.887 0.973 1.127 1.024 1.127 0.888 1.025 0.00 0.00 0.0000   0.648 0.944 1.108 0.887 1.050 0.649 0.888     318     0.0000 0.00 0.00   0.000 0.000 6.461 6.462 0.000 6.547 6.548 0.000
WS7MET_125 2018-04-19 03:35:00 125 30483.0 0.754 0.929 1.080 0.891 1.052 100.000 100.000 0.755 0.891 0.00 0.00 1.146 1.494 2.186 2.744 12.980 0.819 0.935 1.098 0.921 1.069 0.820 0.922 0.00 0.00 0.0000   0.648 0.906 1.050 0.853 1.040 0.649 0.854     318     0.0000 0.00 0.00   0.000 0.000 6.451 6.452 0.000 6.515 6.515 0.000
WS7MET_125 2018-04-19 03:30:00 125 30483.0 0.698 0.849 0.992 0.855 0.960 100.000 100.000 0.698 0.856 0.00 0.00 1.146 1.494 2.186 2.744 12.980 0.751 0.906 1.040 0.921 1.031 0.751 0.922 0.00 0.00 0.0000   0.614 0.819 0.963 0.819 0.896 0.615 0.820     318     0.0000 0.00 0.00   0.000 0.000 6.425 6.425 0.000 6.498 6.499 0.000
WS7MET_125 2018-04-19 03:25:00 125 30483.0 0.691 0.824 0.972 0.802 0.927 100.000 100.000 0.692 0.803 0.00 0.00 1.146 1.494 2.186 2.744 12.990 0.785 0.829 0.983 0.887 0.935 0.786 0.888 0.00 0.00 0.0000   0.614 0.819 0.963 0.751 0.915 0.615 0.751     318     0.0000 0.00 0.00   0.000 0.000 6.422 6.422 -0.000 6.474 6.474 0.000
WS7MET_125 2018-04-19 03:20:00 125 30483.0 0.664 0.802 0.961 0.833 0.900 100.000 100.000 0.664 0.833 0.00 0.00 1.146 1.496 2.186 2.744 12.990 0.751 0.829 0.973 0.887 0.915 0.751 0.888 0.00 0.00 0.0000   0.580 0.780 0.954 0.785 0.857 0.581 0.786     318     0.0000 0.00 0.00   0.000 0.000 6.409 6.409 0.000 6.488 6.488 0.000
WS7MET_125 2018-04-19 03:15:00 125 30483.0 0.666 0.807 0.956 0.826 0.893 100.000 100.000 0.666 0.826 0.00 0.00 1.146 1.498 2.186 2.744 12.990 0.717 0.819 0.973 0.921 0.915 0.717 0.922 0.00 0.00 0.0000   0.580 0.790 0.935 0.751 0.848 0.581 0.751     318     0.0000 0.00 0.00   0.000 0.000 6.410 6.410 -0.000 6.485 6.485 0.000
WS7MET_125 2018-04-19 03:10:00 125 30483.0 0.758 0.863 0.996 0.879 0.893 100.000 100.000 0.758 0.879 0.00 0.00 1.146 1.495 2.186 2.744 13.000 0.819 0.915 1.050 0.956 0.973 0.820 0.956 0.00 0.00 0.0000   0.683 0.800 0.954 0.785 0.838 0.683 0.786     318     0.0000 0.00 0.00   0.000 0.000 6.453 6.453 0.000 6.510 6.510 0.000
WS7MET_125 2018-04-19 03:05:00 125 30483.0 0.809 0.936 1.072 0.949 0.990 100.000 100.000 0.809 0.949 0.00 0.00 1.146 1.500 2.186 2.744 13.000 0.921 0.963 1.098 1.024 1.012 0.922 1.025 0.00 0.00 0.0000   0.717 0.915 1.050 0.887 0.973 0.717 0.888     318     0.0000 0.00 0.00   0.000 0.000 6.477 6.477 0.000 6.543 6.543 0.000
WS7MET_125 2018-04-19 03:00:00 125 30483.0 0.841 0.981 1.117 0.981 1.057 100.000 100.000 0.842 0.982 0.00 0.00 1.146 1.501 2.186 2.744 13.000 0.921 0.992 1.127 1.058 1.079 0.922 1.059 0.00 0.00 0.0000   0.751 0.973 1.108 0.921 1.031 0.751 0.922     318     0.0000 0.00 0.00   0.000 0.000 6.492 6.492 0.000 6.558 6.558 0.000
WS7MET_125 2018-04-19 02:55:00 125 30483.0 0.852 0.984 1.121 0.974 1.064 100.000 100.000 0.852 0.975 0.00 0.00 1.146 1.501 2.186 2.744 13.010 0.956 1.002 1.137 1.058 1.079 0.956 1.059 0.00 0.00 0.0000   0.785 0.973 1.108 0.887 1.050 0.786 0.888     318     0.0000 0.00 0.00   0.000 0.000 6.497 6.497 0.000 6.555 6.555 0.000
WS7MET_125 2018-04-19 02:50:00 125 30483.0 0.870 1.010 1.145 1.007 1.091 100.000 100.000 0.871 1.008 0.00 0.00 1.146 1.501 2.186 2.744 13.010 0.956 1.012 1.156 1.058 1.108 0.956 1.059 0.00 0.00 0.0000   0.819 1.002 1.137 0.956 1.089 0.820 0.956     318     0.0000 0.00 0.00   0.000 0.000 6.505 6.506 -0.000 6.570 6.571 0.000
WS7MET_125 2018-04-19 02:45:00 125 30483.0 0.879 1.013 1.147 1.015 1.084 100.000 100.000 0.879 1.016 0.00 0.00 1.146 1.502 2.186 2.744 13.010 0.921 1.021 1.156 1.092 1.098 0.922 1.093 0.00 0.00 0.0000   0.785 1.012 1.146 0.956 1.069 0.786 0.956     318     0.0000 0.00 0.00   0.000 0.000 6.510 6.510 0.000 6.574 6.574 0.000
WS7MET_125 2018-04-19 02:40:00 125 30483.0 0.899 1.043 1.173 1.029 1.101 100.000 100.000 0.900 1.030 0.00 0.00 1.146 1.503 2.186 2.744 13.010 0.956 1.050 1.185 1.126 1.118 0.956 1.127 0.00 0.00 0.0000   0.819 1.021 1.156 0.921 1.079 0.820 0.922     318     0.0000 0.00 0.00   0.000 0.000 6.519 6.520 0.000 6.581 6.581 -0.000
WS7MET_125 2018-04-19 02:35:00 125 30483.0 0.898 1.052 1.192 1.065 1.111 100.000 100.000 0.898 1.066 0.00 0.00 1.146 1.502 2.186 2.744 13.020 0.990 1.060 1.204 1.160 1.127 0.990 1.161 0.00 0.00 0.0000   0.785 1.050 1.185 0.990 1.108 0.786 0.990     318     0.0000 0.00 0.00   0.000 0.000 6.519 6.519 0.000 6.598 6.598 0.000
WS7MET_125 2018-04-19 02:30:00 125 30483.0 0.978 1.097 1.246 1.159 1.148 100.000 100.000 0.978 1.159 0.00 0.00 1.146 1.503 2.186 2.744 13.020 1.058 1.127 1.301 1.263 1.204 1.059 1.264 0.00 0.00 0.0000   0.921 1.069 1.204 1.058 1.118 0.922 1.059     318     0.0000 0.00 0.00   0.000 0.000 6.556 6.556 0.000 6.643 6.643 0.000
WS7MET_125 2018-04-19 02:25:00 125 30483.0 1.027 1.178 1.337 1.244 1.266 100.000 100.000 1.028 1.245 0.00 0.00 1.146 1.503 2.187 2.744 13.020 1.126 1.204 1.358 1.365 1.301 1.127 1.366 0.00 0.00 0.0000   0.956 1.127 1.301 1.160 1.195 0.956 1.161     318     0.0000 0.00 0.00   0.000 0.000 6.580 6.580 0.000 6.683 6.684 0.000
WS7MET_125 2018-04-19 02:20:00 125 30483.0 1.058 1.238 1.386 1.297 1.349 100.000 100.000 1.059 1.298 0.00 0.00 1.146 1.503 2.187 2.744 13.020 1.160 1.252 1.406 1.365 1.387 1.161 1.366 0.00 0.00 0.0000   0.990 1.214 1.358 1.229 1.301 0.990 1.230     318     0.0000 0.00 0.00   0.000 0.000 6.594 6.595 0.000 6.709 6.709 0.000
WS7MET_125 2018-04-19 02:15:00 125 30483.0 1.101 1.279 1.442 1.346 1.386 100.000 100.000 1.101 1.347 0.00 0.00 1.146 1.503 2.188 2.745 13.030 1.195 1.310 1.474 1.399 1.416 1.195 1.400 0.00 0.00 0.0000   1.058 1.252 1.416 1.263 1.358 1.059 1.264     318     0.0000 0.00 0.00   0.000 0.000 6.615 6.615 0.000 6.733 6.733 0.000
WS7MET_125 2018-04-19 02:10:00 125 30483.0 1.130 1.339 1.506 1.386 1.440 100.000 100.000 1.130 1.387 0.00 0.00 1.147 1.503 2.186 2.745 13.030 1.229 1.368 1.532 1.433 1.464 1.230 1.434 0.00 0.00 0.0000   1.024 1.310 1.474 1.331 1.416 1.025 1.332     318     0.0000 0.00 0.00   0.000 0.000 6.629 6.629 0.000 6.752 6.753 0.000
WS7MET_125 2018-04-19 02:05:00 125 30483.0 1.119 1.368 1.533 1.387 1.498 100.000 100.000 1.120 1.388 0.00 0.00 1.146 1.503 2.186 2.745 13.040 1.195 1.378 1.541 1.468 1.512 1.195 1.469 0.00 0.00 0.0000   1.024 1.358 1.532 1.331 1.474 1.025 1.332     318     0.0000 0.00 0.00   0.000 0.000 6.623 6.624 0.000 6.753 6.753 0.000
WS7MET_125 2018-04-19 02:00:00 125 30483.0 1.090 1.322 1.504 1.386 1.457 100.000 100.000 1.091 1.387 0.00 0.00 1.147 1.503 2.187 2.744 13.040 1.195 1.349 1.532 1.433 1.503 1.195 1.434 0.00 0.00 0.0000   1.024 1.301 1.483 1.297 1.416 1.025 1.298     318     0.0000 0.00 0.00   0.000 0.000 6.610 6.610 0.000 6.752 6.753 0.000
WS7MET_125 2018-04-19 01:55:00 125 30483.0 1.101 1.331 1.527 1.406 1.456 100.000 100.000 1.101 1.407 0.00 0.00 1.146 1.503 2.189 2.744 13.040 1.160 1.349 1.541 1.468 1.493 1.161 1.469 0.00 0.00 0.0000   1.024 1.320 1.512 1.297 1.426 1.025 1.298     318     0.0000 0.00 0.00   0.000 0.000 6.615 6.615 0.000 6.762 6.762 0.000
WS7MET_125 2018-04-19 01:50:00 125 30483.0 1.094 1.343 1.533 1.382 1.474 100.000 100.000 1.095 1.383 0.00 0.00 1.147 1.503 2.187 2.744 13.050 1.160 1.358 1.541 1.468 1.503 1.161 1.469 0.00 0.00 0.0000   1.024 1.329 1.522 1.331 1.455 1.025 1.332     318     0.0000 0.00 0.00   0.000 0.000 6.612 6.612 0.000 6.750 6.751 0.000
WS7MET_125 2018-04-19 01:45:00 125 30483.0 1.078 1.335 1.510 1.338 1.458 100.000 100.000 1.079 1.339 0.00 0.00 1.150 1.505 2.191 2.744 13.050 1.195 1.358 1.522 1.399 1.474 1.195 1.400 0.00 0.00 0.0000   0.990 1.301 1.493 1.263 1.435 0.990 1.264     318     0.0000 0.00 0.00   0.000 0.000 6.604 6.604 -0.000 6.729 6.729 0.000
WS7MET_125 2018-04-19 01:40:00 125 30483.0 1.015 1.291 1.464 1.288 1.438 100.000 100.000 1.016 1.289 0.00 0.00 1.149 1.505 2.194 2.744 13.050 1.092 1.301 1.493 1.365 1.455 1.093 1.366 0.00 0.00 0.0000   0.956 1.281 1.435 1.229 1.435 0.956 1.230     318     0.0000 0.00 0.00   0.000 0.000 6.574 6.574 0.000 6.705 6.705 0.000
WS7MET_125 2018-04-19 01:35:00 125 30483.0 0.968 1.212 1.382 1.222 1.376 100.000 100.000 0.968 1.223 0.00 0.00 1.151 1.507 2.196 2.744 13.060 1.058 1.262 1.435 1.297 1.435 1.059 1.298 0.00 0.00 0.0000   0.887 1.156 1.339 1.160 1.339 0.888 1.161     318     0.0000 0.00 0.00   0.000 0.000 6.552 6.552 0.000 6.673 6.673 0.000
WS7MET_125 2018-04-19 01:30:00 125 30483.0 0.889 1.110 1.279 1.118 1.253 100.000 100.000 0.890 1.119 0.00 0.00 1.154 1.509 2.197 2.744 13.060 0.990 1.146 1.329 1.195 1.329 0.990 1.195 0.00 0.00 0.0000   0.819 1.089 1.243 1.024 1.204 0.820 1.025     318     0.0000 0.00 0.00   0.000 0.000 6.514 6.515 0.000 6.623 6.623 0.000
WS7MET_125 2018-04-19 01:25:00 125 30483.0 0.850 1.049 1.212 1.046 1.166 100.000 100.000 0.850 1.047 0.00 0.00 1.152 1.508 2.202 2.746 13.060 0.921 1.089 1.243 1.092 1.204 0.922 1.093 0.00 0.00 0.0000   0.785 1.012 1.166 0.956 1.127 0.786 0.956     318     0.0000 0.00 0.00   0.000 0.000 6.496 6.496 0.000 6.589 6.589 0.000
WS7MET_125 2018-04-19 01:20:00 125 30483.0 0.790 0.966 1.122 0.974 1.078 100.000 100.000 0.791 0.975 0.00 0.00 1.153 1.508 2.202 2.746 13.060 0.853 1.012 1.166 1.058 1.127 0.854 1.059 0.00 0.00 0.0000   0.717 0.935 1.089 0.921 1.021 0.717 0.922     318     0.0000 0.00 0.00   0.000 0.000 6.468 6.468 -0.000 6.555 6.555 0.000
WS7MET_125 2018-04-19 01:15:00 125 30483.0 0.783 0.962 1.115 0.983 1.050 100.000 100.000 0.784 0.984 0.00 0.00 1.150 1.510 2.202 2.746 13.060 0.853 0.973 1.127 1.058 1.069 0.854 1.059 0.00 0.00 0.0000   0.683 0.954 1.098 0.956 1.031 0.683 0.956     318     0.0000 0.00 0.00   0.000 0.000 6.465 6.465 0.000 6.559 6.559 -0.000
WS7MET_125 2018-04-19 01:10:00 125 30483.0 0.799 0.987 1.164 1.038 1.090 100.000 100.000 0.799 1.038 0.00 0.00 1.155 1.510 2.204 2.747 13.070 0.887 1.031 1.204 1.126 1.146 0.888 1.127 0.00 0.00 0.0000   0.717 0.954 1.127 0.990 1.031 0.717 0.990     318     0.0000 0.00 0.00   0.000 0.000 6.472 6.472 0.000 6.585 6.585 0.000
WS7MET_125 2018-04-19 01:05:00 125 30483.0 0.811 1.032 1.207 1.060 1.165 100.000 100.000 0.811 1.060 0.00 0.00 1.156 1.512 2.205 2.745 13.080 0.887 1.050 1.223 1.126 1.185 0.888 1.127 0.00 0.00 0.0000   0.751 1.012 1.185 0.956 1.146 0.751 0.956     318     0.0000 0.00 0.00   0.000 0.000 6.478 6.478 0.000 6.595 6.595 0.000
WS7MET_125 2018-04-19 01:00:00 125 30483.0 0.790 1.005 1.158 1.000 1.121 100.000 100.000 0.791 1.001 0.00 0.00 1.156 1.512 2.205 2.746 13.080 0.853 1.012 1.185 1.058 1.166 0.854 1.059 0.00 0.00 0.3660   0.683 0.992 1.146 0.956 1.089 0.683 0.956     318     0.0770 330.90 5.66   0.000 0.000 6.468 6.468 -0.000 6.567 6.567 0.000
WS7MET_125 2018-04-19 00:55:00 125 30483.0 0.826 1.009 1.154 0.997 1.086 100.000 100.000 0.826 0.997 0.00 0.00 1.158 1.512 2.205 2.746 13.080 0.887 1.021 1.166 1.092 1.108 0.888 1.093 0.00 0.00 0.5160   0.751 0.992 1.146 0.887 1.060 0.751 0.888     318     0.3580 340.00 11.06   0.000 0.000 6.485 6.485 0.000 6.565 6.565 -0.000
WS7MET_125 2018-04-19 00:50:00 125 30483.0 0.800 0.993 1.157 1.009 1.078 100.000 100.000 0.801 1.009 0.00 0.00 1.157 1.512 2.205 2.747 13.080 0.887 1.021 1.166 1.058 1.108 0.888 1.059 0.00 0.00 0.5880   0.751 0.983 1.146 0.956 1.060 0.751 0.956     318     0.4630 335.70 6.76   0.000 0.000 6.473 6.473 0.000 6.571 6.571 0.000
WS7MET_125 2018-04-19 00:45:00 125 30483.0 0.821 1.008 1.182 1.041 1.105 100.000 100.000 0.821 1.042 0.00 0.00 1.157 1.512 2.205 2.746 13.090 0.887 1.031 1.204 1.092 1.137 0.888 1.093 0.00 0.00 0.5030   0.751 0.983 1.156 0.921 1.069 0.751 0.922     318     0.4230 337.80 7.22   0.000 0.000 6.483 6.483 0.000 6.586 6.587 0.000
WS7MET_125 2018-04-19 00:40:00 125 30483.0 0.828 1.021 1.185 1.038 1.122 100.000 100.000 0.828 1.038 0.00 0.00 1.158 1.512 2.205 2.747 13.090 0.887 1.050 1.204 1.092 1.146 0.888 1.093 0.00 0.00 0.4830   0.751 1.012 1.166 0.990 1.089 0.751 0.990     318     0.3730 347.60 2.83   0.000 0.000 6.486 6.486 0.000 6.585 6.585 0.000
WS7MET_125 2018-04-19 00:35:00 125 30483.0 0.855 1.039 1.201 1.085 1.103 100.000 100.000 0.856 1.086 0.00 0.00 1.158 1.512 2.205 2.748 13.090 0.921 1.060 1.243 1.160 1.146 0.922 1.161 0.00 0.00 0.4380   0.751 1.021 1.185 1.024 1.069 0.751 1.025     318     0.3710 347.90 4.35   0.000 0.000 6.498 6.499 0.000 6.607 6.608 0.000
WS7MET_125 2018-04-19 00:30:00 125 30483.0 0.908 1.106 1.288 1.154 1.213 100.000 100.000 0.908 1.154 0.00 0.00 1.160 1.512 2.205 2.750 13.100 0.990 1.127 1.310 1.229 1.262 0.990 1.230 0.00 0.00 0.5360   0.819 1.069 1.252 1.058 1.156 0.820 1.059     318     0.4110 343.30 3.60   0.000 0.000 6.523 6.523 0.000 6.640 6.640 0.000
WS7MET_125 2018-04-19 00:25:00 125 30483.0 0.901 1.117 1.303 1.179 1.241 100.000 100.000 0.902 1.180 0.00 0.00 1.158 1.513 2.204 2.749 13.100 0.990 1.137 1.310 1.263 1.272 0.990 1.264 0.00 0.00 0.3790   0.819 1.108 1.301 1.058 1.223 0.820 1.059     318     0.3290 344.80 3.82   0.000 0.000 6.520 6.521 0.000 6.652 6.653 -0.000
WS7MET_125 2018-04-19 00:20:00 125 30483.0 0.904 1.133 1.322 1.186 1.259 100.000 100.000 0.905 1.187 0.00 0.00 1.160 1.517 2.205 2.752 13.100 0.956 1.146 1.339 1.229 1.320 0.956 1.230 0.00 0.00 0.5290   0.853 1.118 1.301 1.092 1.223 0.854 1.093     318     0.4120 335.00 0.82   0.000 0.000 6.521 6.522 -0.000 6.656 6.656 0.000
WS7MET_125 2018-04-19 00:15:00 125 30483.0 0.930 1.144 1.318 1.184 1.252 100.000 100.000 0.931 1.185 0.00 0.00 1.160 1.515 2.205 2.752 13.100 0.990 1.166 1.339 1.263 1.301 0.990 1.264 0.00 0.00 0.5810   0.853 1.127 1.301 1.126 1.223 0.854 1.127     318     0.4270 341.30 10.88   0.000 0.000 6.534 6.534 0.000 6.655 6.655 0.000
WS7MET_125 2018-04-19 00:10:00 125 30483.0 0.918 1.135 1.295 1.108 1.261 100.000 100.000 0.919 1.108 0.00 0.00 1.159 1.513 2.205 2.751 13.110 0.990 1.166 1.339 1.160 1.320 0.990 1.161 0.00 0.00 0.6010   0.819 1.089 1.243 1.024 1.185 0.820 1.025     318     0.3290 343.90 9.73   0.000 0.000 6.528 6.529 0.000 6.618 6.618 -0.000
WS7MET_125 2018-04-19 00:05:00 125 30483.0 0.838 1.066 1.227 1.063 1.168 100.000 100.000 0.838 1.064 0.00 0.00 1.160 1.516 2.205 2.751 13.120 0.921 1.089 1.252 1.160 1.204 0.922 1.161 0.00 0.00 0.7380   0.751 1.040 1.204 1.024 1.127 0.751 1.025     318     0.4750 337.20 18.72   0.000 0.000 6.490 6.490 0.000 6.597 6.597 0.000
WS7MET_125 2018-04-19 00:00:00 125 30483.0 0.809 1.028 1.188 1.032 1.132 100.000 100.000 0.809 1.033 0.00 0.00 1.161 1.516 2.205 2.751 13.120 0.887 1.050 1.204 1.126 1.166 0.888 1.127 0.00 0.00 0.5750   0.751 1.002 1.166 0.956 1.108 0.751 0.956     318     0.4910 339.20 14.88   0.000 0.000 6.477 6.477 0.000 6.582 6.583 -0.000
WS7MET_125 2018-04-18 23:55:00 125 30483.0 0.809 0.985 1.143 1.003 1.061 100.000 100.000 0.809 1.004 0.00 0.00 1.164 1.520 2.205 2.753 13.120 0.921 1.012 1.166 1.058 1.137 0.922 1.059 0.00 0.00 0.5230   0.717 0.963 1.108 0.921 0.954 0.717 0.922     318     0.3980 343.10 14.71   0.000 0.000 6.477 6.477 0.000 6.568 6.569 0.000
WS7MET_125 2018-04-18 23:50:00 125 30483.0 0.829 1.026 1.215 1.080 1.124 100.000 100.000 0.830 1.081 0.00 0.00 1.164 1.520 2.205 2.753 13.130 0.887 1.031 1.243 1.160 1.166 0.888 1.161 0.00 0.00 0.6270   0.751 1.012 1.166 0.990 1.050 0.751 0.990     318     0.4180 348.50 6.93   0.000 0.000 6.486 6.487 0.000 6.605 6.605 -0.000
WS7MET_125 2018-04-18 23:45:00 125 30483.0 0.833 1.031 1.223 1.102 1.142 100.000 100.000 0.833 1.103 0.00 0.00 1.165 1.521 2.206 2.752 13.130 0.887 1.050 1.243 1.195 1.166 0.888 1.195 0.00 0.00 0.5420   0.785 1.021 1.204 1.024 1.089 0.786 1.025     318     0.3820 343.20 12.61   0.000 0.000 6.488 6.488 0.000 6.615 6.616 0.000
WS7MET_125 2018-04-18 23:40:00 125 30483.0 0.915 1.104 1.278 1.154 1.175 100.000 100.000 0.915 1.154 0.00 0.00 1.165 1.522 2.206 2.754 13.130 1.024 1.156 1.320 1.229 1.243 1.025 1.230 0.00 0.00 0.4700   0.819 1.031 1.214 1.092 1.089 0.820 1.093     318     0.3370 342.60 8.04   0.000 0.000 6.527 6.527 -0.000 6.640 6.640 0.000
WS7MET_125 2018-04-18 23:35:00 125 30483.0 1.003 1.176 1.341 1.206 1.239 100.000 100.000 1.004 1.207 0.00 0.00 1.165 1.522 2.208 2.754 13.140 1.058 1.214 1.397 1.297 1.301 1.059 1.298 0.00 0.00 0.5680   0.956 1.146 1.320 1.160 1.185 0.956 1.161     318     0.3100 339.70 13.11   0.000 0.000 6.568 6.569 0.000 6.665 6.666 0.000
WS7MET_125 2018-04-18 23:30:00 125 30483.0 1.015 1.229 1.411 1.265 1.319 100.000 100.000 1.016 1.265 0.00 0.00 1.166 1.522 2.212 2.755 13.140 1.092 1.243 1.416 1.331 1.339 1.093 1.332 0.00 0.00 0.5680   0.956 1.214 1.397 1.229 1.301 0.956 1.230     318     0.3790 325.20 11.11   0.000 0.000 6.574 6.574 0.000 6.693 6.693 0.000
WS7MET_125 2018-04-18 23:25:00 125 30483.0 1.024 1.244 1.428 1.287 1.352 100.000 100.000 1.025 1.288 0.00 0.00 1.166 1.522 2.213 2.756 13.140 1.092 1.262 1.435 1.365 1.378 1.093 1.366 0.00 0.00 0.5030   0.956 1.233 1.416 1.229 1.320 0.956 1.230     318     0.3940 330.80 6.07   0.000 0.000 6.578 6.579 0.000 6.704 6.705 0.000
WS7MET_125 2018-04-18 23:20:00 125 30483.0 1.022 1.223 1.421 1.290 1.331 100.000 100.000 1.023 1.291 0.00 0.00 1.166 1.522 2.218 2.756 13.140 1.092 1.243 1.445 1.365 1.378 1.093 1.366 0.00 0.00 0.5420   0.921 1.204 1.406 1.229 1.301 0.922 1.230     318     0.4220 337.10 11.54   0.000 0.000 6.577 6.578 0.000 6.706 6.706 0.000
WS7MET_125 2018-04-18 23:15:00 125 30483.0 1.109 1.303 1.470 1.331 1.369 100.000 100.000 1.110 1.332 0.00 0.00 1.166 1.522 2.218 2.759 13.150 1.160 1.358 1.512 1.399 1.416 1.161 1.400 0.00 0.00 0.5160   1.024 1.243 1.426 1.229 1.320 1.025 1.230     318     0.3660 333.00 3.81   0.000 0.000 6.619 6.619 0.000 6.725 6.726 0.000
WS7MET_125 2018-04-18 23:10:00 125 30483.0 1.121 1.358 1.552 1.430 1.479 100.000 100.000 1.122 1.431 0.00 0.00 1.166 1.522 2.220 2.756 13.160 1.195 1.368 1.570 1.502 1.532 1.195 1.503 0.00 0.00 0.3660   1.058 1.339 1.522 1.331 1.435 1.059 1.332     318     0.1270 337.40 0.60   0.000 0.000 6.624 6.625 0.000 6.773 6.774 0.000
WS7MET_125 2018-04-18 23:05:00 125 30483.0 1.131 1.364 1.553 1.437 1.495 100.000 100.000 1.132 1.438 0.00 0.00 1.166 1.522 2.222 2.760 13.160 1.195 1.378 1.560 1.502 1.512 1.195 1.503 0.00 0.00 0.0000   1.058 1.358 1.541 1.365 1.464 1.059 1.366     318     0.0000 0.00 0.00   0.000 0.000 6.629 6.630 0.000 6.777 6.777 0.000
WS7MET_125 2018-04-18 23:00:00 125 30483.0 1.155 1.388 1.585 1.451 1.525 100.000 100.000 1.156 1.452 0.00 0.00 1.166 1.522 2.225 2.758 13.170 1.229 1.406 1.609 1.536 1.570 1.230 1.537 0.00 0.00 0.3990   1.092 1.368 1.570 1.365 1.493 1.093 1.366     318     0.2080 336.90 4.93   0.000 0.000 6.641 6.641 0.000 6.784 6.784 -0.000
WS7MET_125 2018-04-18 22:55:00 125 30483.0 1.108 1.352 1.529 1.360 1.488 100.000 100.000 1.108 1.361 0.00 0.00 1.166 1.522 2.224 2.760 13.170 1.160 1.397 1.580 1.433 1.551 1.161 1.434 0.00 0.00 0.3990   1.024 1.301 1.483 1.297 1.435 1.025 1.298     318     0.2790 342.50 4.52   0.000 0.000 6.618 6.618 -0.000 6.739 6.740 0.000
WS7MET_125 2018-04-18 22:50:00 125 30483.0 1.049 1.267 1.464 1.336 1.392 100.000 100.000 1.050 1.337 0.00 0.00 1.166 1.522 2.225 2.762 13.170 1.126 1.291 1.493 1.399 1.435 1.127 1.400 0.00 0.00 0.4440   0.990 1.252 1.445 1.263 1.358 0.990 1.264     318     0.3360 340.90 5.10   0.000 0.000 6.590 6.591 0.000 6.728 6.728 0.000
WS7MET_125 2018-04-18 22:45:00 125 30483.0 1.084 1.290 1.471 1.333 1.391 100.000 100.000 1.084 1.334 0.00 0.00 1.166 1.522 2.225 2.762 13.180 1.160 1.320 1.493 1.399 1.416 1.161 1.400 0.00 0.00 0.3460   1.024 1.281 1.455 1.263 1.358 1.025 1.264     318     0.2600 341.30 7.27   0.000 0.000 6.607 6.607 0.000 6.726 6.727 0.000
WS7MET_125 2018-04-18 22:40:00 125 30483.0 1.084 1.320 1.483 1.334 1.405 100.000 100.000 1.084 1.335 0.00 0.00 1.166 1.522 2.225 2.762 13.180 1.160 1.320 1.493 1.399 1.426 1.161 1.400 0.00 0.00 0.5490   0.990 1.320 1.474 1.263 1.387 0.990 1.264     318     0.4000 334.20 6.31   0.000 0.000 6.607 6.607 0.000 6.727 6.727 0.000
WS7MET_125 2018-04-18 22:35:00 125 30483.0 1.114 1.313 1.489 1.374 1.409 100.000 100.000 1.115 1.375 0.00 0.00 1.166 1.523 2.225 2.762 13.180 1.195 1.329 1.512 1.433 1.435 1.195 1.434 0.00 0.00 0.5290   1.058 1.301 1.474 1.263 1.387 1.059 1.264     318     0.3980 342.70 8.65   0.000 0.000 6.621 6.622 -0.000 6.746 6.747 0.000
WS7MET_125 2018-04-18 22:30:00 125 30483.0 1.155 1.364 1.546 1.432 1.460 100.000 100.000 1.156 1.433 0.00 0.00 1.166 1.524 2.225 2.763 13.190 1.263 1.397 1.589 1.468 1.512 1.264 1.469 0.00 0.00 0.4050   1.092 1.339 1.512 1.365 1.435 1.093 1.366     318     0.1790 346.30 12.69   0.000 0.000 6.641 6.641 0.000 6.774 6.775 0.000
WS7MET_125 2018-04-18 22:25:00 125 30483.0 1.171 1.392 1.582 1.447 1.520 100.000 100.000 1.171 1.448 0.00 0.00 1.166 1.526 2.225 2.763 13.190 1.263 1.416 1.599 1.536 1.551 1.264 1.537 0.00 0.00 0.5290   1.092 1.358 1.560 1.331 1.474 1.093 1.332     318     0.3440 345.50 4.91   0.000 0.000 6.648 6.648 0.000 6.782 6.782 -0.000
WS7MET_125 2018-04-18 22:20:00 125 30483.0 1.148 1.382 1.574 1.440 1.500 100.000 100.000 1.149 1.441 0.00 0.00 1.166 1.528 2.224 2.763 13.190 1.229 1.397 1.580 1.570 1.522 1.230 1.571 0.00 0.00 0.5490   1.092 1.378 1.570 1.365 1.474 1.093 1.366     318     0.3590 332.70 1.52   0.000 0.000 6.637 6.638 0.000 6.778 6.779 0.000
WS7MET_125 2018-04-18 22:15:00 125 30483.0 1.172 1.399 1.582 1.461 1.516 100.000 100.000 1.173 1.462 0.00 0.00 1.166 1.528 2.224 2.762 13.190 1.297 1.416 1.589 1.536 1.532 1.298 1.537 0.00 0.00 0.5490   1.126 1.397 1.570 1.399 1.493 1.127 1.400     318     0.3530 340.50 4.94   0.000 0.000 6.649 6.649 0.000 6.789 6.789 0.000
WS7MET_125 2018-04-18 22:10:00 125 30483.0 1.206 1.413 1.567 1.413 1.505 100.000 100.000 1.207 1.414 0.00 0.00 1.166 1.531 2.225 2.763 13.210 1.297 1.426 1.580 1.468 1.512 1.298 1.469 0.00 0.00 0.4440   1.092 1.397 1.551 1.365 1.493 1.093 1.366     318     0.3690 335.70 2.14   0.000 0.000 6.665 6.666 0.000 6.765 6.766 0.000
WS7MET_125 2018-04-18 22:05:00 125 30483.0 1.152 1.378 1.550 1.415 1.475 100.000 100.000 1.153 1.416 0.00 0.00 1.167 1.532 2.224 2.763 13.210 1.229 1.397 1.570 1.502 1.503 1.230 1.503 0.00 0.00 0.4310   1.092 1.368 1.541 1.331 1.455 1.093 1.332     318     0.3690 334.50 8.25   0.000 0.000 6.639 6.640 0.000 6.766 6.767 0.000
WS7MET_125 2018-04-18 22:00:00 125 30483.0 1.148 1.366 1.548 1.418 1.474 100.000 100.000 1.149 1.419 0.00 0.00 1.169 1.532 2.224 2.763 13.210 1.195 1.377 1.560 1.502 1.503 1.195 1.503 0.00 0.00 0.4640   1.092 1.339 1.541 1.331 1.454 1.093 1.332     318     0.3910 340.90 7.74   0.000 0.000 6.637 6.638 0.000 6.768 6.768 0.000
WS7MET_125 2018-04-18 21:55:00 125 30483.0 1.177 1.363 1.556 1.456 1.445 100.000 100.000 1.178 1.457 0.00 0.00 1.171 1.531 2.224 2.763 13.220 1.297 1.416 1.599 1.502 1.493 1.298 1.503 0.00 0.00 0.3850   1.058 1.339 1.531 1.365 1.416 1.059 1.366     318     0.2800 339.60 0.30   0.000 0.000 6.651 6.652 0.000 6.786 6.787 0.000
WS7MET_125 2018-04-18 21:50:00 125 30483.0 1.249 1.453 1.638 1.531 1.536 100.000 100.000 1.250 1.532 0.00 0.00 1.173 1.531 2.224 2.763 13.220 1.331 1.493 1.666 1.604 1.589 1.332 1.605 0.00 0.00 0.5810   1.126 1.426 1.608 1.433 1.493 1.127 1.434     318     0.3810 335.60 4.69   0.000 0.000 6.686 6.686 0.000 6.823 6.823 0.000
WS7MET_125 2018-04-18 21:45:00 125 30483.0 1.265 1.512 1.696 1.575 1.610 100.000 100.000 1.265 1.576 0.00 0.00 1.175 1.531 2.224 2.763 13.230 1.331 1.522 1.714 1.638 1.628 1.332 1.639 0.00 0.00 0.3920   1.195 1.493 1.676 1.468 1.579 1.195 1.469     318     0.3150 341.80 5.87   0.000 0.000 6.693 6.693 0.000 6.844 6.845 0.000
WS7MET_125 2018-04-18 21:40:00 125 30483.0 1.278 1.530 1.733 1.614 1.647 100.000 100.000 1.279 1.615 0.00 0.00 1.174 1.531 2.224 2.763 13.230 1.365 1.550 1.752 1.672 1.685 1.366 1.674 0.00 0.00 0.3200   1.229 1.522 1.714 1.536 1.618 1.230 1.537     318     0.2490 344.30 2.04   0.000 0.000 6.700 6.700 -0.000 6.864 6.864 0.000
WS7MET_125 2018-04-18 21:35:00 125 30483.0 1.299 1.532 1.751 1.638 1.676 100.000 100.000 1.300 1.639 0.00 0.00 1.175 1.531 2.224 2.763 13.230 1.399 1.550 1.762 1.706 1.704 1.400 1.708 0.00 0.00 0.3400   1.229 1.521 1.723 1.570 1.627 1.230 1.571     318     0.2620 344.20 6.41   0.000 0.000 6.710 6.710 0.000 6.875 6.876 0.000
WS7MET_125 2018-04-18 21:30:00 125 30483.0 1.329 1.554 1.770 1.666 1.674 100.000 100.000 1.330 1.665 0.00 0.00 1.174 1.531 2.224 2.763 13.240 1.399 1.569 1.800 1.775 1.704 1.400 1.776 0.00 0.00 0.3530   1.297 1.521 1.733 1.570 1.627 1.298 1.571     318     0.2670 336.60 5.03   0.000 0.000 6.724 6.725 0.000 6.889 6.889 0.000
WS7MET_125 2018-04-18 21:25:00 125 30483.0 1.355 1.583 1.812 1.712 1.710 100.000 100.000 1.356 1.712 0.00 0.00 1.174 1.530 2.225 2.762 13.240 1.433 1.607 1.848 1.775 1.761 1.434 1.776 0.00 0.00 0.3720   1.263 1.569 1.790 1.638 1.685 1.264 1.639     318     0.2790 337.10 3.03   0.000 0.000 6.737 6.737 0.000 6.912 6.912 0.000
WS7MET_125 2018-04-18 21:20:00 125 30483.0 1.403 1.649 1.869 1.763 1.783 100.000 100.000 1.404 1.760 0.00 0.00 1.174 1.530 2.228 2.762 13.240 1.536 1.684 1.886 1.843 1.819 1.537 1.844 0.00 0.00 0.2480   1.297 1.607 1.838 1.706 1.742 1.298 1.708     318     0.1790 340.30 0.28   0.000 0.000 6.760 6.761 0.000 6.937 6.936 0.000
WS7MET_125 2018-04-18 21:15:00 125 30483.0 1.461 1.700 1.892 1.783 1.798 100.000 99.900 1.462 1.775 0.00 0.00 1.174 1.532 2.231 2.762 13.250 1.570 1.732 1.924 1.843 1.828 1.571 1.844 0.00 0.00 0.4050   1.365 1.674 1.867 1.706 1.761 1.366 1.693     318     0.2660 329.20 14.37   0.000 0.000 6.789 6.789 0.000 6.947 6.943 0.007
WS7MET_125 2018-04-18 21:10:00 125 30483.0 1.512 1.748 1.934 1.811 1.855 100.000 99.900 1.513 1.795 0.00 0.00 1.173 1.530 2.231 2.761 13.260 1.570 1.751 1.943 1.877 1.876 1.571 1.869 0.00 0.00 0.3720   1.468 1.741 1.924 1.741 1.837 1.469 1.732     318     0.2370 345.30 12.95   0.000 0.000 6.813 6.814 0.000 6.961 6.953 0.007
WS7MET_125 2018-04-18 21:05:00 125 30483.0 1.497 1.739 1.959 1.841 1.849 100.000 99.800 1.498 1.818 0.00 0.00 1.172 1.529 2.231 2.760 13.270 1.570 1.750 1.990 1.911 1.856 1.571 1.898 0.00 0.00 0.4830   1.399 1.730 1.933 1.775 1.837 1.400 1.747     318     0.2930 329.00 11.60   0.000 0.000 6.806 6.807 0.000 6.976 6.965 0.014
WS7MET_125 2018-04-18 21:00:00 125 30483.0 1.490 1.754 2.018 1.949 1.916 100.000 99.900 1.491 1.937 0.00 0.00 1.173 1.528 2.230 2.760 13.270 1.536 1.769 2.038 2.048 1.951 1.537 2.044 0.00 0.00 0.5420   1.433 1.740 1.999 1.911 1.894 1.434 1.893     318     0.3860 332.60 3.65   0.000 0.000 6.803 6.803 0.000 7.030 7.024 0.007
WS7MET_125 2018-04-18 20:55:00 125 30483.0 1.503 1.766 2.026 1.939 1.933 100.000 99.900 1.504 1.926 0.00 0.00 1.171 1.528 2.231 2.759 13.270 1.570 1.787 2.037 1.980 1.960 1.571 1.976 0.00 0.00 0.4310   1.433 1.739 1.989 1.843 1.873 1.434 1.830     318     0.3640 335.20 0.33   0.000 0.000 6.809 6.810 -0.000 7.025 7.019 0.007
WS7MET_125 2018-04-18 20:50:00 125 30483.0 1.546 1.801 2.031 1.942 1.901 100.000 99.800 1.547 1.922 0.00 0.00 1.172 1.527 2.230 2.758 13.280 1.604 1.844 2.075 2.014 1.950 1.605 2.001 0.00 0.00 0.4250   1.468 1.738 1.989 1.877 1.844 1.469 1.855     318     0.3340 333.60 2.74   0.000 0.000 6.830 6.831 0.000 7.027 7.017 0.014
WS7MET_125 2018-04-18 20:45:00 125 30483.0 1.608 1.905 2.141 2.053 2.034 100.000 99.900 1.609 2.040 0.00 0.00 1.177 1.530 2.235 2.758 13.280 1.706 1.940 2.180 2.116 2.103 1.708 2.108 0.00 0.00 0.4640   1.536 1.844 2.075 1.945 1.949 1.537 1.928     318     0.3630 338.80 7.46   0.000 0.000 6.861 6.861 0.000 7.083 7.076 0.007
WS7MET_125 2018-04-18 20:40:00 125 30483.0 1.637 1.940 2.192 2.109 2.077 100.000 99.900 1.638 2.097 0.00 0.00 1.175 1.528 2.235 2.757 13.290 1.741 1.986 2.237 2.218 2.179 1.742 2.220 0.00 0.00 0.4770   1.536 1.891 2.141 2.048 2.026 1.537 2.030     318     0.3550 351.00 2.49   0.000 0.000 6.875 6.875 0.000 7.111 7.105 0.007
WS7MET_125 2018-04-18 20:35:00 125 30483.0 1.660 2.000 2.243 2.113 2.171 100.000 99.900 1.662 2.099 0.00 0.00 1.175 1.532 2.233 2.756 13.290 1.706 2.024 2.265 2.184 2.217 1.708 2.167 0.00 0.00 0.4120   1.604 1.977 2.217 2.048 2.121 1.605 2.030     318     0.3260 338.60 3.53   0.000 0.000 6.886 6.887 0.000 7.113 7.106 0.007
WS7MET_125 2018-04-18 20:30:00 125 30483.0 1.672 1.955 2.191 2.066 2.114 100.000 99.800 1.673 2.036 0.00 0.00 1.177 1.537 2.234 2.755 13.300 1.741 1.976 2.236 2.150 2.187 1.742 2.113 0.00 0.00 0.5230   1.604 1.937 2.158 2.014 2.062 1.605 1.972     318     0.4040 344.50 2.47   0.000 0.000 6.892 6.893 0.000 7.090 7.074 0.014
WS7MET_125 2018-04-18 20:25:00 125 30483.0 1.643 1.931 2.162 2.070 2.059 100.000 99.600 1.644 2.019 0.00 0.00 1.175 1.539 2.234 2.754 13.300 1.740 1.975 2.177 2.116 2.100 1.742 2.069 0.00 0.00 0.5550   1.570 1.907 2.148 2.014 2.023 1.571 1.957     318     0.3670 352.10 3.22   0.000 0.000 6.878 6.878 0.000 7.092 7.066 0.028
WS7MET_125 2018-04-18 20:20:00 125 30483.0 1.682 1.955 2.221 2.162 2.094 100.000 99.600 1.683 2.105 0.00 0.00 1.175 1.537 2.233 2.753 13.300 1.774 1.993 2.262 2.252 2.137 1.776 2.196 0.00 0.00 0.5160   1.570 1.917 2.177 2.116 2.042 1.571 2.055     318     0.4150 336.10 7.29   0.000 0.000 6.897 6.898 0.000 7.138 7.109 0.029
WS7MET_125 2018-04-18 20:15:00 125 30483.0 1.771 2.053 2.314 2.248 2.197 100.000 99.600 1.772 2.196 0.00 0.00 1.175 1.538 2.232 2.753 13.310 1.842 2.079 2.348 2.320 2.233 1.844 2.273 0.00 0.00 0.4830   1.672 2.003 2.272 2.150 2.137 1.673 2.098     318     0.3780 334.70 6.82   0.000 0.000 6.941 6.942 0.000 7.182 7.156 0.029
WS7MET_125 2018-04-18 20:10:00 125 30483.0 1.794 2.097 2.378 2.330 2.256 100.000 99.600 1.795 2.278 0.00 0.00 1.174 1.540 2.233 2.752 13.320 1.842 2.117 2.415 2.388 2.290 1.843 2.336 0.00 0.00 0.4180   1.739 2.079 2.339 2.218 2.223 1.740 2.171     318     0.3590 343.70 0.83   0.000 0.000 6.953 6.953 0.000 7.225 7.198 0.029
WS7MET_125 2018-04-18 20:05:00 125 30483.0 1.850 2.150 2.448 2.430 2.313 100.000 99.700 1.851 2.385 0.00 0.00 1.174 1.540 2.233 2.752 13.330 1.910 2.204 2.492 2.558 2.367 1.912 2.521 0.00 0.00 0.5620   1.807 2.127 2.415 2.353 2.290 1.808 2.301     318     0.3640 341.70 0.40   0.000 0.000 6.981 6.981 0.000 7.276 7.253 0.022
WS7MET_125 2018-04-18 20:00:00 125 30483.0 1.934 2.281 2.570 2.489 2.461 100.000 99.700 1.936 2.452 0.00 0.00 1.174 1.540 2.233 2.752 13.340 2.047 2.319 2.608 2.559 2.540 2.048 2.517 0.00 0.00 0.3850   1.876 2.204 2.502 2.422 2.358 1.878 2.381     318     0.2970 341.20 0.78   0.000 0.000 7.023 7.024 0.000 7.307 7.288 0.022
WS7MET_125 2018-04-18 19:55:00 125 30483.0 1.949 2.298 2.584 2.517 2.506 100.000 99.700 1.950 2.476 0.00 0.00 1.175 1.540 2.235 2.752 13.340 2.046 2.329 2.617 2.626 2.560 2.048 2.589 0.00 0.00 0.3530   1.875 2.281 2.569 2.455 2.483 1.877 2.408     318     0.2580 343.80 3.82   0.000 0.000 7.030 7.031 0.000 7.321 7.300 0.022
WS7MET_125 2018-04-18 19:50:00 125 30483.0 1.913 2.273 2.550 2.485 2.476 100.000 99.600 1.914 2.434 0.00 0.00 1.175 1.540 2.240 2.752 13.350 1.978 2.300 2.579 2.558 2.502 1.980 2.506 0.00 0.00 0.4250   1.807 2.251 2.530 2.388 2.463 1.808 2.341     318     0.3010 341.60 2.90   0.000 0.000 7.012 7.013 0.000 7.305 7.278 0.029
WS7MET_125 2018-04-18 19:45:00 125 30483.0 1.906 2.224 2.501 2.444 2.403 100.000 99.500 1.908 2.372 0.00 0.00 1.176 1.540 2.240 2.752 13.350 2.012 2.242 2.530 2.558 2.463 2.014 2.483 0.00 0.00 0.3720   1.841 2.203 2.492 2.387 2.357 1.843 2.307     318     0.2720 345.00 0.82   0.000 0.000 7.009 7.010 0.000 7.283 7.246 0.036
WS7MET_125 2018-04-18 19:40:00 125 30483.0 1.954 2.264 2.545 2.510 2.421 100.000 99.400 1.955 2.429 0.00 0.00 1.182 1.540 2.242 2.752 13.360 2.012 2.309 2.579 2.591 2.482 2.014 2.506 0.00 0.00 0.4380   1.841 2.223 2.502 2.421 2.367 1.842 2.336     318     0.3250 341.30 2.76   0.000 0.000 7.033 7.033 0.000 7.318 7.276 0.044
WS7MET_125 2018-04-18 19:35:00 125 30483.0 1.977 2.315 2.595 2.554 2.451 100.000 99.300 1.978 2.457 0.00 0.00 1.180 1.540 2.242 2.752 13.370 2.079 2.377 2.646 2.625 2.521 2.080 2.515 0.00 0.00 0.4380   1.875 2.271 2.559 2.489 2.405 1.876 2.394     318     0.3440 350.60 3.98   0.000 0.000 7.045 7.045 0.000 7.341 7.290 0.051
WS7MET_125 2018-04-18 19:30:00 125 30483.0 2.071 2.426 2.682 2.607 2.553 100.000 99.200 2.073 2.500 0.00 0.00 1.182 1.540 2.242 2.752 13.380 2.146 2.482 2.723 2.658 2.588 2.148 2.553 0.00 0.00 0.5030   1.976 2.396 2.656 2.556 2.530 1.978 2.450     318     0.3890 357.10 5.98   0.000 0.000 7.092 7.093 0.000 7.369 7.313 0.059
WS7MET_125 2018-04-18 19:25:00 125 30483.0 2.122 2.509 2.750 2.651 2.648 100.000 99.100 2.124 2.530 0.00 0.00 1.183 1.541 2.242 2.752 13.380 2.180 2.521 2.761 2.760 2.675 2.182 2.625 0.00 0.00 0.4510   2.078 2.492 2.723 2.590 2.598 2.079 2.475     318     0.3460 355.40 2.00   0.000 0.000 7.118 7.119 0.000 7.392 7.328 0.067
WS7MET_125 2018-04-18 19:20:00 125 30483.0 2.171 2.512 2.765 2.727 2.657 100.000 98.900 2.172 2.574 0.00 0.00 1.183 1.540 2.244 2.752 13.390 2.248 2.530 2.781 2.794 2.694 2.250 2.655 0.00 0.00 0.5230   2.111 2.502 2.752 2.656 2.617 2.112 2.492     318     0.2920 354.50 1.80   0.000 0.000 7.143 7.143 0.000 7.432 7.351 0.082
WS7MET_125 2018-04-18 19:15:00 125 30483.0 2.204 2.528 2.806 2.793 2.666 100.000 98.700 2.206 2.617 0.00 0.00 1.183 1.541 2.244 2.753 13.400 2.315 2.579 2.858 2.895 2.723 2.317 2.716 0.00 0.00 0.0000   2.110 2.492 2.761 2.691 2.617 2.112 2.522     318     0.0000 0.00 0.00   0.000 0.000 7.160 7.161 0.000 7.467 7.374 0.097
WS7MET_125 2018-04-18 19:10:00 125 30483.0 2.327 2.643 2.919 2.899 2.796 100.000 98.700 2.329 2.713 0.00 0.00 1.183 1.540 2.246 2.756 13.410 2.384 2.684 2.964 2.964 2.848 2.386 2.779 0.00 0.00 0.0000   2.213 2.588 2.867 2.793 2.733 2.214 2.624     318     0.0000 0.00 0.00   0.000 0.000 7.223 7.224 0.000 7.523 7.424 0.098
WS7MET_125 2018-04-18 19:05:00 125 30483.0 2.371 2.720 2.997 3.000 2.872 100.000 98.500 2.372 2.796 0.87 0.00 1.183 1.541 2.248 2.756 13.420 2.419 2.752 3.050 3.101 2.954 2.421 2.888 1.34 0.00 0.4970   2.316 2.694 2.964 2.930 2.829 2.318 2.727     318     0.0890 0.04 4.97   0.000 0.000 7.246 7.246 0.000 7.577 7.468 0.114
WS7MET_125 2018-04-18 19:00:00 125 30483.0 2.432 2.777 3.068 3.076 2.929 100.000 98.300 2.434 2.830 2.01 0.13 1.183 1.544 2.250 2.759 13.430 2.624 2.838 3.108 3.136 2.964 2.626 2.883 2.68 1.34 0.5810   2.350 2.742 3.050 2.999 2.867 2.352 2.781     318     0.3220 10.64 9.16   0.000 0.000 7.277 7.278 0.000 7.618 7.486 0.130
WS7MET_125 2018-04-18 18:55:00 125 30483.0 2.516 2.863 3.149 3.179 2.995 100.000 97.900 2.517 2.887 3.69 1.34 1.183 1.545 2.250 2.758 13.440 2.589 2.906 3.204 3.272 3.050 2.591 2.975 4.03 1.34 0.2870   2.419 2.848 3.108 3.067 2.935 2.421 2.796     318     0.1480 20.05 8.05   0.000 0.000 7.321 7.321 0.000 7.674 7.517 0.161
WS7MET_125 2018-04-18 18:50:00 125 30483.0 2.639 2.962 3.259 3.310 3.041 100.000 97.600 2.640 2.974 5.44 2.48 1.183 1.549 2.251 2.761 13.450 2.724 3.050 3.329 3.407 3.117 2.724 3.070 6.71 2.68 0.3140   2.554 2.896 3.204 3.203 2.973 2.556 2.876     318     0.0890 28.92 3.38   0.000 0.000 7.385 7.386 -0.000 7.746 7.563 0.186
WS7MET_125 2018-04-18 18:45:00 125 30483.0 2.830 3.162 3.423 3.471 3.202 100.000 97.200 2.831 3.066 8.79 3.96 1.184 1.550 2.252 2.760 13.460 2.963 3.262 3.512 3.543 3.281 2.965 3.137 10.74 4.03 0.5490   2.690 3.060 3.339 3.338 3.127 2.692 2.957     318     0.2270 39.80 3.51   0.000 0.000 7.486 7.487 0.000 7.834 7.613 0.219
WS7MET_125 2018-04-18 18:40:00 125 30483.0 2.941 3.323 3.599 3.599 3.439 100.000 96.900 2.943 3.163 12.08 4.09 1.185 1.554 2.251 2.761 13.470 2.997 3.358 3.647 3.679 3.560 2.999 3.238 13.42 5.37 0.0000   2.860 3.271 3.532 3.509 3.291 2.862 3.082     318     0.0000 0.00 0.00   0.000 0.000 7.546 7.547 0.000 7.906 7.665 0.245
WS7MET_125 2018-04-18 18:35:00 125 30483.0 2.937 3.361 3.654 3.660 3.565 100.000 96.800 2.939 3.205 15.24 5.57 1.186 1.556 2.252 2.761 13.490 3.030 3.377 3.666 3.747 3.599 3.033 3.295 17.45 6.71 0.0000   2.860 3.358 3.647 3.576 3.522 2.862 3.125     318     0.0000 0.00 0.00   0.000 0.000 7.544 7.545 0.000 7.940 7.688 0.254
WS7MET_125 2018-04-18 18:30:00 125 30483.0 2.911 3.383 3.694 3.693 3.579 100.000 97.000 2.913 3.265 20.74 7.92 1.189 1.557 2.255 2.761 13.510 2.997 3.406 3.705 3.782 3.695 2.999 3.350 24.16 9.40 0.0000   2.826 3.358 3.676 3.645 3.483 2.828 3.218     318     0.0000 0.00 0.00   0.000 0.000 7.530 7.531 0.000 7.958 7.721 0.239
WS7MET_125 2018-04-18 18:25:00 125 30483.0 2.829 3.315 3.666 3.639 3.673 100.000 97.200 2.831 3.239 25.10 9.53 1.190 1.557 2.259 2.761 13.540 2.894 3.377 3.704 3.747 3.772 2.896 3.340 25.51 10.74 0.0000   2.757 3.271 3.608 3.576 3.579 2.759 3.169     318     0.0000 0.00 0.00   0.000 0.000 7.486 7.487 0.000 7.928 7.707 0.222
WS7MET_125 2018-04-18 18:20:00 125 30483.0 2.802 3.233 3.589 3.636 3.423 99.900 97.100 2.792 3.227 26.98 10.74 1.191 1.558 2.260 2.760 13.560 2.860 3.280 3.608 3.713 3.579 2.862 3.305 28.19 10.74 0.0000   2.723 3.222 3.578 3.576 3.347 2.699 3.164     318     0.0000 0.00 0.00   0.000 0.000 7.472 7.466 0.007 7.926 7.700 0.230
WS7MET_125 2018-04-18 18:15:00 125 30483.0 2.795 3.218 3.599 3.658 3.389 99.700 96.900 2.749 3.217 29.87 11.55 1.191 1.555 2.259 2.760 13.600 2.859 3.231 3.607 3.781 3.424 2.821 3.329 30.88 12.08 0.0000   2.723 3.202 3.587 3.576 3.366 2.679 3.130     318     0.0000 0.00 0.00   0.000 0.000 7.468 7.443 0.022 7.939 7.695 0.246
WS7MET_125 2018-04-18 18:10:00 125 30483.0 2.815 3.245 3.642 3.714 3.411 99.500 96.700 2.743 3.245 32.08 12.48 1.190 1.556 2.258 2.759 13.680 2.894 3.269 3.664 3.781 3.480 2.806 3.309 33.56 13.42 0.0000   2.723 3.212 3.606 3.644 3.365 2.665 3.187     318     0.0000 0.00 0.00   0.000 0.000 7.478 7.440 0.037 7.970 7.710 0.263
WS7MET_125 2018-04-18 18:05:00 125 30483.0 2.820 3.246 3.669 3.739 3.429 99.100 96.300 2.697 3.210 35.17 14.43 1.189 1.555 2.257 2.758 13.800 2.893 3.259 3.682 3.781 3.480 2.806 3.278 37.59 16.11 0.0000   2.757 3.219 3.653 3.712 3.383 2.616 3.145     318     0.0000 0.00 0.00   0.000 0.000 7.481 7.416 0.067 7.984 7.691 0.295
WS7MET_125 2018-04-18 18:00:00 125 30483.0 2.843 3.261 3.711 3.819 3.454 98.700 96.000 2.661 3.246 40.74 17.05 1.189 1.554 2.256 2.757 13.920 2.927 3.277 3.729 3.882 3.517 2.742 3.294 41.61 17.45 0.0000   2.756 3.219 3.672 3.780 3.363 2.581 3.192     318     0.0000 0.00 0.00   0.000 0.000 7.493 7.397 0.097 8.029 7.711 0.321
WS7MET_125 2018-04-18 17:55:00 125 30483.0 2.917 3.334 3.769 3.868 3.513 98.400 95.800 2.693 3.260 39.53 16.24 1.189 1.554 2.256 2.756 13.950 2.960 3.382 3.796 3.915 3.594 2.746 3.312 41.61 17.45 0.0000   2.857 3.276 3.719 3.813 3.430 2.633 3.179     318     0.0000 0.00 0.00   0.000 0.000 7.533 7.414 0.121 8.057 7.718 0.338
WS7MET_125 2018-04-18 17:50:00 125 30483.0 2.963 3.391 3.812 3.828 3.627 98.400 95.600 2.740 3.199 37.85 14.97 1.191 1.554 2.256 2.756 13.920 3.060 3.430 3.834 3.915 3.699 2.831 3.291 38.93 16.11 0.3660   2.892 3.362 3.777 3.743 3.536 2.677 3.063     318     0.0960 312.80 0.03   0.000 0.000 7.557 7.439 0.121 8.034 7.685 0.354
WS7MET_125 2018-04-18 17:45:00 125 30483.0 2.952 3.389 3.802 3.841 3.589 98.100 95.000 2.685 3.115 39.66 15.70 1.194 1.554 2.260 2.757 13.920 3.060 3.421 3.835 3.946 3.671 2.791 3.215 41.61 17.45 0.3400   2.889 3.353 3.757 3.708 3.517 2.585 3.019     318     0.1240 312.00 1.10   0.000 0.000 7.552 7.410 0.143 8.042 7.639 0.402
WS7MET_125 2018-04-18 17:40:00 125 30483.0 2.921 3.403 3.831 3.970 3.598 97.400 94.100 2.552 3.109 45.57 18.72 1.195 1.554 2.264 2.757 14.010 2.991 3.430 3.874 4.049 3.690 2.659 3.194 49.66 20.13 0.3720   2.888 3.372 3.787 3.879 3.498 2.495 3.017     318     0.1000 267.60 14.13   0.000 0.000 7.535 7.340 0.196 8.115 7.636 0.479
WS7MET_125 2018-04-18 17:35:00 125 30483.0 3.000 3.370 3.890 4.152 3.546 96.600 93.200 2.518 3.162 53.83 22.15 1.198 1.554 2.266 2.759 14.130 3.092 3.431 3.980 4.319 3.681 2.590 3.318 57.72 24.16 0.1180   2.889 3.334 3.835 4.014 3.450 2.417 3.060     318     0.0080 289.20 2.13   0.000 0.000 7.577 7.322 0.258 8.220 7.665 0.559
WS7MET_125 2018-04-18 17:30:00 125 30483.0 3.144 3.553 4.110 4.369 3.759 96.000 92.300 2.572 3.233 59.93 24.16 1.198 1.555 2.266 2.762 14.180 3.262 3.671 4.240 4.558 3.961 2.684 3.407 61.75 24.16 0.5950   3.023 3.431 3.980 4.251 3.614 2.496 3.152     318     0.1470 214.70 71.84   0.000 0.000 7.655 7.350 0.306 8.346 7.704 0.643
WS7MET_125 2018-04-18 17:25:00 125 30483.0 3.373 3.795 4.350 4.533 3.960 96.000 92.300 2.795 3.391 63.63 24.90 1.198 1.557 2.267 2.764 14.180 3.467 3.941 4.443 4.593 4.231 2.929 3.454 68.46 26.85 0.0330   3.262 3.633 4.202 4.456 3.749 2.664 3.307     318     0.0020 310.70 0.00   0.000 0.000 7.780 7.468 0.311 8.442 7.790 0.650
WS7MET_125 2018-04-18 17:20:00 125 30483.0 3.535 3.956 4.479 4.591 4.078 94.800 91.900 2.781 3.393 71.14 27.72 1.198 1.561 2.267 2.764 14.180 3.739 4.153 4.645 4.729 4.288 2.901 3.488 72.49 28.19 0.0780   3.433 3.883 4.414 4.456 3.979 2.652 3.255     318     0.0040 240.90 0.00   0.000 0.000 7.870 7.460 0.409 8.477 7.791 0.687
WS7MET_125 2018-04-18 17:15:00 125 30483.0 3.852 4.255 4.688 4.739 4.253 92.800 90.100 2.790 3.260 73.56 28.32 1.198 1.565 2.270 2.765 14.170 4.012 4.413 4.771 4.831 4.481 2.899 3.409 75.17 29.53 0.6860   3.705 4.133 4.626 4.626 4.095 2.696 3.093     318     0.1030 206.40 15.98   0.000 0.000 8.048 7.465 0.579 8.565 7.718 0.848
WS7MET_125 2018-04-18 17:10:00 125 30483.0 4.113 4.483 4.853 4.894 4.362 91.600 88.400 2.879 3.140 77.85 30.40 1.197 1.571 2.271 2.762 14.180 4.285 4.606 4.964 5.036 4.674 3.084 3.227 80.50 32.21 0.6990   3.978 4.345 4.703 4.695 4.133 2.792 3.028     318     0.1900 211.20 51.28   0.000 0.000 8.197 7.512 0.689 8.658 7.653 1.004
WS7MET_125 2018-04-18 17:05:00 125 30483.0 4.381 4.786 5.127 5.084 4.512 90.200 87.300 2.919 3.159 85.80 36.11 1.197 1.571 2.274 2.764 14.180 4.456 4.896 5.205 5.172 4.808 3.118 3.223 89.90 38.93 0.5550   4.285 4.587 4.983 5.036 4.248 2.731 3.080     318     0.1510 110.90 46.35   0.000 0.000 8.353 7.534 0.819 8.774 7.663 1.114
WS7MET_125 2018-04-18 17:00:00 125 30483.0 4.256 4.726 5.088 5.094 4.714 91.300 87.100 2.961 3.136 89.20 38.52 1.197 1.572 2.274 2.765 14.180 4.388 4.837 5.157 5.172 4.789 3.056 3.213 89.90 38.93 0.7580   4.115 4.615 5.012 5.036 4.538 2.822 3.062     318     0.2820 211.30 61.35   0.000 0.000 8.280 7.556 0.720 8.780 7.651 1.133
WS7MET_125 2018-04-18 16:55:00 125 30483.0 4.152 4.571 4.964 5.118 4.570 91.900 87.600 2.951 3.232 91.00 39.39 1.197 1.572 2.275 2.765 14.180 4.251 4.644 5.012 5.241 4.731 3.084 3.350 98.00 42.95 0.5750   4.081 4.509 4.915 5.070 4.384 2.799 3.102     318     0.1800 275.20 15.65   0.000 0.000 8.220 7.551 0.666 8.795 7.703 1.091
WS7MET_125 2018-04-18 16:50:00 125 30483.0 4.249 4.598 5.042 5.246 4.460 91.300 86.900 2.961 3.255 117.30 44.50 1.198 1.573 2.278 2.765 14.180 4.388 4.664 5.128 5.377 4.509 3.073 3.365 163.80 45.64 0.9340   4.149 4.558 4.963 5.138 4.345 2.875 3.141     318     0.5120 260.80 15.75   0.000 0.000 8.276 7.556 0.720 8.874 7.716 1.162
WS7MET_125 2018-04-18 16:45:00 125 30483.0 4.541 4.926 5.279 5.355 4.696 88.800 85.900 2.865 3.189 120.20 45.44 1.198 1.573 2.278 2.766 14.180 4.695 5.013 5.303 5.411 4.771 2.949 3.348 149.00 46.98 0.9800   4.319 4.693 5.157 5.275 4.519 2.701 3.034     318     0.4730 268.90 20.82   0.000 0.000 8.447 7.505 0.946 8.941 7.680 1.261
WS7MET_125 2018-04-18 16:40:00 125 30483.0 4.799 5.109 5.393 5.519 4.603 87.600 84.900 2.911 3.192 124.00 49.80 1.198 1.573 2.282 2.766 14.160 5.002 5.274 5.507 5.650 4.800 3.010 3.420 126.20 52.35 1.2610   4.592 4.964 5.264 5.309 4.307 2.763 2.989     318     0.4210 257.70 14.52   0.000 0.000 8.601 7.530 1.067 9.044 7.681 1.366
WS7MET_125 2018-04-18 16:35:00 125 30483.0 5.043 5.501 5.722 5.879 5.063 86.400 82.400 2.958 3.121 132.40 55.30 1.199 1.573 2.284 2.766 14.150 5.138 5.565 5.788 6.025 5.197 3.069 3.255 138.30 57.72 1.3650   4.968 5.342 5.536 5.718 4.684 2.839 2.988     318     0.5500 237.80 34.56   0.000 0.000 8.749 7.555 1.190 9.273 7.643 1.632
WS7MET_125 2018-04-18 16:30:00 125 30483.0 4.925 5.419 5.751 6.039 5.105 87.400 82.500 3.010 3.290 151.50 61.81 1.199 1.574 2.284 2.766 14.150 5.070 5.478 5.817 6.196 5.236 3.159 3.479 177.20 68.46 1.1690   4.831 5.303 5.672 5.855 4.887 2.889 3.133     318     0.4450 263.30 35.26   0.000 0.000 8.677 7.583 1.093 9.376 7.735 1.641
WS7MET_125 2018-04-18 16:25:00 125 30483.0 4.952 5.272 5.789 6.278 4.942 86.400 82.000 2.872 3.441 215.60 75.37 1.202 1.574 2.281 2.766 14.150 5.377 5.672 6.099 6.435 5.178 3.098 3.510 275.20 80.50 0.7450   4.763 5.100 5.662 6.162 4.559 2.682 3.377     318     0.2290 274.50 34.34   0.000 0.000 8.693 7.509 1.182 9.532 7.818 1.716
WS7MET_125 2018-04-18 16:20:00 125 30483.0 5.500 6.072 6.402 6.457 5.230 84.500 80.800 3.105 3.408 268.90 80.40 1.203 1.575 2.281 2.766 14.150 5.684 6.255 6.537 6.605 5.487 3.256 3.581 291.30 88.60 0.8170   5.377 5.817 6.196 6.332 4.964 2.922 3.131     318     0.2170 250.50 52.21   0.000 0.000 9.032 7.634 1.400 9.651 7.800 1.853
WS7MET_125 2018-04-18 16:15:00 125 30483.0 5.148 5.884 6.327 6.488 5.269 86.200 79.980 3.036 3.290 331.50 102.10 1.202 1.574 2.282 2.766 14.150 5.377 6.118 6.469 6.674 5.468 3.147 3.602 369.10 114.10 1.1960   4.797 5.497 6.099 6.332 5.119 2.894 2.964     318     0.4930 245.00 27.41   0.000 0.000 8.813 7.597 1.216 9.671 7.735 1.936
WS7MET_125 2018-04-18 16:10:00 125 30483.0 4.782 5.324 5.977 6.223 5.009 87.300 79.530 2.847 2.951 356.20 118.70 1.202 1.573 2.283 2.766 14.150 4.865 5.468 6.099 6.469 5.313 3.018 3.380 389.30 128.90 0.8300   4.695 5.158 5.827 5.991 4.578 2.464 2.560     318     0.1980 253.20 18.88   0.000 0.000 8.591 7.495 1.091 9.496 7.551 1.944
WS7MET_125 2018-04-18 16:05:00 125 30483.0 4.625 5.121 5.897 6.095 4.642 85.700 79.070 2.443 2.741 367.00 133.20 1.204 1.575 2.285 2.766 14.150 4.831 5.332 6.089 6.230 5.100 2.749 3.479 420.10 155.70 1.0390   4.388 4.810 5.652 5.957 4.192 1.726 1.951     318     0.2750 46.94 93.40   0.000 0.000 8.497 7.283 1.215 9.412 7.439 1.970
WS7MET_125 2018-04-18 16:00:00 125 30483.0 5.162 5.572 6.027 6.075 4.611 84.000 81.300 2.683 3.123 405.00 160.70 1.204 1.575 2.285 2.766 14.150 5.377 5.895 6.157 6.230 5.023 2.837 3.371 453.70 185.20 0.3330   4.831 5.226 5.885 5.889 4.288 2.565 2.795     318     0.0680 294.40 30.85   0.000 0.000 8.822 7.409 1.411 9.399 7.644 1.758
WS7MET_125 2018-04-18 15:55:00 125 30483.0 5.125 5.638 6.000 5.783 4.887 84.200 80.900 2.686 2.768 353.40 151.30 1.207 1.576 2.285 2.766 14.150 5.241 5.730 6.089 5.923 5.042 2.967 3.020 475.20 197.30 0.8950   5.002 5.507 5.895 5.616 4.636 2.473 2.593     318     0.3860 300.70 79.23   0.000 0.000 8.799 7.410 1.390 9.211 7.453 1.759
WS7MET_125 2018-04-18 15:50:00 125 30483.0 4.668 5.116 5.616 5.490 4.522 86.900 82.800 2.669 2.801 334.10 149.50 1.208 1.578 2.285 2.766 14.150 5.036 5.555 5.973 5.616 5.003 2.847 2.986 363.80 162.40 0.8750   4.456 4.694 5.255 5.377 3.816 2.552 2.530     318     0.3880 200.40 63.84   0.000 0.000 8.523 7.401 1.116 9.026 7.471 1.552
WS7MET_125 2018-04-18 15:45:00 125 30483.0 4.470 4.815 5.337 5.492 3.902 88.300 84.300 2.713 3.063 308.30 141.20 1.208 1.579 2.285 2.766 14.150 4.593 4.935 5.410 5.548 4.211 3.034 3.253 326.20 149.00 1.1500   4.388 4.684 5.216 5.377 3.613 2.480 2.754     318     0.1810 220.90 40.90   0.000 0.000 8.405 7.424 0.983 9.027 7.611 1.417
WS7MET_125 2018-04-18 15:40:00 125 30483.0 4.601 4.962 5.375 5.369 4.284 87.500 84.800 2.715 3.025 283.00 130.20 1.208 1.579 2.285 2.766 14.150 4.695 5.061 5.449 5.480 4.752 2.944 3.259 299.30 136.90 0.5030   4.491 4.887 5.303 5.241 3.980 2.393 2.614     318     0.1570 253.60 31.09   0.000 0.000 8.483 7.425 1.060 8.950 7.591 1.360
WS7MET_125 2018-04-18 15:35:00 125 30483.0 4.598 4.830 5.180 5.234 4.205 86.400 83.800 2.523 2.724 272.50 125.00 1.208 1.581 2.285 2.765 14.160 4.729 4.993 5.332 5.343 4.703 2.683 2.863 319.50 149.00 0.9540   4.456 4.597 4.993 5.172 3.806 2.374 2.498     318     0.2620 234.00 35.28   0.000 0.000 8.481 7.325 1.153 8.866 7.430 1.436
WS7MET_125 2018-04-18 15:30:00 125 30483.0 4.669 4.919 5.332 5.314 4.409 85.600 82.600 2.464 2.604 229.10 102.30 1.212 1.582 2.285 2.766 14.150 4.831 5.003 5.448 5.445 4.616 2.856 3.124 288.60 130.20 0.9730   4.592 4.858 5.293 5.206 4.192 2.052 2.194     318     0.3880 279.20 16.36   0.000 0.000 8.523 7.294 1.227 8.916 7.367 1.551
WS7MET_125 2018-04-18 15:25:00 125 30483.0 5.068 5.428 5.837 5.775 4.637 82.900 80.200 2.415 2.626 215.20 95.90 1.215 1.583 2.285 2.766 14.150 5.207 5.710 6.138 6.060 5.061 2.654 3.033 331.50 161.10 1.5610   4.763 4.964 5.410 5.377 4.057 2.141 2.232     318     0.5930 242.00 23.49   0.000 0.000 8.764 7.268 1.499 9.206 7.379 1.823
WS7MET_125 2018-04-18 15:20:00 125 30483.0 5.000 5.586 6.014 6.037 4.817 84.200 79.540 2.558 2.769 373.80 176.50 1.217 1.589 2.286 2.765 14.150 5.173 5.807 6.186 6.128 5.138 2.761 3.473 409.40 194.60 0.9280   4.866 5.439 5.866 5.923 4.491 2.054 2.210     318     0.4150 234.60 58.43   0.000 0.000 8.723 7.343 1.378 9.375 7.454 1.918
WS7MET_125 2018-04-18 15:15:00 125 30483.0 5.094 5.788 6.174 6.135 4.950 85.200 80.400 2.824 3.017 352.10 166.40 1.216 1.589 2.287 2.766 14.150 5.241 5.963 6.303 6.265 5.284 3.036 3.311 382.60 181.20 1.4240   4.968 5.497 5.982 5.924 4.636 2.527 2.793     318     0.4160 288.50 73.83   0.000 0.000 8.780 7.483 1.299 9.438 7.586 1.850
WS7MET_125 2018-04-18 15:10:00 125 30483.0 5.067 5.700 6.045 5.838 5.036 84.000 80.700 2.590 2.780 287.30 132.90 1.217 1.592 2.285 2.765 14.150 5.172 5.856 6.157 6.026 5.148 2.784 3.023 315.40 147.70 0.6210   4.900 5.536 5.953 5.616 4.790 2.344 2.420     318     0.1560 221.80 36.50   0.000 0.000 8.764 7.360 1.402 9.246 7.460 1.785
WS7MET_125 2018-04-18 15:05:00 125 30483.0 4.790 5.431 5.772 5.566 5.041 85.500 81.400 2.564 2.642 266.20 121.10 1.217 1.592 2.285 2.766 14.150 5.002 5.662 5.982 5.718 5.177 2.750 2.780 276.50 126.20 1.6530   4.592 5.205 5.603 5.479 4.770 2.243 2.409     318     0.6570 198.20 61.34   0.000 0.000 8.596 7.346 1.246 9.073 7.387 1.688
WS7MET_125 2018-04-18 15:00:00 125 30483.0 4.575 5.166 5.581 5.486 4.654 88.700 83.700 2.874 2.958 267.30 122.90 1.216 1.591 2.284 2.765 14.150 4.661 5.254 5.651 5.616 4.876 3.157 3.488 276.50 126.20 1.5940   4.524 5.050 5.515 5.343 4.441 2.431 2.448     318     0.5750 256.50 33.14   0.000 0.000 8.467 7.510 0.957 9.023 7.555 1.471
WS7MET_125 2018-04-18 14:55:00 125 30483.0 4.499 5.008 5.373 5.341 4.583 90.500 87.000 3.083 3.351 225.60 102.10 1.215 1.591 2.285 2.764 14.150 4.558 5.156 5.524 5.446 4.808 3.235 3.448 248.30 112.80 1.0130   4.422 4.914 5.291 5.241 4.344 2.978 3.124     318     0.2390 141.30 61.62   0.000 0.000 8.422 7.622 0.800 8.932 7.768 1.161
WS7MET_125 2018-04-18 14:50:00 125 30483.0 4.569 4.989 5.388 5.371 4.326 90.300 87.400 3.115 3.445 198.70 89.90 1.214 1.589 2.285 2.763 14.150 4.764 5.067 5.454 5.446 4.508 3.257 3.583 208.10 94.00 0.2870   4.422 4.932 5.320 5.275 4.150 3.001 3.281     318     0.0740 88.30 45.91   0.000 0.000 8.464 7.639 0.821 8.951 7.820 1.128
WS7MET_125 2018-04-18 14:45:00 125 30483.0 4.800 5.089 5.466 5.452 4.325 89.100 87.200 3.166 3.493 174.50 78.12 1.213 1.588 2.288 2.762 14.150 5.036 5.298 5.589 5.514 4.573 3.271 3.715 185.20 84.60 0.4700   4.626 5.009 5.415 5.343 4.081 3.073 3.298     318     0.0680 246.10 38.75   0.000 0.000 8.602 7.667 0.938 9.002 7.847 1.152
WS7MET_125 2018-04-18 14:40:00 125 30483.0 5.036 5.437 5.684 5.551 4.915 88.100 86.300 3.237 3.447 170.80 76.10 1.212 1.588 2.290 2.761 14.150 5.138 5.588 5.821 5.650 5.017 3.487 3.738 179.80 80.50 0.7910   4.968 5.337 5.589 5.445 4.689 3.051 3.252     318     0.5250 149.00 78.35   0.000 0.000 8.745 7.706 1.041 9.064 7.821 1.242
WS7MET_125 2018-04-18 14:35:00 125 30483.0 5.049 5.585 5.841 5.653 5.056 88.300 85.600 3.282 3.441 190.20 86.60 1.212 1.587 2.289 2.760 14.120 5.206 5.666 5.918 5.752 5.142 3.467 3.606 200.00 91.30 1.6990   4.899 5.510 5.782 5.582 4.959 3.055 3.192     318     0.3370 138.20 72.08   0.000 0.000 8.753 7.730 1.024 9.128 7.818 1.314
WS7MET_125 2018-04-18 14:30:00 125 30483.0 4.746 5.435 5.755 5.599 5.148 89.000 84.800 3.095 3.244 199.40 91.90 1.212 1.586 2.289 2.760 14.120 4.899 5.529 5.811 5.684 5.258 3.337 3.477 201.30 92.60 1.7970   4.490 5.306 5.723 5.513 5.035 2.953 3.058     318     0.6440 169.20 73.04   0.000 0.000 8.569 7.629 0.943 9.094 7.710 1.382
WS7MET_125 2018-04-18 14:25:00 125 30483.0 4.190 4.984 5.501 5.536 4.847 93.200 86.400 3.185 3.446 197.60 91.50 1.214 1.586 2.288 2.761 14.120 4.490 5.277 5.703 5.650 5.161 3.326 3.886 198.60 92.60 1.0580   4.012 4.793 5.374 5.343 4.542 3.008 3.169     318     0.2860 94.50 51.14   0.000 0.000 8.242 7.677 0.560 9.054 7.821 1.231
WS7MET_125 2018-04-18 14:20:00 125 30483.0 4.005 4.668 5.230 5.380 4.567 94.100 86.700 3.142 3.344 199.40 91.50 1.218 1.586 2.288 2.764 14.120 4.149 4.793 5.364 5.445 4.667 3.278 3.635 209.40 96.60 0.4640   3.876 4.561 5.141 5.275 4.378 2.919 3.051     318     0.0750 292.40 54.83   0.000 0.000 8.135 7.654 0.480 8.957 7.764 1.191
WS7MET_125 2018-04-18 14:15:00 125 30483.0 3.692 4.378 5.011 5.288 4.370 94.800 88.200 2.934 3.494 199.80 91.80 1.218 1.586 2.288 2.764 14.120 3.910 4.619 5.190 5.411 4.919 3.023 3.950 212.00 98.00 0.7450   3.535 4.185 4.870 5.104 3.992 2.838 2.765     318     0.2960 77.43 52.22   0.000 0.000 7.958 7.542 0.414 8.900 7.847 1.050
WS7MET_125 2018-04-18 14:10:00 125 30483.0 3.651 4.259 4.999 5.450 4.243 95.500 90.100 2.996 3.954 165.30 74.55 1.220 1.588 2.288 2.767 14.120 3.739 4.291 5.064 5.548 4.339 3.104 4.049 174.50 79.18 0.2550   3.569 4.194 4.909 5.343 4.098 2.862 3.853     318     0.0430 76.02 19.53   0.000 0.000 7.935 7.575 0.357 9.000 8.106 0.891
WS7MET_125 2018-04-18 14:05:00 125 30483.0 3.773 4.394 5.205 5.658 4.346 94.000 86.500 2.897 3.586 165.90 76.63 1.219 1.590 2.288 2.769 14.100 3.910 4.609 5.393 5.821 4.658 2.990 3.941 171.80 79.18 0.0000   3.671 4.272 5.064 5.479 4.185 2.823 2.843     318     0.0000 0.00 0.00   0.000 0.000 8.003 7.522 0.480 9.131 7.898 1.233
WS7MET_125 2018-04-18 14:00:00 125 30483.0 3.994 4.639 5.459 5.873 4.757 92.600 80.800 2.905 2.832 159.50 74.62 1.223 1.597 2.288 2.769 14.090 4.115 4.774 5.664 6.025 5.160 3.038 3.535 163.70 76.50 0.0260   3.876 4.542 5.364 5.752 4.494 2.693 2.092     318     0.0010 300.80 0.00   0.000 0.000 8.129 7.526 0.602 9.269 7.487 1.780
WS7MET_125 2018-04-18 13:55:00 125 30483.0 4.145 4.944 5.814 6.018 5.229 90.000 75.900 2.660 2.092 163.60 75.96 1.226 1.597 2.288 2.769 14.080 4.285 5.160 5.917 6.059 5.577 2.969 2.972 174.50 81.90 0.8360   4.012 4.793 5.693 5.957 4.919 2.222 1.618     318     0.1800 232.50 14.70   0.000 0.000 8.216 7.396 0.822 9.362 7.103 2.256
WS7MET_125 2018-04-18 13:50:00 125 30483.0 4.120 4.733 5.663 5.904 4.840 92.500 82.100 3.019 3.094 250.00 121.50 1.228 1.600 2.288 2.769 14.090 4.285 4.870 5.839 6.059 5.257 3.222 3.519 412.00 204.00 0.3790   4.012 4.648 5.509 5.684 4.503 2.891 2.731     318     0.1050 225.70 27.02   0.000 0.000 8.201 7.588 0.615 9.289 7.628 1.663
WS7MET_125 2018-04-18 13:45:00 125 30483.0 4.040 4.705 5.380 5.459 4.735 93.700 85.800 3.112 3.278 309.40 152.00 1.229 1.602 2.289 2.769 14.090 4.149 4.851 5.490 5.684 5.170 3.409 3.784 347.60 173.10 0.5880   3.842 4.532 5.122 5.138 4.445 2.938 2.707     318     0.1150 211.00 10.88   0.000 0.000 8.155 7.638 0.514 9.006 7.728 1.279
WS7MET_125 2018-04-18 13:40:00 125 30483.0 3.748 4.233 4.889 5.176 4.239 93.900 91.600 2.862 3.921 260.00 121.50 1.230 1.603 2.289 2.769 14.090 3.876 4.455 5.064 5.241 4.764 3.151 4.076 280.50 134.20 0.3010   3.603 4.117 4.812 5.138 4.050 2.648 3.790     318     0.0490 62.54 34.56   0.000 0.000 7.989 7.503 0.487 8.830 8.087 0.742
WS7MET_125 2018-04-18 13:35:00 125 30483.0 3.898 4.275 4.898 5.229 4.422 92.600 89.400 2.809 3.630 220.60 99.00 1.230 1.604 2.289 2.769 14.090 3.978 4.484 5.083 5.343 5.064 3.139 3.914 224.10 100.70 0.5030   3.773 4.098 4.735 5.138 4.069 2.610 3.080     318     0.2380 51.31 37.52   0.000 0.000 8.074 7.475 0.597 8.863 7.923 0.939
WS7MET_125 2018-04-18 13:30:00 125 30483.0 4.456 4.448 5.105 5.633 4.199 87.400 87.000 2.539 3.634 191.30 83.80 1.230 1.605 2.295 2.767 14.090 5.036 5.016 5.674 6.025 4.764 2.649 3.833 222.80 99.30 1.0320   3.978 4.108 4.745 5.275 3.992 2.443 2.632     318     0.5710 15.99 17.14   0.000 0.000 8.397 7.333 1.058 9.116 7.925 1.185
WS7MET_125 2018-04-18 13:25:00 125 30483.0 5.781 5.733 6.333 6.530 4.513 80.800 78.520 2.747 3.064 161.40 69.59 1.230 1.605 2.297 2.761 14.090 6.776 6.725 7.116 7.322 5.190 3.105 3.750 170.40 75.15 0.8490   5.070 5.103 5.742 6.059 4.185 1.985 1.898     318     0.4860 80.20 58.44   0.000 0.000 9.210 7.442 1.768 9.699 7.612 2.083
WS7MET_125 2018-04-18 13:20:00 125 30483.0 7.470 8.340 8.800 8.290 5.592 71.090 67.260 2.548 2.524 230.10 104.30 1.229 1.604 2.297 2.760 14.090 7.868 9.210 9.770 8.790 6.472 3.509 3.614 510.00 233.50 1.0190   6.844 6.901 7.292 7.390 4.185 1.092 0.965     318     0.4490 167.10 81.20   0.000 0.000 10.346 7.338 2.991 10.941 7.325 3.582
WS7MET_125 2018-04-18 13:15:00 125 30483.0 7.757 9.110 9.800 9.470 6.227 74.210 65.510 3.453 3.336 957.00 497.90 1.227 1.603 2.296 2.761 14.080 7.936 9.550 10.220 9.680 6.453 4.119 3.995 1113.00 579.80 1.1760   7.561 8.910 9.540 8.930 5.888 2.363 1.781     318     0.4800 175.20 57.26   0.000 0.000 10.551 7.824 2.721 11.849 7.760 4.087
WS7MET_125 2018-04-18 13:10:00 125 30483.0 6.958 8.760 9.610 8.860 6.995 70.700 62.240 2.009 2.041 1076.00 562.00 1.231 1.606 2.299 2.761 14.090 7.629 9.550 10.300 9.570 7.313 2.955 3.281 1105.00 575.70 1.1370   6.059 7.745 8.490 8.140 6.453 0.945 1.074     318     0.4420 106.40 69.61   0.000 0.000 9.989 7.061 2.927 11.372 7.077 4.294
WS7MET_125 2018-04-18 13:05:00 125 30483.0 5.142 6.097 6.945 7.122 5.593 80.500 68.430 1.995 1.652 1108.00 573.60 1.231 1.607 2.297 2.762 14.110 5.991 7.538 8.270 8.040 6.473 3.228 3.107 1152.00 601.30 1.0710   4.456 5.095 5.919 6.128 4.843 0.548 0.485     318     0.3500 239.40 86.30   0.000 0.000 8.809 7.054 1.718 10.102 6.882 3.189
WS7MET_125 2018-04-18 13:00:00 125 30483.0 4.536 4.959 5.759 6.095 4.494 87.800 78.120 2.686 2.567 377.30 187.60 1.232 1.608 2.300 2.762 14.120 4.729 5.096 5.959 6.332 5.037 2.828 3.283 1107.00 581.10 0.8620   4.353 4.728 5.550 5.957 4.265 2.073 1.469     318     0.3060 238.50 21.83   0.000 0.000 8.444 7.410 1.030 9.412 7.348 2.059
WS7MET_125 2018-04-18 12:55:00 125 30483.0 5.123 5.709 6.395 6.728 4.712 84.000 76.190 2.640 2.826 459.20 227.60 1.233 1.609 2.301 2.763 14.130 5.377 6.067 6.661 7.015 5.581 2.910 3.409 1107.00 570.40 0.5550   4.763 5.125 5.978 6.366 4.120 1.665 1.343     318     0.1340 240.40 35.76   0.000 0.000 8.798 7.386 1.408 9.832 7.484 2.341
WS7MET_125 2018-04-18 12:50:00 125 30483.0 4.594 4.933 5.552 5.853 4.522 86.600 78.510 2.555 2.395 634.70 328.60 1.234 1.610 2.302 2.764 14.120 4.899 5.562 6.174 6.401 5.213 2.845 2.980 1141.00 593.20 0.2290   4.456 4.653 5.253 5.650 4.103 2.358 0.373     318     0.0700 264.10 29.38   0.000 0.000 8.479 7.341 1.136 9.256 7.258 1.989
WS7MET_125 2018-04-18 12:45:00 125 30483.0 5.329 5.679 6.305 6.329 4.661 82.500 75.070 2.599 2.224 154.20 68.19 1.234 1.611 2.303 2.765 14.120 6.025 6.498 6.976 6.708 5.196 2.997 3.252 171.80 79.19 0.7580   4.763 5.050 5.728 5.889 4.316 2.259 0.273     318     0.3970 253.00 21.48   0.000 0.000 8.925 7.364 1.562 9.566 7.170 2.385
WS7MET_125 2018-04-18 12:40:00 125 30483.0 6.341 6.915 7.229 6.919 5.077 79.970 75.510 3.140 2.874 531.50 275.60 1.230 1.611 2.304 2.766 14.120 6.605 7.182 7.476 7.185 5.584 3.599 3.778 1030.00 538.30 1.2220   6.025 6.595 7.035 6.537 4.809 1.757 0.890     318     0.4570 237.30 55.09   0.000 0.000 9.574 7.653 1.918 9.962 7.510 2.440
WS7MET_125 2018-04-18 12:35:00 125 30483.0 6.624 7.243 7.715 6.768 4.833 80.600 78.690 3.525 3.326 268.30 132.00 1.231 1.612 2.304 2.766 14.120 6.810 7.564 8.160 7.254 5.100 3.754 3.782 660.40 335.60 0.9600   6.298 6.791 7.172 6.537 4.694 2.855 2.540     318     0.4240 174.80 49.93   0.000 0.000 9.762 7.864 1.894 9.860 7.754 2.101
WS7MET_125 2018-04-18 12:30:00 125 30483.0 6.630 7.608 8.080 7.684 5.238 79.840 73.050 3.400 3.163 623.50 320.00 1.228 1.610 2.304 2.766 14.140 6.845 7.771 8.230 7.903 5.643 3.877 3.564 936.00 491.30 0.9670   6.504 7.417 7.928 7.425 4.829 2.587 2.394     318     0.4990 182.80 56.80   0.000 0.000 9.766 7.795 1.969 10.498 7.665 2.829
WS7MET_125 2018-04-18 12:25:00 125 30483.0 6.741 7.720 8.050 7.639 5.269 78.120 73.500 3.201 3.210 907.00 476.60 1.228 1.610 2.305 2.766 14.150 6.948 8.090 8.420 7.903 5.701 3.638 3.861 936.00 488.60 0.7910   6.573 7.388 7.584 7.357 5.042 2.233 2.364     318     0.3350 108.00 84.30   0.000 0.000 9.841 7.686 2.153 10.466 7.691 2.774
WS7MET_125 2018-04-18 12:20:00 125 30483.0 6.378 7.561 7.843 7.294 5.624 72.810 67.860 1.853 1.751 819.00 428.60 1.228 1.607 2.304 2.767 14.150 6.574 7.810 8.120 7.461 5.837 2.835 2.664 885.00 464.40 1.2150   6.131 7.261 7.506 7.154 5.353 1.130 1.071     318     0.7310 233.90 67.90   0.000 0.000 9.598 6.982 2.610 10.222 6.931 3.285
WS7MET_125 2018-04-18 12:15:00 125 30483.0 5.973 7.352 7.764 6.800 5.183 80.300 76.660 2.841 2.988 734.50 382.90 1.228 1.608 2.305 2.767 14.180 6.199 7.713 8.030 7.120 5.683 3.511 3.580 765.10 400.00 1.1830   5.553 6.968 7.488 6.575 4.637 2.036 2.275     318     0.5300 183.50 32.52   0.000 0.000 9.333 7.492 1.839 9.881 7.571 2.306
WS7MET_125 2018-04-18 12:10:00 125 30483.0 5.374 6.440 6.874 6.408 5.021 81.000 76.130 2.380 2.513 740.90 386.10 1.230 1.612 2.306 2.768 14.180 5.621 6.910 7.399 6.781 5.547 3.184 3.622 762.50 398.70 1.1110   5.041 5.762 6.267 5.894 4.676 1.666 1.598     318     0.3630 135.50 49.94   0.000 0.000 8.953 7.250 1.701 9.618 7.319 2.296
WS7MET_125 2018-04-18 12:05:00 125 30483.0 4.912 5.747 6.242 5.816 4.457 82.800 78.860 2.236 2.426 438.50 218.30 1.230 1.613 2.307 2.769 14.180 5.007 5.840 6.317 5.963 4.851 2.941 3.719 675.20 350.40 1.5810   4.836 5.607 6.141 5.690 3.867 1.481 1.674     318     0.6410 173.50 69.50   0.000 0.000 8.669 7.176 1.491 9.232 7.274 1.952
WS7MET_125 2018-04-18 12:00:00 125 30483.0 5.084 6.161 6.583 5.998 4.182 87.800 83.000 3.230 3.326 512.00 256.10 1.232 1.615 2.308 2.770 14.180 5.214 6.288 6.757 6.169 4.756 3.614 3.707 664.50 338.30 1.2280   4.906 5.899 6.298 5.828 3.694 2.926 2.653     318     0.5600 197.20 95.20   0.000 0.000 8.774 7.702 1.070 9.349 7.754 1.589
WS7MET_125 2018-04-18 11:55:00 125 30483.0 4.596 5.624 6.421 5.677 3.839 92.700 86.300 3.524 3.575 584.90 293.00 1.232 1.615 2.309 2.771 14.200 4.975 6.123 6.864 5.862 4.061 3.781 4.001 660.50 334.30 0.7060   4.327 5.144 5.968 5.521 3.580 3.276 3.228     318     0.3730 156.70 45.70   0.000 0.000 8.480 7.864 0.619 9.144 7.892 1.253
WS7MET_125 2018-04-18 11:50:00 125 30483.0 4.288 5.064 5.792 5.656 4.067 92.400 86.600 3.164 3.606 409.60 199.70 1.232 1.616 2.309 2.771 14.210 4.395 5.202 5.968 5.794 4.429 3.318 3.895 575.90 288.60 0.4770   4.156 4.970 5.648 5.521 3.792 3.003 3.402     318     0.1450 218.50 40.53   0.000 0.000 8.299 7.666 0.631 9.130 7.909 1.223
WS7MET_125 2018-04-18 11:45:00 125 30483.0 4.124 4.698 5.475 5.427 3.670 91.200 87.000 2.827 3.437 444.00 219.80 1.232 1.613 2.309 2.771 14.210 4.259 4.931 5.697 5.555 4.014 3.055 3.726 483.30 241.60 1.2670   3.986 4.573 5.318 5.351 3.368 2.632 3.235     318     0.3840 83.00 15.30   0.000 0.000 8.203 7.485 0.722 8.986 7.816 1.168
WS7MET_125 2018-04-18 11:40:00 125 30483.0 4.481 4.980 5.579 5.424 3.603 88.400 86.000 2.733 3.271 487.60 242.10 1.232 1.610 2.309 2.771 14.210 4.702 5.435 5.706 5.590 4.033 2.928 3.470 507.50 252.40 0.7250   4.225 4.564 5.396 5.180 3.358 2.573 2.803     318     0.1590 44.58 56.46   0.000 0.000 8.412 7.435 0.976 8.984 7.724 1.258
WS7MET_125 2018-04-18 11:35:00 125 30483.0 4.522 5.259 5.501 5.105 4.138 90.300 85.800 3.065 2.926 445.10 218.40 1.232 1.612 2.309 2.771 14.210 4.702 5.493 5.697 5.214 4.361 3.341 3.562 468.50 230.90 1.1110   4.361 4.931 5.231 4.976 3.869 2.760 2.519     318     0.3630 191.50 80.20   0.000 0.000 8.436 7.612 0.818 8.787 7.538 1.248
WS7MET_125 2018-04-18 11:30:00 125 30483.0 4.411 4.936 5.161 4.803 3.889 89.600 87.500 2.862 2.900 407.60 198.70 1.232 1.611 2.309 2.771 14.210 4.566 5.047 5.241 5.010 4.100 3.051 3.379 414.80 202.70 1.4630   4.259 4.834 5.076 4.669 3.686 2.724 2.592     318     0.6710 262.50 26.30   0.000 0.000 8.370 7.503 0.871 8.603 7.524 1.075
WS7MET_125 2018-04-18 11:25:00 125 30483.0 4.212 4.874 5.098 4.761 3.775 91.700 88.400 2.990 3.009 385.40 186.30 1.232 1.614 2.309 2.771 14.220 4.430 5.047 5.289 4.908 3.879 3.253 3.208 402.70 194.70 1.4900   4.089 4.709 4.960 4.703 3.628 2.810 2.810     318     0.7460 224.10 45.71   0.000 0.000 8.254 7.572 0.685 8.578 7.582 0.995
WS7MET_125 2018-04-18 11:20:00 125 30483.0 4.309 5.040 5.380 4.910 3.893 91.300 87.400 3.022 2.991 343.70 163.70 1.232 1.614 2.309 2.771 14.240 4.431 5.318 5.638 5.113 4.043 3.246 3.147 414.80 201.40 1.3920   4.157 4.757 5.096 4.635 3.686 2.787 2.728     318     0.5900 202.90 51.14   0.000 0.000 8.311 7.589 0.723 8.668 7.572 1.092
WS7MET_125 2018-04-18 11:15:00 125 30483.0 4.026 4.518 4.899 4.495 3.634 91.100 88.100 2.709 2.707 371.00 177.10 1.232 1.612 2.309 2.771 14.240 4.158 4.738 5.125 4.669 3.869 2.847 2.982 418.90 202.70 0.6860   3.918 4.332 4.718 4.328 3.243 2.578 2.488     318     0.2680 252.20 69.48   0.000 0.000 8.147 7.422 0.725 8.420 7.421 1.002
WS7MET_125 2018-04-18 11:10:00 125 30483.0 4.054 4.520 4.828 4.513 3.385 90.200 87.500 2.601 2.614 355.20 168.20 1.232 1.610 2.309 2.771 14.490 4.124 4.815 5.105 4.874 3.695 2.834 3.180 398.70 193.30 1.2410   3.919 4.313 4.660 4.294 3.118 2.392 2.286     318     0.3970 221.80 50.22   0.000 0.000 8.163 7.365 0.800 8.431 7.372 1.054
WS7MET_125 2018-04-18 11:05:00 125 30483.0 4.125 4.952 5.230 4.767 3.807 89.100 85.400 2.493 2.533 408.70 195.60 1.232 1.607 2.309 2.770 14.960 4.294 5.086 5.435 4.874 3.956 2.798 3.115 479.30 233.60 0.8620   4.021 4.776 5.105 4.669 3.618 2.000 1.906     318     0.3350 278.10 30.26   0.000 0.000 8.204 7.309 0.894 8.582 7.330 1.253
WS7MET_125 2018-04-18 11:00:00 125 30483.0 3.925 4.871 5.207 4.749 3.571 91.900 87.300 2.739 2.830 424.00 203.50 1.232 1.607 2.309 2.769 14.970 4.055 4.970 5.289 4.840 3.744 3.030 3.178 456.40 221.50 0.7840   3.816 4.757 5.125 4.703 3.406 2.479 2.493     318     0.2440 289.40 51.90   0.000 0.000 8.089 7.438 0.655 8.571 7.486 1.089
WS7MET_125 2018-04-18 10:55:00 125 30483.0 3.585 4.666 5.049 4.626 3.337 94.400 87.200 2.770 2.690 447.70 214.80 1.232 1.607 2.309 2.769 14.980 3.816 4.796 5.125 4.771 3.541 3.005 3.206 463.20 222.90 0.5620   3.372 4.448 4.892 4.430 3.069 2.580 2.302     318     0.1110 329.40 42.35   0.000 0.000 7.898 7.455 0.442 8.498 7.412 1.088
WS7MET_125 2018-04-18 10:50:00 125 30483.0 3.128 4.178 4.664 4.253 3.074 98.000 90.000 2.849 2.754 401.70 190.80 1.232 1.608 2.309 2.769 14.990 3.270 4.390 4.854 4.431 3.329 2.983 3.233 417.50 198.70 0.8820   2.963 3.859 4.429 4.055 2.906 2.775 2.420     318     0.2940 251.30 42.34   0.000 0.000 7.646 7.497 0.153 8.278 7.446 0.828
WS7MET_125 2018-04-18 10:45:00 125 30483.0 2.680 3.312 3.881 3.763 2.891 98.300 93.700 2.438 2.846 381.60 180.40 1.232 1.609 2.309 2.771 14.980 2.963 3.792 4.371 4.089 3.214 2.881 3.323 417.50 198.70 0.4380   2.520 3.098 3.638 3.578 2.559 2.185 2.487     318     0.0680 238.20 37.61   0.000 0.000 7.407 7.280 0.126 7.998 7.495 0.504
WS7MET_125 2018-04-18 10:40:00 125 30483.0 2.503 3.012 3.500 3.417 2.647 98.000 93.600 2.223 2.491 320.20 149.90 1.232 1.608 2.309 2.769 14.990 2.690 3.118 3.676 3.611 2.887 2.477 2.622 331.60 155.70 0.1890   2.384 2.752 3.195 3.237 2.338 2.069 2.342     318     0.0120 198.70 0.43   0.000 0.000 7.314 7.170 0.146 7.805 7.308 0.499
WS7MET_125 2018-04-18 10:35:00 125 30483.0 2.341 2.722 3.136 3.222 2.238 97.500 93.600 1.981 2.298 289.70 135.00 1.232 1.610 2.309 2.770 14.990 2.418 2.771 3.175 3.305 2.329 2.098 2.463 318.20 149.00 0.3460   2.281 2.675 3.098 3.169 2.155 1.883 2.161     318     0.0490 305.60 14.73   0.000 0.000 7.230 7.047 0.181 7.698 7.208 0.493
WS7MET_125 2018-04-18 10:30:00 125 30483.0 2.412 2.877 3.332 3.402 2.399 96.800 92.000 1.958 2.234 233.90 116.90 1.232 1.613 2.311 2.769 14.990 2.519 3.002 3.522 3.543 2.559 2.085 2.384 263.10 124.90 0.5620   2.316 2.781 3.195 3.271 2.300 1.883 2.088     318     0.3250 268.10 15.03   0.000 0.000 7.267 7.035 0.233 7.796 7.175 0.624
WS7MET_125 2018-04-18 10:25:00 125 30483.0 2.505 3.022 3.546 3.502 2.527 96.800 92.200 2.046 2.366 207.60 112.60 1.232 1.613 2.310 2.768 14.980 2.554 3.041 3.580 3.611 2.627 2.179 2.535 216.10 115.50 0.4380   2.451 2.983 3.522 3.406 2.444 1.894 2.171     318     0.1080 251.80 12.92   0.000 0.000 7.315 7.079 0.234 7.852 7.243 0.612
WS7MET_125 2018-04-18 10:20:00 125 30483.0 2.527 3.071 3.506 3.317 2.625 96.600 90.900 2.037 1.977 194.90 115.90 1.232 1.613 2.310 2.768 14.980 2.656 3.195 3.599 3.475 2.752 2.227 2.228 198.70 118.10 0.4380   2.418 2.887 3.329 3.101 2.444 1.891 1.747     318     0.1670 256.30 18.48   0.000 0.000 7.327 7.075 0.249 7.749 7.045 0.705
WS7MET_125 2018-04-18 10:15:00 125 30483.0 2.544 2.976 3.315 3.095 2.486 94.100 89.800 1.695 1.583 166.60 103.70 1.232 1.617 2.312 2.766 14.980 2.657 3.118 3.368 3.202 2.559 1.885 1.836 182.60 112.80 0.6860   2.383 2.858 3.233 2.999 2.415 1.588 1.351     318     0.4310 243.20 8.61   0.000 0.000 7.336 6.904 0.433 7.629 6.848 0.778
WS7MET_125 2018-04-18 10:10:00 125 30483.0 2.512 3.076 3.390 2.993 2.596 91.200 87.500 1.230 1.123 149.10 95.30 1.232 1.617 2.311 2.768 14.980 2.691 3.156 3.464 3.101 2.713 1.633 1.595 154.40 98.00 0.6790   2.384 2.925 3.252 2.828 2.473 0.940 0.842     318     0.2370 205.30 18.85   0.000 0.000 7.319 6.677 0.644 7.574 6.625 0.947
WS7MET_125 2018-04-18 10:05:00 125 30483.0 2.391 2.861 3.182 2.981 2.413 94.200 90.400 1.561 1.568 148.00 96.20 1.232 1.617 2.313 2.769 14.990 2.486 2.916 3.243 3.067 2.579 1.762 1.876 155.70 99.30 0.6730   2.282 2.810 3.137 2.896 2.232 1.252 1.106     318     0.2070 38.00 46.50   0.000 0.000 7.256 6.838 0.421 7.567 6.841 0.726
WS7MET_125 2018-04-18 10:00:00 125 30483.0 2.223 2.670 3.117 3.116 2.233 96.500 92.100 1.724 1.962 128.50 85.70 1.232 1.619 2.314 2.767 14.990 2.316 2.810 3.156 3.205 2.540 1.974 2.410 135.60 88.60 0.6660   2.146 2.579 3.079 2.965 2.040 1.282 1.207     318     0.2760 59.41 82.50   0.000 0.000 7.170 6.918 0.251 7.640 7.037 0.604
WS7MET_125 2018-04-18 09:55:00 125 30483.0 2.357 2.816 3.287 3.211 2.159 96.700 94.200 1.881 2.373 112.00 75.18 1.232 1.620 2.317 2.767 14.980 2.454 2.935 3.378 3.273 2.348 2.022 2.502 118.10 79.21 0.0000   2.215 2.579 3.079 3.102 1.982 1.709 2.222     318     0.0000 0.00 0.00   0.000 0.000 7.238 6.996 0.239 7.692 7.247 0.446
WS7MET_125 2018-04-18 09:50:00 125 30483.0 2.528 3.020 3.392 3.220 2.462 96.300 92.100 2.000 2.069 125.00 84.80 1.232 1.620 2.317 2.765 14.990 2.626 3.157 3.523 3.308 2.839 2.134 2.294 127.50 87.30 0.4250   2.386 2.926 3.330 3.102 2.252 1.850 1.598     318     0.1100 267.20 8.08   0.000 0.000 7.327 7.056 0.271 7.696 7.091 0.608
WS7MET_125 2018-04-18 09:45:00 125 30483.0 2.571 3.058 3.520 3.364 2.610 96.700 92.700 2.098 2.303 128.70 87.70 1.233 1.622 2.319 2.765 14.990 2.694 3.167 3.697 3.479 2.801 2.266 2.524 130.20 88.60 0.3850   2.455 2.945 3.388 3.206 2.483 1.909 1.586     318     0.1860 314.30 46.04   0.000 0.000 7.350 7.106 0.243 7.775 7.211 0.568
WS7MET_125 2018-04-18 09:40:00 125 30483.0 2.713 3.330 3.803 3.419 2.563 97.300 93.600 2.324 2.483 126.10 86.00 1.233 1.623 2.320 2.766 14.990 2.830 3.408 3.852 3.548 2.658 2.476 2.604 128.90 88.60 0.1310   2.660 3.157 3.716 3.274 2.378 2.153 2.310     318     0.0070 267.90 0.00   0.000 0.000 7.424 7.221 0.200 7.806 7.304 0.500
WS7MET_125 2018-04-18 09:35:00 125 30483.0 2.630 3.173 3.724 3.415 2.458 97.600 94.300 2.292 2.585 118.70 83.60 1.234 1.623 2.319 2.764 14.990 2.728 3.264 3.776 3.513 2.638 2.380 2.757 122.20 84.60 0.4120   2.592 3.139 3.659 3.309 2.283 2.229 2.370     318     0.1350 92.60 10.21   0.000 0.000 7.381 7.205 0.177 7.803 7.357 0.445
WS7MET_125 2018-04-18 09:30:00 125 30483.0 2.661 3.287 3.845 3.349 2.316 98.200 94.500 2.409 2.558 106.90 76.33 1.235 1.623 2.322 2.768 14.980 2.798 3.401 3.969 3.514 2.448 2.610 2.753 115.50 81.90 0.2870   2.525 3.178 3.758 3.242 2.236 2.211 2.405     318     0.0690 140.60 1.51   0.000 0.000 7.397 7.265 0.133 7.767 7.343 0.427
WS7MET_125 2018-04-18 09:25:00 125 30483.0 2.559 3.217 3.801 3.481 2.384 96.500 93.500 2.068 2.539 101.80 73.44 1.236 1.625 2.322 2.768 14.980 2.696 3.335 3.875 3.584 2.458 2.195 2.621 108.80 79.22 0.3010   2.457 3.161 3.758 3.344 2.285 1.956 2.462     318     0.0790 129.90 2.02   0.000 0.000 7.343 7.091 0.257 7.840 7.333 0.510
WS7MET_125 2018-04-18 09:20:00 125 30483.0 2.840 3.680 4.102 3.544 2.461 97.000 92.600 2.418 2.455 116.90 85.30 1.238 1.625 2.321 2.768 14.980 2.969 3.953 4.320 3.618 2.575 2.748 2.672 120.80 87.30 0.2680   2.628 3.355 3.875 3.481 2.344 2.053 2.218     318     0.0290 189.80 8.05   0.000 0.000 7.492 7.270 0.225 7.875 7.289 0.583
WS7MET_125 2018-04-18 09:15:00 125 30483.0 2.771 3.654 4.032 3.462 2.381 98.000 93.900 2.485 2.574 118.10 86.90 1.239 1.628 2.324 2.769 14.980 2.901 3.838 4.204 3.515 2.576 2.661 2.643 119.50 87.30 0.3790   2.662 3.511 3.878 3.413 2.202 2.314 2.510     318     0.1320 151.30 0.97   0.000 0.000 7.455 7.305 0.149 7.829 7.351 0.478
WS7MET_125 2018-04-18 09:10:00 125 30483.0 2.763 3.544 3.903 3.601 2.356 98.400 94.200 2.532 2.758 112.50 84.30 1.240 1.630 2.328 2.770 14.990 2.901 3.667 4.072 3.686 2.501 2.773 2.911 114.10 85.90 0.3850   2.594 3.454 3.782 3.515 2.231 2.276 2.597     318     0.0860 189.30 15.68   0.000 0.000 7.451 7.329 0.119 7.907 7.448 0.459
WS7MET_125 2018-04-18 09:05:00 125 30483.0 2.776 3.576 3.958 3.601 2.477 98.700 95.000 2.597 2.874 113.30 83.30 1.241 1.635 2.329 2.771 14.990 2.833 3.628 4.014 3.686 2.608 2.719 2.968 114.10 83.30 0.3070   2.696 3.513 3.898 3.515 2.309 2.456 2.784     318     0.0670 165.10 16.25   0.000 0.000 7.458 7.363 0.097 7.907 7.510 0.395
WS7MET_125 2018-04-18 09:00:00 125 30483.0 2.698 3.457 3.855 3.449 2.470 99.200 95.100 2.587 2.747 108.10 81.90 1.242 1.634 2.329 2.772 14.990 2.799 3.581 3.976 3.584 2.541 2.685 2.954 111.50 81.90 0.1700   2.594 3.311 3.707 3.345 2.348 2.490 2.580     318     0.0260 99.80 7.34   0.000 0.000 7.416 7.358 0.059 7.822 7.442 0.383
WS7MET_125 2018-04-18 08:55:00 125 30483.0 2.608 3.271 3.702 3.393 2.423 99.400 95.200 2.527 2.704 106.70 81.80 1.242 1.636 2.330 2.773 14.990 2.696 3.321 3.755 3.447 2.484 2.616 2.785 107.40 83.30 0.4700   2.526 3.196 3.630 3.311 2.272 2.446 2.570     318     0.1070 254.20 54.05   0.000 0.000 7.369 7.327 0.044 7.791 7.420 0.374
WS7MET_125 2018-04-18 08:50:00 125 30483.0 2.551 3.163 3.609 3.254 2.202 99.500 96.200 2.482 2.704 100.20 78.56 1.243 1.636 2.330 2.773 14.990 2.628 3.206 3.649 3.379 2.321 2.562 2.827 102.10 80.60 0.3070   2.491 3.129 3.563 3.072 2.051 2.416 2.485     318     0.0460 133.70 8.00   0.000 0.000 7.339 7.303 0.037 7.715 7.420 0.293
WS7MET_125 2018-04-18 08:45:00 125 30483.0 2.669 3.380 3.729 3.201 2.300 100.000 96.500 2.667 2.699 99.20 78.29 1.243 1.636 2.330 2.773 14.980 2.765 3.534 3.842 3.276 2.677 2.767 2.843 103.40 81.90 0.4570   2.594 3.206 3.611 3.106 1.926 2.552 2.524     318     0.0840 103.50 10.99   0.000 0.000 7.401 7.400 0.000 7.686 7.417 0.269
WS7MET_125 2018-04-18 08:40:00 125 30483.0 2.346 3.212 3.596 3.130 2.516 100.000 96.500 2.348 2.633 109.00 85.00 1.243 1.636 2.330 2.773 14.990 2.560 3.399 3.707 3.242 2.667 2.562 2.774 114.20 87.30 0.4700   2.116 2.975 3.418 3.038 2.359 2.118 2.525     318     0.1720 113.60 16.61   0.000 0.000 7.233 7.234 0.000 7.648 7.382 0.268
WS7MET_125 2018-04-18 08:35:00 125 30483.0 2.050 2.753 3.203 2.983 2.150 100.000 97.200 2.051 2.586 111.50 87.30 1.243 1.635 2.330 2.773 14.990 2.116 2.937 3.389 3.140 2.398 2.118 2.683 114.20 87.30 0.3140   1.945 2.677 3.100 2.833 1.849 1.947 2.465     318     0.0550 137.60 15.60   0.000 0.000 7.081 7.082 0.000 7.568 7.358 0.212
WS7MET_125 2018-04-18 08:30:00 125 30483.0 1.918 2.516 2.962 2.812 2.049 100.000 97.400 1.919 2.438 105.00 83.10 1.243 1.635 2.330 2.773 14.990 2.048 2.686 3.072 2.867 2.273 2.049 2.494 111.50 87.30 0.3790   1.809 2.417 2.879 2.730 1.791 1.810 2.323     318     0.1500 208.10 50.54   0.000 0.000 7.015 7.015 0.000 7.477 7.280 0.194
WS7MET_125 2018-04-18 08:25:00 125 30483.0 1.848 2.396 2.863 2.676 1.931 100.000 97.600 1.849 2.335 100.90 79.84 1.243 1.636 2.330 2.773 14.990 1.945 2.475 2.956 2.765 2.215 1.947 2.416 103.40 80.60 0.2090   1.741 2.330 2.821 2.594 1.763 1.742 2.231     318     0.0100 94.00 0.00   0.000 0.000 6.980 6.980 0.000 7.405 7.227 0.178
WS7MET_125 2018-04-18 08:20:00 125 30483.0 1.706 2.238 2.638 2.485 1.991 100.000 97.900 1.708 2.184 98.80 77.82 1.243 1.636 2.330 2.773 14.970 1.945 2.475 2.821 2.594 2.311 1.947 2.295 100.70 79.23 0.6010   1.536 2.071 2.523 2.389 1.599 1.537 2.081     318     0.2390 92.60 29.80   0.000 0.000 6.909 6.910 0.000 7.305 7.150 0.153
WS7MET_125 2018-04-18 08:15:00 125 30483.0 1.701 2.240 2.669 2.558 1.662 100.000 98.300 1.703 2.322 95.20 74.40 1.243 1.637 2.330 2.773 14.920 1.843 2.398 2.783 2.696 1.907 1.844 2.510 98.00 75.21 0.5230   1.570 2.109 2.552 2.457 1.522 1.571 2.154     318     0.1790 41.29 11.36   0.000 0.000 6.907 6.908 0.000 7.343 7.220 0.125
WS7MET_125 2018-04-18 08:10:00 125 30483.0 1.795 2.383 2.708 2.531 1.814 100.000 99.000 1.796 2.398 97.70 74.80 1.243 1.637 2.330 2.772 14.870 1.911 2.417 2.763 2.628 1.994 1.913 2.528 100.70 75.21 0.6140   1.672 2.340 2.667 2.457 1.609 1.674 2.310     318     0.1120 270.70 50.47   0.000 0.000 6.953 6.954 -0.000 7.329 7.260 0.073
WS7MET_125 2018-04-18 08:05:00 125 30483.0 1.776 2.323 2.599 2.375 1.934 100.000 99.600 1.778 2.323 94.00 71.85 1.243 1.637 2.330 2.773 14.780 1.877 2.398 2.706 2.526 2.003 1.878 2.470 96.70 73.86 0.3460   1.604 2.148 2.427 2.184 1.849 1.605 2.128     318     0.0270 153.70 19.50   0.000 0.000 6.944 6.945 0.000 7.248 7.221 0.029
WS7MET_125 2018-04-18 08:00:00 125 30483.0 1.447 1.979 2.303 2.159 1.813 100.000 99.600 1.448 2.109 87.70 67.82 1.243 1.637 2.330 2.770 14.650 1.672 2.128 2.417 2.253 1.965 1.674 2.206 91.30 69.83 0.8230   1.331 1.878 2.244 2.048 1.657 1.332 2.016     318     0.2860 77.63 7.26   0.000 0.000 6.782 6.782 -0.000 7.137 7.111 0.029
WS7MET_125 2018-04-18 07:55:00 125 30483.0 1.258 1.740 2.137 2.050 1.607 100.000 100.000 1.259 2.044 83.10 62.31 1.243 1.637 2.330 2.770 14.470 1.331 1.859 2.225 2.116 1.801 1.332 2.118 84.60 64.46 0.3790   1.160 1.705 2.090 1.980 1.387 1.161 1.957     318     0.1250 54.59 49.79   0.000 0.000 6.690 6.691 0.000 7.081 7.078 0.000
WS7MET_125 2018-04-18 07:50:00 125 30483.0 1.150 1.643 2.043 1.947 1.638 100.000 100.000 1.151 1.948 73.86 58.08 1.243 1.637 2.330 2.768 14.180 1.229 1.705 2.109 2.048 1.830 1.230 2.049 80.60 60.43 0.2680   1.092 1.551 1.974 1.843 1.503 1.093 1.844     318     0.0160 241.20 1.93   0.000 0.000 6.638 6.639 0.000 7.029 7.030 0.000
WS7MET_125 2018-04-18 07:45:00 125 30483.0 1.084 1.512 1.927 1.840 1.445 100.000 100.000 1.084 1.841 64.73 52.24 1.243 1.637 2.330 2.766 13.850 1.195 1.532 1.955 1.911 1.541 1.195 1.913 68.49 55.06 0.0000   1.024 1.493 1.878 1.741 1.368 1.025 1.742     318     0.0000 0.00 0.00   0.000 0.000 6.607 6.607 0.000 6.976 6.976 0.000
WS7MET_125 2018-04-18 07:40:00 125 30483.0 0.990 1.426 1.778 1.693 1.292 100.000 100.000 0.990 1.694 61.44 49.76 1.243 1.637 2.331 2.765 13.700 1.058 1.483 1.859 1.809 1.426 1.059 1.810 63.12 51.03 0.0000   0.922 1.397 1.734 1.604 1.214 0.922 1.605     318     0.0000 0.00 0.00   0.000 0.000 6.562 6.562 0.000 6.903 6.903 0.000
WS7MET_125 2018-04-18 07:35:00 125 30483.0 0.945 1.374 1.705 1.567 1.272 100.000 100.000 0.946 1.568 60.16 49.35 1.243 1.637 2.333 2.766 13.610 1.024 1.455 1.782 1.672 1.455 1.025 1.674 60.43 49.69 0.0000   0.853 1.281 1.628 1.433 1.079 0.854 1.434     318     0.0000 0.00 0.00   0.000 0.000 6.541 6.541 0.000 6.840 6.841 0.000
WS7MET_125 2018-04-18 07:30:00 125 30483.0 0.867 1.250 1.562 1.394 1.070 100.000 100.000 0.867 1.395 58.69 49.35 1.243 1.637 2.335 2.764 13.540 0.956 1.301 1.628 1.536 1.243 0.956 1.537 59.09 49.69 0.0000   0.785 1.185 1.474 1.263 0.925 0.786 1.264     318     0.0000 0.00 0.00   0.000 0.000 6.504 6.504 -0.000 6.756 6.756 0.000
WS7MET_125 2018-04-18 07:25:00 125 30483.0 0.834 1.185 1.437 1.265 0.909 100.000 100.000 0.835 1.265 54.59 46.47 1.244 1.637 2.336 2.765 13.470 0.887 1.195 1.455 1.331 0.935 0.888 1.332 56.40 48.35 0.0000   0.751 1.175 1.406 1.126 0.838 0.751 1.127     318     0.0000 0.00 0.00   0.000 0.000 6.489 6.489 0.000 6.693 6.693 0.000
WS7MET_125 2018-04-18 07:20:00 125 30483.0 0.823 1.190 1.408 1.227 0.894 100.000 100.000 0.823 1.228 53.11 46.33 1.244 1.637 2.338 2.764 13.400 0.922 1.204 1.435 1.331 1.012 0.922 1.332 53.72 47.00 0.2550   0.751 1.166 1.378 1.126 0.809 0.751 1.127     318     0.0150 32.20 7.77   0.000 0.000 6.483 6.483 0.000 6.675 6.676 0.000
WS7MET_125 2018-04-18 07:15:00 125 30483.0 0.732 1.078 1.285 1.072 0.821 100.000 100.000 0.733 1.072 48.21 42.24 1.246 1.637 2.340 2.763 13.330 0.853 1.166 1.358 1.195 0.973 0.854 1.195 51.03 44.32 0.0000   0.648 1.031 1.233 0.990 0.761 0.649 0.990     318     0.0000 0.00 0.00   0.000 0.000 6.441 6.441 0.000 6.601 6.601 0.000
WS7MET_125 2018-04-18 07:10:00 125 30483.0 0.628 0.945 1.157 0.945 0.735 100.000 100.000 0.628 0.946 41.30 36.19 1.248 1.637 2.340 2.763 13.270 0.683 1.031 1.223 1.024 0.790 0.683 1.025 44.32 38.95 0.0000   0.614 0.877 1.089 0.853 0.665 0.615 0.854     318     0.0000 0.00 0.00   0.000 0.000 6.393 6.393 0.000 6.541 6.541 0.000
WS7MET_125 2018-04-18 07:05:00 125 30483.0 0.572 0.860 1.063 0.869 0.675 100.000 100.000 0.572 0.869 36.33 31.83 1.250 1.637 2.340 2.763 13.220 0.648 0.877 1.089 0.922 0.703 0.649 0.922 38.95 33.57 0.0000   0.512 0.829 1.012 0.819 0.655 0.512 0.820     318     0.0000 0.00 0.00   0.000 0.000 6.367 6.367 0.000 6.505 6.505 0.000
WS7MET_125 2018-04-18 07:00:00 125 30483.0 0.534 0.793 0.984 0.795 0.691 100.000 100.000 0.534 0.796 31.83 27.66 1.251 1.637 2.340 2.763 13.180 0.580 0.819 1.012 0.853 0.713 0.581 0.854 33.57 29.54 0.0000   0.478 0.771 0.954 0.751 0.665 0.478 0.751     318     0.0000 0.00 0.00   0.000 0.000 6.349 6.349 0.000 6.470 6.471 0.000
WS7MET_125 2018-04-18 06:55:00 125 30483.0 0.493 0.757 0.938 0.754 0.667 100.000 100.000 0.494 0.755 30.89 26.86 1.252 1.637 2.340 2.763 13.140 0.580 0.780 0.963 0.819 0.703 0.581 0.820 30.89 26.86 0.3400   0.410 0.723 0.915 0.683 0.636 0.410 0.683     318     0.0510 343.10 5.20   0.000 0.000 6.330 6.331 0.000 6.451 6.452 0.000
WS7MET_125 2018-04-18 06:50:00 125 30483.0 0.468 0.725 0.898 0.707 0.642 100.000 100.000 0.468 0.707 30.35 26.86 1.252 1.637 2.340 2.763 13.110 0.512 0.742 0.915 0.785 0.665 0.512 0.786 30.89 26.86 0.3140   0.410 0.694 0.867 0.648 0.607 0.410 0.649     318     0.0240 348.50 0.22   0.000 0.000 6.319 6.319 0.000 6.429 6.429 0.000
WS7MET_125 2018-04-18 06:45:00 125 30483.0 0.449 0.686 0.858 0.664 0.588 100.000 100.000 0.449 0.664 29.54 26.86 1.252 1.637 2.340 2.764 13.080 0.546 0.703 0.877 0.751 0.607 0.546 0.751 29.54 26.86 0.2480   0.375 0.665 0.829 0.580 0.568 0.376 0.581     318     0.0870 0.13 10.64   0.000 0.000 6.310 6.310 -0.000 6.409 6.409 0.000
WS7MET_125 2018-04-18 06:40:00 125 30483.0 0.391 0.627 0.785 0.596 0.557 100.000 100.000 0.391 0.596 28.54 25.78 1.253 1.637 2.340 2.763 13.040 0.478 0.665 0.829 0.683 0.568 0.478 0.683 29.54 26.86 0.3990   0.341 0.588 0.742 0.478 0.539 0.342 0.478     318     0.1440 299.50 2.37   0.000 0.000 6.284 6.284 -0.000 6.378 6.378 0.000
WS7MET_125 2018-04-18 06:35:00 125 30483.0 0.370 0.583 0.738 0.546 0.524 100.000 100.000 0.371 0.546 24.04 21.69 1.252 1.637 2.340 2.763 13.010 0.512 0.607 0.761 0.648 0.539 0.512 0.649 26.86 24.17 0.2220   0.273 0.549 0.703 0.478 0.510 0.273 0.478     318     0.0680 332.60 6.96   0.000 0.000 6.274 6.275 0.000 6.355 6.355 0.000
WS7MET_125 2018-04-18 06:30:00 125 30483.0 0.346 0.534 0.680 0.497 0.499 100.000 100.000 0.347 0.497 18.73 16.99 1.252 1.637 2.340 2.763 12.980 0.410 0.549 0.703 0.546 0.510 0.410 0.546 21.49 18.80 0.0000   0.239 0.510 0.655 0.410 0.482 0.239 0.410     318     0.0000 0.00 0.00   0.000 0.000 6.263 6.264 0.000 6.332 6.332 0.000
WS7MET_125 2018-04-18 06:25:00 125 30483.0 0.309 0.499 0.638 0.464 0.459 100.000 100.000 0.309 0.464 14.71 13.43 1.252 1.638 2.340 2.763 12.970 0.341 0.510 0.655 0.546 0.482 0.342 0.546 16.12 14.77 0.0000   0.273 0.472 0.607 0.410 0.443 0.273 0.410     318     0.0000 0.00 0.00   0.000 0.000 6.247 6.247 0.000 6.317 6.317 0.000
WS7MET_125 2018-04-18 06:20:00 125 30483.0 0.278 0.459 0.594 0.408 0.436 100.000 100.000 0.278 0.408 12.56 11.35 1.252 1.638 2.340 2.763 12.950 0.341 0.472 0.607 0.444 0.453 0.342 0.444 13.43 12.09 0.0000   0.171 0.453 0.588 0.341 0.424 0.171 0.342     318     0.0000 0.00 0.00   0.000 0.000 6.232 6.232 -0.000 6.292 6.292 0.000
WS7MET_125 2018-04-18 06:15:00 125 30483.0 0.258 0.432 0.562 0.365 0.413 100.000 100.000 0.258 0.365 10.95 10.14 1.255 1.638 2.340 2.763 12.950 0.375 0.453 0.588 0.444 0.424 0.376 0.444 12.09 10.74 0.0000   0.171 0.414 0.539 0.307 0.404 0.171 0.307     318     0.0000 0.00 0.00   0.000 0.000 6.223 6.223 0.000 6.272 6.272 0.000
WS7MET_125 2018-04-18 06:10:00 125 30483.0 0.220 0.393 0.522 0.338 0.394 100.000 100.000 0.220 0.338 9.53 8.73 1.253 1.640 2.340 2.763 12.940 0.273 0.414 0.539 0.410 0.414 0.273 0.410 10.74 9.40 0.0000   0.137 0.375 0.510 0.307 0.375 0.137 0.307     318     0.0000 0.00 0.00   0.000 0.000 6.206 6.206 0.000 6.260 6.260 0.000
WS7MET_125 2018-04-18 06:05:00 125 30483.0 0.239 0.377 0.511 0.331 0.386 100.000 100.000 0.239 0.331 7.18 6.31 1.254 1.640 2.340 2.763 12.940 0.307 0.395 0.520 0.375 0.404 0.307 0.376 8.06 8.06 0.0000   0.171 0.375 0.510 0.307 0.375 0.171 0.307     318     0.0000 0.00 0.00   0.000 0.000 6.215 6.215 0.000 6.256 6.256 0.000
WS7MET_125 2018-04-18 06:00:00 125 30483.0 0.208 0.376 0.511 0.319 0.411 100.000 100.000 0.208 0.319 4.97 4.50 1.257 1.641 2.340 2.763 12.940 0.273 0.395 0.520 0.410 0.424 0.273 0.410 5.37 5.37 0.2160   0.171 0.356 0.501 0.239 0.395 0.171 0.239     318     0.0690 334.50 0.28   0.000 0.000 6.201 6.201 0.000 6.251 6.251 0.000
WS7MET_125 2018-04-18 05:55:00 125 30483.0 0.167 0.349 0.486 0.297 0.395 100.000 100.000 0.167 0.297 4.03 4.03 1.255 1.644 2.340 2.764 12.940 0.239 0.356 0.491 0.341 0.404 0.239 0.342 4.03 4.03 0.3590   0.102 0.327 0.472 0.273 0.395 0.102 0.273     318     0.2360 333.80 0.36   0.000 0.000 6.182 6.182 0.000 6.241 6.241 0.000
WS7MET_125 2018-04-18 05:50:00 125 30483.0 0.147 0.315 0.454 0.263 0.367 100.000 100.000 0.147 0.263 4.03 3.69 1.257 1.644 2.340 2.763 12.940 0.205 0.318 0.472 0.307 0.395 0.205 0.307 4.03 4.03 0.4050   0.102 0.308 0.433 0.171 0.356 0.102 0.171     318     0.0480 340.30 0.04   0.000 0.000 6.173 6.173 0.000 6.226 6.226 0.000
WS7MET_125 2018-04-18 05:45:00 125 30483.0 0.140 0.292 0.428 0.234 0.343 100.000 100.000 0.140 0.234 2.69 2.69 1.262 1.644 2.340 2.763 12.940 0.205 0.308 0.443 0.273 0.356 0.205 0.273 2.69 2.69 0.5880   0.068 0.279 0.414 0.171 0.318 0.068 0.171     318     0.2540 326.20 17.23   0.000 0.000 6.170 6.170 -0.000 6.213 6.213 0.000
WS7MET_125 2018-04-18 05:40:00 125 30483.0 0.137 0.281 0.417 0.236 0.325 100.000 100.000 0.137 0.236 1.54 1.34 1.259 1.647 2.340 2.763 12.950 0.239 0.289 0.433 0.273 0.346 0.239 0.273 2.69 1.34 0.4970   0.068 0.279 0.414 0.205 0.308 0.068 0.205     318     0.3740 332.00 10.21   0.000 0.000 6.169 6.169 0.000 6.213 6.213 -0.000
WS7MET_125 2018-04-18 05:35:00 125 30483.0 0.106 0.279 0.433 0.248 0.353 100.000 100.000 0.106 0.248 1.28 1.07 1.260 1.647 2.340 2.763 12.950 0.171 0.289 0.433 0.342 0.356 0.171 0.342 1.34 1.34 0.4250   0.034 0.279 0.424 0.171 0.346 0.034 0.171     318     0.3220 334.20 4.77   0.000 0.000 6.155 6.155 -0.000 6.219 6.219 0.000
WS7MET_125 2018-04-18 05:30:00 125 30483.0 0.099 0.278 0.428 0.243 0.353 100.000 100.000 0.099 0.243 0.00 0.00 1.262 1.647 2.340 2.764 12.950 0.171 0.289 0.433 0.273 0.356 0.171 0.274 0.00 0.00 0.4970   0.000 0.260 0.414 0.171 0.346 0.000 0.171     318     0.3850 350.60 4.84   0.000 0.000 6.152 6.152 0.000 6.217 6.217 0.000
WS7MET_125 2018-04-18 05:25:00 125 30483.0 0.076 0.243 0.390 0.217 0.321 100.000 100.000 0.076 0.217 0.00 0.00 1.261 1.647 2.340 2.763 12.950 0.171 0.260 0.404 0.308 0.346 0.172 0.308 0.00 0.00 0.4510   0.001 0.231 0.375 0.137 0.318 0.001 0.137     318     0.2210 336.90 1.37   0.000 0.000 6.142 6.142 0.000 6.205 6.205 -0.000
WS7MET_125 2018-04-18 05:20:00 125 30483.0 0.082 0.224 0.360 0.166 0.283 100.000 100.000 0.082 0.166 0.00 0.00 1.262 1.647 2.340 2.763 12.960 0.171 0.231 0.375 0.239 0.318 0.171 0.239 0.00 0.00 0.4640   0.000 0.221 0.346 0.137 0.260 0.000 0.137     318     0.2690 340.10 7.65   0.000 0.000 6.144 6.144 0.000 6.182 6.182 0.000
WS7MET_125 2018-04-18 05:15:00 125 30483.0 0.082 0.229 0.365 0.185 0.274 100.000 100.000 0.082 0.185 0.00 0.00 1.262 1.647 2.340 2.763 12.960 0.137 0.240 0.375 0.239 0.298 0.137 0.239 0.00 0.00 0.3530   0.034 0.221 0.346 0.103 0.260 0.034 0.103     318     0.2210 322.30 3.16   0.000 0.000 6.144 6.144 0.000 6.191 6.191 0.000
WS7MET_125 2018-04-18 05:10:00 125 30483.0 0.059 0.228 0.368 0.173 0.301 100.000 100.000 0.059 0.173 0.00 0.00 1.262 1.647 2.340 2.763 12.960 0.137 0.240 0.375 0.240 0.318 0.137 0.240 0.00 0.00 0.3070   -0.034 0.221 0.356 0.103 0.279 -0.034 0.103     318     0.2080 340.30 3.26   0.000 0.000 6.134 6.134 0.000 6.185 6.185 0.000
WS7MET_125 2018-04-18 05:05:00 125 30483.0 0.050 0.206 0.343 0.154 0.266 100.000 100.000 0.050 0.154 0.00 0.00 1.262 1.647 2.340 2.763 12.970 0.171 0.221 0.356 0.239 0.279 0.171 0.240 0.00 0.00 0.3530   -0.034 0.192 0.318 0.103 0.240 -0.034 0.103     318     0.1600 342.30 1.55   0.000 0.000 6.130 6.130 -0.000 6.177 6.177 0.000
WS7MET_125 2018-04-18 05:00:00 125 30483.0 0.077 0.203 0.337 0.157 0.243 100.000 100.000 0.077 0.157 0.00 0.00 1.262 1.647 2.340 2.763 12.970 0.137 0.221 0.356 0.239 0.298 0.137 0.239 0.00 0.00 0.0000   0.000 0.182 0.318 0.068 0.202 0.000 0.068     318     0.0000 0.00 0.00   0.000 0.000 6.142 6.142 0.000 6.178 6.178 0.000
WS7MET_125 2018-04-18 04:55:00 125 30483.0 0.063 0.221 0.356 0.176 0.277 100.000 100.000 0.063 0.176 0.00 0.00 1.262 1.647 2.341 2.763 12.970 0.102 0.221 0.356 0.239 0.279 0.102 0.239 0.00 0.00 0.4440   0.000 0.211 0.356 0.102 0.269 0.000 0.102     318     0.2470 336.10 9.43   0.000 0.000 6.136 6.136 0.000 6.186 6.186 0.000
WS7MET_125 2018-04-18 04:50:00 125 30483.0 0.072 0.229 0.369 0.179 0.292 100.000 100.000 0.072 0.179 0.00 0.00 1.262 1.647 2.340 2.764 12.970 0.137 0.240 0.375 0.205 0.308 0.137 0.205 0.00 0.00 0.3530   0.034 0.221 0.356 0.137 0.269 0.034 0.137     318     0.0830 336.70 0.04   0.000 0.000 6.140 6.140 0.000 6.188 6.188 0.000
WS7MET_125 2018-04-18 04:45:00 125 30483.0 0.065 0.214 0.355 0.172 0.287 100.000 100.000 0.065 0.173 0.00 0.00 1.262 1.647 2.342 2.763 12.970 0.137 0.231 0.375 0.205 0.298 0.137 0.205 0.00 0.00 0.4510   0.000 0.202 0.337 0.137 0.260 0.000 0.137     318     0.3180 335.50 2.22   0.000 0.000 6.137 6.137 0.000 6.185 6.185 0.000
WS7MET_125 2018-04-18 04:40:00 125 30483.0 0.067 0.215 0.346 0.178 0.265 100.000 100.000 0.067 0.178 0.00 0.00 1.262 1.647 2.341 2.763 12.980 0.171 0.221 0.356 0.239 0.279 0.171 0.239 0.00 0.00 0.4050   0.000 0.202 0.337 0.102 0.260 0.000 0.103     318     0.3010 330.20 1.22   0.000 0.000 6.138 6.138 0.000 6.187 6.187 0.000
WS7MET_125 2018-04-18 04:35:00 125 30483.0 0.070 0.221 0.358 0.190 0.281 100.000 100.000 0.070 0.190 0.00 0.00 1.262 1.648 2.344 2.763 12.980 0.171 0.221 0.366 0.273 0.289 0.171 0.273 0.00 0.00 0.3200   0.034 0.221 0.356 0.103 0.279 0.034 0.103     318     0.2240 321.00 4.05   0.000 0.000 6.139 6.139 0.000 6.193 6.193 0.000
WS7MET_125 2018-04-18 04:30:00 125 30483.0 0.067 0.215 0.356 0.192 0.278 100.000 100.000 0.067 0.192 0.00 0.00 1.262 1.647 2.344 2.764 12.980 0.137 0.221 0.356 0.274 0.279 0.137 0.274 0.00 0.00 0.3660   0.000 0.211 0.356 0.137 0.269 0.000 0.137     318     0.2990 344.30 5.30   0.000 0.000 6.138 6.138 0.000 6.194 6.194 0.000
WS7MET_125 2018-04-18 04:25:00 125 30483.0 0.055 0.192 0.333 0.171 0.237 100.000 100.000 0.055 0.172 0.00 0.00 1.262 1.649 2.351 2.764 12.990 0.103 0.211 0.346 0.240 0.279 0.104 0.240 0.00 0.00 0.3850   -0.033 0.182 0.318 0.137 0.221 -0.033 0.137     318     0.2730 349.40 0.12   0.000 0.000 6.132 6.132 0.000 6.184 6.185 0.000
WS7MET_125 2018-04-18 04:20:00 125 30483.0 0.088 0.228 0.371 0.197 0.285 100.000 100.000 0.088 0.197 0.00 0.00 1.262 1.648 2.351 2.764 12.990 0.172 0.240 0.385 0.308 0.318 0.172 0.308 0.00 0.00 0.2030   0.035 0.202 0.346 0.137 0.221 0.035 0.137     318     0.0230 330.50 0.00   0.000 0.000 6.147 6.147 0.000 6.196 6.196 0.000
WS7MET_125 2018-04-18 04:15:00 125 30483.0 0.077 0.239 0.386 0.210 0.327 100.000 100.000 0.077